GFSSW_prec_precacc_024.txt.gz
Total_Precipitation_Accumulation
0.01 0.01 0.01 0.02 0.01 0.01 0.01 0.01 0.01 0.01 0.01 0.01 0.02 0.02 0.02 0.02 0.00 0.00 0.00 0.00 0.00 0.00 0.00 0.00 0.00 0.00 0.00 0.00 0.00 0.00 0.00 0.00 0.00 0.02 0.09 0.13 0.07 0.01 0.01 0.00 0.09 0.13 0.02 0.04 0.01
0.02 0.02 0.02 0.02 0.02 0.01 0.02 0.01 0.01 0.01 0.01 0.02 0.01 0.01 0.02 0.03 0.00 0.00 0.00 0.00 0.00 0.00 0.00 0.00 0.00 0.00 0.00 0.00 0.00 0.00 0.00 0.00 0.00 0.01 0.11 0.15 0.01 0.01 0.01 0.00 0.02 0.01 0.00 0.00 0.01
0.02 0.02 0.02 0.03 0.02 0.02 0.02 0.01 0.02 0.02 0.02 0.01 0.01 0.02 0.02 0.01 0.00 0.00 0.00 0.00 0.00 0.00 0.00 0.00 0.00 0.00 0.00 0.00 0.00 0.00 0.00 0.00 0.00 0.01 0.10 0.02 0.00 0.00 0.02 0.01 0.02 0.20 0.03 0.01 0.02
0.02 0.02 0.02 0.02 0.02 0.02 0.02 0.01 0.02 0.02 0.01 0.02 0.02 0.02 0.02 0.00 0.00 0.00 0.00 0.00 0.00 0.00 0.00 0.00 0.00 0.00 0.00 0.00 0.00 0.00 0.00 0.00 0.00 0.00 0.02 0.02 0.00 0.00 0.05 0.43 0.20 0.07 0.02 0.00 0.00
0.02 0.02 0.02 0.02 0.03 0.02 0.02 0.02 0.02 0.02 0.02 0.02 0.02 0.02 0.01 0.00 0.00 0.00 0.00 0.00 0.00 0.00 0.00 0.00 0.00 0.00 0.00 0.00 0.00 0.00 0.00 0.00 0.01 0.01 0.00 0.00 0.00 0.01 0.03 0.01 0.04 0.07 0.00 0.00 0.00
0.02 0.02 0.02 0.03 0.02 0.02 0.02 0.02 0.02 0.02 0.02 0.02 0.02 0.02 0.00 0.00 0.00 0.00 0.00 0.00 0.00 0.00 0.00 0.00 0.00 0.00 0.00 0.00 0.00 0.00 0.00 0.00 0.00 0.00 0.00 0.00 0.00 0.02 0.02 0.03 0.02 0.01 0.00 0.00 0.00
0.02 0.02 0.02 0.02 0.02 0.02 0.02 0.02 0.02 0.02 0.02 0.02 0.02 0.01 0.00 0.00 0.00 0.00 0.00 0.00 0.00 0.00 0.00 0.00 0.00 0.00 0.00 0.00 0.00 0.00 0.00 0.00 0.00 0.00 0.00 0.00 0.00 0.00 0.01 0.01 0.00 0.00 0.00 0.00 0.00
0.02 0.02 0.02 0.02 0.02 0.02 0.02 0.02 0.02 0.02 0.03 0.03 0.02 0.00 0.00 0.00 0.00 0.00 0.00 0.00 0.00 0.00 0.00 0.00 0.00 0.00 0.00 0.00 0.00 0.00 0.00 0.00 0.00 0.00 0.00 0.00 0.00 0.00 0.00 0.00 0.00 0.00 0.00 0.00 0.00
0.01 0.01 0.01 0.01 0.02 0.02 0.02 0.02 0.02 0.03 0.03 0.02 0.01 0.00 0.00 0.00 0.00 0.00 0.00 0.02 0.00 0.00 0.00 0.00 0.00 0.00 0.00 0.00 0.00 0.00 0.00 0.00 0.00 0.00 0.00 0.00 0.00 0.00 0.00 0.00 0.00 0.00 0.00 0.00 0.00
0.01 0.01 0.01 0.01 0.01 0.02 0.02 0.02 0.02 0.02 0.01 0.00 0.00 0.00 0.00 0.00 0.00 0.00 0.00 0.02 0.01 0.00 0.00 0.00 0.00 0.00 0.00 0.00 0.00 0.00 0.00 0.00 0.00 0.00 0.00 0.00 0.00 0.00 0.00 0.00 0.00 0.00 0.00 0.00 0.00
0.01 0.01 0.00 0.00 0.01 0.01 0.01 0.01 0.00 0.00 0.00 0.00 0.00 0.00 0.00 0.00 0.00 0.00 0.00 0.00 0.00 0.00 0.00 0.00 0.00 0.00 0.00 0.00 0.00 0.00 0.00 0.00 0.00 0.00 0.00 0.00 0.00 0.00 0.00 0.00 0.00 0.00 0.00 0.00 0.00
0.00 0.00 0.00 0.00 0.01 0.01 0.00 0.00 0.00 0.00 0.00 0.00 0.00 0.00 0.00 0.00 0.00 0.00 0.00 0.00 0.00 0.00 0.00 0.00 0.00 0.00 0.00 0.00 0.00 0.00 0.00 0.00 0.00 0.00 0.00 0.00 0.00 0.00 0.00 0.00 0.00 0.00 0.00 0.00 0.00
0.00 0.00 0.00 0.01 0.01 0.01 0.00 0.00 0.00 0.00 0.00 0.00 0.00 0.00 0.00 0.00 0.00 0.00 0.00 0.00 0.00 0.00 0.00 0.00 0.00 0.00 0.00 0.00 0.00 0.00 0.00 0.00 0.00 0.00 0.00 0.00 0.00 0.00 0.00 0.00 0.00 0.00 0.00 0.00 0.00
0.00 0.00 0.00 0.01 0.00 0.00 0.00 0.00 0.00 0.00 0.00 0.00 0.00 0.00 0.00 0.00 0.00 0.00 0.00 0.00 0.00 0.00 0.01 0.00 0.00 0.00 0.00 0.00 0.00 0.00 0.00 0.00 0.00 0.00 0.00 0.00 0.00 0.02 0.01 0.00 0.00 0.00 0.00 0.00 0.00
0.00 0.00 0.00 0.00 0.00 0.00 0.00 0.00 0.00 0.00 0.01 0.00 0.00 0.00 0.00 0.00 0.00 0.00 0.00 0.00 0.00 0.00 0.00 0.02 0.00 0.00 0.00 0.00 0.00 0.01 0.00 0.00 0.00 0.00 0.05 0.02 0.01 0.03 0.02 0.00 0.00 0.00 0.00 0.00 0.00
0.00 0.00 0.01 0.00 0.00 0.00 0.00 0.00 0.00 0.03 0.03 0.00 0.00 0.00 0.00 0.00 0.00 0.00 0.00 0.00 0.00 0.00 0.00 0.00 0.00 0.00 0.00 0.00 0.00 0.00 0.00 0.00 0.00 0.00 0.01 0.01 0.02 0.02 0.02 0.01 0.03 0.00 0.00 0.00 0.00
0.00 0.00 0.01 0.00 0.00 0.00 0.00 0.00 0.01 0.00 0.00 0.00 0.00 0.00 0.00 0.00 0.00 0.00 0.00 0.00 0.00 0.00 0.00 0.00 0.00 0.00 0.00 0.00 0.00 0.00 0.00 0.00 0.04 0.02 0.01 0.03 0.02 0.04 0.01 0.05 0.15 0.05 0.00 0.00 0.00
0.00 0.00 0.01 0.00 0.00 0.00 0.01 0.02 0.00 0.00 0.00 0.00 0.00 0.00 0.00 0.00 0.00 0.00 0.00 0.00 0.00 0.00 0.00 0.00 0.01 0.00 0.00 0.00 0.01 0.00 0.00 0.00 0.06 0.02 0.01 0.01 0.00 0.00 0.00 0.00 0.00 0.00 0.00 0.00 0.00
0.00 0.01 0.01 0.00 0.00 0.00 0.03 0.02 0.00 0.00 0.00 0.00 0.00 0.00 0.00 0.00 0.00 0.00 0.00 0.00 0.00 0.00 0.01 0.04 0.01 0.00 0.00 0.00 0.00 0.00 0.00 0.00 0.00 0.00 0.00 0.00 0.00 0.00 0.00 0.00 0.00 0.00 0.00 0.00 0.00
0.00 0.00 0.00 0.00 0.00 0.00 0.04 0.00 0.00 0.00 0.00 0.00 0.00 0.00 0.00 0.00 0.00 0.00 0.00 0.00 0.00 0.00 0.00 0.06 0.07 0.00 0.00 0.00 0.00 0.00 0.00 0.00 0.00 0.00 0.00 0.00 0.00 0.00 0.00 0.00 0.00 0.00 0.00 0.00 0.00
0.00 0.00 0.00 0.00 0.00 0.02 0.01 0.00 0.00 0.00 0.00 0.00 0.00 0.00 0.00 0.00 0.00 0.00 0.00 0.00 0.00 0.00 0.00 0.00 0.00 0.00 0.00 0.00 0.00 0.00 0.00 0.00 0.00 0.00 0.00 0.00 0.00 0.00 0.00 0.00 0.00 0.00 0.00 0.00 0.00
0.00 0.00 0.01 0.00 0.00 0.01 0.00 0.00 0.00 0.00 0.00 0.00 0.00 0.00 0.00 0.00 0.00 0.00 0.00 0.00 0.00 0.00 0.00 0.00 0.00 0.00 0.00 0.00 0.00 0.00 0.00 0.00 0.00 0.00 0.00 0.00 0.00 0.00 0.00 0.00 0.00 0.00 0.00 0.00 0.00
0.00 0.08 0.08 0.00 0.02 0.01 0.00 0.00 0.00 0.00 0.00 0.00 0.00 0.00 0.00 0.00 0.00 0.00 0.00 0.00 0.00 0.00 0.00 0.00 0.00 0.00 0.00 0.00 0.00 0.00 0.00 0.00 0.00 0.00 0.00 0.00 0.00 0.00 0.00 0.00 0.00 0.00 0.00 0.00 0.00
0.01 0.09 0.13 0.04 0.00 0.00 0.00 0.00 0.00 0.00 0.00 0.00 0.00 0.00 0.00 0.00 0.00 0.00 0.00 0.00 0.00 0.00 0.00 0.00 0.00 0.00 0.00 0.00 0.00 0.00 0.00 0.00 0.00 0.00 0.00 0.00 0.00 0.00 0.00 0.00 0.00 0.00 0.00 0.00 0.00
0.02 0.01 0.02 0.02 0.00 0.00 0.00 0.00 0.00 0.00 0.00 0.00 0.00 0.00 0.00 0.00 0.00 0.00 0.00 0.00 0.00 0.00 0.00 0.00 0.00 0.00 0.00 0.00 0.00 0.00 0.00 0.00 0.00 0.00 0.00 0.00 0.00 0.00 0.00 0.00 0.00 0.00 0.00 0.00 0.00
0.01 0.00 0.00 0.00 0.00 0.00 0.00 0.00 0.00 0.00 0.00 0.00 0.00 0.00 0.00 0.00 0.00 0.00 0.00 0.00 0.00 0.00 0.00 0.00 0.00 0.00 0.00 0.00 0.00 0.00 0.00 0.00 0.00 0.00 0.00 0.00 0.00 0.00 0.00 0.00 0.00 0.00 0.00 0.00 0.00
0.02 0.00 0.00 0.02 0.00 0.00 0.00 0.00 0.00 0.00 0.00 0.00 0.00 0.00 0.00 0.00 0.00 0.00 0.00 0.00 0.00 0.00 0.00 0.00 0.00 0.00 0.00 0.00 0.00 0.00 0.00 0.00 0.00 0.00 0.00 0.00 0.00 0.00 0.00 0.00 0.00 0.00 0.00 0.00 0.00

GFSSW_prec_precacc_027.txt.gz
Total_Precipitation_Accumulation
0.01 0.01 0.01 0.02 0.01 0.01 0.01 0.01 0.01 0.01 0.01 0.01 0.02 0.02 0.02 0.02 0.00 0.00 0.00 0.00 0.00 0.00 0.00 0.00 0.00 0.00 0.00 0.00 0.00 0.00 0.00 0.00 0.00 0.02 0.11 0.18 0.27 0.20 0.04 0.01 0.09 0.15 0.12 0.41 0.27
0.02 0.02 0.02 0.02 0.02 0.01 0.02 0.01 0.01 0.01 0.01 0.02 0.01 0.01 0.02 0.03 0.00 0.00 0.00 0.00 0.00 0.00 0.00 0.00 0.00 0.00 0.00 0.00 0.00 0.00 0.00 0.00 0.00 0.01 0.12 0.16 0.03 0.10 0.07 0.00 0.03 0.35 0.55 0.26 0.09
0.02 0.02 0.02 0.03 0.02 0.02 0.02 0.01 0.02 0.02 0.02 0.01 0.01 0.02 0.02 0.01 0.00 0.00 0.00 0.00 0.00 0.00 0.00 0.00 0.00 0.00 0.00 0.00 0.00 0.00 0.00 0.00 0.00 0.01 0.10 0.02 0.01 0.00 0.02 0.02 0.02 0.73 0.68 0.24 0.16
0.02 0.02 0.02 0.02 0.02 0.02 0.02 0.01 0.02 0.02 0.01 0.02 0.02 0.02 0.02 0.00 0.00 0.00 0.00 0.00 0.00 0.00 0.00 0.00 0.00 0.00 0.00 0.00 0.00 0.00 0.00 0.00 0.00 0.00 0.02 0.04 0.05 0.01 0.06 0.43 0.21 0.24 0.29 0.16 0.24
0.02 0.02 0.02 0.02 0.03 0.02 0.02 0.02 0.02 0.02 0.02 0.02 0.02 0.02 0.01 0.00 0.00 0.00 0.00 0.00 0.00 0.00 0.00 0.00 0.00 0.00 0.00 0.00 0.00 0.00 0.00 0.00 0.01 0.01 0.00 0.01 0.03 0.02 0.03 0.01 0.06 0.13 0.11 0.10 0.09
0.02 0.02 0.02 0.03 0.02 0.02 0.02 0.02 0.02 0.02 0.02 0.02 0.02 0.02 0.00 0.00 0.00 0.00 0.00 0.00 0.00 0.00 0.00 0.00 0.00 0.00 0.00 0.00 0.00 0.00 0.00 0.00 0.00 0.00 0.00 0.00 0.00 0.02 0.05 0.05 0.04 0.04 0.02 0.02 0.02
0.02 0.02 0.02 0.02 0.02 0.02 0.02 0.02 0.02 0.02 0.02 0.02 0.02 0.01 0.00 0.00 0.00 0.00 0.00 0.00 0.00 0.00 0.00 0.00 0.00 0.00 0.00 0.00 0.00 0.00 0.00 0.00 0.00 0.00 0.00 0.00 0.00 0.00 0.05 0.04 0.01 0.01 0.00 0.02 0.00
0.02 0.02 0.02 0.02 0.02 0.02 0.02 0.02 0.02 0.02 0.03 0.03 0.02 0.00 0.00 0.00 0.00 0.00 0.00 0.00 0.00 0.00 0.00 0.00 0.00 0.00 0.00 0.00 0.00 0.00 0.00 0.00 0.00 0.00 0.00 0.00 0.00 0.00 0.01 0.01 0.00 0.00 0.00 0.00 0.00
0.01 0.01 0.01 0.01 0.02 0.02 0.02 0.02 0.02 0.03 0.03 0.02 0.01 0.00 0.00 0.00 0.00 0.00 0.00 0.02 0.00 0.00 0.00 0.00 0.00 0.00 0.00 0.00 0.00 0.00 0.00 0.00 0.00 0.00 0.00 0.00 0.00 0.00 0.00 0.00 0.00 0.01 0.00 0.00 0.00
0.01 0.01 0.01 0.01 0.01 0.02 0.02 0.02 0.02 0.02 0.01 0.00 0.00 0.00 0.00 0.00 0.00 0.00 0.00 0.02 0.01 0.00 0.00 0.00 0.00 0.00 0.00 0.00 0.00 0.00 0.00 0.00 0.00 0.00 0.00 0.00 0.00 0.00 0.00 0.00 0.00 0.00 0.00 0.00 0.00
0.01 0.01 0.00 0.00 0.01 0.01 0.01 0.01 0.00 0.00 0.00 0.00 0.00 0.00 0.00 0.00 0.00 0.00 0.00 0.00 0.00 0.00 0.01 0.00 0.00 0.00 0.00 0.00 0.00 0.00 0.00 0.00 0.00 0.00 0.00 0.00 0.00 0.00 0.00 0.00 0.00 0.02 0.01 0.00 0.00
0.00 0.00 0.00 0.00 0.01 0.01 0.00 0.00 0.00 0.00 0.00 0.00 0.00 0.00 0.00 0.00 0.00 0.00 0.00 0.00 0.00 0.00 0.01 0.00 0.00 0.00 0.00 0.00 0.00 0.00 0.00 0.00 0.00 0.00 0.00 0.00 0.00 0.00 0.00 0.00 0.00 0.00 0.00 0.00 0.00
0.00 0.00 0.00 0.01 0.01 0.01 0.00 0.00 0.00 0.00 0.00 0.00 0.00 0.00 0.00 0.00 0.00 0.00 0.00 0.00 0.00 0.00 0.00 0.00 0.00 0.00 0.00 0.00 0.00 0.00 0.00 0.00 0.00 0.00 0.00 0.00 0.00 0.00 0.00 0.00 0.00 0.00 0.00 0.00 0.00
0.01 0.00 0.00 0.01 0.00 0.00 0.00 0.00 0.00 0.00 0.00 0.00 0.00 0.00 0.00 0.00 0.00 0.00 0.00 0.00 0.00 0.00 0.01 0.00 0.00 0.00 0.00 0.00 0.00 0.00 0.00 0.00 0.00 0.00 0.00 0.00 0.00 0.02 0.01 0.00 0.00 0.00 0.00 0.00 0.00
0.01 0.00 0.00 0.00 0.00 0.00 0.00 0.00 0.00 0.00 0.01 0.00 0.00 0.00 0.00 0.00 0.00 0.00 0.00 0.00 0.00 0.00 0.01 0.02 0.00 0.00 0.00 0.00 0.00 0.01 0.00 0.00 0.00 0.00 0.05 0.02 0.01 0.03 0.02 0.00 0.00 0.00 0.00 0.00 0.00
0.01 0.00 0.01 0.00 0.00 0.00 0.00 0.00 0.00 0.04 0.03 0.00 0.00 0.00 0.00 0.00 0.00 0.00 0.00 0.00 0.00 0.00 0.00 0.00 0.00 0.01 0.01 0.00 0.00 0.00 0.00 0.00 0.00 0.00 0.01 0.01 0.02 0.03 0.02 0.01 0.04 0.02 0.00 0.00 0.00
0.01 0.00 0.01 0.00 0.00 0.00 0.00 0.02 0.01 0.00 0.00 0.00 0.00 0.00 0.00 0.00 0.00 0.00 0.00 0.00 0.00 0.00 0.00 0.00 0.00 0.00 0.00 0.00 0.00 0.00 0.00 0.00 0.04 0.02 0.01 0.03 0.03 0.04 0.01 0.06 0.16 0.09 0.00 0.00 0.00
0.02 0.01 0.01 0.00 0.00 0.00 0.03 0.06 0.01 0.00 0.00 0.00 0.00 0.00 0.00 0.00 0.00 0.00 0.00 0.00 0.00 0.00 0.00 0.00 0.01 0.00 0.00 0.00 0.01 0.00 0.00 0.00 0.07 0.03 0.01 0.02 0.02 0.00 0.00 0.00 0.00 0.00 0.00 0.00 0.00
0.04 0.02 0.01 0.00 0.00 0.00 0.05 0.04 0.00 0.00 0.00 0.00 0.00 0.00 0.00 0.00 0.00 0.00 0.00 0.00 0.00 0.00 0.01 0.04 0.01 0.01 0.00 0.00 0.00 0.00 0.00 0.00 0.00 0.00 0.00 0.00 0.01 0.00 0.00 0.00 0.00 0.00 0.00 0.00 0.00
0.02 0.01 0.00 0.00 0.00 0.00 0.05 0.01 0.00 0.00 0.00 0.00 0.00 0.00 0.00 0.00 0.00 0.00 0.00 0.00 0.00 0.00 0.00 0.06 0.16 0.03 0.00 0.00 0.00 0.00 0.00 0.00 0.00 0.00 0.00 0.00 0.00 0.01 0.00 0.01 0.00 0.00 0.00 0.00 0.00
0.02 0.00 0.00 0.00 0.00 0.03 0.02 0.00 0.00 0.00 0.00 0.00 0.00 0.00 0.00 0.00 0.00 0.00 0.00 0.00 0.00 0.00 0.00 0.00 0.02 0.03 0.00 0.00 0.00 0.00 0.00 0.00 0.00 0.00 0.00 0.00 0.00 0.00 0.00 0.00 0.00 0.00 0.00 0.00 0.00
0.03 0.01 0.01 0.00 0.00 0.01 0.00 0.00 0.00 0.00 0.00 0.00 0.00 0.00 0.00 0.00 0.00 0.00 0.00 0.00 0.00 0.00 0.00 0.00 0.00 0.00 0.00 0.00 0.00 0.00 0.01 0.01 0.00 0.00 0.00 0.00 0.00 0.00 0.00 0.00 0.00 0.00 0.00 0.00 0.00
0.04 0.11 0.11 0.00 0.02 0.01 0.00 0.00 0.00 0.00 0.00 0.00 0.00 0.00 0.00 0.00 0.00 0.00 0.00 0.00 0.00 0.00 0.00 0.00 0.00 0.00 0.00 0.00 0.00 0.00 0.00 0.00 0.00 0.00 0.00 0.00 0.00 0.00 0.00 0.00 0.00 0.00 0.00 0.00 0.00
0.02 0.13 0.23 0.07 0.00 0.00 0.00 0.00 0.00 0.00 0.00 0.00 0.00 0.00 0.00 0.00 0.00 0.00 0.00 0.00 0.00 0.00 0.00 0.00 0.00 0.00 0.00 0.00 0.00 0.00 0.00 0.00 0.00 0.00 0.00 0.00 0.00 0.00 0.00 0.00 0.00 0.00 0.00 0.00 0.00
0.04 0.01 0.04 0.03 0.00 0.00 0.00 0.00 0.00 0.00 0.00 0.00 0.00 0.00 0.00 0.00 0.00 0.00 0.00 0.00 0.00 0.00 0.00 0.00 0.00 0.00 0.00 0.00 0.00 0.00 0.00 0.00 0.00 0.00 0.00 0.00 0.00 0.00 0.00 0.00 0.00 0.00 0.00 0.00 0.00
0.05 0.00 0.00 0.01 0.00 0.00 0.00 0.00 0.00 0.00 0.00 0.00 0.00 0.00 0.00 0.00 0.00 0.00 0.00 0.00 0.00 0.00 0.00 0.00 0.00 0.00 0.00 0.00 0.00 0.00 0.00 0.00 0.00 0.00 0.00 0.00 0.00 0.00 0.00 0.00 0.00 0.00 0.00 0.00 0.00
0.04 0.00 0.00 0.02 0.00 0.00 0.00 0.00 0.00 0.00 0.00 0.00 0.00 0.00 0.00 0.00 0.00 0.00 0.00 0.00 0.00 0.00 0.00 0.00 0.00 0.00 0.00 0.00 0.00 0.00 0.00 0.00 0.00 0.00 0.00 0.00 0.00 0.00 0.00 0.00 0.00 0.00 0.00 0.00 0.00

GFSSW_prec_precacc_033.txt.gz
Total_Precipitation_Accumulation
0.01 0.01 0.01 0.02 0.01 0.01 0.01 0.01 0.01 0.01 0.02 0.02 0.02 0.02 0.02 0.02 0.00 0.00 0.00 0.00 0.00 0.00 0.00 0.00 0.00 0.00 0.00 0.00 0.00 0.00 0.00 0.00 0.00 0.02 0.13 0.21 0.32 0.21 0.05 0.01 0.11 0.20 0.25 0.54 0.38
0.02 0.02 0.02 0.02 0.02 0.01 0.02 0.01 0.01 0.01 0.02 0.02 0.01 0.01 0.02 0.03 0.00 0.00 0.00 0.00 0.00 0.00 0.00 0.00 0.00 0.00 0.00 0.00 0.00 0.00 0.00 0.00 0.00 0.01 0.12 0.16 0.03 0.10 0.07 0.00 0.05 0.41 0.88 0.47 0.18
0.02 0.02 0.02 0.03 0.02 0.02 0.02 0.02 0.02 0.02 0.02 0.02 0.01 0.02 0.02 0.01 0.00 0.00 0.00 0.00 0.00 0.00 0.00 0.00 0.00 0.00 0.00 0.00 0.00 0.00 0.00 0.00 0.00 0.01 0.10 0.02 0.01 0.00 0.02 0.02 0.04 0.77 1.01 0.42 0.26
0.02 0.02 0.02 0.02 0.02 0.02 0.02 0.01 0.02 0.02 0.01 0.02 0.02 0.02 0.02 0.00 0.00 0.00 0.00 0.00 0.00 0.00 0.00 0.00 0.00 0.00 0.00 0.00 0.00 0.00 0.00 0.00 0.00 0.00 0.02 0.04 0.05 0.01 0.06 0.44 0.22 0.24 0.31 0.32 0.50
0.02 0.02 0.02 0.02 0.03 0.02 0.02 0.02 0.02 0.02 0.02 0.02 0.02 0.02 0.01 0.00 0.00 0.00 0.00 0.00 0.00 0.00 0.00 0.00 0.00 0.00 0.00 0.00 0.00 0.00 0.00 0.00 0.01 0.01 0.01 0.01 0.03 0.02 0.03 0.02 0.06 0.14 0.14 0.26 0.31
0.02 0.02 0.02 0.03 0.02 0.02 0.02 0.02 0.02 0.02 0.02 0.02 0.02 0.02 0.00 0.00 0.00 0.00 0.00 0.00 0.00 0.00 0.00 0.00 0.00 0.00 0.00 0.00 0.00 0.00 0.00 0.00 0.00 0.00 0.00 0.00 0.00 0.02 0.06 0.06 0.06 0.04 0.06 0.11 0.05
0.02 0.02 0.02 0.02 0.02 0.02 0.02 0.02 0.02 0.02 0.02 0.02 0.02 0.01 0.00 0.00 0.00 0.00 0.00 0.00 0.00 0.00 0.00 0.00 0.00 0.00 0.00 0.00 0.00 0.00 0.00 0.00 0.00 0.01 0.00 0.00 0.00 0.00 0.05 0.05 0.02 0.01 0.04 0.10 0.01
0.02 0.02 0.02 0.02 0.02 0.02 0.02 0.02 0.02 0.02 0.03 0.03 0.02 0.00 0.00 0.00 0.00 0.00 0.00 0.00 0.00 0.00 0.00 0.00 0.00 0.00 0.00 0.00 0.00 0.00 0.00 0.00 0.00 0.01 0.00 0.00 0.00 0.00 0.01 0.02 0.02 0.02 0.02 0.01 0.00
0.01 0.01 0.01 0.01 0.02 0.02 0.02 0.02 0.02 0.03 0.03 0.02 0.01 0.00 0.00 0.00 0.00 0.00 0.00 0.02 0.00 0.00 0.00 0.00 0.00 0.00 0.00 0.00 0.00 0.00 0.00 0.00 0.00 0.00 0.00 0.00 0.00 0.00 0.01 0.02 0.01 0.01 0.00 0.00 0.00
0.01 0.01 0.01 0.01 0.01 0.02 0.02 0.02 0.02 0.02 0.01 0.00 0.00 0.00 0.00 0.00 0.00 0.00 0.00 0.02 0.01 0.00 0.00 0.00 0.00 0.00 0.00 0.00 0.00 0.00 0.00 0.00 0.00 0.00 0.00 0.00 0.00 0.00 0.00 0.02 0.01 0.01 0.00 0.00 0.00
0.01 0.01 0.00 0.00 0.01 0.01 0.01 0.01 0.00 0.00 0.00 0.00 0.00 0.00 0.00 0.00 0.00 0.00 0.00 0.00 0.00 0.00 0.01 0.00 0.00 0.00 0.00 0.00 0.00 0.00 0.00 0.00 0.00 0.00 0.00 0.00 0.00 0.00 0.00 0.01 0.01 0.03 0.01 0.01 0.00
0.00 0.00 0.00 0.00 0.01 0.01 0.00 0.00 0.00 0.00 0.00 0.00 0.00 0.00 0.00 0.00 0.00 0.00 0.00 0.00 0.00 0.00 0.01 0.00 0.00 0.00 0.00 0.00 0.00 0.00 0.00 0.00 0.00 0.00 0.00 0.00 0.00 0.00 0.00 0.00 0.00 0.00 0.00 0.00 0.00
0.00 0.00 0.00 0.01 0.01 0.01 0.00 0.00 0.00 0.00 0.00 0.00 0.00 0.00 0.00 0.00 0.00 0.00 0.00 0.00 0.00 0.00 0.00 0.00 0.00 0.00 0.00 0.00 0.00 0.00 0.00 0.00 0.00 0.00 0.00 0.00 0.00 0.00 0.00 0.00 0.00 0.00 0.00 0.00 0.00
0.01 0.00 0.01 0.01 0.00 0.00 0.00 0.00 0.00 0.00 0.00 0.00 0.00 0.00 0.00 0.00 0.00 0.00 0.00 0.00 0.00 0.00 0.01 0.00 0.00 0.00 0.00 0.00 0.00 0.00 0.00 0.00 0.00 0.00 0.00 0.00 0.00 0.02 0.01 0.00 0.00 0.00 0.01 0.00 0.00
0.01 0.01 0.02 0.00 0.00 0.00 0.00 0.00 0.00 0.00 0.01 0.00 0.00 0.00 0.00 0.00 0.00 0.00 0.00 0.00 0.00 0.00 0.01 0.02 0.00 0.00 0.00 0.00 0.00 0.01 0.00 0.00 0.00 0.00 0.05 0.02 0.01 0.03 0.02 0.00 0.00 0.00 0.00 0.00 0.00
0.01 0.02 0.05 0.00 0.00 0.00 0.00 0.00 0.01 0.04 0.03 0.00 0.00 0.00 0.00 0.00 0.00 0.00 0.00 0.00 0.00 0.00 0.00 0.00 0.00 0.01 0.01 0.00 0.00 0.00 0.00 0.00 0.00 0.00 0.01 0.01 0.02 0.03 0.02 0.01 0.04 0.02 0.00 0.00 0.00
0.02 0.03 0.05 0.00 0.00 0.00 0.00 0.03 0.02 0.00 0.00 0.00 0.00 0.00 0.00 0.00 0.00 0.00 0.00 0.00 0.00 0.00 0.00 0.00 0.00 0.00 0.00 0.00 0.00 0.00 0.00 0.00 0.04 0.02 0.01 0.03 0.03 0.05 0.01 0.06 0.16 0.09 0.00 0.00 0.00
0.03 0.05 0.04 0.00 0.00 0.00 0.03 0.08 0.01 0.00 0.00 0.00 0.00 0.00 0.00 0.00 0.00 0.00 0.00 0.00 0.00 0.00 0.00 0.00 0.01 0.00 0.00 0.00 0.01 0.00 0.00 0.00 0.07 0.03 0.01 0.02 0.02 0.01 0.00 0.00 0.00 0.00 0.00 0.00 0.00
0.06 0.08 0.06 0.01 0.00 0.00 0.06 0.05 0.00 0.00 0.00 0.00 0.00 0.00 0.00 0.00 0.00 0.00 0.00 0.00 0.00 0.00 0.01 0.04 0.01 0.01 0.00 0.00 0.00 0.00 0.00 0.00 0.00 0.00 0.00 0.00 0.01 0.00 0.00 0.00 0.00 0.00 0.00 0.00 0.00
0.07 0.08 0.02 0.00 0.00 0.00 0.06 0.01 0.00 0.00 0.00 0.00 0.00 0.00 0.00 0.00 0.00 0.00 0.00 0.00 0.00 0.00 0.00 0.06 0.16 0.03 0.00 0.00 0.00 0.00 0.00 0.00 0.00 0.00 0.00 0.00 0.00 0.01 0.00 0.01 0.00 0.00 0.00 0.00 0.00
0.10 0.07 0.01 0.00 0.01 0.04 0.03 0.00 0.00 0.00 0.00 0.00 0.00 0.00 0.00 0.00 0.00 0.00 0.00 0.00 0.00 0.00 0.00 0.00 0.02 0.03 0.00 0.00 0.00 0.00 0.00 0.00 0.00 0.00 0.00 0.00 0.00 0.00 0.00 0.00 0.00 0.00 0.00 0.00 0.00
0.12 0.06 0.02 0.01 0.04 0.01 0.00 0.00 0.00 0.00 0.00 0.00 0.00 0.00 0.00 0.00 0.00 0.00 0.00 0.00 0.00 0.00 0.00 0.00 0.00 0.00 0.00 0.00 0.00 0.00 0.01 0.03 0.00 0.00 0.00 0.00 0.00 0.00 0.00 0.00 0.00 0.00 0.00 0.00 0.00
0.13 0.17 0.15 0.01 0.03 0.01 0.00 0.00 0.00 0.00 0.00 0.00 0.00 0.00 0.00 0.00 0.00 0.00 0.00 0.00 0.00 0.00 0.00 0.00 0.00 0.00 0.00 0.00 0.00 0.00 0.00 0.00 0.00 0.00 0.00 0.00 0.00 0.00 0.00 0.00 0.00 0.00 0.00 0.00 0.00
0.12 0.24 0.40 0.15 0.00 0.00 0.00 0.00 0.00 0.00 0.00 0.00 0.00 0.00 0.00 0.00 0.00 0.00 0.00 0.00 0.00 0.00 0.00 0.00 0.00 0.00 0.00 0.00 0.00 0.00 0.00 0.00 0.00 0.00 0.00 0.00 0.00 0.00 0.00 0.00 0.00 0.00 0.00 0.00 0.00
0.20 0.06 0.08 0.07 0.00 0.00 0.00 0.00 0.00 0.00 0.00 0.00 0.00 0.00 0.00 0.00 0.00 0.00 0.00 0.00 0.00 0.00 0.00 0.00 0.00 0.00 0.00 0.00 0.00 0.00 0.00 0.00 0.00 0.00 0.00 0.00 0.00 0.00 0.00 0.00 0.00 0.00 0.00 0.00 0.00
0.26 0.04 0.02 0.01 0.00 0.00 0.00 0.00 0.00 0.00 0.00 0.00 0.00 0.00 0.00 0.00 0.00 0.00 0.00 0.00 0.00 0.00 0.00 0.00 0.00 0.00 0.00 0.00 0.00 0.00 0.00 0.00 0.00 0.00 0.00 0.00 0.00 0.00 0.00 0.00 0.00 0.00 0.00 0.00 0.00
0.23 0.02 0.05 0.03 0.00 0.00 0.00 0.00 0.00 0.00 0.00 0.00 0.00 0.00 0.00 0.00 0.00 0.00 0.00 0.00 0.00 0.00 0.00 0.00 0.00 0.00 0.00 0.00 0.00 0.00 0.00 0.00 0.00 0.00 0.00 0.00 0.00 0.00 0.00 0.00 0.00 0.00 0.00 0.00 0.00

GFSSW_prec_precacc_036.txt.gz
Total_Precipitation_Accumulation
0.01 0.01 0.01 0.02 0.01 0.01 0.01 0.01 0.01 0.01 0.02 0.02 0.02 0.02 0.02 0.03 0.00 0.00 0.00 0.00 0.00 0.00 0.00 0.00 0.00 0.00 0.00 0.00 0.00 0.00 0.00 0.00 0.00 0.02 0.13 0.21 0.32 0.21 0.05 0.01 0.12 0.27 0.31 0.60 0.46
0.02 0.02 0.02 0.02 0.02 0.01 0.02 0.01 0.01 0.01 0.02 0.02 0.01 0.01 0.02 0.03 0.00 0.00 0.00 0.00 0.00 0.00 0.00 0.00 0.00 0.00 0.00 0.00 0.00 0.00 0.00 0.00 0.00 0.01 0.12 0.16 0.03 0.10 0.07 0.01 0.06 0.46 0.92 0.51 0.20
0.02 0.02 0.02 0.03 0.02 0.02 0.02 0.02 0.02 0.02 0.02 0.02 0.02 0.02 0.02 0.01 0.00 0.00 0.00 0.00 0.00 0.00 0.00 0.00 0.00 0.00 0.00 0.00 0.00 0.00 0.00 0.00 0.00 0.01 0.10 0.02 0.01 0.00 0.02 0.02 0.04 0.78 1.02 0.46 0.30
0.02 0.02 0.02 0.02 0.02 0.02 0.02 0.01 0.02 0.02 0.01 0.02 0.02 0.02 0.02 0.00 0.00 0.00 0.00 0.00 0.00 0.00 0.00 0.00 0.00 0.00 0.00 0.00 0.00 0.00 0.00 0.00 0.00 0.00 0.02 0.04 0.05 0.01 0.06 0.44 0.22 0.25 0.31 0.33 0.53
0.02 0.02 0.02 0.02 0.03 0.02 0.02 0.02 0.02 0.02 0.02 0.02 0.02 0.02 0.01 0.00 0.00 0.00 0.00 0.00 0.00 0.00 0.00 0.00 0.00 0.00 0.00 0.00 0.00 0.00 0.00 0.00 0.01 0.01 0.01 0.01 0.04 0.02 0.03 0.02 0.06 0.14 0.15 0.27 0.31
0.02 0.02 0.02 0.03 0.02 0.02 0.02 0.02 0.02 0.02 0.02 0.02 0.02 0.02 0.00 0.00 0.00 0.00 0.00 0.00 0.00 0.00 0.00 0.00 0.00 0.00 0.00 0.00 0.00 0.00 0.00 0.00 0.00 0.00 0.00 0.00 0.00 0.02 0.06 0.06 0.06 0.04 0.06 0.11 0.05
0.03 0.03 0.02 0.02 0.02 0.02 0.02 0.02 0.02 0.02 0.02 0.02 0.02 0.01 0.00 0.00 0.00 0.00 0.00 0.00 0.00 0.00 0.00 0.00 0.00 0.00 0.00 0.00 0.00 0.00 0.00 0.00 0.00 0.01 0.00 0.00 0.00 0.00 0.05 0.05 0.02 0.01 0.04 0.10 0.01
0.02 0.02 0.02 0.02 0.02 0.02 0.02 0.02 0.02 0.02 0.03 0.03 0.02 0.00 0.00 0.00 0.00 0.00 0.00 0.00 0.00 0.00 0.00 0.00 0.00 0.00 0.00 0.00 0.00 0.00 0.00 0.00 0.00 0.01 0.00 0.00 0.00 0.00 0.01 0.02 0.02 0.02 0.02 0.01 0.00
0.01 0.01 0.01 0.01 0.02 0.02 0.02 0.02 0.02 0.03 0.03 0.02 0.01 0.00 0.00 0.00 0.00 0.00 0.00 0.02 0.00 0.00 0.00 0.00 0.00 0.00 0.00 0.00 0.00 0.00 0.00 0.00 0.00 0.00 0.00 0.00 0.00 0.00 0.01 0.02 0.01 0.01 0.00 0.00 0.00
0.01 0.01 0.01 0.01 0.01 0.02 0.02 0.02 0.02 0.02 0.01 0.00 0.00 0.00 0.00 0.00 0.00 0.00 0.00 0.02 0.01 0.00 0.00 0.00 0.00 0.00 0.00 0.00 0.00 0.00 0.00 0.00 0.01 0.01 0.00 0.00 0.00 0.00 0.00 0.03 0.01 0.01 0.00 0.00 0.00
0.01 0.01 0.00 0.01 0.01 0.01 0.01 0.01 0.00 0.00 0.00 0.00 0.00 0.00 0.00 0.00 0.00 0.00 0.00 0.00 0.00 0.00 0.01 0.00 0.00 0.00 0.00 0.00 0.00 0.00 0.00 0.00 0.00 0.00 0.00 0.00 0.00 0.00 0.00 0.01 0.01 0.03 0.01 0.01 0.00
0.00 0.00 0.00 0.01 0.02 0.01 0.00 0.00 0.00 0.00 0.00 0.00 0.00 0.00 0.00 0.00 0.00 0.00 0.00 0.00 0.00 0.00 0.01 0.00 0.00 0.00 0.00 0.00 0.00 0.00 0.00 0.00 0.00 0.00 0.00 0.00 0.00 0.00 0.00 0.00 0.00 0.00 0.00 0.00 0.00
0.00 0.00 0.01 0.03 0.02 0.01 0.00 0.00 0.00 0.00 0.00 0.00 0.00 0.00 0.00 0.00 0.00 0.00 0.00 0.00 0.00 0.00 0.00 0.00 0.00 0.00 0.00 0.00 0.00 0.00 0.00 0.00 0.00 0.00 0.00 0.00 0.00 0.00 0.00 0.00 0.00 0.00 0.00 0.00 0.00
0.01 0.01 0.03 0.04 0.01 0.00 0.00 0.00 0.00 0.00 0.00 0.00 0.00 0.00 0.00 0.00 0.00 0.00 0.00 0.00 0.00 0.00 0.01 0.00 0.00 0.00 0.00 0.00 0.00 0.00 0.00 0.00 0.00 0.00 0.00 0.00 0.00 0.02 0.01 0.00 0.00 0.00 0.01 0.00 0.00
0.01 0.01 0.04 0.02 0.00 0.00 0.00 0.00 0.00 0.00 0.01 0.00 0.00 0.00 0.00 0.00 0.00 0.00 0.00 0.00 0.00 0.00 0.01 0.02 0.00 0.00 0.00 0.00 0.00 0.01 0.00 0.00 0.00 0.00 0.05 0.02 0.01 0.03 0.02 0.00 0.00 0.00 0.00 0.00 0.00
0.02 0.02 0.06 0.03 0.00 0.00 0.00 0.00 0.01 0.04 0.03 0.00 0.00 0.00 0.00 0.00 0.00 0.00 0.00 0.00 0.00 0.00 0.00 0.00 0.00 0.01 0.01 0.00 0.00 0.00 0.00 0.00 0.00 0.00 0.01 0.01 0.02 0.03 0.02 0.01 0.04 0.02 0.00 0.00 0.00
0.02 0.03 0.05 0.00 0.00 0.00 0.00 0.03 0.03 0.00 0.00 0.00 0.00 0.00 0.00 0.00 0.00 0.00 0.00 0.00 0.00 0.00 0.00 0.00 0.00 0.00 0.00 0.00 0.00 0.00 0.00 0.00 0.04 0.02 0.01 0.03 0.03 0.05 0.01 0.06 0.16 0.09 0.00 0.00 0.00
0.03 0.05 0.04 0.01 0.00 0.00 0.03 0.10 0.01 0.00 0.00 0.00 0.00 0.00 0.00 0.00 0.00 0.00 0.00 0.00 0.00 0.00 0.00 0.00 0.01 0.00 0.00 0.00 0.01 0.00 0.00 0.00 0.07 0.03 0.01 0.02 0.02 0.01 0.00 0.00 0.00 0.00 0.00 0.00 0.00
0.07 0.09 0.08 0.01 0.00 0.00 0.07 0.06 0.00 0.00 0.00 0.00 0.00 0.00 0.00 0.00 0.00 0.00 0.00 0.00 0.00 0.00 0.01 0.04 0.01 0.01 0.00 0.00 0.00 0.00 0.00 0.00 0.00 0.00 0.00 0.00 0.01 0.00 0.00 0.00 0.00 0.00 0.00 0.00 0.00
0.09 0.09 0.03 0.00 0.00 0.01 0.07 0.01 0.00 0.00 0.00 0.00 0.00 0.00 0.00 0.00 0.00 0.00 0.00 0.00 0.00 0.00 0.00 0.06 0.16 0.03 0.00 0.00 0.00 0.00 0.00 0.00 0.00 0.00 0.00 0.00 0.00 0.01 0.00 0.01 0.00 0.00 0.00 0.00 0.00
0.13 0.08 0.01 0.00 0.05 0.10 0.03 0.00 0.00 0.00 0.00 0.00 0.00 0.00 0.00 0.00 0.00 0.00 0.00 0.00 0.00 0.00 0.00 0.00 0.02 0.03 0.00 0.00 0.00 0.00 0.00 0.00 0.00 0.00 0.00 0.00 0.00 0.00 0.00 0.00 0.00 0.00 0.00 0.00 0.00
0.15 0.07 0.02 0.02 0.09 0.03 0.00 0.00 0.00 0.00 0.00 0.00 0.00 0.00 0.00 0.00 0.00 0.00 0.00 0.00 0.00 0.00 0.00 0.00 0.00 0.00 0.00 0.00 0.00 0.00 0.01 0.03 0.00 0.00 0.00 0.00 0.00 0.00 0.00 0.00 0.00 0.00 0.00 0.00 0.00
0.18 0.19 0.20 0.03 0.04 0.01 0.00 0.00 0.00 0.00 0.00 0.00 0.00 0.00 0.00 0.00 0.00 0.00 0.00 0.00 0.00 0.00 0.00 0.00 0.00 0.00 0.00 0.00 0.00 0.00 0.00 0.00 0.00 0.00 0.00 0.00 0.00 0.00 0.00 0.00 0.00 0.00 0.00 0.00 0.00
0.18 0.26 0.49 0.22 0.00 0.00 0.00 0.00 0.00 0.00 0.00 0.00 0.00 0.00 0.00 0.00 0.00 0.00 0.00 0.00 0.00 0.00 0.00 0.00 0.00 0.00 0.00 0.00 0.00 0.00 0.00 0.00 0.00 0.00 0.00 0.00 0.00 0.00 0.00 0.00 0.00 0.00 0.00 0.00 0.00
0.28 0.07 0.10 0.11 0.00 0.00 0.00 0.00 0.00 0.00 0.00 0.00 0.00 0.00 0.00 0.00 0.00 0.00 0.00 0.00 0.00 0.00 0.00 0.00 0.00 0.00 0.00 0.00 0.00 0.00 0.00 0.00 0.00 0.00 0.00 0.00 0.00 0.00 0.00 0.00 0.00 0.00 0.00 0.00 0.00
0.42 0.05 0.04 0.01 0.00 0.00 0.00 0.00 0.00 0.00 0.00 0.00 0.00 0.00 0.00 0.00 0.00 0.00 0.00 0.00 0.00 0.00 0.00 0.00 0.00 0.00 0.00 0.00 0.00 0.00 0.00 0.00 0.00 0.00 0.00 0.00 0.00 0.00 0.00 0.00 0.00 0.00 0.00 0.00 0.00
0.35 0.03 0.06 0.04 0.01 0.00 0.00 0.00 0.00 0.00 0.00 0.00 0.00 0.00 0.00 0.00 0.00 0.00 0.00 0.00 0.00 0.00 0.00 0.00 0.00 0.00 0.00 0.00 0.00 0.00 0.00 0.00 0.00 0.00 0.00 0.00 0.00 0.00 0.00 0.00 0.00 0.00 0.00 0.00 0.00

GFSSW_prec_precacc_039.txt.gz
Total_Precipitation_Accumulation
0.01 0.01 0.01 0.02 0.01 0.01 0.01 0.01 0.01 0.01 0.02 0.02 0.02 0.02 0.02 0.03 0.00 0.00 0.00 0.00 0.00 0.00 0.00 0.00 0.00 0.00 0.00 0.00 0.00 0.00 0.00 0.00 0.00 0.02 0.13 0.21 0.32 0.21 0.05 0.01 0.12 0.28 0.32 0.62 0.48
0.02 0.02 0.02 0.02 0.02 0.01 0.02 0.01 0.01 0.01 0.02 0.02 0.01 0.01 0.02 0.03 0.00 0.00 0.00 0.00 0.00 0.00 0.00 0.00 0.00 0.00 0.00 0.00 0.00 0.00 0.00 0.00 0.00 0.01 0.12 0.16 0.03 0.10 0.07 0.01 0.06 0.47 0.94 0.54 0.26
0.03 0.02 0.02 0.03 0.02 0.02 0.02 0.02 0.02 0.02 0.02 0.02 0.02 0.02 0.02 0.01 0.00 0.00 0.00 0.00 0.00 0.00 0.00 0.00 0.00 0.00 0.00 0.00 0.00 0.00 0.00 0.00 0.00 0.01 0.11 0.03 0.01 0.01 0.02 0.02 0.04 0.81 1.11 0.55 0.34
0.02 0.02 0.02 0.02 0.02 0.02 0.02 0.01 0.02 0.02 0.01 0.02 0.02 0.02 0.02 0.00 0.00 0.00 0.00 0.00 0.00 0.00 0.00 0.00 0.00 0.00 0.00 0.00 0.00 0.00 0.00 0.00 0.00 0.00 0.02 0.04 0.06 0.02 0.06 0.44 0.22 0.26 0.34 0.40 0.57
0.02 0.02 0.02 0.02 0.03 0.02 0.02 0.02 0.02 0.02 0.02 0.02 0.02 0.02 0.01 0.00 0.00 0.00 0.00 0.00 0.00 0.00 0.00 0.00 0.00 0.00 0.00 0.00 0.00 0.00 0.00 0.00 0.01 0.01 0.01 0.01 0.04 0.02 0.03 0.02 0.06 0.14 0.15 0.29 0.32
0.02 0.02 0.02 0.03 0.02 0.02 0.02 0.02 0.02 0.02 0.02 0.02 0.02 0.02 0.00 0.00 0.00 0.00 0.00 0.00 0.00 0.00 0.00 0.00 0.00 0.00 0.00 0.00 0.00 0.00 0.00 0.00 0.01 0.00 0.00 0.00 0.00 0.02 0.06 0.06 0.06 0.04 0.06 0.11 0.06
0.03 0.03 0.02 0.02 0.02 0.02 0.02 0.02 0.02 0.02 0.02 0.02 0.02 0.01 0.00 0.00 0.00 0.00 0.00 0.00 0.00 0.00 0.00 0.00 0.00 0.00 0.00 0.00 0.00 0.00 0.00 0.00 0.00 0.01 0.00 0.00 0.00 0.00 0.05 0.05 0.02 0.01 0.04 0.10 0.01
0.02 0.02 0.02 0.02 0.02 0.02 0.02 0.02 0.02 0.02 0.03 0.03 0.02 0.00 0.00 0.00 0.00 0.00 0.00 0.00 0.00 0.00 0.00 0.00 0.00 0.00 0.00 0.00 0.00 0.00 0.00 0.00 0.00 0.01 0.00 0.00 0.00 0.00 0.01 0.02 0.02 0.02 0.02 0.01 0.00
0.01 0.01 0.01 0.02 0.02 0.02 0.02 0.02 0.02 0.03 0.03 0.02 0.01 0.00 0.00 0.00 0.00 0.00 0.00 0.02 0.00 0.00 0.00 0.00 0.00 0.00 0.00 0.00 0.00 0.00 0.00 0.00 0.00 0.00 0.00 0.00 0.00 0.00 0.01 0.02 0.01 0.01 0.00 0.00 0.00
0.01 0.01 0.01 0.01 0.02 0.03 0.02 0.02 0.02 0.02 0.01 0.00 0.00 0.00 0.00 0.00 0.00 0.00 0.00 0.02 0.01 0.00 0.00 0.00 0.00 0.00 0.00 0.00 0.00 0.00 0.00 0.00 0.01 0.02 0.00 0.00 0.00 0.00 0.00 0.03 0.01 0.01 0.00 0.00 0.00
0.01 0.01 0.00 0.01 0.02 0.03 0.01 0.01 0.00 0.00 0.00 0.00 0.00 0.00 0.00 0.00 0.00 0.00 0.00 0.00 0.00 0.00 0.01 0.00 0.00 0.00 0.00 0.00 0.00 0.00 0.00 0.00 0.00 0.00 0.00 0.00 0.00 0.00 0.00 0.01 0.01 0.03 0.01 0.01 0.00
0.00 0.00 0.00 0.01 0.04 0.03 0.00 0.00 0.00 0.00 0.00 0.00 0.00 0.00 0.00 0.00 0.00 0.00 0.00 0.00 0.00 0.00 0.01 0.00 0.00 0.00 0.00 0.00 0.00 0.00 0.00 0.00 0.00 0.00 0.00 0.00 0.00 0.00 0.00 0.00 0.00 0.00 0.00 0.00 0.00
0.01 0.00 0.01 0.04 0.04 0.01 0.00 0.00 0.00 0.00 0.00 0.00 0.00 0.00 0.00 0.00 0.00 0.00 0.00 0.00 0.00 0.00 0.00 0.00 0.00 0.00 0.00 0.00 0.00 0.00 0.00 0.00 0.00 0.00 0.00 0.00 0.00 0.00 0.00 0.00 0.00 0.00 0.00 0.00 0.00
0.01 0.01 0.03 0.05 0.01 0.00 0.00 0.00 0.00 0.00 0.00 0.00 0.00 0.00 0.00 0.00 0.00 0.00 0.00 0.00 0.00 0.00 0.01 0.00 0.00 0.00 0.00 0.00 0.00 0.00 0.00 0.00 0.00 0.00 0.00 0.00 0.00 0.02 0.01 0.00 0.00 0.00 0.01 0.00 0.00
0.02 0.02 0.04 0.03 0.00 0.00 0.00 0.00 0.00 0.00 0.01 0.00 0.00 0.00 0.00 0.00 0.00 0.00 0.00 0.00 0.00 0.00 0.01 0.02 0.00 0.00 0.00 0.00 0.00 0.01 0.00 0.00 0.00 0.00 0.05 0.02 0.01 0.03 0.02 0.00 0.00 0.00 0.00 0.00 0.00
0.02 0.03 0.06 0.04 0.01 0.00 0.00 0.00 0.01 0.04 0.03 0.00 0.00 0.00 0.00 0.00 0.00 0.00 0.00 0.00 0.00 0.00 0.00 0.00 0.00 0.01 0.01 0.00 0.00 0.00 0.00 0.00 0.00 0.00 0.01 0.01 0.02 0.03 0.02 0.01 0.04 0.02 0.00 0.00 0.00
0.03 0.04 0.06 0.01 0.00 0.00 0.00 0.04 0.03 0.00 0.00 0.00 0.00 0.00 0.00 0.00 0.00 0.00 0.00 0.00 0.00 0.00 0.00 0.00 0.00 0.00 0.00 0.00 0.00 0.00 0.00 0.00 0.04 0.02 0.01 0.03 0.03 0.05 0.01 0.06 0.16 0.09 0.00 0.00 0.00
0.04 0.06 0.05 0.01 0.00 0.00 0.03 0.10 0.02 0.00 0.00 0.00 0.00 0.00 0.00 0.00 0.00 0.00 0.00 0.00 0.00 0.00 0.00 0.00 0.01 0.00 0.00 0.00 0.01 0.00 0.00 0.00 0.07 0.03 0.01 0.02 0.02 0.01 0.00 0.00 0.00 0.00 0.00 0.00 0.00
0.09 0.09 0.08 0.01 0.00 0.00 0.08 0.07 0.00 0.00 0.00 0.00 0.00 0.00 0.00 0.00 0.00 0.00 0.00 0.00 0.00 0.00 0.01 0.04 0.01 0.01 0.00 0.00 0.00 0.00 0.00 0.00 0.00 0.00 0.00 0.00 0.01 0.00 0.00 0.00 0.00 0.00 0.00 0.00 0.00
0.11 0.11 0.04 0.00 0.01 0.04 0.09 0.01 0.00 0.00 0.00 0.00 0.00 0.00 0.00 0.00 0.00 0.00 0.00 0.00 0.00 0.00 0.00 0.06 0.16 0.03 0.00 0.00 0.00 0.00 0.00 0.00 0.00 0.00 0.00 0.00 0.00 0.01 0.00 0.01 0.00 0.00 0.00 0.00 0.00
0.15 0.10 0.01 0.01 0.10 0.18 0.05 0.00 0.00 0.00 0.00 0.00 0.00 0.00 0.00 0.00 0.00 0.00 0.00 0.00 0.00 0.00 0.00 0.00 0.02 0.03 0.00 0.00 0.00 0.00 0.00 0.00 0.00 0.00 0.00 0.00 0.00 0.00 0.00 0.00 0.00 0.00 0.00 0.00 0.00
0.19 0.08 0.02 0.02 0.14 0.06 0.01 0.00 0.00 0.00 0.00 0.00 0.00 0.00 0.00 0.00 0.00 0.00 0.00 0.00 0.00 0.00 0.00 0.00 0.00 0.00 0.00 0.00 0.00 0.00 0.01 0.03 0.00 0.00 0.00 0.00 0.00 0.00 0.00 0.00 0.00 0.00 0.00 0.00 0.00
0.24 0.22 0.26 0.04 0.05 0.01 0.00 0.00 0.00 0.00 0.00 0.00 0.00 0.00 0.00 0.00 0.00 0.00 0.00 0.00 0.00 0.00 0.00 0.00 0.00 0.00 0.00 0.00 0.00 0.00 0.00 0.00 0.00 0.00 0.00 0.00 0.00 0.00 0.00 0.00 0.00 0.00 0.00 0.00 0.00
0.24 0.31 0.63 0.28 0.00 0.00 0.00 0.00 0.00 0.00 0.00 0.00 0.00 0.00 0.00 0.00 0.00 0.00 0.00 0.00 0.00 0.00 0.00 0.00 0.00 0.00 0.00 0.00 0.00 0.00 0.00 0.00 0.00 0.00 0.00 0.00 0.00 0.00 0.00 0.00 0.00 0.00 0.00 0.00 0.00
0.41 0.11 0.14 0.12 0.01 0.00 0.00 0.00 0.00 0.00 0.00 0.00 0.00 0.00 0.00 0.00 0.00 0.00 0.00 0.00 0.00 0.00 0.00 0.00 0.00 0.00 0.00 0.00 0.00 0.00 0.00 0.00 0.00 0.00 0.00 0.00 0.00 0.00 0.00 0.00 0.00 0.00 0.00 0.00 0.00
0.55 0.06 0.04 0.02 0.00 0.00 0.00 0.00 0.00 0.00 0.00 0.00 0.00 0.00 0.00 0.00 0.00 0.00 0.00 0.00 0.00 0.00 0.00 0.00 0.00 0.00 0.00 0.00 0.00 0.00 0.00 0.00 0.00 0.00 0.00 0.00 0.00 0.00 0.00 0.00 0.00 0.00 0.00 0.00 0.00
0.40 0.03 0.07 0.04 0.01 0.00 0.00 0.00 0.00 0.00 0.00 0.00 0.00 0.00 0.00 0.00 0.00 0.00 0.00 0.00 0.00 0.00 0.00 0.00 0.00 0.00 0.00 0.00 0.00 0.00 0.00 0.00 0.00 0.00 0.00 0.00 0.00 0.00 0.00 0.00 0.00 0.00 0.00 0.00 0.00

GFSSW_prec_precacc_042.txt.gz
Total_Precipitation_Accumulation
0.01 0.01 0.01 0.02 0.01 0.01 0.01 0.01 0.01 0.01 0.02 0.02 0.02 0.02 0.02 0.03 0.00 0.00 0.00 0.00 0.00 0.00 0.00 0.00 0.00 0.00 0.00 0.00 0.00 0.00 0.00 0.00 0.00 0.02 0.13 0.21 0.32 0.21 0.05 0.01 0.12 0.29 0.32 0.62 0.52
0.03 0.03 0.03 0.02 0.02 0.01 0.02 0.01 0.01 0.01 0.02 0.02 0.01 0.01 0.02 0.03 0.00 0.00 0.00 0.00 0.00 0.00 0.00 0.00 0.00 0.00 0.00 0.00 0.00 0.00 0.00 0.00 0.00 0.01 0.12 0.16 0.03 0.10 0.07 0.01 0.09 0.50 0.99 0.56 0.29
0.04 0.03 0.03 0.03 0.02 0.02 0.02 0.02 0.02 0.02 0.02 0.02 0.02 0.02 0.02 0.01 0.00 0.00 0.00 0.00 0.00 0.00 0.00 0.00 0.00 0.00 0.00 0.00 0.00 0.00 0.00 0.00 0.00 0.01 0.11 0.03 0.01 0.02 0.03 0.03 0.05 0.83 1.16 0.62 0.40
0.03 0.03 0.03 0.03 0.02 0.02 0.02 0.01 0.02 0.02 0.01 0.02 0.02 0.02 0.02 0.00 0.00 0.00 0.00 0.00 0.00 0.00 0.00 0.00 0.00 0.00 0.00 0.00 0.00 0.00 0.00 0.00 0.00 0.00 0.02 0.04 0.06 0.03 0.06 0.44 0.22 0.28 0.39 0.47 0.61
0.03 0.02 0.03 0.02 0.03 0.02 0.02 0.02 0.02 0.02 0.02 0.02 0.02 0.02 0.01 0.00 0.00 0.00 0.00 0.00 0.00 0.00 0.00 0.00 0.00 0.00 0.00 0.00 0.00 0.00 0.00 0.00 0.01 0.01 0.01 0.01 0.05 0.02 0.03 0.03 0.06 0.16 0.20 0.38 0.45
0.02 0.02 0.02 0.03 0.02 0.02 0.02 0.02 0.02 0.02 0.02 0.02 0.02 0.02 0.00 0.00 0.00 0.00 0.00 0.00 0.00 0.00 0.00 0.00 0.00 0.00 0.00 0.00 0.00 0.00 0.00 0.00 0.02 0.00 0.00 0.00 0.00 0.02 0.06 0.06 0.06 0.04 0.09 0.26 0.18
0.03 0.03 0.02 0.03 0.03 0.02 0.02 0.02 0.02 0.02 0.02 0.02 0.02 0.01 0.00 0.00 0.00 0.00 0.00 0.00 0.00 0.00 0.00 0.00 0.00 0.00 0.00 0.00 0.00 0.00 0.00 0.00 0.00 0.01 0.00 0.00 0.00 0.00 0.05 0.05 0.02 0.01 0.04 0.12 0.04
0.02 0.02 0.02 0.02 0.02 0.02 0.02 0.02 0.02 0.02 0.03 0.03 0.02 0.00 0.00 0.00 0.00 0.00 0.00 0.00 0.00 0.00 0.00 0.00 0.00 0.00 0.00 0.00 0.00 0.00 0.00 0.00 0.00 0.01 0.00 0.00 0.00 0.00 0.01 0.02 0.02 0.02 0.02 0.02 0.02
0.02 0.01 0.01 0.02 0.02 0.02 0.02 0.02 0.02 0.03 0.03 0.02 0.01 0.00 0.00 0.00 0.00 0.00 0.00 0.02 0.00 0.00 0.00 0.00 0.00 0.00 0.00 0.00 0.00 0.00 0.00 0.00 0.00 0.00 0.00 0.00 0.00 0.00 0.01 0.02 0.01 0.01 0.00 0.00 0.00
0.01 0.01 0.01 0.01 0.02 0.03 0.02 0.02 0.02 0.02 0.01 0.00 0.00 0.00 0.00 0.00 0.00 0.00 0.00 0.02 0.01 0.00 0.00 0.00 0.00 0.00 0.00 0.00 0.00 0.00 0.00 0.00 0.01 0.02 0.00 0.00 0.00 0.00 0.00 0.03 0.01 0.01 0.00 0.00 0.00
0.01 0.01 0.00 0.01 0.02 0.03 0.01 0.01 0.00 0.00 0.00 0.00 0.00 0.00 0.00 0.00 0.00 0.00 0.00 0.00 0.00 0.00 0.01 0.00 0.00 0.00 0.00 0.00 0.00 0.00 0.00 0.00 0.00 0.00 0.00 0.00 0.00 0.00 0.00 0.01 0.01 0.03 0.01 0.01 0.00
0.01 0.00 0.00 0.01 0.04 0.03 0.00 0.00 0.00 0.00 0.00 0.00 0.00 0.00 0.00 0.00 0.00 0.00 0.00 0.00 0.00 0.00 0.01 0.00 0.00 0.00 0.00 0.00 0.00 0.00 0.00 0.00 0.00 0.00 0.00 0.00 0.00 0.00 0.00 0.00 0.00 0.00 0.00 0.00 0.00
0.01 0.00 0.01 0.04 0.05 0.01 0.00 0.00 0.00 0.00 0.00 0.00 0.00 0.00 0.00 0.00 0.00 0.00 0.00 0.00 0.00 0.00 0.00 0.00 0.00 0.00 0.00 0.00 0.00 0.00 0.00 0.00 0.00 0.00 0.00 0.00 0.00 0.00 0.00 0.00 0.00 0.00 0.00 0.00 0.00
0.01 0.01 0.03 0.05 0.01 0.00 0.00 0.00 0.00 0.00 0.00 0.00 0.00 0.00 0.00 0.00 0.00 0.00 0.00 0.00 0.00 0.00 0.01 0.00 0.00 0.00 0.00 0.00 0.00 0.00 0.00 0.00 0.00 0.00 0.00 0.00 0.00 0.02 0.01 0.00 0.00 0.00 0.01 0.00 0.00
0.02 0.02 0.04 0.03 0.00 0.00 0.00 0.00 0.00 0.00 0.01 0.00 0.00 0.00 0.00 0.00 0.00 0.00 0.00 0.00 0.00 0.00 0.01 0.02 0.00 0.00 0.00 0.00 0.00 0.01 0.00 0.00 0.00 0.00 0.05 0.02 0.01 0.03 0.02 0.00 0.00 0.00 0.00 0.00 0.00
0.03 0.03 0.06 0.04 0.01 0.00 0.00 0.00 0.01 0.04 0.03 0.00 0.00 0.00 0.00 0.00 0.00 0.00 0.00 0.00 0.00 0.00 0.00 0.00 0.00 0.01 0.01 0.00 0.00 0.00 0.00 0.00 0.00 0.00 0.01 0.01 0.02 0.03 0.02 0.01 0.04 0.02 0.00 0.00 0.00
0.05 0.05 0.06 0.01 0.00 0.00 0.00 0.04 0.04 0.00 0.00 0.00 0.00 0.00 0.00 0.00 0.00 0.00 0.00 0.00 0.00 0.00 0.00 0.00 0.00 0.00 0.00 0.00 0.00 0.00 0.00 0.00 0.04 0.02 0.01 0.03 0.03 0.05 0.01 0.06 0.16 0.09 0.00 0.00 0.00
0.06 0.07 0.06 0.01 0.00 0.00 0.04 0.11 0.02 0.00 0.00 0.00 0.00 0.00 0.00 0.00 0.00 0.00 0.00 0.00 0.00 0.00 0.00 0.00 0.01 0.00 0.00 0.00 0.01 0.00 0.00 0.00 0.07 0.03 0.01 0.02 0.02 0.01 0.00 0.00 0.00 0.00 0.00 0.00 0.00
0.12 0.12 0.10 0.02 0.00 0.01 0.10 0.08 0.00 0.00 0.00 0.00 0.00 0.00 0.00 0.00 0.00 0.00 0.00 0.00 0.00 0.00 0.01 0.04 0.01 0.01 0.00 0.00 0.00 0.00 0.00 0.00 0.00 0.00 0.00 0.00 0.01 0.00 0.00 0.00 0.00 0.00 0.00 0.00 0.00
0.16 0.14 0.05 0.01 0.02 0.08 0.13 0.01 0.00 0.00 0.00 0.00 0.00 0.00 0.00 0.00 0.00 0.00 0.00 0.00 0.00 0.00 0.00 0.06 0.16 0.03 0.00 0.00 0.00 0.00 0.00 0.00 0.00 0.00 0.00 0.00 0.00 0.01 0.00 0.01 0.00 0.00 0.00 0.00 0.00
0.21 0.18 0.03 0.02 0.15 0.29 0.10 0.00 0.00 0.00 0.00 0.00 0.00 0.00 0.00 0.00 0.00 0.00 0.00 0.00 0.00 0.00 0.00 0.00 0.02 0.03 0.00 0.00 0.00 0.00 0.00 0.00 0.00 0.00 0.00 0.00 0.00 0.00 0.00 0.00 0.00 0.00 0.00 0.00 0.00
0.29 0.18 0.04 0.04 0.18 0.11 0.02 0.00 0.00 0.00 0.00 0.00 0.00 0.00 0.00 0.00 0.00 0.00 0.00 0.00 0.00 0.00 0.00 0.00 0.00 0.00 0.00 0.00 0.00 0.00 0.01 0.03 0.00 0.00 0.00 0.00 0.00 0.00 0.00 0.00 0.00 0.00 0.00 0.00 0.00
0.36 0.28 0.31 0.08 0.08 0.03 0.00 0.00 0.00 0.00 0.00 0.00 0.00 0.00 0.00 0.00 0.00 0.00 0.00 0.00 0.00 0.00 0.00 0.00 0.00 0.00 0.00 0.00 0.00 0.00 0.00 0.00 0.00 0.00 0.00 0.00 0.00 0.00 0.00 0.00 0.00 0.00 0.00 0.00 0.00
0.32 0.42 0.75 0.35 0.00 0.00 0.00 0.00 0.00 0.00 0.00 0.00 0.00 0.00 0.00 0.00 0.00 0.00 0.00 0.00 0.00 0.00 0.00 0.00 0.00 0.00 0.00 0.00 0.00 0.00 0.00 0.00 0.00 0.00 0.00 0.00 0.00 0.00 0.00 0.00 0.00 0.00 0.00 0.00 0.00
0.53 0.19 0.21 0.14 0.01 0.00 0.00 0.00 0.00 0.00 0.00 0.00 0.00 0.00 0.00 0.00 0.00 0.00 0.00 0.00 0.00 0.00 0.00 0.00 0.00 0.00 0.00 0.00 0.00 0.00 0.00 0.00 0.00 0.00 0.00 0.00 0.00 0.00 0.00 0.00 0.00 0.00 0.00 0.00 0.00
0.70 0.08 0.06 0.02 0.00 0.01 0.01 0.00 0.00 0.00 0.00 0.00 0.00 0.00 0.00 0.00 0.00 0.00 0.00 0.00 0.00 0.00 0.00 0.00 0.00 0.00 0.00 0.00 0.00 0.00 0.00 0.00 0.00 0.00 0.00 0.00 0.00 0.00 0.00 0.00 0.00 0.00 0.00 0.00 0.00
0.47 0.04 0.07 0.05 0.01 0.01 0.00 0.00 0.00 0.00 0.00 0.00 0.00 0.00 0.00 0.00 0.01 0.00 0.00 0.00 0.00 0.00 0.00 0.00 0.00 0.00 0.00 0.00 0.00 0.00 0.00 0.00 0.00 0.00 0.00 0.00 0.00 0.00 0.00 0.00 0.00 0.00 0.00 0.00 0.00

GFSSW_prec_precacc_045.txt.gz
Total_Precipitation_Accumulation
0.02 0.02 0.01 0.02 0.01 0.01 0.01 0.01 0.01 0.01 0.02 0.02 0.02 0.02 0.02 0.03 0.00 0.00 0.00 0.00 0.00 0.00 0.00 0.00 0.00 0.00 0.00 0.00 0.00 0.00 0.00 0.00 0.00 0.02 0.13 0.21 0.32 0.21 0.05 0.01 0.12 0.29 0.35 0.70 0.53
0.03 0.03 0.03 0.03 0.02 0.01 0.02 0.01 0.01 0.01 0.02 0.02 0.01 0.01 0.02 0.03 0.00 0.00 0.00 0.00 0.00 0.00 0.00 0.00 0.00 0.00 0.00 0.00 0.00 0.00 0.00 0.00 0.00 0.01 0.12 0.16 0.03 0.10 0.07 0.01 0.09 0.51 1.00 0.57 0.32
0.04 0.03 0.03 0.03 0.02 0.02 0.02 0.02 0.02 0.02 0.02 0.02 0.02 0.02 0.02 0.01 0.00 0.00 0.00 0.00 0.00 0.00 0.00 0.00 0.00 0.00 0.00 0.00 0.00 0.00 0.00 0.00 0.00 0.01 0.11 0.03 0.01 0.02 0.03 0.09 0.30 0.89 1.24 0.70 0.46
0.03 0.03 0.03 0.03 0.02 0.02 0.02 0.01 0.02 0.02 0.01 0.02 0.02 0.02 0.02 0.00 0.00 0.00 0.00 0.00 0.00 0.00 0.00 0.00 0.00 0.00 0.00 0.00 0.00 0.00 0.00 0.00 0.00 0.00 0.02 0.05 0.07 0.03 0.06 0.49 0.30 0.28 0.46 0.62 0.71
0.03 0.02 0.03 0.02 0.03 0.02 0.02 0.02 0.02 0.02 0.02 0.02 0.02 0.02 0.01 0.00 0.00 0.00 0.00 0.00 0.00 0.00 0.00 0.00 0.00 0.00 0.00 0.00 0.00 0.00 0.00 0.00 0.01 0.01 0.01 0.01 0.05 0.02 0.03 0.03 0.07 0.17 0.27 0.49 0.55
0.02 0.02 0.02 0.03 0.02 0.02 0.02 0.02 0.02 0.02 0.02 0.02 0.02 0.02 0.00 0.00 0.00 0.00 0.00 0.00 0.00 0.00 0.00 0.00 0.00 0.00 0.00 0.00 0.00 0.00 0.00 0.00 0.02 0.00 0.00 0.00 0.00 0.03 0.07 0.06 0.07 0.05 0.16 0.39 0.30
0.03 0.03 0.02 0.03 0.03 0.02 0.02 0.02 0.02 0.02 0.02 0.02 0.02 0.01 0.00 0.00 0.00 0.00 0.00 0.00 0.00 0.00 0.00 0.00 0.00 0.00 0.00 0.00 0.00 0.00 0.00 0.00 0.00 0.01 0.00 0.02 0.06 0.00 0.05 0.05 0.02 0.01 0.05 0.15 0.08
0.02 0.02 0.02 0.02 0.02 0.02 0.02 0.02 0.02 0.02 0.03 0.03 0.02 0.00 0.00 0.00 0.00 0.00 0.00 0.00 0.00 0.00 0.00 0.00 0.00 0.00 0.00 0.00 0.00 0.00 0.00 0.00 0.00 0.01 0.01 0.06 0.19 0.00 0.01 0.02 0.02 0.02 0.02 0.02 0.06
0.02 0.01 0.01 0.02 0.02 0.02 0.02 0.02 0.02 0.03 0.03 0.02 0.01 0.00 0.00 0.00 0.00 0.00 0.00 0.02 0.00 0.00 0.00 0.00 0.00 0.00 0.00 0.00 0.00 0.00 0.00 0.00 0.00 0.00 0.01 0.01 0.04 0.00 0.01 0.02 0.01 0.01 0.00 0.00 0.00
0.01 0.01 0.01 0.01 0.02 0.03 0.02 0.02 0.02 0.02 0.01 0.00 0.00 0.00 0.00 0.00 0.00 0.00 0.00 0.02 0.01 0.00 0.00 0.00 0.00 0.00 0.00 0.00 0.00 0.00 0.00 0.00 0.02 0.05 0.00 0.00 0.00 0.00 0.00 0.03 0.01 0.01 0.00 0.00 0.00
0.01 0.01 0.01 0.01 0.02 0.03 0.01 0.01 0.00 0.00 0.00 0.00 0.00 0.00 0.00 0.00 0.00 0.00 0.00 0.00 0.00 0.00 0.01 0.00 0.00 0.00 0.00 0.00 0.00 0.00 0.00 0.00 0.00 0.00 0.00 0.00 0.00 0.01 0.00 0.01 0.01 0.03 0.01 0.01 0.00
0.01 0.00 0.00 0.01 0.04 0.03 0.00 0.00 0.00 0.00 0.00 0.00 0.00 0.00 0.00 0.00 0.00 0.00 0.00 0.00 0.00 0.00 0.01 0.00 0.00 0.00 0.00 0.00 0.00 0.00 0.00 0.00 0.00 0.00 0.00 0.00 0.00 0.00 0.00 0.00 0.00 0.00 0.00 0.00 0.00
0.01 0.00 0.01 0.04 0.05 0.01 0.00 0.00 0.00 0.00 0.00 0.00 0.00 0.00 0.00 0.00 0.00 0.00 0.00 0.00 0.00 0.00 0.00 0.00 0.00 0.00 0.00 0.00 0.00 0.00 0.00 0.00 0.00 0.00 0.00 0.00 0.00 0.00 0.00 0.00 0.00 0.00 0.00 0.00 0.00
0.02 0.01 0.03 0.05 0.01 0.00 0.00 0.00 0.00 0.00 0.00 0.00 0.00 0.00 0.00 0.00 0.00 0.00 0.00 0.00 0.00 0.00 0.01 0.00 0.00 0.00 0.00 0.00 0.00 0.00 0.00 0.00 0.00 0.00 0.00 0.00 0.01 0.02 0.01 0.00 0.00 0.00 0.01 0.00 0.00
0.03 0.02 0.04 0.03 0.00 0.00 0.00 0.00 0.00 0.00 0.01 0.00 0.00 0.00 0.00 0.00 0.00 0.00 0.00 0.00 0.00 0.00 0.01 0.02 0.00 0.00 0.00 0.00 0.00 0.01 0.00 0.00 0.00 0.00 0.05 0.02 0.01 0.03 0.02 0.00 0.00 0.00 0.00 0.00 0.00
0.04 0.04 0.07 0.05 0.01 0.00 0.00 0.00 0.01 0.04 0.03 0.00 0.00 0.00 0.00 0.00 0.00 0.00 0.00 0.00 0.00 0.00 0.00 0.00 0.00 0.01 0.01 0.00 0.00 0.00 0.00 0.00 0.00 0.00 0.01 0.01 0.02 0.03 0.02 0.01 0.04 0.02 0.00 0.00 0.00
0.05 0.05 0.07 0.02 0.00 0.00 0.00 0.05 0.04 0.00 0.00 0.00 0.00 0.00 0.00 0.00 0.00 0.00 0.00 0.00 0.00 0.00 0.00 0.00 0.00 0.00 0.00 0.00 0.00 0.00 0.00 0.01 0.05 0.02 0.01 0.03 0.03 0.05 0.01 0.06 0.16 0.09 0.00 0.00 0.00
0.06 0.08 0.07 0.02 0.00 0.01 0.08 0.15 0.02 0.00 0.00 0.00 0.00 0.00 0.00 0.00 0.00 0.00 0.00 0.00 0.00 0.00 0.00 0.00 0.01 0.00 0.00 0.00 0.01 0.00 0.00 0.01 0.11 0.03 0.02 0.02 0.02 0.01 0.00 0.00 0.00 0.00 0.00 0.00 0.00
0.12 0.13 0.13 0.04 0.00 0.02 0.23 0.12 0.00 0.00 0.00 0.00 0.00 0.00 0.00 0.00 0.00 0.00 0.00 0.00 0.00 0.00 0.01 0.04 0.01 0.01 0.00 0.00 0.00 0.00 0.00 0.00 0.00 0.00 0.00 0.00 0.01 0.00 0.00 0.00 0.00 0.00 0.00 0.00 0.00
0.17 0.16 0.08 0.02 0.03 0.12 0.30 0.05 0.00 0.00 0.00 0.00 0.00 0.00 0.00 0.00 0.00 0.00 0.00 0.00 0.00 0.00 0.00 0.06 0.16 0.03 0.00 0.00 0.00 0.00 0.00 0.00 0.00 0.00 0.00 0.00 0.00 0.01 0.00 0.01 0.00 0.00 0.00 0.00 0.00
0.25 0.22 0.04 0.04 0.21 0.37 0.20 0.01 0.00 0.00 0.00 0.00 0.00 0.00 0.00 0.00 0.00 0.00 0.00 0.00 0.00 0.00 0.00 0.00 0.02 0.03 0.00 0.00 0.00 0.00 0.00 0.00 0.00 0.00 0.00 0.00 0.00 0.00 0.00 0.00 0.00 0.00 0.00 0.00 0.00
0.33 0.20 0.07 0.07 0.25 0.14 0.04 0.00 0.00 0.00 0.00 0.00 0.00 0.00 0.00 0.00 0.00 0.00 0.00 0.00 0.00 0.00 0.00 0.00 0.00 0.00 0.00 0.00 0.00 0.00 0.01 0.03 0.00 0.00 0.00 0.00 0.00 0.00 0.00 0.00 0.00 0.00 0.00 0.00 0.00
0.42 0.32 0.40 0.12 0.14 0.04 0.00 0.00 0.00 0.00 0.00 0.00 0.00 0.00 0.00 0.00 0.00 0.00 0.00 0.00 0.00 0.00 0.00 0.00 0.00 0.00 0.00 0.00 0.00 0.00 0.00 0.00 0.00 0.00 0.00 0.01 0.00 0.00 0.00 0.00 0.00 0.00 0.00 0.00 0.00
0.39 0.51 0.94 0.41 0.01 0.00 0.00 0.00 0.00 0.00 0.00 0.00 0.00 0.00 0.00 0.00 0.00 0.00 0.00 0.00 0.00 0.00 0.00 0.00 0.00 0.00 0.00 0.00 0.00 0.00 0.00 0.00 0.00 0.00 0.00 0.00 0.00 0.00 0.00 0.00 0.00 0.00 0.00 0.00 0.00
0.68 0.28 0.32 0.19 0.02 0.00 0.00 0.00 0.00 0.00 0.00 0.00 0.00 0.00 0.00 0.00 0.00 0.00 0.00 0.00 0.00 0.00 0.00 0.00 0.00 0.00 0.00 0.00 0.00 0.00 0.00 0.00 0.00 0.00 0.00 0.00 0.00 0.00 0.00 0.00 0.00 0.00 0.00 0.00 0.00
0.94 0.11 0.06 0.02 0.00 0.01 0.01 0.00 0.00 0.00 0.00 0.00 0.00 0.00 0.00 0.00 0.00 0.00 0.00 0.00 0.00 0.00 0.00 0.00 0.00 0.00 0.00 0.00 0.00 0.00 0.00 0.00 0.00 0.00 0.00 0.00 0.00 0.00 0.00 0.00 0.00 0.00 0.00 0.00 0.00
0.77 0.05 0.09 0.05 0.02 0.01 0.01 0.00 0.00 0.00 0.00 0.00 0.00 0.00 0.00 0.00 0.01 0.01 0.00 0.00 0.00 0.00 0.00 0.00 0.00 0.00 0.00 0.00 0.00 0.00 0.00 0.00 0.00 0.00 0.00 0.00 0.00 0.00 0.00 0.00 0.00 0.00 0.00 0.00 0.00

GFSSW_prec_precacc_048.txt.gz
Total_Precipitation_Accumulation
0.02 0.02 0.01 0.02 0.01 0.01 0.01 0.01 0.01 0.01 0.02 0.02 0.02 0.02 0.02 0.03 0.00 0.00 0.00 0.00 0.00 0.00 0.00 0.00 0.00 0.00 0.00 0.00 0.00 0.00 0.00 0.00 0.00 0.02 0.13 0.21 0.32 0.22 0.07 0.01 0.25 0.43 0.51 0.81 0.63
0.03 0.03 0.03 0.03 0.02 0.01 0.02 0.01 0.01 0.01 0.02 0.02 0.01 0.01 0.02 0.03 0.00 0.00 0.00 0.00 0.00 0.00 0.00 0.00 0.00 0.00 0.00 0.00 0.00 0.00 0.00 0.00 0.00 0.01 0.12 0.16 0.03 0.15 0.21 0.05 0.34 0.83 1.16 0.68 0.35
0.04 0.03 0.03 0.03 0.02 0.02 0.02 0.02 0.02 0.02 0.02 0.02 0.02 0.02 0.02 0.01 0.00 0.00 0.00 0.00 0.00 0.00 0.00 0.00 0.00 0.00 0.00 0.00 0.00 0.00 0.00 0.00 0.00 0.01 0.11 0.03 0.01 0.03 0.04 0.20 0.75 1.55 1.65 0.81 0.50
0.03 0.03 0.03 0.03 0.02 0.02 0.02 0.01 0.02 0.02 0.01 0.02 0.02 0.02 0.02 0.00 0.00 0.00 0.00 0.00 0.00 0.00 0.00 0.00 0.00 0.00 0.00 0.00 0.00 0.00 0.00 0.00 0.00 0.00 0.02 0.05 0.07 0.03 0.06 0.53 0.39 0.36 0.50 0.66 0.75
0.03 0.02 0.03 0.02 0.03 0.02 0.02 0.02 0.02 0.02 0.02 0.02 0.02 0.02 0.01 0.00 0.00 0.00 0.00 0.00 0.00 0.00 0.00 0.00 0.00 0.00 0.00 0.00 0.00 0.00 0.00 0.00 0.01 0.01 0.01 0.01 0.05 0.03 0.04 0.03 0.07 0.18 0.28 0.51 0.56
0.03 0.02 0.02 0.03 0.02 0.02 0.02 0.02 0.02 0.02 0.02 0.02 0.02 0.02 0.00 0.00 0.00 0.00 0.00 0.00 0.00 0.00 0.00 0.00 0.00 0.00 0.00 0.00 0.00 0.00 0.00 0.00 0.02 0.00 0.00 0.00 0.21 0.13 0.14 0.06 0.07 0.05 0.17 0.40 0.33
0.03 0.03 0.02 0.03 0.03 0.02 0.02 0.02 0.02 0.02 0.02 0.02 0.02 0.01 0.00 0.00 0.00 0.00 0.00 0.00 0.00 0.00 0.00 0.00 0.00 0.00 0.00 0.00 0.00 0.00 0.00 0.00 0.00 0.01 0.01 0.04 0.22 0.14 0.08 0.05 0.02 0.01 0.05 0.15 0.09
0.02 0.02 0.02 0.02 0.02 0.02 0.02 0.02 0.02 0.02 0.03 0.03 0.02 0.00 0.00 0.00 0.00 0.00 0.00 0.00 0.00 0.00 0.00 0.00 0.00 0.00 0.00 0.00 0.00 0.00 0.00 0.00 0.00 0.01 0.02 0.10 0.50 0.05 0.03 0.02 0.02 0.02 0.03 0.03 0.09
0.02 0.01 0.02 0.02 0.02 0.02 0.02 0.02 0.02 0.03 0.03 0.02 0.01 0.00 0.00 0.00 0.00 0.00 0.00 0.02 0.00 0.00 0.00 0.00 0.00 0.00 0.00 0.00 0.00 0.00 0.00 0.00 0.00 0.00 0.01 0.05 0.31 0.19 0.05 0.03 0.01 0.01 0.00 0.00 0.00
0.02 0.02 0.01 0.01 0.02 0.03 0.02 0.02 0.02 0.02 0.01 0.00 0.00 0.00 0.00 0.00 0.00 0.00 0.00 0.02 0.01 0.00 0.00 0.00 0.00 0.00 0.00 0.00 0.00 0.00 0.00 0.00 0.02 0.07 0.00 0.00 0.02 0.15 0.09 0.03 0.01 0.01 0.00 0.00 0.00
0.01 0.01 0.01 0.01 0.02 0.03 0.01 0.01 0.00 0.00 0.00 0.00 0.00 0.00 0.00 0.00 0.00 0.00 0.00 0.00 0.00 0.00 0.01 0.00 0.00 0.00 0.00 0.00 0.00 0.00 0.00 0.00 0.00 0.00 0.00 0.00 0.00 0.02 0.13 0.02 0.01 0.03 0.01 0.01 0.00
0.01 0.01 0.01 0.01 0.04 0.03 0.00 0.00 0.00 0.00 0.00 0.00 0.00 0.00 0.00 0.00 0.00 0.00 0.00 0.00 0.00 0.00 0.01 0.00 0.00 0.00 0.00 0.00 0.00 0.00 0.00 0.00 0.00 0.00 0.00 0.00 0.00 0.00 0.01 0.00 0.00 0.00 0.00 0.00 0.00
0.02 0.01 0.01 0.04 0.05 0.01 0.00 0.00 0.00 0.00 0.00 0.00 0.00 0.00 0.00 0.00 0.00 0.00 0.00 0.00 0.00 0.00 0.00 0.00 0.00 0.00 0.00 0.00 0.00 0.00 0.00 0.00 0.00 0.00 0.00 0.00 0.00 0.00 0.00 0.00 0.00 0.00 0.00 0.00 0.00
0.02 0.02 0.03 0.05 0.01 0.00 0.00 0.00 0.00 0.00 0.00 0.00 0.00 0.00 0.00 0.00 0.00 0.00 0.00 0.00 0.00 0.00 0.01 0.00 0.00 0.00 0.00 0.00 0.00 0.00 0.00 0.00 0.00 0.00 0.00 0.00 0.01 0.02 0.01 0.00 0.00 0.00 0.01 0.00 0.00
0.03 0.02 0.04 0.03 0.00 0.00 0.00 0.00 0.00 0.00 0.01 0.00 0.00 0.00 0.00 0.00 0.00 0.00 0.00 0.00 0.00 0.00 0.01 0.02 0.00 0.00 0.00 0.00 0.00 0.01 0.00 0.00 0.00 0.00 0.05 0.02 0.01 0.03 0.02 0.00 0.00 0.00 0.00 0.00 0.00
0.04 0.04 0.07 0.05 0.01 0.00 0.00 0.00 0.01 0.04 0.03 0.00 0.00 0.00 0.00 0.00 0.00 0.00 0.00 0.00 0.00 0.00 0.00 0.00 0.00 0.01 0.01 0.00 0.00 0.00 0.00 0.00 0.00 0.00 0.01 0.01 0.02 0.04 0.03 0.01 0.04 0.02 0.00 0.00 0.00
0.05 0.06 0.07 0.02 0.01 0.00 0.01 0.07 0.05 0.00 0.00 0.00 0.00 0.00 0.00 0.00 0.00 0.00 0.00 0.00 0.00 0.00 0.00 0.00 0.00 0.00 0.00 0.00 0.00 0.00 0.00 0.01 0.06 0.02 0.01 0.03 0.03 0.05 0.01 0.06 0.16 0.09 0.00 0.00 0.00
0.07 0.09 0.07 0.03 0.00 0.01 0.10 0.19 0.02 0.00 0.00 0.00 0.00 0.00 0.00 0.00 0.00 0.00 0.00 0.00 0.00 0.00 0.00 0.00 0.01 0.00 0.00 0.00 0.01 0.00 0.00 0.02 0.16 0.05 0.02 0.03 0.02 0.01 0.00 0.00 0.00 0.00 0.00 0.00 0.00
0.15 0.14 0.14 0.04 0.00 0.04 0.27 0.16 0.00 0.00 0.00 0.00 0.00 0.00 0.00 0.00 0.00 0.00 0.00 0.00 0.00 0.00 0.01 0.04 0.01 0.01 0.00 0.00 0.00 0.00 0.00 0.00 0.01 0.02 0.02 0.01 0.01 0.00 0.00 0.00 0.00 0.00 0.00 0.00 0.00
0.21 0.18 0.09 0.03 0.05 0.18 0.39 0.08 0.00 0.00 0.00 0.00 0.00 0.00 0.00 0.00 0.00 0.00 0.00 0.00 0.00 0.00 0.00 0.06 0.16 0.03 0.00 0.00 0.00 0.00 0.00 0.00 0.00 0.02 0.02 0.00 0.00 0.01 0.01 0.01 0.00 0.00 0.00 0.00 0.00
0.30 0.26 0.04 0.05 0.28 0.44 0.29 0.03 0.00 0.00 0.00 0.00 0.00 0.00 0.00 0.00 0.00 0.00 0.00 0.00 0.00 0.00 0.00 0.00 0.02 0.03 0.00 0.00 0.00 0.00 0.00 0.00 0.00 0.00 0.00 0.01 0.00 0.01 0.00 0.00 0.00 0.00 0.00 0.00 0.00
0.42 0.27 0.10 0.10 0.33 0.17 0.05 0.00 0.00 0.00 0.00 0.00 0.00 0.00 0.00 0.00 0.00 0.00 0.00 0.00 0.00 0.00 0.00 0.00 0.00 0.00 0.00 0.00 0.00 0.00 0.01 0.03 0.00 0.00 0.00 0.00 0.00 0.00 0.00 0.00 0.00 0.00 0.00 0.00 0.00
0.55 0.38 0.47 0.15 0.17 0.06 0.00 0.00 0.00 0.00 0.00 0.00 0.00 0.00 0.00 0.00 0.00 0.00 0.00 0.00 0.00 0.00 0.00 0.00 0.00 0.00 0.00 0.00 0.00 0.00 0.00 0.00 0.00 0.00 0.00 0.03 0.00 0.00 0.00 0.00 0.00 0.00 0.00 0.00 0.00
0.54 0.63 1.06 0.47 0.02 0.00 0.00 0.00 0.00 0.00 0.00 0.00 0.00 0.00 0.00 0.00 0.00 0.00 0.00 0.00 0.00 0.00 0.00 0.00 0.00 0.00 0.00 0.00 0.00 0.00 0.00 0.00 0.00 0.00 0.00 0.00 0.00 0.00 0.00 0.00 0.00 0.00 0.00 0.00 0.00
0.94 0.36 0.38 0.24 0.03 0.00 0.00 0.00 0.00 0.00 0.00 0.00 0.00 0.00 0.00 0.00 0.00 0.00 0.00 0.00 0.00 0.00 0.00 0.00 0.00 0.00 0.00 0.00 0.00 0.00 0.00 0.00 0.00 0.00 0.00 0.00 0.00 0.00 0.00 0.00 0.00 0.00 0.00 0.00 0.00
1.33 0.15 0.07 0.03 0.01 0.01 0.01 0.00 0.00 0.00 0.00 0.00 0.00 0.00 0.00 0.00 0.00 0.00 0.00 0.00 0.00 0.00 0.00 0.00 0.00 0.00 0.00 0.00 0.00 0.00 0.00 0.00 0.00 0.00 0.00 0.00 0.00 0.00 0.00 0.00 0.00 0.00 0.00 0.00 0.00
1.30 0.08 0.10 0.06 0.03 0.02 0.01 0.00 0.00 0.00 0.00 0.00 0.00 0.00 0.00 0.01 0.02 0.01 0.01 0.00 0.00 0.00 0.00 0.00 0.00 0.00 0.00 0.00 0.00 0.00 0.00 0.00 0.00 0.00 0.00 0.00 0.00 0.00 0.00 0.00 0.00 0.00 0.00 0.00 0.00

GFSSW_prec_precacc_051.txt.gz
Total_Precipitation_Accumulation
0.02 0.02 0.01 0.02 0.01 0.01 0.01 0.01 0.01 0.01 0.02 0.02 0.02 0.02 0.02 0.03 0.00 0.00 0.00 0.00 0.00 0.00 0.00 0.00 0.00 0.00 0.00 0.00 0.00 0.00 0.00 0.00 0.00 0.02 0.13 0.21 0.32 0.22 0.08 0.04 0.30 0.54 0.94 1.18 0.81
0.03 0.03 0.03 0.03 0.02 0.01 0.02 0.01 0.01 0.01 0.02 0.02 0.01 0.01 0.02 0.03 0.00 0.00 0.00 0.00 0.00 0.00 0.00 0.00 0.00 0.00 0.00 0.00 0.00 0.00 0.00 0.00 0.00 0.01 0.12 0.16 0.03 0.15 0.24 0.15 0.39 0.91 1.20 0.77 0.44
0.04 0.03 0.03 0.03 0.02 0.02 0.02 0.02 0.02 0.02 0.02 0.02 0.02 0.02 0.02 0.01 0.00 0.00 0.00 0.00 0.00 0.00 0.00 0.00 0.00 0.00 0.00 0.00 0.00 0.00 0.00 0.00 0.00 0.01 0.11 0.03 0.01 0.03 0.07 0.21 0.75 1.55 1.67 0.85 0.55
0.03 0.03 0.03 0.03 0.02 0.02 0.02 0.01 0.02 0.02 0.01 0.02 0.02 0.02 0.02 0.00 0.00 0.00 0.00 0.00 0.00 0.00 0.00 0.00 0.00 0.00 0.00 0.00 0.00 0.00 0.00 0.00 0.00 0.00 0.02 0.05 0.07 0.06 0.29 0.68 0.40 0.36 0.51 0.67 0.78
0.03 0.02 0.03 0.02 0.03 0.02 0.02 0.02 0.02 0.02 0.02 0.02 0.02 0.02 0.01 0.00 0.00 0.00 0.00 0.00 0.00 0.00 0.00 0.00 0.00 0.00 0.00 0.00 0.00 0.00 0.00 0.00 0.01 0.01 0.01 0.01 0.06 0.11 0.25 0.09 0.07 0.18 0.29 0.51 0.58
0.03 0.02 0.02 0.03 0.02 0.02 0.02 0.02 0.02 0.02 0.02 0.02 0.02 0.02 0.00 0.00 0.00 0.00 0.00 0.00 0.00 0.00 0.00 0.00 0.00 0.00 0.00 0.00 0.00 0.00 0.00 0.00 0.02 0.00 0.00 0.00 0.23 0.18 0.54 0.16 0.08 0.05 0.18 0.41 0.33
0.03 0.03 0.02 0.03 0.03 0.02 0.02 0.02 0.02 0.02 0.02 0.02 0.02 0.01 0.00 0.00 0.00 0.00 0.00 0.00 0.00 0.00 0.00 0.00 0.00 0.00 0.00 0.00 0.00 0.00 0.00 0.00 0.00 0.01 0.01 0.04 0.22 0.14 0.13 0.10 0.06 0.02 0.06 0.16 0.09
0.03 0.03 0.02 0.02 0.02 0.02 0.02 0.02 0.02 0.02 0.03 0.03 0.02 0.00 0.00 0.00 0.00 0.00 0.00 0.00 0.00 0.00 0.00 0.00 0.00 0.00 0.00 0.00 0.00 0.00 0.00 0.00 0.00 0.01 0.02 0.11 0.51 0.05 0.05 0.03 0.03 0.02 0.03 0.03 0.09
0.02 0.02 0.02 0.02 0.02 0.02 0.02 0.02 0.02 0.03 0.03 0.02 0.01 0.00 0.00 0.00 0.00 0.00 0.00 0.02 0.00 0.00 0.00 0.00 0.00 0.00 0.00 0.00 0.00 0.00 0.00 0.00 0.00 0.00 0.01 0.05 0.35 0.22 0.07 0.08 0.05 0.01 0.00 0.00 0.00
0.02 0.02 0.01 0.01 0.02 0.03 0.02 0.02 0.02 0.02 0.01 0.00 0.00 0.00 0.00 0.00 0.00 0.00 0.00 0.02 0.01 0.00 0.00 0.00 0.00 0.00 0.00 0.00 0.00 0.00 0.00 0.00 0.02 0.07 0.00 0.00 0.03 0.16 0.19 0.07 0.04 0.01 0.00 0.00 0.00
0.01 0.01 0.01 0.01 0.02 0.03 0.01 0.01 0.00 0.00 0.00 0.00 0.00 0.00 0.00 0.00 0.00 0.00 0.00 0.00 0.00 0.00 0.01 0.00 0.00 0.00 0.00 0.00 0.00 0.00 0.00 0.00 0.00 0.00 0.00 0.00 0.00 0.02 0.14 0.04 0.02 0.03 0.01 0.01 0.00
0.01 0.01 0.01 0.01 0.04 0.03 0.00 0.00 0.00 0.00 0.00 0.00 0.00 0.00 0.00 0.00 0.00 0.00 0.00 0.00 0.00 0.00 0.01 0.00 0.00 0.00 0.00 0.00 0.00 0.00 0.00 0.00 0.00 0.00 0.00 0.00 0.00 0.00 0.02 0.00 0.00 0.00 0.00 0.00 0.00
0.02 0.01 0.01 0.04 0.05 0.01 0.00 0.00 0.00 0.00 0.00 0.00 0.00 0.00 0.00 0.00 0.00 0.00 0.00 0.00 0.00 0.00 0.00 0.00 0.00 0.00 0.00 0.00 0.00 0.00 0.00 0.00 0.00 0.00 0.00 0.00 0.00 0.00 0.00 0.02 0.07 0.01 0.00 0.00 0.00
0.02 0.02 0.03 0.05 0.01 0.00 0.00 0.00 0.00 0.00 0.00 0.00 0.00 0.00 0.00 0.00 0.00 0.00 0.00 0.00 0.00 0.00 0.01 0.00 0.00 0.00 0.00 0.00 0.00 0.00 0.00 0.00 0.00 0.00 0.00 0.00 0.01 0.02 0.01 0.02 0.06 0.01 0.01 0.00 0.00
0.03 0.03 0.04 0.03 0.00 0.00 0.00 0.00 0.00 0.00 0.01 0.00 0.00 0.00 0.00 0.00 0.00 0.00 0.00 0.00 0.00 0.00 0.01 0.02 0.00 0.00 0.00 0.00 0.00 0.01 0.00 0.00 0.00 0.00 0.05 0.02 0.01 0.03 0.02 0.00 0.02 0.01 0.00 0.00 0.00
0.04 0.05 0.07 0.05 0.01 0.00 0.00 0.01 0.02 0.04 0.03 0.00 0.00 0.00 0.00 0.00 0.00 0.00 0.00 0.00 0.00 0.00 0.00 0.00 0.00 0.01 0.01 0.00 0.00 0.00 0.00 0.00 0.00 0.00 0.01 0.01 0.02 0.04 0.03 0.02 0.05 0.03 0.00 0.00 0.00
0.06 0.07 0.09 0.02 0.01 0.00 0.01 0.08 0.06 0.00 0.00 0.00 0.00 0.00 0.00 0.00 0.00 0.00 0.00 0.00 0.00 0.00 0.00 0.00 0.00 0.00 0.00 0.00 0.00 0.00 0.00 0.01 0.06 0.02 0.01 0.03 0.03 0.05 0.01 0.06 0.16 0.09 0.00 0.00 0.00
0.08 0.10 0.09 0.03 0.00 0.02 0.11 0.21 0.02 0.00 0.00 0.00 0.00 0.00 0.00 0.00 0.00 0.00 0.00 0.00 0.00 0.00 0.00 0.00 0.01 0.00 0.00 0.00 0.01 0.00 0.00 0.02 0.16 0.05 0.03 0.03 0.02 0.01 0.00 0.00 0.00 0.00 0.00 0.00 0.00
0.21 0.19 0.16 0.04 0.00 0.05 0.29 0.19 0.00 0.00 0.00 0.00 0.00 0.00 0.00 0.00 0.00 0.00 0.00 0.00 0.00 0.00 0.01 0.04 0.01 0.01 0.00 0.00 0.00 0.00 0.00 0.00 0.01 0.02 0.03 0.01 0.01 0.00 0.00 0.00 0.00 0.00 0.00 0.00 0.00
0.26 0.22 0.11 0.03 0.05 0.21 0.43 0.10 0.00 0.00 0.00 0.00 0.00 0.00 0.00 0.00 0.00 0.00 0.00 0.00 0.00 0.00 0.00 0.06 0.16 0.03 0.00 0.00 0.00 0.00 0.00 0.00 0.00 0.04 0.04 0.00 0.00 0.02 0.01 0.01 0.00 0.00 0.00 0.00 0.00
0.36 0.33 0.07 0.06 0.31 0.48 0.33 0.03 0.00 0.00 0.00 0.00 0.00 0.00 0.00 0.00 0.00 0.00 0.00 0.00 0.00 0.00 0.00 0.00 0.02 0.03 0.00 0.00 0.00 0.00 0.00 0.00 0.00 0.00 0.00 0.01 0.00 0.01 0.00 0.00 0.00 0.00 0.00 0.00 0.00
0.53 0.35 0.11 0.11 0.37 0.19 0.05 0.00 0.00 0.00 0.00 0.00 0.00 0.00 0.00 0.00 0.00 0.00 0.00 0.00 0.00 0.00 0.00 0.00 0.00 0.00 0.00 0.00 0.00 0.00 0.01 0.03 0.00 0.00 0.00 0.01 0.00 0.00 0.00 0.00 0.00 0.00 0.00 0.00 0.00
0.74 0.45 0.50 0.17 0.19 0.07 0.01 0.00 0.00 0.00 0.00 0.00 0.00 0.00 0.00 0.00 0.00 0.00 0.00 0.00 0.00 0.00 0.00 0.00 0.00 0.00 0.00 0.00 0.00 0.00 0.00 0.00 0.00 0.00 0.00 0.03 0.00 0.00 0.00 0.00 0.00 0.00 0.00 0.00 0.00
0.77 0.76 1.13 0.54 0.03 0.00 0.00 0.00 0.00 0.00 0.00 0.00 0.00 0.00 0.00 0.00 0.00 0.00 0.00 0.00 0.00 0.00 0.00 0.00 0.00 0.00 0.00 0.00 0.00 0.00 0.00 0.00 0.00 0.00 0.00 0.00 0.00 0.00 0.00 0.00 0.00 0.00 0.00 0.00 0.00
1.30 0.45 0.41 0.29 0.05 0.00 0.00 0.00 0.00 0.00 0.00 0.00 0.00 0.00 0.00 0.00 0.00 0.00 0.00 0.00 0.00 0.00 0.00 0.00 0.00 0.00 0.00 0.00 0.00 0.00 0.00 0.00 0.00 0.00 0.00 0.00 0.00 0.00 0.00 0.00 0.00 0.00 0.00 0.00 0.00
1.77 0.18 0.07 0.03 0.01 0.01 0.01 0.00 0.00 0.00 0.00 0.00 0.00 0.00 0.00 0.00 0.00 0.00 0.03 0.05 0.04 0.00 0.00 0.00 0.00 0.00 0.00 0.00 0.00 0.00 0.00 0.00 0.00 0.00 0.00 0.00 0.00 0.00 0.00 0.00 0.00 0.00 0.00 0.00 0.00
1.83 0.12 0.11 0.06 0.03 0.04 0.01 0.00 0.00 0.00 0.00 0.00 0.00 0.00 0.00 0.01 0.02 0.02 0.03 0.02 0.06 0.05 0.01 0.00 0.00 0.00 0.00 0.00 0.00 0.00 0.00 0.00 0.00 0.00 0.00 0.00 0.00 0.00 0.00 0.00 0.00 0.00 0.00 0.00 0.00

GFSSW_prec_precacc_054.txt.gz
Total_Precipitation_Accumulation
0.02 0.02 0.01 0.02 0.01 0.01 0.01 0.01 0.01 0.01 0.02 0.02 0.02 0.02 0.02 0.03 0.00 0.00 0.00 0.00 0.00 0.00 0.00 0.00 0.00 0.00 0.00 0.00 0.00 0.00 0.00 0.00 0.00 0.02 0.13 0.21 0.32 0.22 0.08 0.04 0.30 0.54 0.94 1.18 0.82
0.03 0.03 0.03 0.03 0.02 0.01 0.02 0.01 0.01 0.01 0.02 0.02 0.01 0.01 0.02 0.03 0.00 0.00 0.00 0.00 0.00 0.00 0.00 0.00 0.00 0.00 0.00 0.00 0.00 0.00 0.00 0.00 0.00 0.01 0.12 0.16 0.03 0.15 0.24 0.16 0.39 0.91 1.20 0.77 0.45
0.04 0.03 0.03 0.03 0.02 0.02 0.02 0.02 0.02 0.02 0.02 0.02 0.02 0.02 0.02 0.01 0.00 0.00 0.00 0.00 0.00 0.00 0.00 0.00 0.00 0.00 0.00 0.00 0.00 0.00 0.00 0.00 0.00 0.01 0.11 0.03 0.01 0.03 0.08 0.25 0.76 1.55 1.68 0.86 0.56
0.03 0.03 0.03 0.03 0.02 0.02 0.02 0.01 0.02 0.02 0.01 0.02 0.02 0.02 0.02 0.00 0.00 0.00 0.00 0.00 0.00 0.00 0.00 0.00 0.00 0.00 0.00 0.00 0.00 0.00 0.00 0.00 0.00 0.00 0.02 0.05 0.07 0.06 0.31 0.75 0.42 0.36 0.51 0.68 0.79
0.03 0.02 0.03 0.02 0.03 0.02 0.02 0.02 0.02 0.02 0.02 0.02 0.02 0.02 0.01 0.00 0.00 0.00 0.00 0.00 0.00 0.00 0.00 0.00 0.00 0.00 0.00 0.00 0.00 0.00 0.00 0.00 0.01 0.01 0.01 0.01 0.06 0.11 0.25 0.10 0.07 0.18 0.29 0.52 0.58
0.03 0.02 0.02 0.03 0.02 0.02 0.02 0.02 0.02 0.02 0.02 0.02 0.02 0.02 0.00 0.00 0.00 0.00 0.00 0.00 0.00 0.00 0.00 0.00 0.00 0.00 0.00 0.00 0.00 0.00 0.00 0.00 0.02 0.00 0.00 0.00 0.23 0.18 0.54 0.16 0.08 0.05 0.18 0.41 0.34
0.03 0.03 0.02 0.03 0.03 0.02 0.02 0.02 0.02 0.02 0.02 0.02 0.02 0.01 0.00 0.00 0.00 0.00 0.00 0.00 0.00 0.00 0.00 0.00 0.00 0.00 0.00 0.00 0.00 0.00 0.00 0.00 0.00 0.01 0.01 0.04 0.22 0.14 0.13 0.10 0.06 0.02 0.06 0.16 0.09
0.03 0.03 0.02 0.02 0.02 0.02 0.02 0.02 0.02 0.02 0.03 0.03 0.03 0.00 0.00 0.00 0.00 0.00 0.00 0.00 0.00 0.00 0.00 0.00 0.00 0.00 0.00 0.00 0.00 0.00 0.00 0.00 0.00 0.01 0.02 0.11 0.51 0.05 0.05 0.03 0.03 0.02 0.03 0.03 0.09
0.02 0.02 0.02 0.02 0.02 0.02 0.02 0.02 0.02 0.03 0.03 0.02 0.01 0.00 0.00 0.00 0.00 0.00 0.00 0.02 0.00 0.00 0.00 0.00 0.00 0.00 0.00 0.00 0.00 0.00 0.00 0.00 0.00 0.00 0.01 0.05 0.35 0.22 0.07 0.08 0.05 0.01 0.00 0.00 0.00
0.02 0.02 0.01 0.01 0.02 0.03 0.02 0.02 0.02 0.02 0.01 0.00 0.00 0.00 0.00 0.00 0.00 0.00 0.00 0.02 0.01 0.00 0.00 0.00 0.00 0.00 0.00 0.00 0.00 0.00 0.00 0.00 0.02 0.07 0.00 0.00 0.03 0.16 0.19 0.07 0.04 0.01 0.00 0.00 0.00
0.02 0.01 0.01 0.01 0.02 0.03 0.01 0.01 0.00 0.00 0.00 0.00 0.00 0.00 0.00 0.00 0.00 0.00 0.00 0.00 0.00 0.00 0.01 0.00 0.00 0.00 0.00 0.00 0.00 0.00 0.00 0.00 0.00 0.00 0.00 0.00 0.00 0.02 0.14 0.04 0.02 0.03 0.01 0.01 0.00
0.01 0.01 0.01 0.01 0.04 0.03 0.00 0.00 0.00 0.00 0.00 0.00 0.00 0.00 0.00 0.00 0.00 0.00 0.00 0.00 0.00 0.00 0.01 0.00 0.00 0.00 0.00 0.00 0.00 0.00 0.00 0.00 0.00 0.00 0.00 0.00 0.00 0.00 0.02 0.00 0.00 0.00 0.00 0.00 0.00
0.02 0.01 0.01 0.04 0.05 0.01 0.00 0.00 0.00 0.00 0.00 0.00 0.00 0.00 0.00 0.00 0.00 0.00 0.00 0.00 0.00 0.00 0.00 0.00 0.00 0.00 0.00 0.00 0.00 0.00 0.00 0.00 0.00 0.00 0.00 0.00 0.00 0.00 0.00 0.02 0.07 0.01 0.00 0.00 0.00
0.03 0.02 0.03 0.05 0.01 0.00 0.00 0.00 0.00 0.00 0.00 0.00 0.00 0.00 0.00 0.00 0.00 0.00 0.00 0.00 0.00 0.00 0.01 0.00 0.00 0.00 0.00 0.00 0.00 0.00 0.00 0.00 0.00 0.00 0.00 0.00 0.01 0.02 0.01 0.02 0.06 0.01 0.01 0.00 0.00
0.03 0.03 0.05 0.03 0.00 0.00 0.00 0.00 0.00 0.00 0.01 0.00 0.00 0.00 0.00 0.00 0.00 0.00 0.00 0.00 0.00 0.00 0.01 0.02 0.00 0.00 0.00 0.00 0.00 0.01 0.00 0.00 0.00 0.00 0.05 0.02 0.01 0.03 0.02 0.00 0.02 0.01 0.00 0.00 0.00
0.05 0.05 0.08 0.05 0.01 0.00 0.00 0.01 0.02 0.04 0.03 0.00 0.00 0.00 0.00 0.00 0.00 0.00 0.00 0.00 0.00 0.00 0.00 0.00 0.00 0.01 0.01 0.00 0.00 0.00 0.00 0.00 0.00 0.00 0.01 0.01 0.02 0.04 0.03 0.02 0.05 0.03 0.00 0.00 0.00
0.08 0.09 0.11 0.02 0.01 0.00 0.01 0.09 0.07 0.00 0.00 0.00 0.00 0.00 0.00 0.00 0.00 0.00 0.00 0.00 0.00 0.00 0.00 0.00 0.00 0.00 0.00 0.00 0.00 0.00 0.00 0.01 0.06 0.02 0.01 0.03 0.03 0.05 0.01 0.06 0.16 0.09 0.00 0.00 0.00
0.10 0.13 0.10 0.03 0.00 0.02 0.11 0.23 0.03 0.00 0.00 0.00 0.00 0.00 0.00 0.00 0.00 0.00 0.00 0.00 0.00 0.00 0.00 0.00 0.01 0.00 0.00 0.00 0.01 0.00 0.00 0.02 0.16 0.05 0.03 0.03 0.02 0.01 0.00 0.00 0.00 0.00 0.00 0.00 0.00
0.25 0.22 0.18 0.04 0.00 0.05 0.30 0.23 0.01 0.00 0.00 0.00 0.00 0.00 0.00 0.00 0.00 0.00 0.00 0.00 0.00 0.00 0.01 0.04 0.01 0.01 0.00 0.00 0.00 0.00 0.00 0.00 0.01 0.02 0.03 0.01 0.01 0.00 0.00 0.00 0.00 0.00 0.00 0.00 0.00
0.30 0.25 0.11 0.03 0.05 0.22 0.46 0.11 0.00 0.00 0.00 0.00 0.00 0.00 0.00 0.00 0.00 0.00 0.00 0.00 0.00 0.00 0.00 0.06 0.16 0.03 0.00 0.00 0.00 0.00 0.00 0.00 0.00 0.04 0.04 0.00 0.00 0.02 0.01 0.01 0.00 0.00 0.00 0.00 0.00
0.49 0.42 0.09 0.06 0.32 0.50 0.35 0.04 0.00 0.00 0.00 0.00 0.00 0.00 0.00 0.00 0.00 0.00 0.00 0.00 0.00 0.00 0.00 0.00 0.02 0.03 0.00 0.00 0.00 0.00 0.00 0.00 0.00 0.00 0.00 0.01 0.00 0.01 0.00 0.00 0.00 0.00 0.00 0.00 0.00
0.80 0.47 0.12 0.11 0.40 0.20 0.05 0.00 0.00 0.00 0.00 0.00 0.00 0.00 0.00 0.00 0.00 0.00 0.00 0.00 0.00 0.00 0.00 0.00 0.00 0.00 0.00 0.00 0.00 0.00 0.01 0.03 0.00 0.00 0.00 0.01 0.00 0.00 0.00 0.00 0.00 0.00 0.00 0.00 0.00
1.05 0.54 0.51 0.17 0.20 0.07 0.01 0.00 0.00 0.00 0.00 0.00 0.00 0.00 0.00 0.00 0.00 0.00 0.00 0.00 0.00 0.00 0.00 0.00 0.00 0.00 0.00 0.00 0.00 0.00 0.00 0.00 0.00 0.00 0.01 0.03 0.00 0.00 0.00 0.00 0.00 0.00 0.00 0.00 0.00
1.13 0.89 1.22 0.57 0.03 0.00 0.00 0.00 0.00 0.00 0.00 0.00 0.00 0.00 0.00 0.00 0.00 0.00 0.00 0.00 0.00 0.00 0.00 0.00 0.00 0.00 0.00 0.00 0.00 0.00 0.00 0.00 0.00 0.00 0.00 0.00 0.00 0.00 0.00 0.00 0.00 0.00 0.00 0.00 0.00
1.75 0.54 0.44 0.33 0.07 0.00 0.00 0.00 0.00 0.00 0.00 0.00 0.00 0.00 0.00 0.00 0.00 0.00 0.00 0.00 0.00 0.00 0.00 0.00 0.00 0.00 0.00 0.00 0.00 0.00 0.00 0.00 0.00 0.00 0.00 0.00 0.00 0.00 0.00 0.00 0.00 0.00 0.00 0.00 0.00
2.23 0.23 0.08 0.03 0.01 0.02 0.02 0.00 0.00 0.00 0.00 0.00 0.00 0.00 0.00 0.00 0.00 0.00 0.03 0.05 0.04 0.00 0.00 0.00 0.00 0.00 0.00 0.00 0.00 0.00 0.00 0.00 0.00 0.00 0.00 0.00 0.00 0.00 0.00 0.00 0.00 0.00 0.00 0.00 0.00
2.25 0.16 0.11 0.07 0.04 0.05 0.02 0.00 0.00 0.00 0.00 0.00 0.00 0.00 0.00 0.01 0.02 0.02 0.03 0.02 0.06 0.07 0.04 0.01 0.00 0.00 0.00 0.00 0.00 0.00 0.00 0.00 0.00 0.00 0.00 0.00 0.00 0.00 0.00 0.00 0.00 0.00 0.00 0.00 0.00

GFSSW_prec_precacc_057.txt.gz
Total_Precipitation_Accumulation
0.02 0.02 0.01 0.02 0.01 0.01 0.01 0.01 0.01 0.01 0.02 0.02 0.02 0.02 0.02 0.03 0.00 0.00 0.00 0.00 0.00 0.00 0.00 0.00 0.00 0.00 0.00 0.00 0.00 0.00 0.00 0.00 0.00 0.02 0.13 0.21 0.32 0.22 0.08 0.04 0.30 0.54 0.94 1.18 0.82
0.03 0.03 0.03 0.03 0.02 0.01 0.02 0.01 0.01 0.01 0.02 0.02 0.01 0.01 0.02 0.03 0.00 0.00 0.00 0.00 0.00 0.00 0.00 0.00 0.00 0.00 0.00 0.00 0.00 0.00 0.00 0.00 0.00 0.01 0.12 0.16 0.03 0.15 0.24 0.16 0.39 0.91 1.20 0.77 0.45
0.04 0.03 0.03 0.03 0.02 0.02 0.02 0.02 0.02 0.02 0.02 0.02 0.02 0.02 0.02 0.01 0.00 0.00 0.00 0.00 0.00 0.00 0.00 0.00 0.00 0.00 0.00 0.00 0.00 0.00 0.00 0.00 0.00 0.01 0.11 0.03 0.01 0.03 0.08 0.25 0.76 1.55 1.68 0.86 0.56
0.03 0.03 0.03 0.03 0.02 0.02 0.02 0.01 0.02 0.02 0.01 0.02 0.02 0.02 0.02 0.00 0.00 0.00 0.00 0.00 0.00 0.00 0.00 0.00 0.00 0.00 0.00 0.00 0.00 0.00 0.00 0.00 0.00 0.00 0.02 0.05 0.07 0.06 0.31 0.75 0.42 0.36 0.51 0.68 0.79
0.03 0.02 0.03 0.02 0.03 0.02 0.02 0.02 0.02 0.02 0.02 0.02 0.02 0.03 0.01 0.00 0.00 0.00 0.00 0.00 0.00 0.00 0.00 0.00 0.00 0.00 0.00 0.00 0.00 0.00 0.00 0.00 0.01 0.01 0.01 0.01 0.06 0.11 0.25 0.10 0.07 0.18 0.29 0.52 0.58
0.03 0.02 0.02 0.03 0.02 0.02 0.02 0.02 0.02 0.02 0.02 0.02 0.02 0.02 0.00 0.00 0.00 0.00 0.00 0.00 0.00 0.00 0.00 0.00 0.00 0.00 0.00 0.00 0.00 0.00 0.00 0.00 0.02 0.00 0.00 0.00 0.23 0.18 0.54 0.16 0.08 0.05 0.18 0.41 0.34
0.03 0.03 0.02 0.03 0.03 0.02 0.02 0.02 0.02 0.02 0.02 0.02 0.02 0.01 0.00 0.00 0.00 0.00 0.00 0.00 0.00 0.00 0.00 0.00 0.00 0.00 0.00 0.00 0.00 0.00 0.00 0.00 0.00 0.01 0.01 0.04 0.22 0.14 0.13 0.10 0.06 0.02 0.06 0.16 0.09
0.03 0.03 0.02 0.02 0.02 0.02 0.02 0.02 0.02 0.02 0.03 0.03 0.03 0.00 0.00 0.00 0.00 0.00 0.00 0.00 0.00 0.00 0.00 0.00 0.00 0.00 0.00 0.00 0.00 0.00 0.00 0.00 0.00 0.01 0.02 0.11 0.51 0.05 0.05 0.03 0.03 0.02 0.03 0.03 0.09
0.02 0.02 0.02 0.02 0.02 0.02 0.02 0.02 0.02 0.03 0.03 0.02 0.01 0.00 0.00 0.00 0.00 0.00 0.00 0.02 0.00 0.00 0.00 0.00 0.00 0.00 0.00 0.00 0.00 0.00 0.00 0.00 0.00 0.00 0.01 0.05 0.35 0.22 0.07 0.08 0.05 0.01 0.00 0.00 0.00
0.02 0.02 0.01 0.01 0.02 0.03 0.02 0.02 0.02 0.02 0.01 0.00 0.00 0.00 0.00 0.00 0.00 0.00 0.00 0.02 0.01 0.00 0.00 0.00 0.00 0.00 0.00 0.00 0.00 0.00 0.00 0.00 0.02 0.07 0.00 0.00 0.03 0.16 0.19 0.07 0.04 0.01 0.00 0.00 0.00
0.02 0.01 0.01 0.01 0.02 0.03 0.01 0.01 0.00 0.00 0.00 0.00 0.00 0.00 0.00 0.00 0.00 0.00 0.00 0.00 0.00 0.00 0.01 0.00 0.00 0.00 0.00 0.00 0.00 0.00 0.00 0.00 0.00 0.00 0.00 0.00 0.00 0.02 0.14 0.04 0.02 0.03 0.01 0.01 0.00
0.02 0.01 0.01 0.01 0.04 0.03 0.00 0.00 0.00 0.00 0.00 0.00 0.00 0.00 0.00 0.00 0.00 0.00 0.00 0.00 0.00 0.00 0.01 0.00 0.00 0.00 0.00 0.00 0.00 0.00 0.00 0.00 0.00 0.00 0.00 0.00 0.00 0.00 0.02 0.00 0.00 0.00 0.00 0.00 0.00
0.03 0.01 0.02 0.04 0.05 0.01 0.00 0.00 0.00 0.00 0.00 0.00 0.00 0.00 0.00 0.00 0.00 0.00 0.00 0.00 0.00 0.00 0.00 0.00 0.00 0.00 0.00 0.00 0.00 0.00 0.00 0.00 0.00 0.00 0.00 0.00 0.00 0.00 0.00 0.02 0.07 0.01 0.00 0.00 0.00
0.04 0.03 0.03 0.05 0.01 0.00 0.00 0.00 0.00 0.00 0.00 0.00 0.00 0.00 0.00 0.00 0.00 0.00 0.00 0.00 0.00 0.00 0.01 0.00 0.00 0.00 0.00 0.00 0.00 0.00 0.00 0.00 0.00 0.00 0.00 0.00 0.01 0.02 0.01 0.02 0.06 0.01 0.01 0.00 0.00
0.04 0.03 0.05 0.03 0.00 0.00 0.00 0.00 0.00 0.00 0.01 0.00 0.00 0.00 0.00 0.00 0.00 0.00 0.00 0.00 0.00 0.00 0.01 0.02 0.00 0.00 0.00 0.00 0.00 0.01 0.00 0.00 0.00 0.00 0.05 0.02 0.01 0.03 0.02 0.00 0.02 0.01 0.00 0.00 0.00
0.06 0.06 0.09 0.05 0.01 0.00 0.00 0.01 0.03 0.05 0.03 0.00 0.00 0.00 0.00 0.00 0.00 0.00 0.00 0.00 0.00 0.00 0.00 0.00 0.00 0.01 0.01 0.00 0.00 0.00 0.00 0.00 0.00 0.00 0.01 0.01 0.02 0.04 0.03 0.02 0.05 0.03 0.00 0.00 0.00
0.10 0.11 0.12 0.02 0.01 0.00 0.01 0.09 0.09 0.01 0.00 0.00 0.00 0.00 0.00 0.00 0.00 0.00 0.00 0.00 0.00 0.00 0.00 0.00 0.00 0.00 0.00 0.00 0.00 0.00 0.00 0.01 0.06 0.02 0.01 0.03 0.03 0.05 0.01 0.06 0.16 0.09 0.00 0.00 0.00
0.12 0.15 0.10 0.03 0.00 0.02 0.11 0.25 0.05 0.00 0.00 0.00 0.00 0.00 0.00 0.00 0.00 0.00 0.00 0.00 0.00 0.00 0.00 0.00 0.01 0.00 0.00 0.00 0.01 0.00 0.00 0.02 0.16 0.05 0.03 0.03 0.02 0.01 0.00 0.00 0.00 0.00 0.00 0.00 0.00
0.29 0.25 0.18 0.04 0.00 0.05 0.30 0.25 0.02 0.00 0.00 0.00 0.00 0.00 0.00 0.00 0.00 0.00 0.00 0.00 0.00 0.00 0.01 0.04 0.01 0.01 0.00 0.00 0.00 0.00 0.00 0.00 0.01 0.02 0.03 0.01 0.01 0.00 0.00 0.00 0.00 0.00 0.00 0.00 0.00
0.35 0.30 0.12 0.03 0.05 0.22 0.47 0.12 0.00 0.00 0.00 0.00 0.00 0.00 0.00 0.00 0.00 0.00 0.00 0.00 0.00 0.00 0.00 0.06 0.16 0.03 0.00 0.00 0.00 0.00 0.00 0.00 0.00 0.04 0.04 0.00 0.00 0.02 0.01 0.01 0.00 0.00 0.00 0.00 0.00
0.64 0.56 0.11 0.06 0.33 0.51 0.35 0.04 0.00 0.00 0.00 0.00 0.00 0.00 0.00 0.00 0.00 0.00 0.00 0.00 0.00 0.00 0.00 0.00 0.02 0.03 0.00 0.00 0.00 0.00 0.00 0.00 0.00 0.00 0.00 0.01 0.00 0.01 0.00 0.00 0.00 0.00 0.00 0.00 0.00
1.07 0.66 0.14 0.12 0.43 0.21 0.06 0.00 0.00 0.00 0.00 0.00 0.00 0.00 0.00 0.00 0.00 0.00 0.00 0.00 0.00 0.00 0.00 0.00 0.00 0.00 0.00 0.00 0.00 0.00 0.01 0.03 0.00 0.00 0.00 0.01 0.00 0.00 0.00 0.00 0.00 0.00 0.00 0.00 0.00
1.35 0.71 0.57 0.17 0.22 0.07 0.01 0.00 0.00 0.00 0.00 0.00 0.00 0.00 0.00 0.00 0.00 0.00 0.00 0.00 0.00 0.00 0.00 0.00 0.00 0.00 0.00 0.00 0.00 0.00 0.00 0.00 0.00 0.00 0.01 0.03 0.00 0.00 0.00 0.00 0.00 0.00 0.00 0.00 0.00
1.47 1.06 1.41 0.62 0.03 0.00 0.00 0.00 0.00 0.00 0.00 0.00 0.00 0.00 0.00 0.00 0.00 0.00 0.00 0.00 0.00 0.00 0.00 0.00 0.00 0.00 0.00 0.00 0.00 0.00 0.00 0.00 0.00 0.00 0.00 0.00 0.00 0.00 0.00 0.00 0.00 0.00 0.00 0.00 0.00
2.17 0.68 0.49 0.40 0.08 0.00 0.00 0.00 0.00 0.00 0.00 0.00 0.00 0.00 0.00 0.00 0.00 0.00 0.00 0.00 0.00 0.00 0.00 0.00 0.00 0.00 0.00 0.00 0.00 0.00 0.00 0.00 0.00 0.00 0.00 0.00 0.00 0.00 0.00 0.00 0.00 0.00 0.00 0.00 0.00
2.57 0.30 0.10 0.03 0.02 0.03 0.02 0.00 0.00 0.00 0.00 0.00 0.00 0.00 0.00 0.00 0.00 0.00 0.03 0.05 0.04 0.00 0.00 0.00 0.00 0.00 0.00 0.00 0.00 0.00 0.00 0.00 0.00 0.00 0.00 0.00 0.00 0.00 0.00 0.00 0.00 0.00 0.00 0.00 0.00
2.44 0.19 0.13 0.09 0.04 0.06 0.02 0.00 0.00 0.00 0.00 0.00 0.00 0.00 0.00 0.01 0.02 0.02 0.03 0.02 0.06 0.07 0.04 0.02 0.00 0.00 0.00 0.00 0.00 0.00 0.00 0.00 0.00 0.00 0.00 0.00 0.00 0.00 0.00 0.00 0.00 0.00 0.00 0.00 0.00

GFSSW_prec_precacc_060.txt.gz
Total_Precipitation_Accumulation
0.02 0.02 0.01 0.02 0.01 0.01 0.01 0.01 0.01 0.01 0.02 0.02 0.02 0.02 0.03 0.03 0.01 0.00 0.00 0.00 0.00 0.00 0.00 0.00 0.00 0.00 0.00 0.00 0.00 0.00 0.00 0.00 0.00 0.02 0.13 0.21 0.32 0.22 0.08 0.04 0.30 0.54 0.94 1.18 0.82
0.03 0.03 0.03 0.03 0.02 0.01 0.02 0.01 0.01 0.01 0.02 0.02 0.01 0.01 0.02 0.04 0.00 0.00 0.00 0.00 0.00 0.00 0.00 0.00 0.00 0.00 0.00 0.00 0.00 0.00 0.00 0.00 0.00 0.01 0.12 0.16 0.03 0.15 0.24 0.16 0.39 0.91 1.20 0.77 0.45
0.04 0.03 0.03 0.03 0.02 0.02 0.02 0.02 0.02 0.02 0.02 0.02 0.02 0.02 0.02 0.02 0.00 0.00 0.00 0.00 0.00 0.00 0.00 0.00 0.00 0.00 0.00 0.00 0.00 0.00 0.00 0.00 0.00 0.01 0.11 0.03 0.01 0.03 0.08 0.25 0.76 1.55 1.68 0.86 0.56
0.03 0.03 0.03 0.03 0.02 0.02 0.02 0.01 0.02 0.02 0.01 0.02 0.02 0.02 0.02 0.00 0.00 0.00 0.00 0.00 0.00 0.00 0.00 0.00 0.00 0.00 0.00 0.00 0.00 0.00 0.00 0.00 0.00 0.00 0.02 0.05 0.07 0.06 0.31 0.75 0.42 0.36 0.51 0.68 0.79
0.03 0.02 0.03 0.02 0.03 0.02 0.02 0.02 0.02 0.02 0.02 0.02 0.02 0.03 0.01 0.00 0.00 0.00 0.00 0.00 0.00 0.00 0.00 0.00 0.00 0.00 0.00 0.00 0.00 0.00 0.00 0.00 0.01 0.01 0.01 0.01 0.06 0.11 0.25 0.10 0.07 0.18 0.29 0.52 0.58
0.03 0.02 0.02 0.03 0.02 0.02 0.02 0.02 0.02 0.02 0.02 0.02 0.02 0.02 0.00 0.00 0.00 0.00 0.00 0.00 0.00 0.00 0.00 0.00 0.00 0.00 0.00 0.00 0.00 0.00 0.00 0.00 0.02 0.00 0.00 0.00 0.23 0.18 0.54 0.16 0.08 0.05 0.18 0.41 0.34
0.03 0.03 0.02 0.03 0.03 0.02 0.02 0.02 0.02 0.02 0.02 0.02 0.02 0.01 0.00 0.00 0.00 0.00 0.00 0.00 0.00 0.00 0.00 0.00 0.00 0.00 0.00 0.00 0.00 0.00 0.00 0.00 0.00 0.01 0.01 0.04 0.22 0.14 0.13 0.10 0.06 0.02 0.06 0.16 0.09
0.03 0.03 0.02 0.02 0.02 0.02 0.02 0.02 0.02 0.02 0.03 0.03 0.03 0.00 0.00 0.00 0.00 0.00 0.00 0.00 0.00 0.00 0.00 0.00 0.00 0.00 0.00 0.00 0.00 0.00 0.00 0.00 0.00 0.01 0.02 0.11 0.51 0.05 0.05 0.03 0.03 0.02 0.03 0.03 0.09
0.02 0.02 0.02 0.02 0.02 0.02 0.02 0.02 0.02 0.03 0.03 0.02 0.01 0.00 0.00 0.00 0.00 0.00 0.00 0.02 0.00 0.00 0.00 0.00 0.00 0.00 0.00 0.00 0.00 0.00 0.00 0.00 0.00 0.00 0.01 0.05 0.35 0.22 0.07 0.08 0.05 0.01 0.00 0.00 0.00
0.02 0.02 0.01 0.01 0.02 0.03 0.02 0.02 0.02 0.02 0.01 0.00 0.00 0.00 0.00 0.00 0.00 0.00 0.00 0.02 0.01 0.00 0.00 0.00 0.00 0.00 0.00 0.00 0.00 0.00 0.00 0.00 0.02 0.07 0.00 0.00 0.03 0.16 0.19 0.07 0.04 0.01 0.00 0.00 0.00
0.02 0.02 0.01 0.01 0.02 0.03 0.01 0.01 0.00 0.00 0.00 0.00 0.00 0.00 0.00 0.00 0.00 0.00 0.00 0.00 0.00 0.00 0.01 0.00 0.00 0.00 0.00 0.00 0.00 0.00 0.00 0.00 0.00 0.00 0.00 0.00 0.00 0.02 0.14 0.04 0.02 0.03 0.01 0.01 0.00
0.02 0.01 0.01 0.01 0.04 0.03 0.00 0.00 0.00 0.00 0.00 0.00 0.00 0.00 0.00 0.00 0.00 0.00 0.00 0.00 0.00 0.00 0.01 0.00 0.00 0.00 0.00 0.00 0.00 0.00 0.00 0.00 0.00 0.00 0.00 0.00 0.00 0.00 0.02 0.00 0.00 0.00 0.00 0.00 0.00
0.03 0.01 0.02 0.04 0.05 0.01 0.00 0.00 0.00 0.00 0.00 0.00 0.00 0.00 0.00 0.00 0.00 0.00 0.00 0.00 0.00 0.00 0.00 0.00 0.00 0.00 0.00 0.00 0.00 0.00 0.00 0.00 0.00 0.00 0.00 0.00 0.00 0.00 0.00 0.02 0.07 0.01 0.00 0.00 0.00
0.04 0.03 0.03 0.06 0.01 0.00 0.00 0.00 0.00 0.00 0.00 0.00 0.00 0.00 0.00 0.00 0.00 0.00 0.00 0.00 0.00 0.00 0.01 0.00 0.00 0.00 0.00 0.00 0.00 0.00 0.00 0.00 0.00 0.00 0.00 0.00 0.01 0.02 0.01 0.02 0.06 0.01 0.01 0.00 0.00
0.04 0.03 0.05 0.04 0.00 0.00 0.00 0.00 0.00 0.02 0.01 0.00 0.00 0.00 0.00 0.00 0.00 0.00 0.00 0.00 0.00 0.00 0.01 0.02 0.00 0.00 0.00 0.00 0.00 0.01 0.00 0.00 0.00 0.00 0.05 0.02 0.01 0.03 0.02 0.00 0.02 0.01 0.00 0.00 0.00
0.07 0.07 0.10 0.07 0.01 0.00 0.00 0.01 0.04 0.07 0.03 0.00 0.00 0.00 0.00 0.00 0.00 0.00 0.00 0.00 0.00 0.00 0.00 0.00 0.00 0.01 0.01 0.00 0.00 0.00 0.00 0.00 0.00 0.00 0.01 0.01 0.02 0.04 0.03 0.02 0.05 0.03 0.00 0.00 0.00
0.10 0.12 0.14 0.03 0.01 0.00 0.01 0.09 0.12 0.04 0.00 0.00 0.00 0.00 0.00 0.00 0.00 0.00 0.00 0.00 0.00 0.00 0.00 0.00 0.00 0.00 0.00 0.00 0.00 0.00 0.00 0.01 0.06 0.02 0.01 0.03 0.03 0.05 0.01 0.06 0.16 0.09 0.00 0.00 0.00
0.14 0.17 0.11 0.04 0.00 0.02 0.11 0.25 0.07 0.00 0.00 0.00 0.00 0.00 0.00 0.00 0.00 0.00 0.00 0.00 0.00 0.00 0.00 0.00 0.01 0.00 0.00 0.00 0.01 0.00 0.00 0.02 0.16 0.05 0.03 0.03 0.02 0.01 0.00 0.00 0.00 0.00 0.00 0.00 0.00
0.32 0.26 0.19 0.05 0.00 0.05 0.30 0.26 0.03 0.00 0.00 0.00 0.00 0.00 0.00 0.00 0.00 0.00 0.00 0.00 0.00 0.00 0.01 0.04 0.01 0.01 0.00 0.00 0.00 0.00 0.00 0.00 0.01 0.02 0.03 0.01 0.01 0.00 0.00 0.00 0.00 0.00 0.00 0.00 0.00
0.39 0.34 0.13 0.03 0.06 0.24 0.48 0.13 0.01 0.01 0.00 0.00 0.00 0.00 0.00 0.00 0.00 0.00 0.00 0.00 0.00 0.00 0.00 0.06 0.16 0.03 0.00 0.00 0.00 0.00 0.00 0.00 0.00 0.04 0.04 0.00 0.00 0.02 0.01 0.01 0.00 0.00 0.00 0.00 0.00
0.71 0.66 0.13 0.07 0.40 0.60 0.40 0.05 0.00 0.00 0.00 0.00 0.00 0.00 0.00 0.00 0.00 0.00 0.00 0.00 0.00 0.00 0.00 0.00 0.02 0.03 0.00 0.00 0.00 0.00 0.00 0.00 0.00 0.00 0.00 0.01 0.00 0.01 0.00 0.00 0.00 0.00 0.00 0.00 0.00
1.15 0.80 0.19 0.12 0.59 0.33 0.10 0.01 0.00 0.00 0.00 0.00 0.00 0.00 0.00 0.00 0.00 0.00 0.00 0.00 0.00 0.00 0.00 0.00 0.00 0.00 0.00 0.00 0.00 0.00 0.01 0.03 0.00 0.00 0.00 0.01 0.00 0.00 0.00 0.00 0.00 0.00 0.00 0.00 0.00
1.46 0.87 0.67 0.19 0.29 0.14 0.03 0.00 0.00 0.00 0.00 0.00 0.00 0.00 0.00 0.00 0.00 0.00 0.00 0.00 0.00 0.00 0.00 0.00 0.00 0.00 0.00 0.00 0.00 0.00 0.00 0.00 0.00 0.00 0.01 0.03 0.00 0.00 0.00 0.00 0.00 0.00 0.00 0.00 0.00
1.73 1.24 1.61 0.81 0.05 0.01 0.01 0.01 0.00 0.00 0.00 0.00 0.00 0.00 0.00 0.00 0.00 0.00 0.00 0.00 0.00 0.00 0.00 0.00 0.00 0.00 0.00 0.00 0.00 0.00 0.00 0.00 0.00 0.00 0.00 0.00 0.00 0.00 0.00 0.00 0.00 0.00 0.00 0.00 0.00
2.45 0.88 0.56 0.50 0.15 0.01 0.00 0.00 0.00 0.00 0.00 0.00 0.00 0.00 0.00 0.00 0.00 0.00 0.00 0.01 0.00 0.00 0.00 0.00 0.00 0.00 0.00 0.00 0.00 0.00 0.00 0.00 0.00 0.00 0.00 0.00 0.00 0.00 0.00 0.00 0.00 0.00 0.00 0.00 0.00
2.85 0.37 0.16 0.05 0.02 0.04 0.03 0.00 0.00 0.00 0.00 0.00 0.00 0.00 0.00 0.00 0.00 0.00 0.03 0.05 0.04 0.00 0.00 0.00 0.00 0.00 0.00 0.00 0.00 0.00 0.00 0.00 0.00 0.00 0.00 0.00 0.00 0.00 0.00 0.00 0.00 0.00 0.00 0.00 0.00
2.61 0.25 0.16 0.13 0.04 0.08 0.04 0.01 0.00 0.00 0.00 0.00 0.00 0.00 0.00 0.01 0.02 0.02 0.03 0.02 0.06 0.07 0.04 0.02 0.00 0.00 0.00 0.00 0.00 0.00 0.00 0.00 0.00 0.00 0.00 0.00 0.00 0.00 0.00 0.00 0.00 0.00 0.00 0.00 0.00

GFSSW_prec_precacc_063.txt.gz
Total_Precipitation_Accumulation
0.02 0.02 0.01 0.02 0.01 0.01 0.01 0.01 0.01 0.01 0.02 0.02 0.02 0.02 0.03 0.04 0.01 0.00 0.00 0.00 0.00 0.00 0.00 0.00 0.00 0.00 0.00 0.00 0.00 0.00 0.00 0.00 0.00 0.02 0.13 0.21 0.32 0.22 0.08 0.04 0.30 0.54 0.94 1.18 0.82
0.03 0.03 0.03 0.03 0.02 0.01 0.02 0.01 0.01 0.01 0.02 0.02 0.01 0.01 0.02 0.04 0.00 0.00 0.00 0.00 0.00 0.00 0.00 0.00 0.00 0.00 0.00 0.00 0.00 0.00 0.00 0.00 0.00 0.01 0.12 0.16 0.03 0.15 0.24 0.16 0.39 0.91 1.20 0.77 0.45
0.04 0.03 0.03 0.03 0.02 0.02 0.02 0.02 0.02 0.02 0.02 0.02 0.02 0.02 0.02 0.02 0.00 0.00 0.00 0.00 0.00 0.00 0.00 0.00 0.00 0.00 0.00 0.00 0.00 0.00 0.00 0.00 0.00 0.01 0.11 0.03 0.01 0.03 0.08 0.25 0.76 1.55 1.68 0.86 0.56
0.03 0.03 0.03 0.03 0.02 0.02 0.02 0.01 0.02 0.02 0.01 0.02 0.02 0.02 0.02 0.00 0.00 0.00 0.00 0.00 0.00 0.00 0.00 0.00 0.00 0.00 0.00 0.00 0.00 0.00 0.00 0.00 0.00 0.00 0.02 0.05 0.07 0.06 0.31 0.75 0.42 0.36 0.51 0.68 0.79
0.03 0.02 0.03 0.02 0.03 0.02 0.02 0.02 0.02 0.02 0.02 0.02 0.02 0.03 0.01 0.00 0.00 0.00 0.00 0.00 0.00 0.00 0.00 0.00 0.00 0.00 0.00 0.00 0.00 0.00 0.00 0.00 0.01 0.01 0.01 0.01 0.06 0.11 0.25 0.10 0.07 0.18 0.29 0.52 0.58
0.03 0.02 0.02 0.03 0.02 0.02 0.02 0.02 0.02 0.02 0.02 0.02 0.02 0.02 0.00 0.00 0.00 0.00 0.00 0.00 0.00 0.00 0.00 0.00 0.00 0.00 0.00 0.00 0.00 0.00 0.00 0.00 0.02 0.00 0.00 0.00 0.23 0.18 0.54 0.16 0.08 0.05 0.18 0.41 0.34
0.04 0.03 0.02 0.03 0.03 0.02 0.02 0.02 0.02 0.02 0.02 0.02 0.02 0.01 0.00 0.00 0.00 0.00 0.00 0.00 0.00 0.00 0.00 0.00 0.00 0.00 0.00 0.00 0.00 0.00 0.00 0.00 0.00 0.01 0.01 0.04 0.22 0.14 0.13 0.10 0.06 0.02 0.06 0.16 0.09
0.03 0.03 0.02 0.02 0.02 0.02 0.02 0.02 0.02 0.02 0.03 0.03 0.03 0.00 0.00 0.00 0.00 0.00 0.00 0.00 0.00 0.00 0.00 0.00 0.00 0.00 0.00 0.00 0.00 0.00 0.00 0.00 0.00 0.01 0.02 0.11 0.51 0.05 0.05 0.03 0.03 0.02 0.03 0.03 0.09
0.02 0.02 0.02 0.02 0.02 0.02 0.02 0.02 0.02 0.03 0.03 0.02 0.01 0.00 0.00 0.00 0.00 0.00 0.00 0.02 0.00 0.00 0.00 0.00 0.00 0.00 0.00 0.00 0.00 0.00 0.00 0.00 0.00 0.00 0.01 0.05 0.35 0.22 0.07 0.08 0.05 0.01 0.00 0.00 0.00
0.02 0.02 0.01 0.01 0.02 0.03 0.02 0.02 0.02 0.02 0.01 0.00 0.00 0.00 0.00 0.00 0.00 0.00 0.00 0.02 0.01 0.00 0.00 0.00 0.00 0.00 0.00 0.00 0.00 0.00 0.00 0.00 0.02 0.07 0.00 0.00 0.03 0.16 0.19 0.07 0.04 0.01 0.00 0.00 0.00
0.02 0.02 0.01 0.01 0.02 0.03 0.01 0.01 0.00 0.00 0.00 0.00 0.00 0.00 0.00 0.00 0.00 0.00 0.00 0.00 0.00 0.00 0.01 0.00 0.00 0.00 0.00 0.00 0.00 0.00 0.00 0.00 0.00 0.00 0.00 0.00 0.00 0.02 0.14 0.04 0.02 0.03 0.01 0.01 0.00
0.03 0.01 0.01 0.01 0.04 0.03 0.00 0.00 0.00 0.00 0.00 0.00 0.00 0.00 0.00 0.00 0.00 0.00 0.00 0.00 0.00 0.00 0.01 0.00 0.00 0.00 0.00 0.00 0.00 0.00 0.00 0.00 0.00 0.00 0.00 0.00 0.00 0.00 0.02 0.00 0.00 0.00 0.00 0.00 0.00
0.03 0.01 0.02 0.04 0.05 0.01 0.00 0.00 0.00 0.00 0.01 0.00 0.00 0.00 0.00 0.00 0.00 0.00 0.00 0.00 0.00 0.00 0.00 0.00 0.00 0.00 0.00 0.00 0.00 0.00 0.00 0.00 0.00 0.00 0.00 0.00 0.00 0.00 0.00 0.02 0.07 0.01 0.00 0.00 0.00
0.04 0.03 0.03 0.06 0.01 0.00 0.00 0.00 0.00 0.00 0.01 0.00 0.00 0.00 0.00 0.00 0.00 0.00 0.00 0.00 0.00 0.00 0.01 0.00 0.00 0.00 0.00 0.00 0.00 0.00 0.00 0.00 0.00 0.00 0.00 0.00 0.01 0.02 0.01 0.02 0.06 0.01 0.01 0.00 0.00
0.04 0.04 0.05 0.06 0.01 0.00 0.00 0.00 0.00 0.02 0.02 0.00 0.00 0.00 0.00 0.00 0.00 0.00 0.00 0.00 0.00 0.00 0.01 0.02 0.00 0.00 0.00 0.00 0.00 0.01 0.00 0.00 0.00 0.00 0.05 0.02 0.01 0.03 0.02 0.00 0.02 0.01 0.00 0.00 0.00
0.07 0.07 0.11 0.08 0.02 0.00 0.00 0.01 0.04 0.09 0.04 0.00 0.00 0.00 0.00 0.00 0.00 0.00 0.00 0.00 0.00 0.00 0.00 0.00 0.00 0.01 0.01 0.00 0.00 0.00 0.00 0.00 0.00 0.00 0.01 0.01 0.02 0.04 0.03 0.02 0.05 0.03 0.00 0.00 0.00
0.10 0.12 0.15 0.05 0.02 0.00 0.01 0.09 0.13 0.06 0.00 0.00 0.00 0.00 0.00 0.00 0.00 0.00 0.00 0.00 0.00 0.00 0.00 0.00 0.00 0.00 0.00 0.00 0.00 0.00 0.00 0.01 0.06 0.02 0.01 0.03 0.03 0.05 0.01 0.06 0.16 0.09 0.00 0.00 0.00
0.15 0.18 0.11 0.06 0.01 0.02 0.11 0.25 0.08 0.00 0.00 0.00 0.00 0.00 0.00 0.00 0.00 0.00 0.00 0.00 0.00 0.00 0.00 0.00 0.01 0.00 0.00 0.00 0.01 0.00 0.00 0.02 0.16 0.05 0.03 0.03 0.02 0.01 0.00 0.00 0.00 0.00 0.00 0.00 0.00
0.34 0.27 0.20 0.05 0.02 0.07 0.32 0.27 0.04 0.00 0.00 0.00 0.00 0.00 0.01 0.00 0.00 0.00 0.00 0.00 0.00 0.00 0.01 0.04 0.01 0.01 0.00 0.00 0.00 0.00 0.00 0.00 0.01 0.02 0.03 0.01 0.01 0.00 0.00 0.00 0.00 0.00 0.00 0.00 0.00
0.41 0.35 0.13 0.04 0.10 0.31 0.59 0.16 0.01 0.02 0.00 0.00 0.00 0.00 0.01 0.00 0.00 0.00 0.00 0.00 0.00 0.00 0.00 0.06 0.16 0.03 0.00 0.00 0.00 0.00 0.00 0.00 0.00 0.04 0.04 0.00 0.00 0.02 0.01 0.01 0.00 0.00 0.00 0.00 0.00
0.74 0.69 0.13 0.08 0.46 0.78 0.58 0.07 0.00 0.00 0.00 0.00 0.00 0.00 0.00 0.00 0.00 0.00 0.00 0.00 0.00 0.00 0.00 0.00 0.02 0.03 0.00 0.00 0.00 0.00 0.00 0.00 0.00 0.00 0.00 0.01 0.00 0.01 0.00 0.00 0.00 0.00 0.00 0.00 0.00
1.20 0.84 0.20 0.17 0.67 0.48 0.21 0.02 0.00 0.00 0.00 0.00 0.00 0.00 0.00 0.00 0.00 0.00 0.00 0.00 0.00 0.00 0.00 0.00 0.00 0.00 0.00 0.00 0.00 0.00 0.01 0.03 0.00 0.00 0.00 0.01 0.00 0.00 0.00 0.00 0.00 0.00 0.00 0.00 0.00
1.52 0.89 0.71 0.29 0.38 0.23 0.11 0.01 0.00 0.00 0.00 0.00 0.00 0.00 0.00 0.00 0.00 0.00 0.00 0.00 0.00 0.00 0.00 0.00 0.00 0.00 0.00 0.00 0.00 0.00 0.00 0.00 0.00 0.00 0.01 0.03 0.00 0.00 0.00 0.00 0.00 0.00 0.00 0.00 0.00
1.84 1.34 1.65 0.96 0.20 0.05 0.04 0.02 0.00 0.00 0.00 0.00 0.00 0.00 0.00 0.00 0.00 0.00 0.00 0.00 0.00 0.00 0.00 0.00 0.00 0.00 0.00 0.00 0.00 0.00 0.00 0.00 0.00 0.00 0.00 0.00 0.00 0.00 0.00 0.00 0.00 0.00 0.00 0.00 0.00
2.64 0.97 0.60 0.56 0.28 0.10 0.02 0.00 0.00 0.00 0.00 0.00 0.00 0.00 0.00 0.00 0.00 0.00 0.00 0.01 0.00 0.00 0.00 0.00 0.00 0.00 0.00 0.00 0.00 0.00 0.00 0.00 0.00 0.00 0.00 0.00 0.00 0.00 0.00 0.00 0.00 0.00 0.00 0.00 0.00
3.06 0.42 0.19 0.13 0.04 0.10 0.09 0.01 0.00 0.00 0.00 0.00 0.00 0.00 0.00 0.00 0.00 0.00 0.03 0.05 0.04 0.00 0.00 0.00 0.00 0.00 0.00 0.00 0.00 0.00 0.00 0.00 0.00 0.00 0.00 0.00 0.00 0.00 0.00 0.00 0.00 0.00 0.00 0.00 0.00
2.76 0.30 0.21 0.16 0.12 0.17 0.11 0.01 0.00 0.00 0.00 0.00 0.00 0.00 0.00 0.01 0.02 0.02 0.03 0.02 0.06 0.07 0.04 0.02 0.00 0.00 0.00 0.00 0.00 0.00 0.00 0.00 0.00 0.00 0.00 0.00 0.00 0.00 0.00 0.00 0.00 0.00 0.00 0.00 0.00

GFSSW_prec_precacc_066.txt.gz
Total_Precipitation_Accumulation
0.02 0.02 0.01 0.02 0.01 0.01 0.01 0.01 0.01 0.01 0.02 0.02 0.02 0.02 0.03 0.04 0.01 0.00 0.00 0.00 0.00 0.00 0.00 0.00 0.00 0.00 0.00 0.00 0.00 0.00 0.00 0.00 0.00 0.02 0.13 0.21 0.32 0.22 0.08 0.04 0.30 0.54 0.94 1.18 0.82
0.03 0.03 0.03 0.03 0.02 0.01 0.02 0.01 0.01 0.01 0.02 0.02 0.01 0.01 0.02 0.04 0.00 0.00 0.00 0.00 0.00 0.00 0.00 0.00 0.00 0.00 0.00 0.00 0.00 0.00 0.00 0.00 0.00 0.01 0.12 0.16 0.03 0.15 0.24 0.16 0.39 0.91 1.20 0.77 0.45
0.04 0.03 0.03 0.03 0.02 0.02 0.02 0.02 0.02 0.02 0.02 0.02 0.02 0.02 0.02 0.02 0.00 0.00 0.00 0.00 0.00 0.00 0.00 0.00 0.00 0.00 0.00 0.00 0.00 0.00 0.00 0.00 0.00 0.01 0.11 0.03 0.01 0.03 0.08 0.25 0.76 1.55 1.68 0.86 0.56
0.03 0.03 0.03 0.03 0.02 0.02 0.02 0.01 0.02 0.02 0.01 0.02 0.02 0.02 0.02 0.00 0.00 0.00 0.00 0.00 0.00 0.00 0.00 0.00 0.00 0.00 0.00 0.00 0.00 0.00 0.00 0.00 0.00 0.00 0.02 0.05 0.07 0.06 0.31 0.75 0.42 0.36 0.51 0.68 0.79
0.03 0.02 0.03 0.02 0.03 0.02 0.02 0.02 0.02 0.02 0.02 0.02 0.02 0.03 0.01 0.00 0.00 0.00 0.00 0.00 0.00 0.00 0.00 0.00 0.00 0.00 0.00 0.00 0.00 0.00 0.00 0.00 0.01 0.01 0.01 0.01 0.06 0.11 0.25 0.10 0.07 0.18 0.29 0.52 0.58
0.03 0.02 0.02 0.03 0.02 0.02 0.02 0.02 0.02 0.02 0.02 0.02 0.02 0.02 0.00 0.00 0.00 0.00 0.00 0.00 0.00 0.00 0.00 0.00 0.00 0.00 0.00 0.00 0.00 0.00 0.00 0.00 0.02 0.00 0.00 0.00 0.23 0.18 0.54 0.16 0.08 0.05 0.18 0.41 0.34
0.04 0.03 0.02 0.03 0.03 0.02 0.02 0.02 0.02 0.02 0.02 0.02 0.02 0.02 0.00 0.00 0.00 0.00 0.00 0.00 0.00 0.00 0.00 0.00 0.00 0.00 0.00 0.00 0.00 0.00 0.00 0.00 0.00 0.01 0.01 0.04 0.22 0.14 0.13 0.10 0.06 0.02 0.06 0.16 0.09
0.03 0.03 0.02 0.02 0.02 0.02 0.02 0.02 0.02 0.02 0.03 0.03 0.03 0.01 0.00 0.00 0.00 0.00 0.00 0.00 0.00 0.00 0.00 0.00 0.00 0.00 0.00 0.00 0.00 0.00 0.00 0.00 0.00 0.01 0.02 0.11 0.51 0.05 0.05 0.03 0.03 0.02 0.03 0.03 0.09
0.03 0.02 0.02 0.02 0.02 0.02 0.02 0.02 0.02 0.03 0.03 0.02 0.01 0.00 0.00 0.00 0.00 0.00 0.00 0.02 0.00 0.00 0.00 0.00 0.00 0.00 0.00 0.00 0.00 0.00 0.00 0.00 0.00 0.00 0.01 0.05 0.35 0.22 0.07 0.08 0.05 0.01 0.00 0.00 0.00
0.03 0.02 0.01 0.01 0.02 0.03 0.02 0.02 0.02 0.02 0.01 0.00 0.00 0.00 0.00 0.00 0.00 0.00 0.00 0.02 0.01 0.00 0.00 0.00 0.00 0.00 0.00 0.00 0.00 0.00 0.00 0.00 0.02 0.07 0.00 0.00 0.03 0.16 0.19 0.07 0.04 0.01 0.00 0.00 0.00
0.02 0.02 0.01 0.01 0.02 0.03 0.01 0.01 0.00 0.00 0.00 0.00 0.00 0.00 0.00 0.00 0.00 0.00 0.00 0.00 0.00 0.00 0.01 0.00 0.00 0.00 0.00 0.00 0.00 0.00 0.00 0.00 0.00 0.00 0.00 0.00 0.00 0.02 0.14 0.04 0.02 0.03 0.01 0.01 0.00
0.03 0.01 0.01 0.01 0.04 0.03 0.00 0.00 0.00 0.00 0.01 0.00 0.00 0.00 0.00 0.00 0.00 0.00 0.00 0.00 0.00 0.00 0.01 0.00 0.00 0.00 0.00 0.00 0.00 0.00 0.00 0.00 0.00 0.00 0.00 0.00 0.00 0.00 0.02 0.00 0.00 0.00 0.00 0.00 0.00
0.03 0.02 0.02 0.04 0.05 0.01 0.00 0.00 0.00 0.00 0.01 0.00 0.00 0.00 0.00 0.00 0.00 0.00 0.00 0.00 0.00 0.00 0.00 0.00 0.00 0.00 0.00 0.00 0.00 0.00 0.00 0.00 0.00 0.00 0.00 0.00 0.00 0.00 0.00 0.02 0.07 0.01 0.00 0.00 0.00
0.04 0.03 0.03 0.06 0.01 0.00 0.00 0.00 0.00 0.00 0.01 0.00 0.00 0.00 0.00 0.00 0.00 0.00 0.00 0.00 0.00 0.00 0.01 0.00 0.00 0.00 0.00 0.00 0.00 0.00 0.00 0.00 0.00 0.00 0.00 0.00 0.01 0.02 0.01 0.02 0.06 0.01 0.01 0.00 0.00
0.04 0.04 0.05 0.07 0.02 0.00 0.00 0.00 0.00 0.02 0.02 0.00 0.00 0.00 0.00 0.00 0.00 0.00 0.00 0.00 0.00 0.00 0.01 0.02 0.00 0.00 0.00 0.00 0.00 0.01 0.00 0.00 0.00 0.00 0.05 0.02 0.01 0.03 0.02 0.00 0.02 0.01 0.00 0.00 0.00
0.07 0.07 0.11 0.08 0.04 0.01 0.00 0.01 0.04 0.09 0.04 0.00 0.00 0.00 0.00 0.00 0.00 0.00 0.00 0.00 0.00 0.03 0.02 0.00 0.00 0.01 0.01 0.00 0.00 0.00 0.00 0.00 0.00 0.00 0.01 0.01 0.02 0.04 0.03 0.02 0.05 0.03 0.00 0.00 0.00
0.10 0.12 0.16 0.06 0.02 0.00 0.01 0.09 0.13 0.06 0.00 0.00 0.00 0.00 0.00 0.00 0.00 0.00 0.00 0.00 0.00 0.01 0.01 0.00 0.00 0.00 0.00 0.00 0.00 0.00 0.00 0.01 0.06 0.02 0.01 0.03 0.03 0.05 0.01 0.06 0.16 0.09 0.00 0.00 0.00
0.15 0.19 0.12 0.06 0.02 0.03 0.11 0.25 0.08 0.00 0.00 0.00 0.00 0.00 0.00 0.00 0.00 0.00 0.00 0.00 0.00 0.00 0.00 0.02 0.01 0.00 0.00 0.00 0.01 0.00 0.00 0.02 0.16 0.05 0.03 0.03 0.02 0.01 0.00 0.00 0.00 0.00 0.00 0.00 0.00
0.34 0.27 0.20 0.05 0.03 0.09 0.36 0.30 0.04 0.00 0.00 0.00 0.00 0.00 0.01 0.00 0.00 0.00 0.00 0.00 0.00 0.00 0.01 0.05 0.01 0.01 0.00 0.00 0.00 0.00 0.00 0.00 0.01 0.02 0.03 0.01 0.01 0.00 0.00 0.00 0.00 0.00 0.00 0.00 0.00
0.43 0.36 0.13 0.04 0.13 0.37 0.68 0.21 0.01 0.02 0.00 0.00 0.00 0.00 0.01 0.00 0.00 0.01 0.01 0.00 0.00 0.00 0.00 0.06 0.16 0.03 0.00 0.00 0.00 0.00 0.00 0.00 0.00 0.04 0.04 0.00 0.00 0.02 0.01 0.01 0.00 0.00 0.00 0.00 0.00
0.77 0.71 0.14 0.08 0.50 0.85 0.66 0.11 0.00 0.00 0.00 0.00 0.00 0.00 0.00 0.00 0.00 0.01 0.04 0.02 0.00 0.00 0.00 0.00 0.02 0.03 0.00 0.00 0.00 0.00 0.00 0.00 0.00 0.00 0.00 0.01 0.00 0.01 0.00 0.00 0.00 0.00 0.00 0.00 0.00
1.22 0.86 0.21 0.21 0.73 0.52 0.25 0.05 0.00 0.00 0.00 0.00 0.00 0.00 0.00 0.00 0.00 0.00 0.02 0.02 0.00 0.00 0.00 0.00 0.00 0.00 0.00 0.00 0.00 0.00 0.01 0.03 0.00 0.00 0.00 0.01 0.00 0.00 0.00 0.00 0.00 0.00 0.00 0.00 0.00
1.54 0.90 0.73 0.38 0.44 0.25 0.13 0.02 0.00 0.00 0.00 0.00 0.00 0.00 0.00 0.00 0.00 0.00 0.02 0.01 0.00 0.01 0.00 0.00 0.00 0.00 0.00 0.00 0.00 0.00 0.00 0.00 0.00 0.00 0.01 0.03 0.00 0.00 0.00 0.00 0.00 0.00 0.00 0.00 0.00
1.89 1.38 1.68 1.02 0.23 0.07 0.09 0.06 0.02 0.00 0.00 0.00 0.00 0.00 0.00 0.00 0.00 0.00 0.01 0.02 0.01 0.01 0.00 0.01 0.01 0.00 0.00 0.00 0.00 0.00 0.00 0.00 0.00 0.00 0.00 0.00 0.00 0.00 0.00 0.00 0.00 0.00 0.00 0.00 0.00
2.73 1.04 0.62 0.61 0.29 0.11 0.06 0.04 0.01 0.01 0.00 0.00 0.00 0.00 0.00 0.00 0.00 0.00 0.00 0.01 0.01 0.00 0.00 0.00 0.01 0.00 0.00 0.00 0.00 0.00 0.00 0.00 0.00 0.00 0.00 0.00 0.00 0.00 0.00 0.00 0.00 0.00 0.00 0.00 0.00
3.13 0.46 0.23 0.14 0.09 0.14 0.13 0.10 0.02 0.02 0.01 0.00 0.00 0.00 0.00 0.00 0.00 0.00 0.03 0.05 0.05 0.01 0.00 0.00 0.01 0.00 0.00 0.00 0.00 0.00 0.00 0.00 0.00 0.00 0.00 0.00 0.00 0.00 0.00 0.00 0.00 0.00 0.00 0.00 0.00
2.81 0.32 0.28 0.20 0.13 0.26 0.17 0.04 0.04 0.02 0.01 0.00 0.00 0.00 0.01 0.01 0.02 0.02 0.03 0.02 0.06 0.07 0.04 0.02 0.01 0.00 0.00 0.00 0.00 0.00 0.00 0.00 0.00 0.00 0.00 0.00 0.00 0.00 0.00 0.00 0.00 0.00 0.00 0.00 0.00

GFSSW_prec_precacc_069.txt.gz
Total_Precipitation_Accumulation
0.02 0.02 0.01 0.02 0.01 0.01 0.01 0.01 0.01 0.01 0.02 0.02 0.02 0.02 0.03 0.04 0.01 0.00 0.00 0.00 0.00 0.00 0.00 0.00 0.00 0.00 0.00 0.00 0.00 0.00 0.00 0.00 0.00 0.02 0.13 0.21 0.32 0.22 0.08 0.04 0.30 0.54 0.94 1.18 0.82
0.03 0.03 0.03 0.03 0.02 0.01 0.02 0.01 0.01 0.01 0.02 0.02 0.01 0.01 0.02 0.04 0.00 0.00 0.00 0.00 0.00 0.00 0.00 0.00 0.00 0.00 0.00 0.00 0.00 0.00 0.00 0.00 0.00 0.01 0.12 0.16 0.03 0.15 0.24 0.16 0.39 0.91 1.20 0.77 0.45
0.04 0.03 0.03 0.03 0.02 0.02 0.02 0.02 0.02 0.02 0.02 0.02 0.02 0.02 0.02 0.02 0.00 0.00 0.00 0.00 0.00 0.00 0.00 0.00 0.00 0.00 0.00 0.00 0.00 0.00 0.00 0.00 0.00 0.01 0.11 0.03 0.01 0.03 0.08 0.25 0.76 1.55 1.68 0.86 0.56
0.03 0.03 0.03 0.03 0.02 0.02 0.02 0.01 0.02 0.02 0.01 0.02 0.02 0.02 0.02 0.00 0.00 0.00 0.00 0.00 0.00 0.00 0.00 0.00 0.00 0.00 0.00 0.00 0.00 0.00 0.00 0.00 0.00 0.00 0.02 0.05 0.07 0.06 0.31 0.75 0.42 0.36 0.51 0.68 0.79
0.03 0.02 0.03 0.02 0.03 0.02 0.02 0.02 0.02 0.02 0.02 0.02 0.02 0.03 0.01 0.00 0.00 0.00 0.00 0.00 0.00 0.00 0.00 0.00 0.00 0.00 0.00 0.00 0.00 0.00 0.00 0.00 0.01 0.01 0.01 0.01 0.06 0.11 0.25 0.10 0.07 0.18 0.29 0.52 0.58
0.04 0.02 0.02 0.03 0.02 0.02 0.02 0.02 0.02 0.02 0.02 0.02 0.02 0.02 0.00 0.00 0.00 0.00 0.00 0.00 0.00 0.00 0.00 0.00 0.00 0.00 0.00 0.00 0.00 0.00 0.00 0.00 0.02 0.00 0.00 0.00 0.23 0.18 0.54 0.16 0.08 0.05 0.18 0.41 0.34
0.04 0.03 0.02 0.03 0.03 0.02 0.02 0.02 0.02 0.02 0.02 0.02 0.02 0.02 0.00 0.00 0.00 0.00 0.00 0.00 0.00 0.00 0.00 0.00 0.00 0.00 0.00 0.00 0.00 0.00 0.00 0.00 0.00 0.01 0.01 0.04 0.22 0.14 0.13 0.10 0.06 0.02 0.06 0.16 0.09
0.03 0.03 0.02 0.02 0.02 0.02 0.02 0.02 0.02 0.02 0.03 0.03 0.03 0.01 0.00 0.00 0.00 0.00 0.00 0.00 0.00 0.00 0.00 0.00 0.00 0.00 0.00 0.00 0.00 0.00 0.00 0.00 0.00 0.01 0.02 0.11 0.51 0.05 0.05 0.03 0.03 0.02 0.03 0.03 0.09
0.03 0.02 0.02 0.02 0.02 0.02 0.02 0.02 0.02 0.03 0.03 0.02 0.01 0.00 0.00 0.00 0.00 0.00 0.00 0.02 0.00 0.00 0.00 0.00 0.00 0.00 0.00 0.00 0.00 0.00 0.00 0.00 0.00 0.00 0.01 0.05 0.35 0.22 0.07 0.08 0.05 0.01 0.00 0.00 0.00
0.03 0.02 0.01 0.01 0.02 0.03 0.02 0.02 0.02 0.02 0.01 0.00 0.00 0.00 0.00 0.00 0.00 0.00 0.00 0.02 0.01 0.00 0.00 0.00 0.00 0.00 0.00 0.00 0.00 0.00 0.00 0.00 0.02 0.07 0.00 0.00 0.03 0.16 0.19 0.07 0.04 0.01 0.00 0.00 0.00
0.03 0.02 0.01 0.01 0.02 0.03 0.01 0.01 0.00 0.00 0.00 0.00 0.00 0.00 0.00 0.00 0.00 0.00 0.00 0.00 0.00 0.00 0.02 0.00 0.00 0.00 0.00 0.00 0.00 0.00 0.00 0.00 0.00 0.00 0.00 0.00 0.00 0.02 0.14 0.04 0.02 0.03 0.01 0.01 0.00
0.03 0.02 0.01 0.01 0.04 0.03 0.00 0.00 0.00 0.00 0.01 0.00 0.00 0.00 0.00 0.00 0.00 0.00 0.00 0.03 0.02 0.03 0.01 0.00 0.00 0.00 0.00 0.00 0.00 0.00 0.00 0.00 0.00 0.00 0.00 0.00 0.00 0.00 0.02 0.00 0.00 0.00 0.00 0.00 0.00
0.04 0.02 0.02 0.04 0.05 0.01 0.00 0.00 0.00 0.00 0.01 0.00 0.00 0.00 0.00 0.00 0.00 0.00 0.00 0.01 0.03 0.02 0.02 0.00 0.00 0.00 0.00 0.00 0.00 0.00 0.00 0.00 0.00 0.00 0.00 0.00 0.00 0.00 0.00 0.02 0.07 0.01 0.00 0.00 0.00
0.04 0.03 0.03 0.06 0.01 0.00 0.00 0.00 0.00 0.00 0.01 0.00 0.00 0.00 0.00 0.00 0.00 0.00 0.00 0.00 0.01 0.01 0.02 0.01 0.00 0.00 0.00 0.00 0.00 0.00 0.00 0.00 0.00 0.00 0.00 0.00 0.01 0.02 0.01 0.02 0.06 0.01 0.01 0.00 0.00
0.05 0.04 0.06 0.07 0.02 0.01 0.00 0.00 0.00 0.03 0.02 0.00 0.00 0.00 0.00 0.00 0.00 0.00 0.00 0.00 0.01 0.02 0.05 0.06 0.00 0.00 0.00 0.00 0.00 0.01 0.00 0.00 0.00 0.00 0.05 0.02 0.01 0.03 0.02 0.00 0.02 0.01 0.00 0.00 0.00
0.07 0.07 0.11 0.08 0.04 0.01 0.00 0.01 0.04 0.09 0.04 0.00 0.00 0.00 0.00 0.00 0.00 0.00 0.00 0.00 0.02 0.14 0.04 0.01 0.00 0.01 0.01 0.00 0.00 0.00 0.00 0.00 0.00 0.00 0.01 0.01 0.02 0.04 0.03 0.02 0.05 0.03 0.00 0.00 0.00
0.11 0.13 0.16 0.06 0.03 0.00 0.01 0.09 0.13 0.06 0.00 0.00 0.00 0.00 0.00 0.00 0.00 0.00 0.00 0.00 0.02 0.09 0.06 0.01 0.01 0.00 0.00 0.00 0.00 0.00 0.00 0.01 0.06 0.02 0.01 0.03 0.03 0.05 0.01 0.06 0.16 0.09 0.00 0.00 0.00
0.15 0.19 0.12 0.06 0.03 0.04 0.13 0.26 0.08 0.00 0.00 0.00 0.00 0.00 0.00 0.00 0.00 0.00 0.00 0.00 0.00 0.00 0.02 0.07 0.06 0.00 0.00 0.00 0.01 0.00 0.00 0.02 0.16 0.05 0.03 0.03 0.02 0.01 0.00 0.00 0.00 0.00 0.00 0.00 0.00
0.35 0.27 0.21 0.05 0.04 0.14 0.40 0.30 0.04 0.00 0.00 0.00 0.00 0.00 0.01 0.00 0.00 0.00 0.00 0.00 0.00 0.00 0.03 0.05 0.02 0.02 0.00 0.00 0.00 0.00 0.00 0.00 0.01 0.02 0.03 0.01 0.01 0.00 0.00 0.00 0.00 0.00 0.00 0.00 0.00
0.44 0.37 0.14 0.04 0.15 0.45 0.74 0.22 0.01 0.02 0.00 0.00 0.00 0.00 0.01 0.00 0.00 0.02 0.02 0.01 0.00 0.00 0.00 0.07 0.16 0.04 0.00 0.00 0.00 0.00 0.00 0.00 0.00 0.04 0.04 0.00 0.00 0.02 0.01 0.01 0.00 0.00 0.00 0.00 0.00
0.79 0.73 0.14 0.09 0.55 0.93 0.70 0.11 0.00 0.00 0.00 0.00 0.00 0.00 0.00 0.00 0.00 0.02 0.08 0.05 0.00 0.00 0.00 0.00 0.02 0.04 0.00 0.00 0.00 0.00 0.00 0.00 0.00 0.00 0.00 0.01 0.01 0.01 0.00 0.00 0.00 0.00 0.00 0.00 0.00
1.25 0.89 0.24 0.27 0.77 0.54 0.26 0.05 0.00 0.00 0.00 0.00 0.00 0.00 0.00 0.00 0.00 0.01 0.04 0.03 0.03 0.00 0.00 0.00 0.00 0.00 0.00 0.00 0.00 0.00 0.01 0.03 0.00 0.00 0.00 0.01 0.00 0.00 0.00 0.00 0.00 0.00 0.00 0.00 0.00
1.58 0.92 0.75 0.49 0.47 0.26 0.14 0.03 0.01 0.00 0.00 0.00 0.00 0.00 0.00 0.00 0.01 0.00 0.03 0.03 0.01 0.01 0.00 0.02 0.01 0.00 0.02 0.01 0.00 0.00 0.00 0.00 0.00 0.00 0.01 0.04 0.00 0.00 0.00 0.00 0.00 0.00 0.00 0.00 0.00
1.96 1.42 1.71 1.08 0.25 0.10 0.12 0.07 0.02 0.00 0.00 0.00 0.00 0.01 0.01 0.01 0.00 0.00 0.01 0.02 0.01 0.01 0.00 0.02 0.03 0.00 0.01 0.00 0.00 0.00 0.00 0.00 0.00 0.00 0.00 0.00 0.00 0.00 0.00 0.00 0.00 0.00 0.00 0.00 0.00
2.79 1.08 0.65 0.63 0.31 0.12 0.10 0.07 0.03 0.02 0.01 0.01 0.01 0.00 0.01 0.01 0.01 0.00 0.00 0.01 0.01 0.01 0.01 0.00 0.06 0.04 0.00 0.00 0.00 0.00 0.00 0.00 0.00 0.00 0.00 0.00 0.00 0.00 0.00 0.00 0.00 0.00 0.00 0.00 0.00
3.18 0.49 0.27 0.16 0.12 0.18 0.14 0.10 0.03 0.03 0.05 0.03 0.01 0.00 0.01 0.01 0.01 0.00 0.03 0.05 0.05 0.01 0.01 0.00 0.06 0.08 0.01 0.00 0.00 0.00 0.00 0.00 0.00 0.00 0.00 0.00 0.00 0.00 0.00 0.00 0.00 0.00 0.00 0.00 0.00
2.86 0.35 0.34 0.23 0.15 0.31 0.23 0.05 0.05 0.04 0.05 0.02 0.01 0.02 0.04 0.05 0.04 0.02 0.03 0.02 0.06 0.07 0.04 0.02 0.03 0.05 0.04 0.00 0.00 0.01 0.00 0.00 0.00 0.00 0.00 0.00 0.00 0.00 0.00 0.00 0.00 0.00 0.00 0.00 0.00

GFSSW_prec_precacc_072.txt.gz
Total_Precipitation_Accumulation
0.02 0.02 0.01 0.02 0.01 0.01 0.01 0.01 0.01 0.01 0.02 0.02 0.02 0.02 0.03 0.04 0.01 0.00 0.00 0.00 0.00 0.00 0.00 0.00 0.00 0.00 0.00 0.00 0.00 0.00 0.00 0.00 0.00 0.02 0.13 0.21 0.32 0.22 0.08 0.04 0.30 0.54 0.94 1.18 0.82
0.03 0.03 0.03 0.03 0.02 0.01 0.02 0.01 0.01 0.01 0.02 0.02 0.01 0.01 0.02 0.04 0.00 0.00 0.00 0.00 0.00 0.00 0.00 0.00 0.00 0.00 0.00 0.00 0.00 0.00 0.00 0.00 0.00 0.01 0.12 0.16 0.03 0.15 0.24 0.16 0.39 0.91 1.20 0.77 0.45
0.04 0.03 0.03 0.03 0.02 0.02 0.02 0.02 0.02 0.02 0.02 0.02 0.02 0.02 0.02 0.02 0.00 0.00 0.00 0.00 0.00 0.00 0.00 0.00 0.00 0.00 0.00 0.00 0.00 0.00 0.00 0.00 0.00 0.01 0.11 0.03 0.01 0.03 0.08 0.25 0.76 1.55 1.68 0.86 0.56
0.03 0.03 0.03 0.03 0.02 0.02 0.02 0.01 0.02 0.02 0.01 0.02 0.02 0.02 0.02 0.00 0.00 0.00 0.00 0.00 0.00 0.00 0.00 0.00 0.00 0.00 0.00 0.00 0.00 0.00 0.00 0.00 0.00 0.00 0.02 0.05 0.07 0.06 0.31 0.75 0.42 0.36 0.51 0.68 0.79
0.03 0.02 0.03 0.02 0.03 0.02 0.02 0.02 0.02 0.02 0.02 0.02 0.02 0.03 0.01 0.00 0.00 0.00 0.00 0.00 0.00 0.00 0.00 0.00 0.00 0.00 0.00 0.00 0.00 0.00 0.00 0.00 0.01 0.01 0.01 0.01 0.06 0.11 0.25 0.10 0.07 0.18 0.29 0.52 0.58
0.04 0.03 0.03 0.03 0.02 0.02 0.02 0.02 0.02 0.02 0.02 0.02 0.02 0.02 0.00 0.00 0.00 0.00 0.00 0.00 0.00 0.00 0.00 0.00 0.00 0.00 0.00 0.00 0.00 0.00 0.00 0.00 0.02 0.00 0.00 0.00 0.23 0.18 0.54 0.16 0.08 0.05 0.18 0.41 0.34
0.04 0.04 0.03 0.03 0.03 0.02 0.02 0.02 0.02 0.02 0.02 0.02 0.02 0.02 0.00 0.00 0.00 0.00 0.00 0.00 0.00 0.00 0.00 0.00 0.00 0.00 0.00 0.00 0.00 0.00 0.00 0.00 0.00 0.01 0.01 0.04 0.22 0.14 0.13 0.10 0.06 0.02 0.06 0.16 0.09
0.04 0.03 0.02 0.02 0.02 0.02 0.02 0.02 0.02 0.02 0.03 0.03 0.03 0.01 0.00 0.00 0.00 0.00 0.00 0.00 0.00 0.00 0.00 0.00 0.00 0.00 0.00 0.00 0.00 0.00 0.00 0.00 0.00 0.01 0.02 0.11 0.51 0.05 0.05 0.03 0.03 0.02 0.03 0.03 0.09
0.03 0.02 0.02 0.02 0.02 0.02 0.02 0.02 0.02 0.03 0.03 0.02 0.01 0.00 0.00 0.00 0.00 0.00 0.00 0.02 0.00 0.00 0.00 0.00 0.00 0.00 0.00 0.00 0.00 0.00 0.00 0.00 0.00 0.00 0.01 0.05 0.35 0.22 0.07 0.08 0.05 0.01 0.00 0.00 0.00
0.03 0.02 0.01 0.01 0.02 0.03 0.02 0.02 0.02 0.02 0.01 0.00 0.00 0.00 0.00 0.00 0.00 0.00 0.00 0.02 0.01 0.00 0.00 0.00 0.00 0.00 0.00 0.00 0.00 0.00 0.00 0.00 0.02 0.07 0.00 0.00 0.03 0.16 0.19 0.07 0.04 0.01 0.00 0.00 0.00
0.03 0.02 0.01 0.01 0.02 0.03 0.01 0.01 0.00 0.00 0.00 0.00 0.00 0.00 0.00 0.00 0.00 0.00 0.00 0.00 0.00 0.00 0.02 0.00 0.00 0.00 0.00 0.00 0.00 0.00 0.00 0.00 0.00 0.00 0.00 0.00 0.00 0.02 0.14 0.04 0.02 0.03 0.01 0.01 0.00
0.03 0.02 0.01 0.01 0.04 0.03 0.00 0.00 0.00 0.00 0.01 0.00 0.00 0.00 0.00 0.00 0.00 0.00 0.00 0.03 0.02 0.03 0.02 0.02 0.01 0.00 0.00 0.00 0.00 0.00 0.00 0.00 0.00 0.00 0.00 0.00 0.00 0.00 0.02 0.00 0.00 0.00 0.00 0.00 0.00
0.04 0.02 0.02 0.04 0.05 0.01 0.00 0.00 0.00 0.00 0.01 0.00 0.00 0.00 0.00 0.00 0.00 0.00 0.00 0.01 0.03 0.02 0.03 0.02 0.02 0.00 0.00 0.00 0.00 0.00 0.00 0.00 0.00 0.00 0.00 0.00 0.00 0.00 0.00 0.02 0.07 0.01 0.00 0.00 0.00
0.05 0.03 0.04 0.06 0.02 0.00 0.00 0.00 0.00 0.00 0.01 0.00 0.00 0.00 0.00 0.00 0.00 0.00 0.00 0.00 0.01 0.01 0.06 0.09 0.00 0.01 0.01 0.00 0.00 0.00 0.00 0.00 0.00 0.00 0.00 0.00 0.01 0.02 0.01 0.02 0.06 0.01 0.01 0.00 0.00
0.05 0.05 0.06 0.07 0.02 0.01 0.00 0.00 0.00 0.03 0.02 0.00 0.00 0.00 0.00 0.00 0.00 0.00 0.00 0.00 0.01 0.02 0.08 0.10 0.01 0.01 0.00 0.00 0.00 0.01 0.00 0.00 0.00 0.00 0.05 0.02 0.01 0.03 0.02 0.00 0.02 0.01 0.00 0.00 0.00
0.07 0.07 0.12 0.08 0.04 0.01 0.00 0.01 0.04 0.10 0.04 0.00 0.00 0.00 0.00 0.00 0.00 0.00 0.00 0.00 0.02 0.14 0.06 0.01 0.01 0.04 0.02 0.00 0.00 0.00 0.01 0.00 0.00 0.00 0.01 0.01 0.02 0.04 0.03 0.02 0.05 0.03 0.00 0.00 0.00
0.11 0.13 0.16 0.06 0.03 0.00 0.01 0.10 0.14 0.06 0.00 0.00 0.00 0.00 0.00 0.00 0.00 0.00 0.00 0.00 0.02 0.10 0.07 0.02 0.04 0.02 0.00 0.00 0.00 0.00 0.01 0.01 0.06 0.02 0.01 0.03 0.03 0.05 0.01 0.06 0.16 0.09 0.00 0.00 0.00
0.16 0.19 0.12 0.06 0.03 0.04 0.14 0.27 0.09 0.00 0.00 0.00 0.00 0.00 0.00 0.00 0.00 0.00 0.00 0.00 0.00 0.00 0.04 0.12 0.09 0.02 0.01 0.00 0.01 0.00 0.00 0.02 0.16 0.05 0.03 0.03 0.02 0.01 0.00 0.00 0.00 0.00 0.00 0.00 0.00
0.36 0.27 0.21 0.05 0.04 0.16 0.45 0.32 0.04 0.00 0.00 0.00 0.00 0.00 0.01 0.00 0.00 0.00 0.00 0.00 0.00 0.00 0.05 0.07 0.04 0.02 0.02 0.00 0.01 0.02 0.01 0.00 0.02 0.03 0.03 0.01 0.01 0.00 0.00 0.00 0.00 0.00 0.00 0.00 0.00
0.45 0.38 0.14 0.04 0.16 0.50 0.80 0.23 0.01 0.02 0.00 0.00 0.00 0.00 0.01 0.00 0.00 0.03 0.05 0.02 0.00 0.00 0.00 0.07 0.20 0.05 0.01 0.02 0.01 0.00 0.00 0.00 0.00 0.04 0.06 0.01 0.00 0.02 0.01 0.01 0.00 0.00 0.00 0.00 0.00
0.81 0.76 0.14 0.09 0.59 1.00 0.74 0.12 0.00 0.00 0.00 0.00 0.00 0.00 0.00 0.00 0.00 0.03 0.13 0.09 0.01 0.00 0.00 0.00 0.05 0.05 0.05 0.05 0.01 0.00 0.00 0.00 0.00 0.00 0.01 0.02 0.01 0.02 0.00 0.00 0.00 0.00 0.00 0.00 0.00
1.28 0.92 0.26 0.30 0.82 0.56 0.27 0.05 0.00 0.00 0.00 0.00 0.00 0.00 0.00 0.00 0.00 0.01 0.07 0.05 0.03 0.00 0.00 0.00 0.01 0.01 0.01 0.01 0.00 0.00 0.01 0.03 0.00 0.00 0.00 0.01 0.01 0.00 0.00 0.00 0.00 0.00 0.00 0.00 0.00
1.64 0.93 0.81 0.60 0.51 0.28 0.15 0.03 0.01 0.00 0.00 0.00 0.00 0.00 0.00 0.00 0.01 0.00 0.05 0.05 0.01 0.02 0.00 0.03 0.01 0.00 0.04 0.03 0.01 0.02 0.01 0.00 0.00 0.02 0.03 0.05 0.01 0.00 0.00 0.00 0.00 0.00 0.00 0.00 0.00
2.07 1.48 1.74 1.16 0.28 0.13 0.16 0.09 0.03 0.00 0.00 0.00 0.00 0.01 0.01 0.01 0.01 0.01 0.03 0.03 0.01 0.02 0.01 0.02 0.03 0.01 0.01 0.07 0.05 0.02 0.00 0.00 0.00 0.04 0.01 0.01 0.00 0.00 0.00 0.00 0.00 0.00 0.00 0.00 0.00
2.87 1.12 0.69 0.66 0.32 0.14 0.13 0.11 0.04 0.02 0.01 0.01 0.01 0.00 0.01 0.02 0.01 0.01 0.01 0.02 0.02 0.01 0.01 0.02 0.08 0.08 0.04 0.02 0.03 0.03 0.01 0.01 0.00 0.00 0.00 0.00 0.00 0.00 0.00 0.00 0.00 0.00 0.00 0.00 0.00
3.22 0.50 0.29 0.20 0.15 0.21 0.16 0.11 0.04 0.04 0.05 0.04 0.02 0.00 0.01 0.01 0.01 0.01 0.03 0.06 0.07 0.02 0.01 0.01 0.07 0.15 0.04 0.00 0.04 0.04 0.01 0.00 0.01 0.01 0.00 0.00 0.00 0.00 0.00 0.00 0.00 0.00 0.00 0.00 0.00
2.88 0.36 0.39 0.28 0.17 0.36 0.28 0.07 0.05 0.05 0.05 0.03 0.03 0.04 0.04 0.06 0.05 0.03 0.03 0.05 0.08 0.08 0.05 0.02 0.07 0.14 0.24 0.04 0.01 0.02 0.00 0.00 0.00 0.00 0.00 0.01 0.00 0.00 0.00 0.00 0.00 0.00 0.00 0.00 0.00

GFSSW_prec_precacc_078.txt.gz
Total_Precipitation_Accumulation
0.02 0.02 0.01 0.02 0.02 0.01 0.01 0.01 0.01 0.01 0.02 0.02 0.02 0.02 0.03 0.04 0.01 0.00 0.00 0.00 0.00 0.00 0.00 0.00 0.00 0.00 0.00 0.00 0.00 0.00 0.00 0.00 0.00 0.02 0.13 0.21 0.32 0.22 0.08 0.04 0.30 0.54 0.94 1.18 0.82
0.03 0.03 0.03 0.03 0.02 0.01 0.02 0.01 0.01 0.01 0.02 0.02 0.01 0.01 0.02 0.04 0.00 0.00 0.00 0.00 0.00 0.00 0.00 0.00 0.00 0.00 0.00 0.00 0.00 0.00 0.00 0.00 0.00 0.01 0.12 0.16 0.03 0.15 0.24 0.16 0.39 0.91 1.20 0.77 0.45
0.04 0.03 0.04 0.03 0.02 0.02 0.02 0.02 0.02 0.02 0.02 0.02 0.02 0.02 0.02 0.02 0.00 0.00 0.00 0.00 0.00 0.00 0.00 0.00 0.00 0.00 0.00 0.00 0.00 0.00 0.00 0.00 0.00 0.01 0.11 0.03 0.01 0.03 0.08 0.25 0.76 1.55 1.68 0.86 0.56
0.03 0.03 0.03 0.03 0.03 0.02 0.02 0.01 0.02 0.02 0.01 0.02 0.02 0.02 0.02 0.00 0.00 0.00 0.00 0.00 0.00 0.00 0.00 0.00 0.00 0.00 0.00 0.00 0.00 0.00 0.00 0.00 0.00 0.00 0.02 0.05 0.07 0.06 0.31 0.75 0.42 0.36 0.51 0.68 0.79
0.03 0.02 0.03 0.03 0.03 0.02 0.02 0.02 0.02 0.02 0.02 0.02 0.02 0.03 0.01 0.00 0.00 0.00 0.00 0.00 0.00 0.00 0.00 0.00 0.00 0.00 0.00 0.00 0.00 0.00 0.00 0.00 0.01 0.01 0.01 0.01 0.06 0.11 0.25 0.10 0.07 0.18 0.29 0.52 0.58
0.04 0.03 0.03 0.03 0.02 0.02 0.02 0.02 0.02 0.02 0.02 0.02 0.02 0.03 0.00 0.00 0.00 0.00 0.00 0.00 0.00 0.00 0.00 0.00 0.00 0.00 0.00 0.00 0.00 0.00 0.00 0.00 0.02 0.00 0.00 0.00 0.23 0.18 0.54 0.16 0.08 0.05 0.18 0.41 0.34
0.04 0.04 0.03 0.03 0.03 0.02 0.02 0.02 0.02 0.02 0.02 0.02 0.02 0.02 0.00 0.00 0.00 0.00 0.00 0.00 0.00 0.00 0.00 0.00 0.00 0.00 0.00 0.00 0.00 0.00 0.00 0.00 0.00 0.01 0.01 0.04 0.22 0.14 0.13 0.10 0.06 0.02 0.06 0.16 0.09
0.04 0.03 0.03 0.02 0.02 0.02 0.02 0.02 0.02 0.02 0.03 0.03 0.03 0.01 0.00 0.00 0.00 0.00 0.00 0.00 0.00 0.00 0.00 0.00 0.00 0.00 0.00 0.00 0.00 0.00 0.00 0.00 0.00 0.01 0.02 0.11 0.51 0.05 0.05 0.03 0.03 0.02 0.03 0.03 0.09
0.03 0.02 0.02 0.02 0.02 0.02 0.02 0.02 0.02 0.03 0.03 0.02 0.01 0.00 0.00 0.00 0.00 0.00 0.00 0.02 0.00 0.00 0.00 0.00 0.00 0.00 0.00 0.00 0.00 0.00 0.00 0.00 0.00 0.00 0.01 0.05 0.35 0.22 0.07 0.08 0.05 0.01 0.00 0.00 0.00
0.03 0.02 0.01 0.01 0.02 0.03 0.02 0.02 0.02 0.02 0.01 0.00 0.00 0.00 0.00 0.00 0.00 0.00 0.00 0.02 0.01 0.00 0.00 0.00 0.00 0.00 0.00 0.00 0.00 0.00 0.00 0.00 0.02 0.07 0.00 0.00 0.03 0.16 0.19 0.07 0.04 0.01 0.00 0.00 0.00
0.03 0.02 0.01 0.01 0.02 0.03 0.01 0.01 0.00 0.00 0.00 0.00 0.00 0.00 0.00 0.00 0.00 0.00 0.00 0.00 0.00 0.00 0.02 0.00 0.00 0.00 0.00 0.00 0.00 0.00 0.00 0.00 0.00 0.00 0.00 0.00 0.00 0.02 0.14 0.04 0.02 0.03 0.01 0.01 0.00
0.03 0.02 0.01 0.01 0.04 0.03 0.00 0.00 0.00 0.00 0.01 0.00 0.00 0.00 0.00 0.00 0.00 0.00 0.00 0.03 0.02 0.03 0.02 0.02 0.01 0.00 0.00 0.00 0.00 0.00 0.00 0.00 0.00 0.00 0.00 0.00 0.00 0.00 0.02 0.00 0.00 0.00 0.00 0.00 0.00
0.04 0.02 0.02 0.04 0.05 0.01 0.00 0.00 0.00 0.00 0.01 0.00 0.00 0.00 0.00 0.00 0.00 0.00 0.00 0.01 0.03 0.02 0.03 0.02 0.02 0.00 0.00 0.00 0.00 0.00 0.00 0.00 0.00 0.00 0.00 0.00 0.00 0.00 0.00 0.02 0.07 0.01 0.00 0.00 0.00
0.05 0.03 0.04 0.06 0.02 0.00 0.00 0.00 0.00 0.00 0.01 0.00 0.00 0.00 0.00 0.00 0.00 0.00 0.00 0.00 0.01 0.01 0.06 0.09 0.00 0.01 0.01 0.00 0.00 0.00 0.00 0.00 0.00 0.00 0.00 0.00 0.01 0.02 0.01 0.02 0.06 0.01 0.01 0.00 0.00
0.05 0.05 0.06 0.07 0.02 0.01 0.00 0.00 0.00 0.03 0.02 0.00 0.00 0.00 0.00 0.00 0.00 0.00 0.00 0.00 0.01 0.02 0.08 0.10 0.01 0.01 0.00 0.00 0.00 0.01 0.00 0.00 0.00 0.00 0.05 0.02 0.01 0.03 0.02 0.00 0.02 0.01 0.00 0.00 0.00
0.08 0.08 0.12 0.08 0.04 0.01 0.00 0.01 0.05 0.11 0.04 0.00 0.00 0.00 0.00 0.00 0.00 0.00 0.00 0.00 0.02 0.14 0.06 0.01 0.01 0.05 0.02 0.00 0.00 0.00 0.02 0.02 0.00 0.00 0.02 0.01 0.02 0.04 0.03 0.02 0.05 0.03 0.00 0.00 0.00
0.12 0.14 0.17 0.06 0.03 0.00 0.01 0.10 0.16 0.07 0.00 0.00 0.00 0.00 0.00 0.00 0.00 0.00 0.00 0.00 0.02 0.10 0.07 0.02 0.04 0.03 0.00 0.00 0.00 0.00 0.07 0.13 0.13 0.04 0.02 0.03 0.03 0.05 0.01 0.06 0.16 0.09 0.00 0.00 0.00
0.17 0.20 0.12 0.06 0.03 0.04 0.16 0.30 0.12 0.00 0.00 0.00 0.00 0.00 0.00 0.00 0.00 0.00 0.00 0.00 0.00 0.00 0.04 0.12 0.09 0.02 0.01 0.00 0.02 0.02 0.08 0.11 0.22 0.07 0.03 0.03 0.02 0.01 0.00 0.00 0.00 0.00 0.00 0.00 0.00
0.37 0.27 0.21 0.05 0.04 0.16 0.54 0.39 0.04 0.00 0.00 0.00 0.00 0.01 0.01 0.00 0.00 0.00 0.00 0.00 0.00 0.00 0.05 0.07 0.05 0.02 0.02 0.01 0.06 0.10 0.08 0.02 0.12 0.11 0.07 0.01 0.01 0.00 0.00 0.00 0.00 0.00 0.00 0.00 0.00
0.47 0.40 0.14 0.04 0.16 0.53 0.93 0.28 0.01 0.02 0.00 0.00 0.00 0.00 0.01 0.00 0.00 0.03 0.07 0.04 0.01 0.00 0.00 0.07 0.21 0.05 0.01 0.07 0.09 0.05 0.07 0.15 0.28 0.19 0.12 0.01 0.01 0.02 0.01 0.01 0.00 0.00 0.00 0.00 0.00
0.86 0.80 0.15 0.09 0.64 1.09 0.83 0.13 0.00 0.00 0.00 0.00 0.00 0.00 0.00 0.00 0.00 0.03 0.15 0.11 0.01 0.00 0.00 0.00 0.07 0.05 0.07 0.13 0.08 0.09 0.12 0.16 0.15 0.04 0.04 0.06 0.07 0.03 0.01 0.00 0.00 0.00 0.00 0.00 0.00
1.37 1.00 0.28 0.37 0.89 0.61 0.29 0.05 0.00 0.00 0.00 0.00 0.00 0.00 0.00 0.00 0.00 0.01 0.08 0.07 0.03 0.00 0.00 0.01 0.04 0.01 0.01 0.01 0.02 0.09 0.11 0.13 0.14 0.06 0.01 0.05 0.11 0.02 0.02 0.00 0.00 0.00 0.00 0.00 0.00
1.80 0.96 0.82 0.85 0.80 0.31 0.16 0.04 0.01 0.00 0.00 0.00 0.00 0.00 0.00 0.00 0.01 0.00 0.06 0.06 0.01 0.02 0.00 0.03 0.03 0.02 0.04 0.04 0.03 0.09 0.04 0.09 0.14 0.12 0.09 0.09 0.07 0.10 0.02 0.01 0.00 0.00 0.00 0.00 0.00
2.43 1.68 1.77 1.25 0.62 0.34 0.25 0.10 0.03 0.00 0.00 0.00 0.00 0.01 0.01 0.01 0.01 0.01 0.05 0.08 0.01 0.02 0.01 0.02 0.03 0.02 0.02 0.18 0.47 0.37 0.21 0.16 0.22 0.30 0.07 0.02 0.05 0.27 0.19 0.06 0.00 0.00 0.00 0.00 0.00
3.17 1.26 0.81 0.80 0.41 0.25 0.35 0.41 0.17 0.05 0.03 0.01 0.01 0.00 0.01 0.02 0.01 0.01 0.01 0.04 0.04 0.02 0.01 0.02 0.09 0.09 0.04 0.03 0.08 0.17 0.18 0.20 0.30 0.19 0.08 0.02 0.10 0.25 0.39 0.11 0.01 0.00 0.00 0.00 0.00
3.36 0.54 0.37 0.41 0.30 0.43 0.31 0.17 0.13 0.09 0.13 0.09 0.04 0.02 0.02 0.02 0.01 0.01 0.03 0.06 0.10 0.05 0.02 0.02 0.07 0.15 0.04 0.01 0.07 0.14 0.15 0.11 0.15 0.10 0.07 0.05 0.16 0.21 0.34 0.21 0.01 0.00 0.00 0.00 0.00
2.98 0.37 0.45 0.33 0.20 0.50 0.42 0.18 0.14 0.13 0.10 0.06 0.09 0.06 0.06 0.09 0.06 0.03 0.03 0.05 0.09 0.12 0.10 0.10 0.11 0.16 0.25 0.08 0.08 0.10 0.05 0.14 0.13 0.11 0.07 0.12 0.12 0.22 0.24 0.29 0.09 0.00 0.00 0.00 0.00

GFSSW_prec_precacc_081.txt.gz
Total_Precipitation_Accumulation
0.02 0.02 0.01 0.02 0.02 0.01 0.01 0.01 0.01 0.01 0.02 0.02 0.02 0.02 0.03 0.04 0.01 0.00 0.00 0.00 0.00 0.00 0.00 0.00 0.00 0.00 0.00 0.00 0.00 0.00 0.00 0.00 0.00 0.02 0.13 0.21 0.32 0.22 0.08 0.04 0.30 0.54 0.94 1.18 0.82
0.03 0.03 0.03 0.03 0.02 0.02 0.02 0.01 0.01 0.01 0.02 0.02 0.01 0.01 0.02 0.04 0.00 0.00 0.00 0.00 0.00 0.00 0.00 0.00 0.00 0.00 0.00 0.00 0.00 0.00 0.00 0.00 0.00 0.01 0.12 0.16 0.03 0.15 0.24 0.16 0.39 0.91 1.20 0.77 0.45
0.04 0.03 0.04 0.03 0.03 0.03 0.02 0.02 0.02 0.02 0.02 0.02 0.02 0.02 0.02 0.02 0.00 0.00 0.00 0.00 0.00 0.00 0.00 0.00 0.00 0.00 0.00 0.00 0.00 0.00 0.00 0.00 0.00 0.01 0.11 0.03 0.01 0.03 0.08 0.25 0.76 1.55 1.68 0.86 0.56
0.03 0.03 0.03 0.03 0.03 0.02 0.02 0.01 0.02 0.02 0.01 0.02 0.02 0.02 0.02 0.00 0.00 0.00 0.00 0.00 0.00 0.00 0.00 0.00 0.00 0.00 0.00 0.00 0.00 0.00 0.00 0.00 0.00 0.00 0.02 0.05 0.07 0.06 0.31 0.75 0.42 0.36 0.51 0.68 0.79
0.03 0.02 0.03 0.03 0.03 0.02 0.02 0.02 0.02 0.02 0.02 0.02 0.02 0.03 0.01 0.00 0.00 0.00 0.00 0.00 0.00 0.00 0.00 0.00 0.00 0.00 0.00 0.00 0.00 0.00 0.00 0.00 0.01 0.01 0.01 0.01 0.06 0.11 0.25 0.10 0.07 0.18 0.29 0.52 0.58
0.04 0.03 0.03 0.03 0.02 0.02 0.02 0.02 0.02 0.02 0.02 0.02 0.02 0.03 0.00 0.00 0.00 0.00 0.00 0.00 0.00 0.00 0.00 0.00 0.00 0.00 0.00 0.00 0.00 0.00 0.00 0.00 0.02 0.00 0.00 0.00 0.23 0.18 0.54 0.16 0.08 0.05 0.18 0.41 0.34
0.04 0.04 0.03 0.03 0.03 0.02 0.02 0.02 0.02 0.02 0.02 0.02 0.02 0.02 0.00 0.00 0.00 0.00 0.00 0.00 0.00 0.00 0.00 0.00 0.00 0.00 0.00 0.00 0.00 0.00 0.00 0.00 0.00 0.01 0.01 0.04 0.22 0.14 0.13 0.10 0.06 0.02 0.06 0.16 0.09
0.04 0.03 0.03 0.02 0.02 0.02 0.02 0.02 0.02 0.02 0.03 0.03 0.03 0.01 0.00 0.00 0.00 0.00 0.00 0.00 0.00 0.00 0.00 0.00 0.00 0.00 0.00 0.00 0.00 0.00 0.00 0.00 0.00 0.01 0.02 0.11 0.51 0.05 0.05 0.03 0.03 0.02 0.03 0.03 0.09
0.03 0.02 0.02 0.02 0.02 0.02 0.02 0.02 0.02 0.03 0.03 0.02 0.01 0.00 0.00 0.00 0.00 0.00 0.00 0.02 0.00 0.00 0.00 0.00 0.00 0.00 0.00 0.00 0.00 0.00 0.00 0.00 0.00 0.00 0.01 0.05 0.35 0.22 0.07 0.08 0.05 0.01 0.00 0.00 0.00
0.03 0.02 0.01 0.01 0.02 0.03 0.02 0.02 0.02 0.02 0.01 0.00 0.01 0.00 0.00 0.00 0.00 0.00 0.00 0.02 0.01 0.00 0.00 0.00 0.00 0.00 0.00 0.00 0.00 0.00 0.00 0.00 0.02 0.07 0.00 0.00 0.03 0.16 0.19 0.07 0.04 0.01 0.00 0.00 0.00
0.03 0.02 0.01 0.01 0.02 0.03 0.01 0.01 0.00 0.00 0.00 0.00 0.00 0.00 0.00 0.00 0.00 0.00 0.00 0.00 0.00 0.00 0.02 0.00 0.00 0.00 0.00 0.00 0.00 0.00 0.00 0.00 0.00 0.00 0.00 0.00 0.00 0.02 0.14 0.04 0.02 0.03 0.01 0.01 0.00
0.03 0.02 0.01 0.01 0.04 0.03 0.00 0.00 0.00 0.00 0.01 0.00 0.00 0.00 0.00 0.00 0.00 0.00 0.00 0.03 0.02 0.03 0.02 0.02 0.01 0.00 0.00 0.00 0.00 0.00 0.00 0.00 0.00 0.00 0.00 0.00 0.00 0.00 0.02 0.00 0.00 0.00 0.00 0.00 0.00
0.04 0.02 0.02 0.04 0.05 0.01 0.00 0.00 0.00 0.00 0.01 0.00 0.00 0.00 0.00 0.00 0.00 0.00 0.00 0.01 0.03 0.02 0.03 0.02 0.02 0.00 0.00 0.00 0.00 0.00 0.00 0.00 0.00 0.00 0.00 0.00 0.00 0.00 0.00 0.02 0.07 0.01 0.00 0.00 0.00
0.05 0.03 0.04 0.06 0.02 0.00 0.00 0.00 0.00 0.00 0.01 0.00 0.00 0.00 0.00 0.00 0.00 0.00 0.00 0.00 0.01 0.01 0.06 0.09 0.00 0.01 0.01 0.00 0.00 0.00 0.00 0.00 0.00 0.00 0.00 0.00 0.01 0.02 0.01 0.02 0.06 0.01 0.01 0.00 0.00
0.05 0.05 0.06 0.08 0.02 0.01 0.00 0.00 0.00 0.03 0.02 0.00 0.00 0.00 0.00 0.00 0.00 0.00 0.00 0.00 0.01 0.02 0.08 0.10 0.01 0.01 0.00 0.00 0.00 0.01 0.00 0.00 0.00 0.00 0.05 0.02 0.01 0.03 0.02 0.00 0.02 0.01 0.00 0.00 0.00
0.08 0.08 0.13 0.08 0.04 0.01 0.00 0.01 0.05 0.11 0.04 0.00 0.00 0.00 0.00 0.00 0.00 0.00 0.00 0.00 0.02 0.14 0.06 0.01 0.01 0.05 0.02 0.00 0.00 0.00 0.02 0.02 0.00 0.01 0.03 0.01 0.02 0.04 0.03 0.02 0.05 0.03 0.00 0.00 0.00
0.13 0.14 0.17 0.06 0.03 0.00 0.01 0.10 0.16 0.07 0.00 0.00 0.00 0.00 0.00 0.00 0.00 0.00 0.00 0.00 0.02 0.10 0.07 0.02 0.04 0.03 0.00 0.00 0.00 0.00 0.07 0.14 0.14 0.05 0.03 0.03 0.03 0.05 0.01 0.06 0.16 0.09 0.00 0.00 0.00
0.18 0.21 0.12 0.06 0.03 0.04 0.16 0.31 0.12 0.00 0.00 0.00 0.00 0.00 0.00 0.00 0.00 0.00 0.00 0.00 0.00 0.00 0.04 0.12 0.09 0.02 0.01 0.00 0.02 0.02 0.08 0.13 0.24 0.08 0.03 0.03 0.02 0.01 0.00 0.00 0.00 0.00 0.00 0.00 0.00
0.38 0.27 0.21 0.05 0.04 0.16 0.55 0.43 0.04 0.00 0.00 0.00 0.00 0.01 0.03 0.01 0.00 0.00 0.00 0.00 0.00 0.00 0.05 0.07 0.05 0.02 0.02 0.01 0.06 0.11 0.10 0.03 0.20 0.12 0.08 0.01 0.01 0.00 0.00 0.00 0.00 0.00 0.00 0.00 0.00
0.47 0.40 0.14 0.04 0.16 0.53 0.94 0.29 0.01 0.02 0.00 0.00 0.00 0.03 0.05 0.02 0.01 0.03 0.07 0.04 0.01 0.00 0.00 0.07 0.21 0.05 0.01 0.07 0.09 0.07 0.12 0.21 0.32 0.23 0.14 0.01 0.01 0.03 0.01 0.01 0.00 0.00 0.00 0.00 0.00
0.86 0.80 0.15 0.09 0.64 1.11 0.85 0.13 0.00 0.00 0.00 0.00 0.00 0.06 0.06 0.02 0.01 0.03 0.18 0.14 0.02 0.00 0.00 0.00 0.07 0.05 0.07 0.13 0.08 0.10 0.18 0.27 0.19 0.05 0.07 0.09 0.10 0.04 0.01 0.00 0.00 0.00 0.00 0.00 0.00
1.37 1.00 0.28 0.38 0.91 0.63 0.29 0.05 0.00 0.00 0.00 0.00 0.00 0.02 0.09 0.02 0.01 0.01 0.08 0.09 0.05 0.01 0.00 0.01 0.04 0.01 0.01 0.01 0.02 0.10 0.13 0.20 0.25 0.09 0.02 0.06 0.12 0.02 0.02 0.00 0.00 0.00 0.00 0.00 0.00
1.80 0.96 0.82 0.86 0.90 0.38 0.17 0.04 0.02 0.00 0.00 0.00 0.00 0.01 0.03 0.03 0.03 0.01 0.07 0.06 0.01 0.02 0.00 0.03 0.03 0.02 0.04 0.04 0.05 0.11 0.05 0.14 0.25 0.19 0.10 0.09 0.07 0.16 0.03 0.01 0.00 0.00 0.00 0.00 0.00
2.44 1.69 1.77 1.25 0.62 0.35 0.30 0.13 0.04 0.00 0.00 0.00 0.00 0.01 0.02 0.04 0.02 0.01 0.06 0.09 0.01 0.02 0.01 0.02 0.03 0.02 0.02 0.19 0.48 0.40 0.26 0.27 0.39 0.45 0.10 0.03 0.05 0.43 0.31 0.08 0.00 0.00 0.00 0.00 0.00
3.18 1.26 0.81 0.80 0.44 0.33 0.36 0.41 0.18 0.05 0.03 0.01 0.01 0.00 0.02 0.05 0.03 0.01 0.01 0.05 0.04 0.02 0.01 0.02 0.09 0.09 0.04 0.03 0.08 0.17 0.18 0.20 0.32 0.23 0.15 0.04 0.10 0.36 0.71 0.30 0.04 0.01 0.00 0.01 0.01
3.39 0.55 0.38 0.42 0.42 0.67 0.47 0.35 0.21 0.14 0.14 0.12 0.06 0.03 0.03 0.04 0.02 0.01 0.03 0.07 0.10 0.05 0.02 0.02 0.07 0.15 0.04 0.01 0.07 0.14 0.15 0.11 0.15 0.10 0.09 0.06 0.17 0.30 0.52 0.53 0.21 0.03 0.01 0.02 0.02
2.99 0.39 0.48 0.34 0.21 0.53 0.54 0.36 0.37 0.37 0.18 0.06 0.10 0.07 0.07 0.10 0.06 0.03 0.03 0.05 0.09 0.12 0.10 0.10 0.12 0.17 0.25 0.08 0.08 0.10 0.05 0.14 0.13 0.11 0.07 0.12 0.12 0.29 0.51 0.51 0.36 0.09 0.04 0.01 0.01

GFSSW_prec_precacc_084.txt.gz
Total_Precipitation_Accumulation
0.02 0.02 0.01 0.02 0.02 0.01 0.01 0.01 0.01 0.01 0.02 0.02 0.02 0.02 0.03 0.04 0.01 0.00 0.00 0.00 0.00 0.00 0.00 0.00 0.00 0.00 0.00 0.00 0.00 0.00 0.00 0.00 0.00 0.02 0.13 0.21 0.32 0.22 0.08 0.04 0.30 0.54 0.94 1.18 0.82
0.03 0.03 0.03 0.03 0.02 0.02 0.02 0.01 0.01 0.01 0.02 0.02 0.01 0.01 0.02 0.04 0.00 0.00 0.00 0.00 0.00 0.00 0.00 0.00 0.00 0.00 0.00 0.00 0.00 0.00 0.00 0.00 0.00 0.01 0.12 0.16 0.03 0.15 0.24 0.16 0.39 0.91 1.20 0.77 0.45
0.04 0.03 0.04 0.03 0.03 0.03 0.02 0.02 0.02 0.02 0.02 0.02 0.02 0.02 0.02 0.02 0.00 0.00 0.00 0.00 0.00 0.00 0.00 0.00 0.00 0.00 0.00 0.00 0.00 0.00 0.00 0.00 0.00 0.01 0.11 0.03 0.01 0.03 0.08 0.25 0.76 1.55 1.68 0.86 0.56
0.03 0.03 0.03 0.03 0.03 0.02 0.02 0.01 0.02 0.02 0.01 0.02 0.02 0.02 0.02 0.00 0.00 0.00 0.00 0.00 0.00 0.00 0.00 0.00 0.00 0.00 0.00 0.00 0.00 0.00 0.00 0.00 0.00 0.00 0.02 0.05 0.07 0.06 0.31 0.75 0.42 0.36 0.51 0.68 0.79
0.03 0.02 0.03 0.03 0.03 0.02 0.02 0.02 0.02 0.02 0.02 0.02 0.02 0.03 0.01 0.00 0.00 0.00 0.00 0.00 0.00 0.00 0.00 0.00 0.00 0.00 0.00 0.00 0.00 0.00 0.00 0.00 0.01 0.01 0.01 0.01 0.06 0.11 0.25 0.10 0.07 0.18 0.29 0.52 0.58
0.04 0.03 0.03 0.03 0.02 0.02 0.02 0.02 0.02 0.02 0.02 0.02 0.02 0.03 0.00 0.00 0.00 0.00 0.00 0.00 0.00 0.00 0.00 0.00 0.00 0.00 0.00 0.00 0.00 0.00 0.00 0.00 0.02 0.00 0.00 0.00 0.23 0.18 0.54 0.16 0.08 0.05 0.18 0.41 0.34
0.04 0.04 0.03 0.03 0.03 0.02 0.02 0.02 0.02 0.02 0.02 0.02 0.02 0.02 0.00 0.00 0.00 0.00 0.00 0.00 0.00 0.00 0.00 0.00 0.00 0.00 0.00 0.00 0.00 0.00 0.00 0.00 0.00 0.01 0.01 0.04 0.22 0.14 0.13 0.10 0.06 0.02 0.06 0.16 0.09
0.04 0.03 0.03 0.02 0.02 0.02 0.02 0.02 0.02 0.02 0.03 0.03 0.03 0.01 0.00 0.00 0.00 0.00 0.00 0.00 0.00 0.00 0.00 0.00 0.00 0.00 0.00 0.00 0.00 0.00 0.00 0.00 0.00 0.01 0.02 0.11 0.51 0.05 0.05 0.03 0.03 0.02 0.03 0.03 0.09
0.03 0.02 0.02 0.02 0.02 0.02 0.02 0.02 0.02 0.03 0.03 0.02 0.01 0.00 0.00 0.00 0.00 0.00 0.00 0.02 0.00 0.00 0.00 0.00 0.00 0.00 0.00 0.00 0.00 0.00 0.00 0.00 0.00 0.00 0.01 0.05 0.35 0.22 0.07 0.08 0.05 0.01 0.00 0.00 0.00
0.03 0.03 0.01 0.01 0.02 0.03 0.02 0.02 0.02 0.02 0.01 0.00 0.01 0.00 0.00 0.00 0.00 0.00 0.00 0.02 0.01 0.00 0.00 0.00 0.00 0.00 0.00 0.00 0.00 0.00 0.00 0.00 0.02 0.07 0.00 0.00 0.03 0.16 0.19 0.07 0.04 0.01 0.00 0.00 0.00
0.03 0.02 0.01 0.01 0.02 0.03 0.01 0.01 0.00 0.00 0.00 0.00 0.00 0.00 0.00 0.00 0.00 0.00 0.00 0.00 0.00 0.00 0.02 0.00 0.00 0.00 0.00 0.00 0.00 0.00 0.00 0.00 0.00 0.00 0.00 0.00 0.00 0.02 0.14 0.04 0.02 0.03 0.01 0.01 0.00
0.03 0.02 0.01 0.01 0.04 0.03 0.00 0.00 0.00 0.00 0.01 0.00 0.00 0.00 0.00 0.00 0.00 0.00 0.00 0.03 0.02 0.03 0.02 0.02 0.01 0.00 0.00 0.00 0.00 0.00 0.00 0.00 0.00 0.00 0.00 0.00 0.00 0.00 0.02 0.00 0.00 0.00 0.00 0.00 0.00
0.04 0.02 0.02 0.04 0.05 0.01 0.00 0.00 0.00 0.00 0.01 0.00 0.00 0.00 0.00 0.00 0.00 0.00 0.00 0.01 0.03 0.02 0.03 0.02 0.02 0.00 0.00 0.00 0.00 0.00 0.00 0.00 0.00 0.00 0.00 0.00 0.00 0.00 0.00 0.02 0.07 0.01 0.00 0.00 0.00
0.05 0.03 0.04 0.06 0.02 0.00 0.00 0.00 0.00 0.00 0.01 0.00 0.00 0.00 0.00 0.00 0.00 0.00 0.00 0.00 0.01 0.01 0.06 0.09 0.00 0.01 0.01 0.00 0.00 0.00 0.00 0.00 0.00 0.00 0.00 0.00 0.01 0.02 0.01 0.02 0.06 0.01 0.01 0.00 0.00
0.06 0.05 0.06 0.08 0.02 0.01 0.00 0.00 0.00 0.03 0.02 0.00 0.00 0.00 0.00 0.00 0.00 0.00 0.00 0.00 0.01 0.02 0.08 0.10 0.01 0.01 0.00 0.00 0.00 0.01 0.00 0.00 0.00 0.00 0.05 0.02 0.01 0.03 0.02 0.00 0.02 0.01 0.00 0.00 0.00
0.08 0.08 0.13 0.08 0.04 0.01 0.00 0.01 0.05 0.11 0.04 0.00 0.00 0.00 0.00 0.00 0.00 0.00 0.00 0.00 0.02 0.14 0.06 0.01 0.01 0.05 0.02 0.00 0.00 0.00 0.02 0.02 0.00 0.01 0.03 0.01 0.02 0.04 0.03 0.02 0.05 0.03 0.00 0.00 0.00
0.13 0.15 0.17 0.06 0.03 0.00 0.01 0.10 0.16 0.07 0.00 0.00 0.00 0.00 0.00 0.00 0.00 0.00 0.00 0.00 0.02 0.10 0.07 0.02 0.04 0.03 0.00 0.00 0.00 0.00 0.07 0.14 0.14 0.06 0.03 0.03 0.03 0.05 0.01 0.06 0.16 0.09 0.00 0.00 0.00
0.18 0.21 0.12 0.06 0.03 0.04 0.16 0.31 0.12 0.00 0.00 0.00 0.00 0.00 0.00 0.00 0.00 0.00 0.00 0.00 0.00 0.00 0.04 0.12 0.09 0.02 0.01 0.00 0.02 0.02 0.08 0.13 0.25 0.08 0.03 0.03 0.02 0.01 0.00 0.00 0.00 0.00 0.00 0.00 0.00
0.38 0.27 0.21 0.05 0.04 0.16 0.55 0.44 0.04 0.00 0.00 0.00 0.00 0.01 0.03 0.04 0.02 0.00 0.00 0.00 0.00 0.00 0.05 0.07 0.05 0.02 0.02 0.01 0.06 0.11 0.11 0.03 0.22 0.14 0.10 0.01 0.01 0.00 0.00 0.00 0.00 0.00 0.00 0.00 0.00
0.47 0.40 0.14 0.04 0.16 0.53 0.95 0.30 0.01 0.02 0.00 0.00 0.00 0.04 0.08 0.05 0.05 0.04 0.08 0.04 0.01 0.00 0.00 0.07 0.21 0.05 0.01 0.07 0.09 0.07 0.14 0.25 0.36 0.24 0.15 0.01 0.01 0.03 0.01 0.01 0.00 0.00 0.00 0.00 0.00
0.86 0.80 0.15 0.09 0.64 1.13 0.86 0.13 0.00 0.00 0.00 0.00 0.01 0.06 0.09 0.10 0.09 0.05 0.20 0.16 0.02 0.00 0.00 0.00 0.07 0.05 0.07 0.13 0.08 0.11 0.19 0.29 0.26 0.09 0.08 0.10 0.11 0.04 0.01 0.00 0.00 0.00 0.00 0.00 0.00
1.37 1.00 0.28 0.38 0.92 0.64 0.29 0.05 0.00 0.00 0.00 0.00 0.00 0.03 0.10 0.09 0.10 0.13 0.17 0.11 0.06 0.01 0.01 0.01 0.04 0.01 0.01 0.01 0.02 0.10 0.13 0.21 0.31 0.14 0.04 0.07 0.12 0.03 0.02 0.00 0.00 0.00 0.00 0.00 0.00
1.81 0.96 0.82 0.86 0.91 0.41 0.19 0.05 0.02 0.00 0.00 0.00 0.00 0.02 0.05 0.07 0.16 0.10 0.22 0.10 0.07 0.04 0.01 0.03 0.03 0.02 0.04 0.04 0.06 0.14 0.07 0.17 0.31 0.30 0.20 0.12 0.07 0.16 0.03 0.01 0.00 0.00 0.00 0.00 0.00
2.44 1.69 1.77 1.25 0.63 0.36 0.31 0.13 0.04 0.00 0.00 0.00 0.00 0.01 0.02 0.05 0.09 0.12 0.17 0.15 0.03 0.02 0.01 0.02 0.03 0.02 0.02 0.19 0.48 0.40 0.26 0.27 0.40 0.48 0.12 0.05 0.05 0.43 0.32 0.08 0.00 0.00 0.00 0.00 0.00
3.19 1.27 0.81 0.81 0.45 0.38 0.46 0.44 0.18 0.06 0.03 0.01 0.01 0.01 0.02 0.06 0.08 0.05 0.09 0.10 0.05 0.02 0.01 0.02 0.09 0.09 0.04 0.03 0.08 0.17 0.18 0.20 0.32 0.23 0.15 0.04 0.11 0.37 0.72 0.32 0.06 0.02 0.01 0.02 0.01
3.39 0.55 0.39 0.42 0.43 0.71 0.48 0.39 0.28 0.18 0.20 0.13 0.07 0.03 0.04 0.04 0.05 0.05 0.05 0.08 0.11 0.05 0.02 0.02 0.07 0.15 0.04 0.01 0.07 0.14 0.15 0.11 0.15 0.10 0.09 0.06 0.17 0.30 0.56 0.55 0.29 0.15 0.03 0.05 0.04
2.99 0.39 0.50 0.35 0.21 0.54 0.54 0.40 0.46 0.54 0.27 0.07 0.12 0.08 0.07 0.11 0.08 0.05 0.05 0.06 0.09 0.12 0.10 0.10 0.12 0.17 0.25 0.08 0.08 0.10 0.05 0.14 0.14 0.11 0.07 0.12 0.12 0.30 0.57 0.63 0.47 0.33 0.12 0.04 0.03

GFSSW_prec_precacc_087.txt.gz
Total_Precipitation_Accumulation
0.02 0.02 0.01 0.02 0.02 0.01 0.01 0.01 0.01 0.01 0.02 0.02 0.02 0.02 0.03 0.04 0.01 0.00 0.00 0.00 0.00 0.00 0.00 0.00 0.00 0.00 0.00 0.00 0.00 0.00 0.00 0.00 0.00 0.02 0.13 0.21 0.32 0.22 0.08 0.04 0.30 0.54 0.94 1.18 0.82
0.03 0.03 0.03 0.03 0.02 0.02 0.02 0.01 0.01 0.01 0.02 0.02 0.01 0.01 0.02 0.04 0.00 0.00 0.00 0.00 0.00 0.00 0.00 0.00 0.00 0.00 0.00 0.00 0.00 0.00 0.00 0.00 0.00 0.01 0.12 0.16 0.03 0.15 0.24 0.16 0.39 0.91 1.20 0.77 0.45
0.04 0.03 0.04 0.03 0.03 0.03 0.02 0.02 0.02 0.02 0.02 0.02 0.02 0.02 0.02 0.02 0.00 0.00 0.00 0.00 0.00 0.00 0.00 0.00 0.00 0.00 0.00 0.00 0.00 0.00 0.00 0.00 0.00 0.01 0.11 0.03 0.01 0.03 0.08 0.25 0.76 1.55 1.68 0.86 0.56
0.03 0.03 0.03 0.03 0.03 0.02 0.02 0.01 0.02 0.02 0.01 0.02 0.02 0.02 0.02 0.00 0.00 0.00 0.00 0.00 0.00 0.00 0.00 0.00 0.00 0.00 0.00 0.00 0.00 0.00 0.00 0.00 0.00 0.00 0.02 0.05 0.07 0.06 0.31 0.75 0.42 0.36 0.51 0.68 0.79
0.03 0.02 0.03 0.03 0.03 0.02 0.02 0.02 0.02 0.02 0.02 0.02 0.02 0.03 0.01 0.00 0.00 0.00 0.00 0.00 0.00 0.00 0.00 0.00 0.00 0.00 0.00 0.00 0.00 0.00 0.00 0.00 0.01 0.01 0.01 0.01 0.06 0.11 0.25 0.10 0.07 0.18 0.29 0.52 0.58
0.04 0.03 0.03 0.03 0.02 0.02 0.02 0.02 0.02 0.02 0.02 0.02 0.02 0.03 0.00 0.00 0.00 0.00 0.00 0.00 0.00 0.00 0.00 0.00 0.00 0.00 0.00 0.00 0.00 0.00 0.00 0.00 0.02 0.00 0.00 0.00 0.23 0.18 0.54 0.16 0.08 0.05 0.18 0.41 0.34
0.04 0.04 0.03 0.03 0.03 0.02 0.02 0.02 0.02 0.02 0.02 0.02 0.02 0.02 0.00 0.00 0.00 0.00 0.00 0.00 0.00 0.00 0.00 0.00 0.00 0.00 0.00 0.00 0.00 0.00 0.00 0.00 0.00 0.01 0.01 0.04 0.22 0.14 0.13 0.10 0.06 0.02 0.06 0.16 0.09
0.04 0.03 0.03 0.02 0.02 0.02 0.02 0.02 0.02 0.02 0.03 0.03 0.03 0.01 0.00 0.00 0.00 0.00 0.00 0.00 0.00 0.00 0.00 0.00 0.00 0.00 0.00 0.00 0.00 0.00 0.00 0.00 0.00 0.01 0.02 0.11 0.51 0.05 0.05 0.03 0.03 0.02 0.03 0.03 0.09
0.03 0.02 0.02 0.02 0.02 0.02 0.02 0.02 0.02 0.03 0.03 0.02 0.01 0.00 0.00 0.00 0.00 0.00 0.00 0.02 0.00 0.00 0.00 0.00 0.00 0.00 0.00 0.00 0.00 0.00 0.00 0.00 0.00 0.00 0.01 0.05 0.35 0.22 0.07 0.08 0.05 0.01 0.00 0.00 0.00
0.03 0.03 0.01 0.01 0.02 0.03 0.02 0.02 0.02 0.02 0.01 0.00 0.01 0.00 0.00 0.00 0.00 0.00 0.00 0.02 0.01 0.00 0.00 0.00 0.00 0.00 0.00 0.00 0.00 0.00 0.00 0.00 0.02 0.07 0.00 0.00 0.03 0.16 0.19 0.07 0.04 0.01 0.00 0.00 0.00
0.03 0.02 0.01 0.01 0.02 0.03 0.01 0.01 0.00 0.00 0.00 0.00 0.00 0.00 0.00 0.00 0.00 0.00 0.00 0.00 0.00 0.00 0.02 0.00 0.00 0.00 0.00 0.00 0.00 0.00 0.00 0.00 0.00 0.00 0.00 0.00 0.00 0.02 0.14 0.04 0.02 0.03 0.01 0.01 0.00
0.03 0.02 0.01 0.01 0.04 0.03 0.00 0.00 0.00 0.00 0.01 0.00 0.00 0.00 0.00 0.00 0.00 0.00 0.00 0.03 0.02 0.03 0.02 0.02 0.01 0.00 0.00 0.00 0.00 0.00 0.00 0.00 0.00 0.00 0.00 0.00 0.00 0.00 0.02 0.00 0.00 0.00 0.00 0.00 0.00
0.04 0.02 0.02 0.04 0.05 0.01 0.00 0.00 0.00 0.00 0.01 0.00 0.00 0.00 0.00 0.00 0.00 0.00 0.00 0.01 0.03 0.02 0.03 0.02 0.02 0.00 0.00 0.00 0.00 0.00 0.00 0.00 0.00 0.00 0.00 0.00 0.00 0.00 0.00 0.02 0.07 0.01 0.00 0.00 0.00
0.05 0.03 0.04 0.06 0.02 0.00 0.00 0.00 0.00 0.00 0.01 0.00 0.00 0.00 0.00 0.00 0.00 0.00 0.00 0.00 0.01 0.01 0.06 0.09 0.00 0.01 0.01 0.00 0.00 0.00 0.00 0.00 0.00 0.00 0.00 0.00 0.01 0.02 0.01 0.02 0.06 0.01 0.01 0.00 0.00
0.06 0.05 0.06 0.08 0.02 0.01 0.00 0.00 0.00 0.03 0.02 0.00 0.00 0.00 0.00 0.00 0.00 0.00 0.00 0.00 0.01 0.02 0.08 0.10 0.01 0.01 0.00 0.00 0.00 0.01 0.00 0.00 0.00 0.00 0.05 0.02 0.01 0.03 0.02 0.00 0.02 0.01 0.00 0.00 0.00
0.08 0.08 0.13 0.08 0.04 0.01 0.00 0.01 0.05 0.11 0.04 0.00 0.00 0.00 0.00 0.00 0.00 0.00 0.00 0.00 0.02 0.14 0.06 0.01 0.01 0.05 0.02 0.00 0.00 0.00 0.02 0.02 0.00 0.01 0.03 0.01 0.02 0.04 0.03 0.02 0.05 0.03 0.00 0.00 0.00
0.13 0.15 0.17 0.06 0.03 0.00 0.01 0.10 0.16 0.07 0.00 0.00 0.00 0.00 0.00 0.00 0.00 0.00 0.00 0.00 0.02 0.10 0.07 0.02 0.04 0.03 0.00 0.00 0.00 0.00 0.07 0.14 0.14 0.06 0.03 0.03 0.03 0.05 0.01 0.06 0.16 0.09 0.00 0.00 0.00
0.18 0.21 0.12 0.06 0.03 0.04 0.16 0.31 0.12 0.00 0.00 0.00 0.00 0.00 0.00 0.00 0.01 0.01 0.01 0.00 0.00 0.00 0.04 0.12 0.09 0.02 0.01 0.00 0.02 0.02 0.08 0.13 0.25 0.08 0.03 0.03 0.02 0.01 0.00 0.00 0.00 0.00 0.00 0.00 0.00
0.38 0.27 0.21 0.05 0.04 0.16 0.55 0.44 0.04 0.00 0.00 0.00 0.00 0.01 0.03 0.04 0.06 0.03 0.03 0.01 0.00 0.00 0.05 0.07 0.05 0.02 0.02 0.01 0.06 0.11 0.11 0.03 0.22 0.14 0.10 0.01 0.01 0.00 0.00 0.00 0.00 0.00 0.00 0.00 0.00
0.47 0.40 0.14 0.04 0.16 0.53 0.95 0.30 0.01 0.02 0.00 0.00 0.01 0.05 0.08 0.05 0.09 0.13 0.10 0.05 0.01 0.00 0.00 0.07 0.21 0.05 0.02 0.07 0.09 0.07 0.15 0.27 0.37 0.24 0.15 0.01 0.01 0.03 0.01 0.01 0.00 0.00 0.00 0.00 0.00
0.86 0.80 0.15 0.09 0.64 1.13 0.87 0.13 0.00 0.00 0.00 0.00 0.01 0.07 0.09 0.10 0.10 0.14 0.27 0.21 0.03 0.00 0.00 0.00 0.07 0.05 0.08 0.13 0.08 0.11 0.19 0.29 0.27 0.10 0.09 0.10 0.11 0.07 0.01 0.00 0.00 0.00 0.00 0.00 0.00
1.37 1.00 0.28 0.38 0.92 0.64 0.30 0.06 0.01 0.00 0.00 0.00 0.00 0.03 0.11 0.10 0.11 0.17 0.29 0.30 0.18 0.03 0.01 0.01 0.04 0.01 0.01 0.01 0.02 0.11 0.14 0.22 0.31 0.17 0.08 0.09 0.13 0.05 0.02 0.00 0.00 0.00 0.00 0.00 0.00
1.81 0.96 0.82 0.86 0.91 0.41 0.19 0.05 0.02 0.00 0.00 0.00 0.00 0.02 0.06 0.08 0.16 0.12 0.29 0.33 0.31 0.08 0.01 0.03 0.03 0.02 0.04 0.04 0.06 0.14 0.10 0.19 0.35 0.32 0.23 0.17 0.08 0.16 0.03 0.01 0.00 0.00 0.00 0.00 0.00
2.44 1.69 1.77 1.25 0.63 0.36 0.32 0.14 0.04 0.00 0.00 0.00 0.00 0.01 0.02 0.05 0.09 0.13 0.24 0.43 0.31 0.07 0.02 0.02 0.03 0.02 0.02 0.19 0.48 0.40 0.26 0.27 0.40 0.49 0.12 0.05 0.05 0.43 0.32 0.08 0.00 0.00 0.00 0.01 0.01
3.19 1.27 0.81 0.81 0.45 0.38 0.47 0.45 0.18 0.08 0.04 0.01 0.02 0.01 0.02 0.07 0.08 0.07 0.21 0.51 0.31 0.09 0.02 0.02 0.09 0.09 0.04 0.03 0.08 0.17 0.18 0.20 0.32 0.23 0.15 0.04 0.11 0.37 0.72 0.32 0.06 0.02 0.01 0.05 0.04
3.39 0.55 0.39 0.42 0.43 0.71 0.49 0.39 0.30 0.25 0.28 0.16 0.09 0.03 0.04 0.05 0.05 0.08 0.18 0.15 0.19 0.09 0.03 0.02 0.07 0.15 0.04 0.01 0.07 0.14 0.15 0.11 0.15 0.10 0.09 0.06 0.17 0.30 0.56 0.56 0.29 0.15 0.04 0.09 0.09
2.99 0.40 0.51 0.35 0.21 0.54 0.54 0.40 0.49 0.63 0.32 0.09 0.14 0.09 0.08 0.12 0.08 0.05 0.10 0.08 0.10 0.15 0.11 0.10 0.12 0.17 0.25 0.08 0.08 0.10 0.05 0.14 0.14 0.11 0.07 0.12 0.12 0.30 0.57 0.65 0.50 0.33 0.14 0.11 0.11

GFSSW_prec_precacc_090.txt.gz
Total_Precipitation_Accumulation
0.02 0.03 0.02 0.02 0.02 0.01 0.01 0.01 0.01 0.01 0.02 0.02 0.02 0.02 0.03 0.04 0.01 0.00 0.00 0.00 0.00 0.00 0.00 0.00 0.00 0.00 0.00 0.00 0.00 0.00 0.00 0.00 0.00 0.02 0.13 0.21 0.32 0.22 0.08 0.04 0.30 0.54 0.94 1.18 0.82
0.03 0.04 0.04 0.03 0.02 0.02 0.02 0.01 0.01 0.01 0.02 0.02 0.01 0.01 0.02 0.04 0.00 0.00 0.00 0.00 0.00 0.00 0.00 0.00 0.00 0.00 0.00 0.00 0.00 0.00 0.00 0.00 0.00 0.01 0.12 0.16 0.03 0.15 0.24 0.16 0.39 0.91 1.20 0.77 0.45
0.04 0.04 0.04 0.03 0.03 0.03 0.02 0.02 0.02 0.02 0.02 0.02 0.02 0.02 0.02 0.02 0.00 0.00 0.00 0.00 0.00 0.00 0.00 0.00 0.00 0.00 0.00 0.00 0.00 0.00 0.00 0.00 0.00 0.01 0.11 0.03 0.01 0.03 0.08 0.25 0.76 1.55 1.68 0.86 0.56
0.03 0.03 0.03 0.03 0.03 0.02 0.02 0.01 0.02 0.02 0.01 0.02 0.02 0.02 0.02 0.00 0.00 0.00 0.00 0.00 0.00 0.00 0.00 0.00 0.00 0.00 0.00 0.00 0.00 0.00 0.00 0.00 0.00 0.00 0.02 0.05 0.07 0.06 0.31 0.75 0.42 0.36 0.51 0.68 0.79
0.03 0.02 0.03 0.03 0.03 0.02 0.02 0.02 0.02 0.02 0.02 0.02 0.02 0.03 0.01 0.00 0.00 0.00 0.00 0.00 0.00 0.00 0.00 0.00 0.00 0.00 0.00 0.00 0.00 0.00 0.00 0.00 0.01 0.01 0.01 0.01 0.06 0.11 0.25 0.10 0.07 0.18 0.29 0.52 0.58
0.04 0.03 0.03 0.03 0.02 0.02 0.02 0.02 0.02 0.02 0.02 0.02 0.02 0.03 0.00 0.00 0.00 0.00 0.00 0.00 0.00 0.00 0.00 0.00 0.00 0.00 0.00 0.00 0.00 0.00 0.00 0.00 0.02 0.00 0.00 0.00 0.23 0.18 0.54 0.16 0.08 0.05 0.18 0.41 0.34
0.04 0.04 0.03 0.03 0.03 0.02 0.02 0.02 0.02 0.02 0.02 0.02 0.02 0.02 0.00 0.00 0.00 0.00 0.00 0.00 0.00 0.00 0.00 0.00 0.00 0.00 0.00 0.00 0.00 0.00 0.00 0.00 0.00 0.01 0.01 0.04 0.22 0.14 0.13 0.10 0.06 0.02 0.06 0.16 0.09
0.04 0.03 0.03 0.02 0.02 0.02 0.02 0.02 0.02 0.02 0.03 0.03 0.03 0.01 0.00 0.00 0.00 0.00 0.00 0.00 0.00 0.00 0.00 0.00 0.00 0.00 0.00 0.00 0.00 0.00 0.00 0.00 0.00 0.01 0.02 0.11 0.51 0.05 0.05 0.03 0.03 0.02 0.03 0.03 0.09
0.03 0.02 0.02 0.02 0.02 0.02 0.02 0.02 0.02 0.03 0.03 0.02 0.01 0.00 0.00 0.00 0.00 0.00 0.00 0.02 0.00 0.00 0.00 0.00 0.00 0.00 0.00 0.00 0.00 0.00 0.00 0.00 0.00 0.00 0.01 0.05 0.35 0.22 0.07 0.08 0.05 0.01 0.00 0.00 0.00
0.03 0.03 0.01 0.01 0.02 0.03 0.02 0.02 0.02 0.02 0.01 0.00 0.01 0.00 0.00 0.00 0.00 0.00 0.00 0.02 0.01 0.00 0.00 0.00 0.00 0.00 0.00 0.00 0.00 0.00 0.00 0.00 0.02 0.07 0.00 0.00 0.03 0.16 0.19 0.07 0.04 0.01 0.00 0.00 0.00
0.03 0.02 0.01 0.01 0.02 0.03 0.01 0.01 0.00 0.00 0.00 0.00 0.00 0.00 0.00 0.00 0.00 0.00 0.00 0.00 0.00 0.00 0.02 0.00 0.00 0.00 0.00 0.00 0.00 0.00 0.00 0.00 0.00 0.00 0.00 0.00 0.00 0.02 0.14 0.04 0.02 0.03 0.01 0.01 0.00
0.03 0.02 0.01 0.01 0.04 0.03 0.00 0.00 0.00 0.00 0.01 0.00 0.00 0.00 0.00 0.00 0.00 0.00 0.00 0.03 0.02 0.03 0.02 0.02 0.01 0.00 0.00 0.00 0.00 0.00 0.00 0.00 0.00 0.00 0.00 0.00 0.00 0.00 0.02 0.00 0.00 0.00 0.00 0.00 0.00
0.04 0.02 0.02 0.04 0.05 0.01 0.00 0.00 0.00 0.00 0.01 0.00 0.00 0.00 0.00 0.00 0.00 0.00 0.00 0.01 0.03 0.02 0.03 0.03 0.02 0.00 0.00 0.00 0.00 0.00 0.00 0.00 0.00 0.00 0.00 0.00 0.00 0.00 0.00 0.02 0.07 0.01 0.00 0.00 0.00
0.05 0.03 0.04 0.06 0.02 0.00 0.00 0.00 0.00 0.00 0.01 0.00 0.00 0.00 0.00 0.00 0.00 0.00 0.00 0.00 0.01 0.01 0.06 0.09 0.00 0.01 0.01 0.00 0.00 0.00 0.00 0.00 0.00 0.00 0.00 0.00 0.01 0.02 0.01 0.02 0.06 0.01 0.01 0.00 0.00
0.06 0.05 0.06 0.08 0.02 0.01 0.00 0.00 0.00 0.03 0.02 0.00 0.00 0.00 0.00 0.00 0.00 0.00 0.00 0.00 0.01 0.02 0.08 0.10 0.01 0.01 0.00 0.00 0.00 0.01 0.00 0.00 0.00 0.00 0.05 0.02 0.01 0.03 0.02 0.00 0.02 0.01 0.00 0.00 0.00
0.08 0.08 0.13 0.08 0.04 0.01 0.00 0.01 0.05 0.11 0.04 0.00 0.00 0.00 0.00 0.00 0.00 0.00 0.00 0.00 0.02 0.14 0.06 0.01 0.01 0.05 0.02 0.00 0.00 0.00 0.02 0.02 0.00 0.01 0.03 0.01 0.02 0.04 0.03 0.02 0.05 0.03 0.00 0.00 0.00
0.13 0.15 0.17 0.06 0.03 0.00 0.01 0.10 0.16 0.07 0.00 0.00 0.00 0.00 0.00 0.00 0.00 0.00 0.00 0.00 0.02 0.10 0.07 0.02 0.04 0.03 0.00 0.00 0.00 0.00 0.07 0.14 0.14 0.06 0.03 0.03 0.03 0.05 0.01 0.06 0.16 0.09 0.00 0.00 0.00
0.18 0.21 0.12 0.06 0.03 0.04 0.16 0.31 0.12 0.00 0.00 0.00 0.00 0.00 0.00 0.01 0.01 0.01 0.02 0.00 0.00 0.00 0.04 0.12 0.09 0.02 0.01 0.00 0.02 0.02 0.08 0.13 0.25 0.08 0.03 0.03 0.02 0.01 0.00 0.00 0.00 0.00 0.00 0.00 0.00
0.38 0.27 0.21 0.05 0.04 0.16 0.55 0.44 0.04 0.00 0.00 0.00 0.00 0.01 0.03 0.05 0.06 0.03 0.04 0.04 0.00 0.00 0.05 0.07 0.05 0.02 0.02 0.01 0.06 0.12 0.11 0.03 0.23 0.14 0.11 0.01 0.01 0.00 0.00 0.00 0.00 0.00 0.00 0.00 0.00
0.47 0.40 0.14 0.04 0.16 0.53 0.95 0.30 0.01 0.02 0.00 0.00 0.01 0.05 0.09 0.05 0.09 0.13 0.10 0.17 0.08 0.02 0.01 0.09 0.22 0.06 0.02 0.07 0.10 0.07 0.15 0.28 0.38 0.24 0.15 0.01 0.01 0.03 0.01 0.01 0.00 0.00 0.00 0.00 0.00
0.86 0.80 0.15 0.09 0.64 1.13 0.87 0.13 0.00 0.00 0.00 0.00 0.01 0.07 0.09 0.10 0.10 0.15 0.28 0.29 0.30 0.03 0.01 0.03 0.11 0.10 0.13 0.16 0.09 0.11 0.19 0.30 0.28 0.11 0.10 0.11 0.11 0.10 0.02 0.00 0.00 0.00 0.00 0.00 0.00
1.37 1.00 0.28 0.38 0.92 0.64 0.30 0.06 0.01 0.00 0.00 0.00 0.00 0.03 0.11 0.10 0.12 0.18 0.30 0.31 0.25 0.11 0.05 0.04 0.08 0.06 0.04 0.03 0.02 0.12 0.15 0.22 0.32 0.18 0.08 0.10 0.13 0.05 0.02 0.00 0.00 0.00 0.00 0.00 0.00
1.81 0.96 0.82 0.86 0.91 0.41 0.19 0.05 0.02 0.00 0.00 0.00 0.01 0.02 0.07 0.09 0.17 0.12 0.30 0.34 0.49 0.26 0.08 0.07 0.07 0.04 0.07 0.05 0.06 0.15 0.11 0.19 0.35 0.32 0.23 0.18 0.09 0.16 0.03 0.01 0.00 0.00 0.00 0.00 0.00
2.44 1.69 1.77 1.25 0.63 0.36 0.32 0.14 0.04 0.00 0.00 0.01 0.00 0.01 0.03 0.06 0.10 0.13 0.25 0.47 0.68 0.40 0.10 0.04 0.05 0.02 0.02 0.19 0.49 0.40 0.26 0.27 0.40 0.49 0.13 0.05 0.05 0.43 0.32 0.08 0.00 0.00 0.00 0.01 0.02
3.19 1.27 0.81 0.81 0.45 0.38 0.48 0.45 0.18 0.09 0.05 0.02 0.03 0.02 0.04 0.08 0.08 0.08 0.26 0.67 0.77 0.39 0.07 0.03 0.09 0.09 0.04 0.03 0.08 0.17 0.18 0.20 0.32 0.23 0.15 0.04 0.11 0.37 0.72 0.32 0.07 0.02 0.01 0.05 0.04
3.39 0.55 0.39 0.42 0.43 0.71 0.49 0.40 0.30 0.27 0.32 0.18 0.14 0.05 0.06 0.08 0.06 0.13 0.27 0.32 0.40 0.24 0.10 0.02 0.07 0.15 0.04 0.01 0.07 0.14 0.15 0.11 0.15 0.10 0.09 0.06 0.17 0.30 0.56 0.56 0.30 0.15 0.04 0.09 0.09
2.99 0.40 0.51 0.35 0.21 0.54 0.54 0.40 0.50 0.69 0.35 0.12 0.24 0.13 0.08 0.13 0.09 0.05 0.12 0.12 0.11 0.20 0.16 0.12 0.12 0.17 0.25 0.08 0.08 0.10 0.05 0.14 0.14 0.11 0.07 0.12 0.12 0.30 0.57 0.65 0.50 0.33 0.14 0.11 0.12

GFSSW_prec_precacc_093.txt.gz
Total_Precipitation_Accumulation
0.02 0.03 0.02 0.02 0.02 0.01 0.01 0.01 0.01 0.01 0.02 0.02 0.02 0.02 0.03 0.04 0.01 0.00 0.00 0.00 0.00 0.00 0.00 0.00 0.00 0.00 0.00 0.00 0.00 0.00 0.00 0.00 0.00 0.02 0.13 0.21 0.32 0.22 0.08 0.04 0.30 0.54 0.94 1.18 0.82
0.03 0.04 0.04 0.03 0.02 0.02 0.02 0.01 0.01 0.01 0.02 0.02 0.01 0.01 0.02 0.04 0.00 0.00 0.00 0.00 0.00 0.00 0.00 0.00 0.00 0.00 0.00 0.00 0.00 0.00 0.00 0.00 0.00 0.01 0.12 0.16 0.03 0.15 0.24 0.16 0.39 0.91 1.20 0.77 0.45
0.04 0.04 0.04 0.03 0.03 0.03 0.02 0.02 0.02 0.02 0.02 0.02 0.02 0.02 0.02 0.02 0.00 0.00 0.00 0.00 0.00 0.00 0.00 0.00 0.00 0.00 0.00 0.00 0.00 0.00 0.00 0.00 0.00 0.01 0.11 0.03 0.01 0.03 0.08 0.25 0.76 1.55 1.68 0.86 0.56
0.03 0.03 0.03 0.03 0.03 0.02 0.02 0.01 0.02 0.02 0.01 0.02 0.02 0.02 0.02 0.00 0.00 0.00 0.00 0.00 0.00 0.00 0.00 0.00 0.00 0.00 0.00 0.00 0.00 0.00 0.00 0.00 0.00 0.00 0.02 0.05 0.07 0.06 0.31 0.75 0.42 0.36 0.51 0.68 0.79
0.03 0.02 0.03 0.03 0.03 0.02 0.02 0.02 0.02 0.02 0.02 0.02 0.02 0.03 0.01 0.00 0.00 0.00 0.00 0.00 0.00 0.00 0.00 0.00 0.00 0.00 0.00 0.00 0.00 0.00 0.00 0.00 0.01 0.01 0.01 0.01 0.06 0.11 0.25 0.10 0.07 0.18 0.29 0.52 0.58
0.04 0.03 0.03 0.03 0.02 0.02 0.02 0.02 0.02 0.02 0.02 0.02 0.02 0.03 0.00 0.00 0.00 0.00 0.00 0.00 0.00 0.00 0.00 0.00 0.00 0.00 0.00 0.00 0.00 0.00 0.00 0.00 0.02 0.00 0.00 0.00 0.23 0.18 0.54 0.16 0.08 0.05 0.18 0.41 0.34
0.04 0.04 0.03 0.03 0.03 0.02 0.02 0.02 0.02 0.02 0.02 0.02 0.02 0.02 0.00 0.00 0.00 0.00 0.00 0.00 0.00 0.00 0.00 0.00 0.00 0.00 0.00 0.00 0.00 0.00 0.00 0.00 0.00 0.01 0.01 0.04 0.22 0.14 0.13 0.10 0.06 0.02 0.06 0.16 0.09
0.04 0.03 0.03 0.02 0.02 0.02 0.02 0.02 0.02 0.02 0.03 0.03 0.03 0.01 0.00 0.00 0.00 0.00 0.00 0.00 0.00 0.00 0.00 0.00 0.00 0.00 0.00 0.00 0.00 0.00 0.00 0.00 0.00 0.01 0.02 0.11 0.51 0.05 0.05 0.03 0.03 0.02 0.03 0.03 0.09
0.03 0.02 0.02 0.02 0.02 0.02 0.02 0.02 0.02 0.03 0.03 0.02 0.01 0.00 0.00 0.00 0.00 0.00 0.00 0.02 0.00 0.00 0.00 0.00 0.00 0.00 0.00 0.00 0.00 0.00 0.00 0.00 0.00 0.00 0.01 0.05 0.35 0.22 0.07 0.08 0.05 0.01 0.00 0.00 0.00
0.03 0.03 0.01 0.01 0.02 0.03 0.02 0.02 0.02 0.02 0.01 0.00 0.01 0.00 0.00 0.00 0.00 0.00 0.00 0.02 0.01 0.00 0.00 0.00 0.00 0.00 0.00 0.00 0.00 0.00 0.00 0.00 0.02 0.07 0.00 0.00 0.03 0.16 0.19 0.07 0.04 0.01 0.00 0.00 0.00
0.03 0.02 0.01 0.01 0.02 0.03 0.01 0.01 0.00 0.00 0.00 0.00 0.00 0.00 0.00 0.00 0.00 0.00 0.00 0.00 0.00 0.00 0.02 0.00 0.00 0.00 0.00 0.00 0.00 0.00 0.00 0.00 0.00 0.00 0.00 0.00 0.00 0.02 0.14 0.04 0.02 0.03 0.01 0.01 0.00
0.03 0.02 0.01 0.01 0.04 0.03 0.00 0.00 0.00 0.00 0.01 0.00 0.00 0.00 0.00 0.00 0.00 0.00 0.00 0.03 0.02 0.03 0.02 0.02 0.01 0.00 0.00 0.00 0.00 0.00 0.00 0.00 0.00 0.00 0.00 0.00 0.00 0.00 0.02 0.00 0.00 0.00 0.00 0.00 0.00
0.04 0.02 0.02 0.04 0.05 0.01 0.00 0.00 0.00 0.00 0.01 0.00 0.00 0.00 0.00 0.00 0.00 0.00 0.00 0.01 0.03 0.02 0.03 0.03 0.02 0.00 0.00 0.00 0.00 0.00 0.00 0.00 0.00 0.00 0.00 0.00 0.00 0.00 0.00 0.02 0.07 0.01 0.00 0.00 0.00
0.05 0.03 0.04 0.06 0.02 0.00 0.00 0.00 0.00 0.00 0.01 0.00 0.00 0.00 0.00 0.00 0.00 0.00 0.00 0.00 0.01 0.01 0.06 0.09 0.00 0.01 0.01 0.00 0.00 0.00 0.00 0.00 0.00 0.00 0.00 0.00 0.01 0.02 0.01 0.02 0.06 0.01 0.01 0.00 0.00
0.06 0.05 0.06 0.08 0.02 0.01 0.00 0.00 0.00 0.03 0.02 0.00 0.00 0.00 0.00 0.00 0.00 0.00 0.00 0.00 0.01 0.02 0.08 0.10 0.01 0.01 0.00 0.00 0.00 0.01 0.00 0.00 0.00 0.00 0.05 0.02 0.01 0.03 0.02 0.00 0.02 0.01 0.00 0.00 0.00
0.08 0.08 0.13 0.08 0.04 0.01 0.00 0.01 0.05 0.11 0.04 0.00 0.00 0.00 0.00 0.00 0.00 0.00 0.00 0.00 0.02 0.14 0.06 0.01 0.01 0.05 0.02 0.00 0.00 0.00 0.02 0.02 0.00 0.01 0.03 0.01 0.02 0.04 0.03 0.02 0.05 0.03 0.00 0.00 0.00
0.13 0.15 0.17 0.06 0.03 0.00 0.01 0.10 0.16 0.07 0.00 0.00 0.00 0.00 0.00 0.00 0.00 0.00 0.00 0.00 0.02 0.11 0.08 0.02 0.04 0.03 0.00 0.00 0.00 0.00 0.08 0.15 0.15 0.06 0.03 0.03 0.03 0.05 0.01 0.06 0.16 0.09 0.00 0.00 0.00
0.18 0.21 0.12 0.06 0.03 0.04 0.16 0.31 0.12 0.00 0.00 0.00 0.00 0.00 0.00 0.01 0.01 0.01 0.02 0.00 0.00 0.01 0.05 0.13 0.10 0.03 0.01 0.01 0.02 0.02 0.08 0.13 0.26 0.09 0.03 0.03 0.02 0.01 0.00 0.00 0.00 0.00 0.00 0.00 0.00
0.38 0.27 0.21 0.05 0.04 0.16 0.55 0.44 0.04 0.00 0.00 0.00 0.00 0.01 0.03 0.07 0.08 0.03 0.04 0.04 0.01 0.02 0.10 0.08 0.06 0.03 0.02 0.01 0.06 0.12 0.11 0.03 0.24 0.15 0.11 0.02 0.01 0.00 0.00 0.00 0.00 0.00 0.00 0.00 0.00
0.47 0.40 0.14 0.04 0.16 0.53 0.95 0.30 0.01 0.02 0.00 0.00 0.01 0.05 0.09 0.05 0.09 0.13 0.10 0.19 0.11 0.17 0.09 0.13 0.25 0.07 0.02 0.07 0.10 0.08 0.16 0.30 0.38 0.24 0.16 0.01 0.01 0.07 0.03 0.01 0.00 0.00 0.00 0.00 0.00
0.86 0.80 0.15 0.09 0.64 1.13 0.87 0.13 0.00 0.00 0.00 0.00 0.01 0.07 0.09 0.10 0.10 0.15 0.28 0.31 0.42 0.14 0.07 0.08 0.18 0.14 0.15 0.17 0.09 0.12 0.23 0.32 0.31 0.12 0.11 0.12 0.17 0.14 0.02 0.00 0.00 0.00 0.00 0.00 0.00
1.37 1.00 0.28 0.38 0.92 0.64 0.30 0.06 0.01 0.00 0.00 0.00 0.00 0.03 0.11 0.11 0.12 0.18 0.31 0.33 0.32 0.18 0.07 0.07 0.20 0.14 0.08 0.05 0.03 0.13 0.15 0.24 0.34 0.21 0.09 0.12 0.18 0.07 0.02 0.00 0.00 0.00 0.00 0.00 0.00
1.81 0.96 0.82 0.86 0.92 0.41 0.19 0.05 0.02 0.00 0.01 0.01 0.02 0.03 0.07 0.09 0.18 0.12 0.30 0.34 0.50 0.31 0.12 0.26 0.29 0.19 0.22 0.12 0.12 0.21 0.15 0.22 0.36 0.33 0.25 0.19 0.11 0.16 0.03 0.01 0.00 0.00 0.00 0.00 0.00
2.45 1.69 1.77 1.25 0.63 0.36 0.32 0.14 0.04 0.00 0.00 0.03 0.02 0.04 0.06 0.08 0.10 0.13 0.25 0.47 0.74 0.53 0.18 0.24 0.18 0.08 0.07 0.21 0.50 0.43 0.29 0.29 0.41 0.50 0.14 0.06 0.05 0.43 0.32 0.08 0.00 0.00 0.00 0.01 0.02
3.19 1.27 0.81 0.81 0.45 0.38 0.48 0.46 0.19 0.10 0.06 0.03 0.06 0.09 0.12 0.13 0.09 0.09 0.28 0.72 0.95 0.66 0.23 0.16 0.14 0.09 0.05 0.04 0.08 0.18 0.19 0.21 0.33 0.24 0.15 0.04 0.11 0.37 0.72 0.32 0.07 0.03 0.01 0.05 0.04
3.40 0.55 0.39 0.42 0.43 0.71 0.49 0.40 0.30 0.28 0.33 0.20 0.18 0.07 0.08 0.09 0.06 0.15 0.29 0.38 0.63 0.45 0.32 0.13 0.09 0.15 0.04 0.01 0.07 0.14 0.15 0.11 0.15 0.10 0.09 0.06 0.17 0.30 0.56 0.56 0.30 0.15 0.04 0.09 0.09
2.99 0.40 0.51 0.35 0.21 0.54 0.54 0.40 0.50 0.72 0.37 0.14 0.30 0.16 0.09 0.14 0.11 0.05 0.12 0.12 0.17 0.33 0.33 0.15 0.12 0.17 0.25 0.08 0.08 0.10 0.05 0.14 0.14 0.11 0.07 0.12 0.12 0.30 0.57 0.65 0.50 0.34 0.14 0.11 0.12

GFSSW_prec_precacc_096.txt.gz
Total_Precipitation_Accumulation
0.02 0.03 0.02 0.02 0.02 0.01 0.01 0.01 0.01 0.01 0.02 0.02 0.02 0.02 0.03 0.04 0.01 0.00 0.00 0.00 0.00 0.00 0.00 0.00 0.00 0.00 0.00 0.00 0.00 0.00 0.00 0.00 0.00 0.02 0.13 0.21 0.32 0.22 0.08 0.04 0.30 0.54 0.94 1.18 0.82
0.03 0.04 0.04 0.03 0.02 0.02 0.02 0.01 0.01 0.01 0.02 0.02 0.01 0.01 0.02 0.04 0.00 0.00 0.00 0.00 0.00 0.00 0.00 0.00 0.00 0.00 0.00 0.00 0.00 0.00 0.00 0.00 0.00 0.01 0.12 0.16 0.03 0.15 0.24 0.16 0.39 0.91 1.20 0.77 0.45
0.04 0.04 0.04 0.03 0.03 0.03 0.02 0.02 0.02 0.02 0.02 0.02 0.02 0.02 0.02 0.02 0.00 0.00 0.00 0.00 0.00 0.00 0.00 0.00 0.00 0.00 0.00 0.00 0.00 0.00 0.00 0.00 0.00 0.01 0.11 0.03 0.01 0.03 0.08 0.25 0.76 1.55 1.68 0.86 0.56
0.03 0.03 0.03 0.03 0.03 0.02 0.02 0.01 0.02 0.02 0.01 0.02 0.02 0.02 0.02 0.00 0.00 0.00 0.00 0.00 0.00 0.00 0.00 0.00 0.00 0.00 0.00 0.00 0.00 0.00 0.00 0.00 0.00 0.00 0.02 0.05 0.07 0.06 0.31 0.75 0.42 0.36 0.51 0.68 0.79
0.03 0.02 0.03 0.03 0.03 0.02 0.02 0.02 0.02 0.02 0.02 0.02 0.02 0.03 0.01 0.00 0.00 0.00 0.00 0.00 0.00 0.00 0.00 0.00 0.00 0.00 0.00 0.00 0.00 0.00 0.00 0.00 0.01 0.01 0.01 0.01 0.06 0.11 0.25 0.10 0.07 0.18 0.29 0.52 0.58
0.04 0.03 0.03 0.03 0.02 0.02 0.02 0.02 0.02 0.02 0.02 0.02 0.02 0.03 0.00 0.00 0.00 0.00 0.00 0.00 0.00 0.00 0.00 0.00 0.00 0.00 0.00 0.00 0.00 0.00 0.00 0.00 0.02 0.00 0.00 0.00 0.23 0.18 0.54 0.16 0.08 0.05 0.18 0.41 0.34
0.04 0.04 0.03 0.03 0.03 0.02 0.02 0.02 0.02 0.02 0.02 0.02 0.02 0.02 0.00 0.00 0.00 0.00 0.00 0.00 0.00 0.00 0.00 0.00 0.00 0.00 0.00 0.00 0.00 0.00 0.00 0.00 0.00 0.01 0.01 0.04 0.22 0.14 0.13 0.10 0.06 0.02 0.06 0.16 0.09
0.04 0.03 0.03 0.02 0.02 0.02 0.02 0.02 0.02 0.02 0.03 0.03 0.03 0.01 0.00 0.00 0.00 0.00 0.00 0.00 0.00 0.00 0.00 0.00 0.00 0.00 0.00 0.00 0.00 0.00 0.00 0.00 0.00 0.01 0.02 0.11 0.51 0.05 0.05 0.03 0.03 0.02 0.03 0.03 0.09
0.03 0.02 0.02 0.02 0.02 0.02 0.02 0.02 0.02 0.03 0.03 0.02 0.01 0.00 0.00 0.00 0.00 0.00 0.00 0.02 0.00 0.00 0.00 0.00 0.00 0.00 0.00 0.00 0.00 0.00 0.00 0.00 0.00 0.00 0.01 0.05 0.35 0.22 0.07 0.08 0.05 0.01 0.00 0.00 0.00
0.03 0.03 0.01 0.01 0.02 0.03 0.02 0.02 0.02 0.02 0.01 0.00 0.01 0.00 0.00 0.00 0.00 0.00 0.00 0.02 0.01 0.00 0.00 0.00 0.00 0.00 0.00 0.00 0.00 0.00 0.00 0.00 0.02 0.07 0.00 0.00 0.03 0.16 0.19 0.07 0.04 0.01 0.00 0.00 0.00
0.03 0.02 0.01 0.01 0.02 0.03 0.01 0.01 0.00 0.00 0.00 0.00 0.00 0.00 0.00 0.00 0.00 0.00 0.00 0.00 0.00 0.00 0.02 0.00 0.00 0.00 0.00 0.00 0.00 0.00 0.00 0.00 0.00 0.00 0.00 0.00 0.00 0.02 0.14 0.04 0.02 0.03 0.01 0.01 0.00
0.03 0.02 0.01 0.01 0.04 0.03 0.00 0.00 0.00 0.00 0.01 0.00 0.00 0.00 0.00 0.00 0.00 0.00 0.00 0.03 0.02 0.03 0.02 0.02 0.01 0.00 0.00 0.00 0.00 0.00 0.00 0.00 0.00 0.00 0.00 0.00 0.00 0.00 0.02 0.00 0.00 0.00 0.00 0.00 0.00
0.04 0.02 0.02 0.04 0.05 0.01 0.00 0.00 0.00 0.00 0.01 0.00 0.00 0.00 0.00 0.00 0.00 0.00 0.00 0.01 0.03 0.02 0.03 0.03 0.02 0.00 0.00 0.00 0.00 0.00 0.00 0.00 0.00 0.00 0.00 0.00 0.00 0.00 0.00 0.02 0.07 0.01 0.00 0.00 0.00
0.05 0.03 0.04 0.06 0.02 0.00 0.00 0.00 0.00 0.00 0.01 0.00 0.00 0.00 0.00 0.00 0.00 0.00 0.00 0.00 0.01 0.01 0.06 0.09 0.00 0.01 0.01 0.00 0.00 0.00 0.00 0.00 0.00 0.00 0.00 0.00 0.01 0.02 0.01 0.02 0.06 0.01 0.01 0.00 0.00
0.06 0.05 0.06 0.08 0.02 0.01 0.00 0.00 0.00 0.03 0.02 0.00 0.00 0.00 0.00 0.00 0.00 0.00 0.00 0.00 0.01 0.02 0.08 0.10 0.01 0.01 0.00 0.00 0.00 0.01 0.00 0.00 0.00 0.00 0.05 0.02 0.01 0.03 0.02 0.00 0.02 0.01 0.00 0.00 0.00
0.08 0.08 0.13 0.08 0.04 0.01 0.00 0.01 0.05 0.11 0.04 0.00 0.00 0.00 0.00 0.00 0.00 0.00 0.00 0.00 0.02 0.14 0.06 0.01 0.01 0.05 0.02 0.00 0.00 0.00 0.02 0.02 0.00 0.01 0.03 0.01 0.02 0.04 0.03 0.02 0.05 0.03 0.00 0.00 0.00
0.13 0.15 0.17 0.06 0.03 0.00 0.01 0.10 0.16 0.07 0.00 0.00 0.00 0.00 0.00 0.00 0.00 0.00 0.00 0.00 0.02 0.12 0.09 0.03 0.04 0.03 0.00 0.01 0.01 0.01 0.10 0.19 0.19 0.07 0.03 0.03 0.04 0.05 0.02 0.06 0.16 0.09 0.00 0.00 0.00
0.18 0.21 0.12 0.06 0.03 0.04 0.16 0.31 0.12 0.00 0.00 0.00 0.00 0.00 0.00 0.01 0.01 0.01 0.02 0.00 0.00 0.03 0.11 0.16 0.12 0.03 0.05 0.03 0.04 0.03 0.11 0.18 0.29 0.10 0.05 0.03 0.02 0.01 0.00 0.00 0.00 0.00 0.00 0.00 0.00
0.38 0.27 0.21 0.05 0.04 0.16 0.55 0.44 0.04 0.00 0.00 0.00 0.00 0.01 0.03 0.07 0.08 0.03 0.04 0.04 0.02 0.08 0.22 0.14 0.08 0.03 0.03 0.03 0.08 0.15 0.12 0.04 0.26 0.17 0.17 0.06 0.02 0.02 0.00 0.00 0.00 0.00 0.00 0.00 0.00
0.47 0.40 0.14 0.04 0.16 0.53 0.95 0.30 0.01 0.02 0.00 0.00 0.01 0.05 0.09 0.05 0.09 0.13 0.10 0.20 0.13 0.18 0.14 0.22 0.41 0.09 0.03 0.08 0.11 0.09 0.16 0.30 0.40 0.28 0.19 0.04 0.03 0.16 0.11 0.01 0.00 0.00 0.00 0.00 0.00
0.86 0.80 0.15 0.09 0.64 1.13 0.87 0.13 0.00 0.00 0.00 0.00 0.01 0.07 0.09 0.10 0.11 0.15 0.28 0.31 0.43 0.15 0.10 0.10 0.27 0.19 0.20 0.21 0.10 0.12 0.25 0.33 0.33 0.12 0.13 0.13 0.27 0.27 0.13 0.02 0.00 0.00 0.00 0.00 0.00
1.37 1.00 0.28 0.38 0.92 0.64 0.30 0.06 0.01 0.00 0.00 0.00 0.00 0.03 0.12 0.12 0.14 0.19 0.31 0.33 0.33 0.18 0.08 0.09 0.37 0.23 0.15 0.06 0.03 0.13 0.15 0.26 0.36 0.23 0.10 0.15 0.37 0.34 0.04 0.00 0.00 0.00 0.00 0.00 0.00
1.81 0.96 0.82 0.86 0.92 0.41 0.19 0.05 0.02 0.00 0.01 0.01 0.02 0.03 0.07 0.09 0.19 0.12 0.30 0.34 0.50 0.32 0.13 0.32 0.36 0.41 0.36 0.22 0.14 0.22 0.15 0.22 0.39 0.37 0.29 0.20 0.23 0.45 0.04 0.01 0.00 0.00 0.00 0.00 0.00
2.45 1.70 1.77 1.25 0.63 0.36 0.32 0.14 0.04 0.00 0.00 0.03 0.02 0.04 0.09 0.12 0.13 0.14 0.25 0.47 0.74 0.54 0.24 0.46 0.31 0.53 0.29 0.29 0.53 0.47 0.32 0.34 0.46 0.52 0.15 0.06 0.08 0.47 0.32 0.08 0.00 0.00 0.00 0.01 0.02
3.20 1.27 0.81 0.81 0.46 0.38 0.49 0.46 0.19 0.10 0.07 0.03 0.07 0.12 0.16 0.16 0.11 0.09 0.28 0.73 0.96 0.69 0.35 0.30 0.26 0.55 0.33 0.12 0.10 0.22 0.23 0.27 0.38 0.25 0.16 0.04 0.11 0.37 0.72 0.32 0.07 0.03 0.01 0.05 0.04
3.40 0.55 0.39 0.43 0.43 0.71 0.50 0.40 0.31 0.28 0.34 0.20 0.19 0.08 0.08 0.11 0.08 0.16 0.30 0.40 0.67 0.48 0.41 0.35 0.26 0.22 0.09 0.08 0.08 0.15 0.19 0.13 0.15 0.11 0.09 0.06 0.17 0.30 0.56 0.56 0.30 0.15 0.04 0.09 0.09
2.99 0.40 0.52 0.35 0.21 0.54 0.55 0.40 0.50 0.73 0.37 0.15 0.30 0.17 0.12 0.18 0.12 0.06 0.12 0.13 0.18 0.38 0.44 0.33 0.30 0.19 0.26 0.08 0.08 0.10 0.05 0.14 0.14 0.11 0.07 0.12 0.12 0.30 0.57 0.65 0.50 0.34 0.14 0.11 0.12

GFSSW_prec_precacc_099.txt.gz
Total_Precipitation_Accumulation
0.02 0.03 0.02 0.02 0.02 0.01 0.01 0.01 0.01 0.01 0.02 0.02 0.02 0.02 0.03 0.04 0.01 0.00 0.00 0.00 0.00 0.00 0.00 0.00 0.00 0.00 0.00 0.00 0.00 0.00 0.00 0.00 0.00 0.02 0.13 0.21 0.32 0.22 0.08 0.04 0.30 0.54 0.94 1.18 0.82
0.03 0.04 0.04 0.03 0.02 0.02 0.02 0.01 0.01 0.01 0.02 0.02 0.01 0.01 0.02 0.04 0.00 0.00 0.00 0.00 0.00 0.00 0.00 0.00 0.00 0.00 0.00 0.00 0.00 0.00 0.00 0.00 0.00 0.01 0.12 0.16 0.03 0.15 0.24 0.16 0.39 0.91 1.20 0.77 0.45
0.04 0.04 0.04 0.03 0.03 0.03 0.02 0.02 0.02 0.02 0.02 0.02 0.02 0.02 0.02 0.02 0.00 0.00 0.00 0.00 0.00 0.00 0.00 0.00 0.00 0.00 0.00 0.00 0.00 0.00 0.00 0.00 0.00 0.01 0.11 0.03 0.01 0.03 0.08 0.25 0.76 1.55 1.68 0.86 0.56
0.03 0.03 0.03 0.03 0.03 0.02 0.02 0.01 0.02 0.02 0.01 0.02 0.02 0.02 0.02 0.00 0.00 0.00 0.00 0.00 0.00 0.00 0.00 0.00 0.00 0.00 0.00 0.00 0.00 0.00 0.00 0.00 0.00 0.00 0.02 0.05 0.07 0.06 0.31 0.75 0.42 0.36 0.51 0.68 0.79
0.03 0.02 0.03 0.03 0.03 0.02 0.02 0.02 0.02 0.02 0.02 0.02 0.02 0.03 0.01 0.00 0.00 0.00 0.00 0.00 0.00 0.00 0.00 0.00 0.00 0.00 0.00 0.00 0.00 0.00 0.00 0.00 0.01 0.01 0.01 0.01 0.06 0.11 0.25 0.10 0.07 0.18 0.29 0.52 0.58
0.04 0.03 0.03 0.03 0.02 0.02 0.02 0.02 0.02 0.02 0.02 0.02 0.02 0.03 0.00 0.00 0.00 0.00 0.00 0.00 0.00 0.00 0.00 0.00 0.00 0.00 0.00 0.00 0.00 0.00 0.00 0.00 0.02 0.00 0.00 0.00 0.23 0.18 0.54 0.16 0.08 0.05 0.18 0.41 0.34
0.04 0.04 0.03 0.03 0.03 0.02 0.02 0.02 0.02 0.02 0.02 0.02 0.02 0.02 0.00 0.00 0.00 0.00 0.00 0.00 0.00 0.00 0.00 0.00 0.00 0.00 0.00 0.00 0.00 0.00 0.00 0.00 0.00 0.01 0.01 0.04 0.22 0.14 0.13 0.10 0.06 0.02 0.06 0.16 0.09
0.04 0.03 0.03 0.02 0.02 0.02 0.02 0.02 0.02 0.02 0.03 0.03 0.03 0.01 0.00 0.00 0.00 0.00 0.00 0.00 0.00 0.00 0.00 0.00 0.00 0.00 0.00 0.00 0.00 0.00 0.00 0.00 0.00 0.01 0.02 0.11 0.51 0.05 0.05 0.03 0.03 0.02 0.03 0.03 0.09
0.03 0.02 0.02 0.02 0.02 0.02 0.02 0.02 0.02 0.03 0.03 0.02 0.01 0.00 0.00 0.00 0.00 0.00 0.00 0.02 0.00 0.00 0.00 0.00 0.00 0.00 0.00 0.00 0.00 0.00 0.00 0.00 0.00 0.00 0.01 0.05 0.35 0.22 0.07 0.08 0.05 0.01 0.00 0.00 0.00
0.03 0.03 0.01 0.01 0.02 0.03 0.02 0.02 0.02 0.02 0.01 0.00 0.01 0.00 0.00 0.00 0.00 0.00 0.00 0.02 0.01 0.00 0.00 0.00 0.00 0.00 0.00 0.00 0.00 0.00 0.00 0.00 0.02 0.07 0.00 0.00 0.03 0.16 0.19 0.07 0.04 0.01 0.00 0.00 0.00
0.03 0.02 0.01 0.01 0.02 0.03 0.01 0.01 0.00 0.00 0.00 0.00 0.00 0.00 0.00 0.00 0.00 0.00 0.00 0.00 0.00 0.00 0.02 0.00 0.00 0.00 0.00 0.00 0.00 0.00 0.00 0.00 0.00 0.00 0.00 0.00 0.00 0.02 0.14 0.04 0.02 0.03 0.01 0.01 0.00
0.03 0.02 0.01 0.01 0.04 0.03 0.00 0.00 0.00 0.00 0.01 0.00 0.00 0.00 0.00 0.00 0.00 0.00 0.00 0.03 0.02 0.03 0.02 0.02 0.01 0.00 0.00 0.00 0.00 0.00 0.00 0.00 0.00 0.00 0.00 0.00 0.00 0.00 0.02 0.00 0.00 0.00 0.00 0.00 0.00
0.04 0.02 0.02 0.04 0.05 0.01 0.00 0.00 0.00 0.00 0.01 0.00 0.00 0.00 0.00 0.00 0.00 0.00 0.00 0.01 0.03 0.02 0.03 0.03 0.02 0.00 0.00 0.00 0.00 0.00 0.00 0.00 0.00 0.00 0.00 0.00 0.00 0.00 0.00 0.02 0.07 0.01 0.00 0.00 0.00
0.05 0.03 0.04 0.06 0.02 0.00 0.00 0.00 0.00 0.00 0.01 0.00 0.00 0.00 0.00 0.00 0.00 0.00 0.00 0.00 0.01 0.01 0.06 0.09 0.00 0.01 0.01 0.00 0.00 0.00 0.00 0.00 0.00 0.00 0.00 0.00 0.01 0.02 0.01 0.02 0.06 0.01 0.01 0.00 0.00
0.06 0.05 0.06 0.08 0.02 0.01 0.00 0.00 0.00 0.03 0.02 0.00 0.00 0.00 0.00 0.00 0.00 0.00 0.00 0.00 0.01 0.02 0.08 0.10 0.01 0.01 0.00 0.00 0.00 0.01 0.00 0.00 0.00 0.00 0.05 0.02 0.01 0.03 0.02 0.00 0.02 0.01 0.00 0.00 0.00
0.08 0.08 0.13 0.08 0.04 0.01 0.00 0.01 0.05 0.11 0.04 0.00 0.00 0.00 0.00 0.00 0.00 0.00 0.00 0.00 0.02 0.14 0.06 0.01 0.01 0.05 0.02 0.00 0.00 0.00 0.02 0.04 0.01 0.01 0.03 0.01 0.02 0.04 0.03 0.02 0.05 0.03 0.00 0.01 0.00
0.13 0.15 0.17 0.06 0.03 0.00 0.01 0.10 0.16 0.07 0.00 0.00 0.00 0.00 0.00 0.00 0.00 0.00 0.00 0.00 0.02 0.12 0.09 0.03 0.04 0.03 0.00 0.01 0.01 0.01 0.12 0.23 0.23 0.08 0.03 0.03 0.04 0.05 0.02 0.09 0.21 0.13 0.01 0.01 0.00
0.18 0.21 0.12 0.06 0.03 0.04 0.16 0.31 0.12 0.00 0.00 0.00 0.00 0.00 0.00 0.01 0.01 0.01 0.02 0.00 0.00 0.03 0.12 0.17 0.12 0.03 0.06 0.03 0.05 0.04 0.16 0.24 0.32 0.15 0.06 0.03 0.03 0.01 0.00 0.01 0.18 0.14 0.04 0.01 0.02
0.38 0.27 0.21 0.05 0.04 0.16 0.55 0.44 0.04 0.00 0.00 0.00 0.00 0.01 0.03 0.07 0.08 0.03 0.04 0.04 0.02 0.09 0.23 0.15 0.09 0.03 0.04 0.04 0.10 0.20 0.16 0.08 0.34 0.24 0.19 0.08 0.03 0.04 0.02 0.08 0.08 0.05 0.01 0.01 0.00
0.47 0.40 0.14 0.04 0.16 0.53 0.95 0.30 0.01 0.02 0.00 0.00 0.01 0.05 0.09 0.05 0.09 0.13 0.10 0.20 0.13 0.20 0.15 0.23 0.41 0.09 0.05 0.13 0.13 0.17 0.19 0.37 0.49 0.39 0.21 0.15 0.06 0.44 0.36 0.26 0.39 0.04 0.00 0.00 0.00
0.86 0.80 0.15 0.09 0.64 1.13 0.87 0.13 0.00 0.00 0.00 0.00 0.01 0.07 0.09 0.10 0.11 0.16 0.30 0.31 0.44 0.17 0.10 0.10 0.28 0.20 0.22 0.25 0.12 0.16 0.34 0.38 0.35 0.14 0.17 0.24 0.52 0.64 0.79 0.17 0.15 0.01 0.00 0.00 0.00
1.37 1.00 0.28 0.38 0.92 0.64 0.30 0.06 0.01 0.00 0.00 0.00 0.00 0.03 0.12 0.12 0.14 0.19 0.31 0.33 0.33 0.18 0.08 0.11 0.42 0.23 0.16 0.08 0.04 0.15 0.19 0.29 0.40 0.24 0.10 0.21 0.82 0.55 0.28 0.19 0.10 0.00 0.00 0.00 0.00
1.81 0.96 0.82 0.86 0.93 0.41 0.19 0.05 0.02 0.00 0.01 0.01 0.02 0.03 0.07 0.10 0.20 0.13 0.31 0.35 0.51 0.32 0.13 0.35 0.40 0.43 0.38 0.23 0.14 0.22 0.16 0.23 0.40 0.40 0.30 0.30 0.61 0.69 0.21 0.04 0.00 0.00 0.00 0.00 0.00
2.45 1.70 1.77 1.25 0.63 0.36 0.32 0.14 0.04 0.00 0.00 0.03 0.02 0.05 0.10 0.13 0.16 0.17 0.25 0.48 0.75 0.54 0.24 0.62 0.38 0.53 0.31 0.32 0.55 0.48 0.32 0.36 0.49 0.56 0.18 0.21 0.50 0.61 0.34 0.08 0.00 0.00 0.00 0.01 0.02
3.20 1.27 0.81 0.81 0.46 0.38 0.49 0.46 0.19 0.10 0.07 0.03 0.07 0.13 0.17 0.17 0.11 0.09 0.29 0.73 0.96 0.70 0.37 0.45 0.31 0.65 0.50 0.16 0.18 0.26 0.28 0.34 0.51 0.42 0.28 0.23 0.20 0.38 0.72 0.32 0.07 0.03 0.01 0.05 0.04
3.40 0.56 0.39 0.43 0.43 0.71 0.50 0.40 0.31 0.28 0.34 0.20 0.19 0.08 0.09 0.11 0.09 0.16 0.30 0.41 0.68 0.51 0.49 0.48 0.34 0.50 0.70 0.31 0.24 0.31 0.34 0.28 0.35 0.19 0.15 0.07 0.17 0.30 0.56 0.56 0.30 0.15 0.04 0.09 0.09
2.99 0.40 0.52 0.36 0.21 0.54 0.55 0.40 0.50 0.73 0.37 0.15 0.31 0.18 0.12 0.18 0.12 0.06 0.12 0.13 0.19 0.40 0.54 0.44 0.54 0.29 0.46 0.17 0.14 0.22 0.11 0.16 0.15 0.11 0.07 0.13 0.12 0.30 0.57 0.66 0.51 0.34 0.15 0.12 0.13

GFSSW_prec_precacc_102.txt.gz
Total_Precipitation_Accumulation
0.02 0.03 0.02 0.02 0.02 0.01 0.01 0.01 0.01 0.01 0.02 0.02 0.02 0.02 0.03 0.04 0.01 0.00 0.00 0.00 0.00 0.00 0.00 0.00 0.00 0.00 0.00 0.00 0.00 0.00 0.00 0.00 0.00 0.02 0.13 0.21 0.32 0.22 0.08 0.04 0.30 0.54 0.94 1.18 0.82
0.03 0.04 0.04 0.03 0.02 0.02 0.02 0.01 0.01 0.01 0.02 0.02 0.01 0.01 0.02 0.04 0.00 0.00 0.00 0.00 0.00 0.00 0.00 0.00 0.00 0.00 0.00 0.00 0.00 0.00 0.00 0.00 0.00 0.01 0.12 0.16 0.03 0.15 0.24 0.16 0.39 0.91 1.20 0.77 0.45
0.04 0.04 0.04 0.03 0.03 0.03 0.02 0.02 0.02 0.02 0.02 0.02 0.02 0.02 0.02 0.02 0.00 0.00 0.00 0.00 0.00 0.00 0.00 0.00 0.00 0.00 0.00 0.00 0.00 0.00 0.00 0.00 0.00 0.01 0.11 0.03 0.01 0.03 0.08 0.25 0.76 1.55 1.68 0.86 0.56
0.03 0.03 0.03 0.03 0.03 0.02 0.02 0.01 0.02 0.02 0.01 0.02 0.02 0.02 0.02 0.00 0.00 0.00 0.00 0.00 0.00 0.00 0.00 0.00 0.00 0.00 0.00 0.00 0.00 0.00 0.00 0.00 0.00 0.00 0.02 0.05 0.07 0.06 0.31 0.75 0.42 0.36 0.51 0.68 0.79
0.03 0.02 0.03 0.03 0.03 0.02 0.02 0.02 0.02 0.02 0.02 0.02 0.02 0.03 0.01 0.00 0.00 0.00 0.00 0.00 0.00 0.00 0.00 0.00 0.00 0.00 0.00 0.00 0.00 0.00 0.00 0.00 0.01 0.01 0.01 0.01 0.06 0.11 0.25 0.10 0.07 0.18 0.29 0.52 0.58
0.04 0.03 0.03 0.03 0.02 0.02 0.02 0.02 0.02 0.02 0.02 0.02 0.02 0.03 0.00 0.00 0.00 0.00 0.00 0.00 0.00 0.00 0.00 0.00 0.00 0.00 0.00 0.00 0.00 0.00 0.00 0.00 0.02 0.00 0.00 0.00 0.23 0.18 0.54 0.16 0.08 0.05 0.18 0.41 0.34
0.04 0.04 0.03 0.03 0.03 0.02 0.02 0.02 0.02 0.02 0.02 0.02 0.02 0.02 0.00 0.00 0.00 0.00 0.00 0.00 0.00 0.00 0.00 0.00 0.00 0.00 0.00 0.00 0.00 0.00 0.00 0.00 0.00 0.01 0.01 0.04 0.22 0.14 0.13 0.10 0.06 0.02 0.06 0.16 0.09
0.04 0.03 0.03 0.02 0.02 0.02 0.02 0.02 0.02 0.02 0.03 0.03 0.03 0.01 0.00 0.00 0.00 0.00 0.00 0.00 0.00 0.00 0.00 0.00 0.00 0.00 0.00 0.00 0.00 0.00 0.00 0.00 0.00 0.01 0.02 0.11 0.51 0.05 0.05 0.03 0.03 0.02 0.03 0.03 0.09
0.03 0.02 0.02 0.02 0.02 0.02 0.02 0.02 0.02 0.03 0.03 0.02 0.01 0.00 0.00 0.00 0.00 0.00 0.00 0.02 0.00 0.00 0.00 0.00 0.00 0.00 0.00 0.00 0.00 0.00 0.00 0.00 0.00 0.00 0.01 0.05 0.35 0.22 0.07 0.08 0.05 0.01 0.00 0.00 0.00
0.03 0.03 0.01 0.01 0.02 0.03 0.02 0.02 0.02 0.02 0.01 0.00 0.01 0.00 0.00 0.00 0.00 0.00 0.00 0.02 0.01 0.00 0.00 0.00 0.00 0.00 0.00 0.00 0.00 0.00 0.00 0.00 0.02 0.07 0.00 0.00 0.03 0.16 0.19 0.07 0.04 0.01 0.00 0.00 0.00
0.03 0.02 0.01 0.01 0.02 0.03 0.01 0.01 0.00 0.00 0.00 0.00 0.00 0.00 0.00 0.00 0.00 0.00 0.00 0.00 0.00 0.00 0.02 0.00 0.00 0.00 0.00 0.00 0.00 0.00 0.00 0.00 0.00 0.00 0.00 0.00 0.00 0.02 0.14 0.04 0.02 0.03 0.01 0.01 0.00
0.03 0.02 0.01 0.01 0.04 0.03 0.00 0.00 0.00 0.00 0.01 0.00 0.00 0.00 0.00 0.00 0.00 0.00 0.00 0.03 0.02 0.03 0.02 0.02 0.01 0.00 0.00 0.00 0.00 0.00 0.00 0.00 0.00 0.00 0.00 0.00 0.00 0.00 0.02 0.00 0.00 0.00 0.00 0.00 0.00
0.04 0.02 0.02 0.04 0.05 0.01 0.00 0.00 0.00 0.00 0.01 0.00 0.00 0.00 0.00 0.00 0.00 0.00 0.00 0.01 0.03 0.02 0.03 0.03 0.02 0.00 0.00 0.00 0.00 0.00 0.00 0.00 0.00 0.00 0.00 0.00 0.00 0.00 0.00 0.02 0.07 0.01 0.00 0.00 0.00
0.05 0.03 0.04 0.06 0.02 0.00 0.00 0.00 0.00 0.00 0.01 0.00 0.00 0.00 0.00 0.00 0.00 0.00 0.00 0.00 0.01 0.01 0.06 0.09 0.00 0.01 0.01 0.00 0.00 0.00 0.00 0.00 0.00 0.00 0.00 0.00 0.01 0.02 0.01 0.02 0.06 0.01 0.01 0.00 0.00
0.06 0.05 0.06 0.08 0.02 0.01 0.00 0.00 0.00 0.03 0.02 0.00 0.00 0.00 0.00 0.00 0.00 0.00 0.00 0.00 0.01 0.02 0.08 0.10 0.01 0.01 0.00 0.00 0.00 0.01 0.00 0.00 0.00 0.00 0.05 0.02 0.01 0.03 0.02 0.00 0.02 0.01 0.00 0.00 0.00
0.08 0.08 0.13 0.08 0.04 0.01 0.00 0.01 0.05 0.11 0.04 0.00 0.00 0.00 0.00 0.00 0.00 0.00 0.00 0.00 0.02 0.14 0.06 0.01 0.01 0.05 0.02 0.00 0.00 0.00 0.02 0.04 0.03 0.04 0.07 0.01 0.02 0.04 0.03 0.02 0.05 0.07 0.04 0.01 0.00
0.13 0.15 0.17 0.06 0.03 0.00 0.01 0.10 0.16 0.07 0.00 0.00 0.00 0.00 0.00 0.00 0.00 0.00 0.00 0.00 0.02 0.12 0.09 0.03 0.04 0.03 0.00 0.01 0.01 0.01 0.12 0.25 0.27 0.11 0.05 0.03 0.04 0.05 0.02 0.09 0.22 0.25 0.22 0.09 0.07
0.18 0.21 0.12 0.06 0.03 0.04 0.16 0.31 0.12 0.00 0.00 0.00 0.00 0.00 0.00 0.01 0.01 0.01 0.02 0.00 0.00 0.03 0.12 0.17 0.12 0.03 0.06 0.04 0.05 0.05 0.18 0.27 0.35 0.15 0.07 0.04 0.03 0.01 0.01 0.01 0.26 0.52 0.38 0.10 0.08
0.38 0.27 0.21 0.05 0.04 0.16 0.55 0.44 0.04 0.00 0.00 0.00 0.00 0.01 0.03 0.07 0.08 0.03 0.04 0.04 0.02 0.09 0.24 0.16 0.09 0.03 0.04 0.04 0.12 0.22 0.18 0.09 0.36 0.26 0.26 0.09 0.03 0.05 0.04 0.15 0.18 0.35 0.28 0.13 0.02
0.47 0.40 0.14 0.04 0.16 0.53 0.95 0.30 0.01 0.02 0.00 0.00 0.01 0.05 0.09 0.05 0.09 0.13 0.10 0.20 0.13 0.21 0.16 0.24 0.42 0.09 0.05 0.13 0.15 0.22 0.22 0.41 0.53 0.50 0.31 0.18 0.14 0.62 0.58 0.41 0.67 0.49 0.19 0.07 0.01
0.86 0.81 0.15 0.09 0.64 1.13 0.87 0.13 0.00 0.00 0.00 0.00 0.01 0.07 0.09 0.10 0.11 0.16 0.30 0.31 0.44 0.18 0.11 0.11 0.28 0.20 0.22 0.25 0.16 0.20 0.36 0.40 0.41 0.16 0.25 0.44 0.89 1.01 1.28 0.66 0.46 0.15 0.07 0.02 0.00
1.37 1.00 0.28 0.38 0.92 0.64 0.30 0.06 0.01 0.00 0.00 0.00 0.00 0.03 0.12 0.12 0.14 0.19 0.31 0.33 0.34 0.18 0.08 0.11 0.43 0.24 0.16 0.08 0.04 0.18 0.23 0.30 0.44 0.27 0.15 0.34 1.09 1.06 0.78 0.63 0.31 0.05 0.01 0.00 0.00
1.81 0.96 0.82 0.86 0.93 0.41 0.19 0.05 0.02 0.00 0.01 0.01 0.02 0.03 0.07 0.10 0.21 0.13 0.31 0.35 0.52 0.32 0.13 0.36 0.40 0.45 0.38 0.24 0.16 0.29 0.28 0.26 0.47 0.50 0.39 0.48 1.01 1.07 0.46 0.18 0.03 0.00 0.00 0.00 0.00
2.45 1.70 1.77 1.25 0.63 0.36 0.32 0.14 0.04 0.00 0.00 0.03 0.02 0.05 0.10 0.13 0.17 0.17 0.26 0.48 0.76 0.54 0.24 0.64 0.41 0.55 0.31 0.32 0.55 0.49 0.38 0.40 0.53 0.59 0.30 0.48 0.64 0.66 0.35 0.08 0.00 0.00 0.00 0.01 0.02
3.20 1.27 0.81 0.81 0.46 0.38 0.49 0.46 0.19 0.10 0.07 0.03 0.07 0.13 0.17 0.17 0.11 0.09 0.29 0.74 0.96 0.70 0.38 0.56 0.36 0.68 0.51 0.16 0.18 0.26 0.31 0.41 0.58 0.53 0.46 0.46 0.24 0.38 0.72 0.32 0.07 0.03 0.01 0.05 0.04
3.40 0.56 0.39 0.43 0.43 0.71 0.50 0.40 0.31 0.28 0.34 0.20 0.19 0.08 0.09 0.11 0.10 0.17 0.30 0.41 0.69 0.51 0.51 0.52 0.43 0.70 0.90 0.32 0.26 0.37 0.55 0.32 0.39 0.38 0.31 0.15 0.19 0.31 0.56 0.56 0.30 0.16 0.04 0.09 0.09
2.99 0.40 0.52 0.36 0.21 0.54 0.55 0.40 0.50 0.73 0.37 0.15 0.31 0.18 0.12 0.18 0.12 0.06 0.12 0.13 0.19 0.40 0.55 0.49 0.71 0.54 0.75 0.26 0.28 0.59 0.42 0.20 0.18 0.16 0.08 0.13 0.14 0.30 0.58 0.67 0.53 0.35 0.15 0.12 0.13

GFSSW_prec_precacc_105.txt.gz
Total_Precipitation_Accumulation
0.02 0.03 0.02 0.02 0.02 0.01 0.01 0.01 0.01 0.01 0.02 0.02 0.02 0.02 0.03 0.04 0.01 0.00 0.00 0.00 0.00 0.00 0.00 0.00 0.00 0.00 0.00 0.00 0.00 0.00 0.00 0.00 0.00 0.02 0.13 0.21 0.32 0.22 0.08 0.04 0.30 0.54 0.94 1.18 0.82
0.03 0.04 0.04 0.03 0.02 0.02 0.02 0.01 0.01 0.01 0.02 0.02 0.01 0.01 0.02 0.04 0.00 0.00 0.00 0.00 0.00 0.00 0.00 0.00 0.00 0.00 0.00 0.00 0.00 0.00 0.00 0.00 0.00 0.01 0.12 0.16 0.03 0.15 0.24 0.16 0.39 0.91 1.20 0.77 0.45
0.04 0.04 0.04 0.03 0.03 0.03 0.02 0.02 0.02 0.02 0.02 0.02 0.02 0.02 0.02 0.02 0.00 0.00 0.00 0.00 0.00 0.00 0.00 0.00 0.00 0.00 0.00 0.00 0.00 0.00 0.00 0.00 0.00 0.01 0.11 0.03 0.01 0.03 0.08 0.25 0.76 1.55 1.68 0.86 0.56
0.03 0.03 0.03 0.03 0.03 0.02 0.02 0.01 0.02 0.02 0.01 0.02 0.02 0.02 0.02 0.00 0.00 0.00 0.00 0.00 0.00 0.00 0.00 0.00 0.00 0.00 0.00 0.00 0.00 0.00 0.00 0.00 0.00 0.00 0.02 0.05 0.07 0.06 0.31 0.75 0.42 0.36 0.51 0.68 0.79
0.03 0.02 0.03 0.03 0.03 0.02 0.02 0.02 0.02 0.02 0.02 0.02 0.02 0.03 0.01 0.00 0.00 0.00 0.00 0.00 0.00 0.00 0.00 0.00 0.00 0.00 0.00 0.00 0.00 0.00 0.00 0.00 0.01 0.01 0.01 0.01 0.06 0.11 0.25 0.10 0.07 0.18 0.29 0.52 0.58
0.04 0.03 0.03 0.03 0.02 0.02 0.02 0.02 0.02 0.02 0.02 0.02 0.02 0.03 0.00 0.00 0.00 0.00 0.00 0.00 0.00 0.00 0.00 0.00 0.00 0.00 0.00 0.00 0.00 0.00 0.00 0.00 0.02 0.00 0.00 0.00 0.23 0.18 0.54 0.16 0.08 0.05 0.18 0.41 0.34
0.04 0.04 0.03 0.03 0.03 0.02 0.02 0.02 0.02 0.02 0.02 0.02 0.02 0.02 0.00 0.00 0.00 0.00 0.00 0.00 0.00 0.00 0.00 0.00 0.00 0.00 0.00 0.00 0.00 0.00 0.00 0.00 0.00 0.01 0.01 0.04 0.22 0.14 0.13 0.10 0.06 0.02 0.06 0.16 0.09
0.04 0.03 0.03 0.02 0.02 0.02 0.02 0.02 0.02 0.02 0.03 0.03 0.03 0.01 0.00 0.00 0.00 0.00 0.00 0.00 0.00 0.00 0.00 0.00 0.00 0.00 0.00 0.00 0.00 0.00 0.00 0.00 0.00 0.01 0.02 0.11 0.51 0.05 0.05 0.03 0.03 0.02 0.03 0.03 0.09
0.03 0.02 0.02 0.02 0.02 0.02 0.02 0.02 0.02 0.03 0.03 0.02 0.01 0.00 0.00 0.00 0.00 0.00 0.00 0.02 0.00 0.00 0.00 0.00 0.00 0.00 0.00 0.00 0.00 0.00 0.00 0.00 0.00 0.00 0.01 0.05 0.35 0.22 0.07 0.08 0.05 0.01 0.00 0.00 0.00
0.03 0.03 0.01 0.01 0.02 0.03 0.02 0.02 0.02 0.02 0.01 0.00 0.01 0.00 0.00 0.00 0.00 0.00 0.00 0.02 0.01 0.00 0.00 0.00 0.00 0.00 0.00 0.00 0.00 0.00 0.00 0.00 0.02 0.07 0.00 0.00 0.03 0.16 0.19 0.07 0.04 0.01 0.00 0.00 0.00
0.03 0.02 0.01 0.01 0.02 0.03 0.01 0.01 0.00 0.00 0.00 0.00 0.00 0.00 0.00 0.00 0.00 0.00 0.00 0.00 0.00 0.00 0.02 0.00 0.00 0.00 0.00 0.00 0.00 0.00 0.00 0.00 0.00 0.00 0.00 0.00 0.00 0.02 0.14 0.04 0.02 0.03 0.01 0.01 0.00
0.05 0.02 0.01 0.01 0.04 0.03 0.00 0.00 0.00 0.00 0.01 0.00 0.00 0.00 0.00 0.00 0.00 0.00 0.00 0.03 0.02 0.03 0.02 0.02 0.01 0.00 0.00 0.00 0.00 0.00 0.00 0.00 0.00 0.00 0.00 0.00 0.00 0.00 0.02 0.00 0.00 0.00 0.00 0.00 0.00
0.06 0.02 0.02 0.04 0.05 0.01 0.00 0.00 0.00 0.00 0.01 0.00 0.00 0.00 0.00 0.00 0.00 0.00 0.00 0.01 0.03 0.02 0.03 0.03 0.02 0.00 0.00 0.00 0.00 0.00 0.00 0.00 0.00 0.00 0.00 0.00 0.00 0.00 0.00 0.02 0.07 0.01 0.00 0.00 0.00
0.05 0.03 0.04 0.06 0.02 0.00 0.00 0.00 0.00 0.00 0.01 0.00 0.00 0.00 0.00 0.00 0.00 0.00 0.00 0.00 0.01 0.01 0.06 0.09 0.00 0.01 0.01 0.00 0.00 0.00 0.00 0.00 0.00 0.00 0.00 0.00 0.01 0.02 0.01 0.02 0.06 0.01 0.01 0.00 0.00
0.06 0.05 0.06 0.08 0.02 0.01 0.00 0.00 0.00 0.03 0.02 0.00 0.00 0.00 0.00 0.00 0.00 0.00 0.00 0.00 0.01 0.02 0.08 0.10 0.01 0.01 0.00 0.00 0.00 0.01 0.00 0.00 0.00 0.00 0.05 0.02 0.01 0.03 0.02 0.00 0.02 0.01 0.00 0.00 0.00
0.08 0.08 0.13 0.08 0.04 0.01 0.00 0.01 0.05 0.11 0.04 0.00 0.00 0.00 0.00 0.00 0.00 0.00 0.00 0.00 0.02 0.14 0.06 0.01 0.01 0.05 0.02 0.00 0.00 0.00 0.02 0.04 0.03 0.04 0.07 0.01 0.02 0.04 0.03 0.02 0.05 0.07 0.04 0.01 0.01
0.13 0.15 0.17 0.06 0.03 0.00 0.01 0.10 0.16 0.07 0.00 0.00 0.00 0.00 0.00 0.00 0.00 0.00 0.00 0.00 0.02 0.12 0.09 0.03 0.04 0.03 0.00 0.01 0.01 0.01 0.12 0.26 0.27 0.11 0.05 0.03 0.04 0.06 0.04 0.12 0.24 0.25 0.22 0.12 0.09
0.18 0.21 0.12 0.06 0.03 0.04 0.16 0.31 0.12 0.00 0.00 0.00 0.00 0.00 0.00 0.01 0.01 0.01 0.02 0.00 0.00 0.03 0.12 0.17 0.12 0.03 0.06 0.04 0.05 0.05 0.18 0.28 0.35 0.16 0.07 0.04 0.03 0.03 0.07 0.09 0.28 0.53 0.42 0.36 0.23
0.38 0.27 0.21 0.05 0.04 0.16 0.55 0.44 0.04 0.00 0.00 0.00 0.00 0.01 0.03 0.07 0.08 0.03 0.04 0.04 0.02 0.09 0.24 0.16 0.09 0.03 0.04 0.04 0.12 0.22 0.18 0.09 0.37 0.27 0.27 0.10 0.04 0.10 0.15 0.26 0.20 0.36 0.36 0.31 0.26
0.47 0.40 0.14 0.04 0.16 0.53 0.95 0.30 0.01 0.02 0.00 0.00 0.01 0.05 0.09 0.05 0.09 0.13 0.10 0.20 0.13 0.21 0.17 0.25 0.42 0.09 0.05 0.13 0.15 0.22 0.22 0.43 0.56 0.52 0.33 0.21 0.28 0.93 0.91 0.60 0.86 0.73 0.36 0.22 0.15
0.86 0.81 0.15 0.09 0.64 1.13 0.87 0.13 0.00 0.00 0.00 0.00 0.01 0.07 0.09 0.10 0.11 0.16 0.30 0.31 0.44 0.18 0.12 0.11 0.28 0.20 0.22 0.25 0.16 0.22 0.40 0.45 0.42 0.17 0.26 0.53 1.30 1.30 1.60 0.97 0.72 0.38 0.21 0.16 0.07
1.37 1.00 0.28 0.38 0.92 0.64 0.30 0.06 0.01 0.00 0.00 0.00 0.00 0.03 0.12 0.12 0.14 0.19 0.31 0.33 0.34 0.18 0.08 0.11 0.43 0.24 0.16 0.08 0.04 0.18 0.27 0.40 0.50 0.28 0.17 0.41 1.28 1.26 1.09 0.95 0.49 0.08 0.01 0.03 0.06
1.81 0.96 0.82 0.86 0.93 0.41 0.19 0.05 0.02 0.00 0.01 0.01 0.02 0.03 0.07 0.10 0.21 0.13 0.31 0.35 0.52 0.32 0.13 0.36 0.40 0.45 0.38 0.25 0.17 0.35 0.41 0.34 0.52 0.59 0.54 0.78 1.28 1.27 0.68 0.26 0.04 0.01 0.00 0.00 0.02
2.45 1.70 1.77 1.25 0.63 0.36 0.32 0.14 0.04 0.00 0.00 0.03 0.02 0.05 0.10 0.13 0.17 0.17 0.26 0.48 0.76 0.54 0.24 0.65 0.41 0.55 0.32 0.32 0.57 0.56 0.49 0.56 0.63 0.77 0.42 0.60 0.79 0.82 0.41 0.09 0.01 0.01 0.01 0.01 0.02
3.20 1.27 0.81 0.81 0.46 0.38 0.49 0.46 0.19 0.10 0.07 0.03 0.07 0.13 0.17 0.17 0.11 0.09 0.29 0.74 0.96 0.70 0.38 0.61 0.40 0.71 0.52 0.16 0.19 0.33 0.48 0.49 0.64 0.55 0.47 0.53 0.36 0.47 0.74 0.33 0.08 0.03 0.01 0.05 0.04
3.40 0.56 0.39 0.43 0.43 0.71 0.50 0.40 0.31 0.28 0.34 0.20 0.19 0.08 0.09 0.11 0.10 0.17 0.30 0.41 0.69 0.51 0.52 0.60 0.52 0.80 0.98 0.33 0.34 0.52 0.65 0.38 0.46 0.41 0.35 0.20 0.23 0.33 0.56 0.56 0.30 0.16 0.04 0.09 0.10
2.99 0.40 0.52 0.36 0.21 0.54 0.55 0.40 0.50 0.73 0.37 0.15 0.31 0.18 0.12 0.18 0.12 0.06 0.12 0.13 0.19 0.40 0.57 0.63 0.89 0.83 0.88 0.29 0.31 0.62 0.60 0.41 0.24 0.17 0.09 0.14 0.16 0.31 0.58 0.68 0.55 0.37 0.16 0.13 0.14

GFSSW_prec_precacc_108.txt.gz
Total_Precipitation_Accumulation
0.02 0.03 0.02 0.02 0.02 0.01 0.01 0.01 0.01 0.01 0.02 0.02 0.02 0.02 0.03 0.04 0.01 0.00 0.00 0.00 0.00 0.00 0.00 0.00 0.00 0.00 0.00 0.00 0.00 0.00 0.00 0.00 0.00 0.02 0.13 0.21 0.32 0.22 0.08 0.04 0.30 0.54 0.94 1.18 0.82
0.03 0.04 0.04 0.03 0.02 0.02 0.02 0.01 0.01 0.01 0.02 0.02 0.01 0.01 0.02 0.04 0.00 0.00 0.00 0.00 0.00 0.00 0.00 0.00 0.00 0.00 0.00 0.00 0.00 0.00 0.00 0.00 0.00 0.01 0.12 0.16 0.03 0.15 0.24 0.16 0.39 0.91 1.20 0.77 0.45
0.04 0.04 0.04 0.03 0.03 0.03 0.02 0.02 0.02 0.02 0.02 0.02 0.02 0.02 0.02 0.02 0.00 0.00 0.00 0.00 0.00 0.00 0.00 0.00 0.00 0.00 0.00 0.00 0.00 0.00 0.00 0.00 0.00 0.01 0.11 0.03 0.01 0.03 0.08 0.25 0.76 1.55 1.68 0.86 0.56
0.03 0.03 0.03 0.03 0.03 0.02 0.02 0.01 0.02 0.02 0.01 0.02 0.02 0.02 0.02 0.00 0.00 0.00 0.00 0.00 0.00 0.00 0.00 0.00 0.00 0.00 0.00 0.00 0.00 0.00 0.00 0.00 0.00 0.00 0.02 0.05 0.07 0.06 0.31 0.75 0.42 0.36 0.51 0.68 0.79
0.03 0.02 0.03 0.03 0.03 0.02 0.02 0.02 0.02 0.02 0.02 0.02 0.02 0.03 0.01 0.00 0.00 0.00 0.00 0.00 0.00 0.00 0.00 0.00 0.00 0.00 0.00 0.00 0.00 0.00 0.00 0.00 0.01 0.01 0.01 0.01 0.06 0.11 0.25 0.10 0.07 0.18 0.29 0.52 0.58
0.04 0.03 0.03 0.03 0.02 0.02 0.02 0.02 0.02 0.02 0.02 0.02 0.02 0.03 0.00 0.00 0.00 0.00 0.00 0.00 0.00 0.00 0.00 0.00 0.00 0.00 0.00 0.00 0.00 0.00 0.00 0.00 0.02 0.00 0.00 0.00 0.23 0.18 0.54 0.16 0.08 0.05 0.18 0.41 0.34
0.04 0.04 0.03 0.03 0.03 0.02 0.02 0.02 0.02 0.02 0.02 0.02 0.02 0.02 0.00 0.00 0.00 0.00 0.00 0.00 0.00 0.00 0.00 0.00 0.00 0.00 0.00 0.00 0.00 0.00 0.00 0.00 0.00 0.01 0.01 0.04 0.22 0.14 0.13 0.10 0.06 0.02 0.06 0.16 0.09
0.04 0.03 0.03 0.02 0.02 0.02 0.02 0.02 0.02 0.02 0.03 0.03 0.03 0.01 0.00 0.00 0.00 0.00 0.00 0.00 0.00 0.00 0.00 0.00 0.00 0.00 0.00 0.00 0.00 0.00 0.00 0.00 0.00 0.01 0.02 0.11 0.51 0.05 0.05 0.03 0.03 0.02 0.03 0.03 0.09
0.04 0.02 0.02 0.02 0.02 0.02 0.02 0.02 0.02 0.03 0.03 0.02 0.01 0.00 0.00 0.00 0.00 0.00 0.00 0.02 0.00 0.00 0.00 0.00 0.00 0.00 0.00 0.00 0.00 0.00 0.00 0.00 0.00 0.00 0.01 0.05 0.35 0.22 0.07 0.08 0.05 0.01 0.00 0.00 0.00
0.04 0.03 0.01 0.01 0.02 0.03 0.02 0.02 0.02 0.02 0.01 0.00 0.01 0.00 0.00 0.00 0.00 0.00 0.00 0.02 0.01 0.00 0.00 0.00 0.00 0.00 0.00 0.00 0.00 0.00 0.00 0.00 0.02 0.07 0.00 0.00 0.03 0.16 0.19 0.07 0.04 0.01 0.00 0.00 0.00
0.05 0.04 0.02 0.02 0.03 0.03 0.01 0.01 0.00 0.00 0.00 0.00 0.00 0.00 0.00 0.00 0.00 0.00 0.00 0.00 0.00 0.00 0.02 0.00 0.00 0.00 0.00 0.00 0.00 0.00 0.00 0.00 0.00 0.00 0.00 0.00 0.00 0.02 0.14 0.04 0.02 0.03 0.01 0.01 0.00
0.11 0.08 0.04 0.02 0.04 0.03 0.00 0.00 0.00 0.00 0.01 0.00 0.00 0.00 0.00 0.00 0.00 0.00 0.00 0.03 0.02 0.03 0.02 0.02 0.01 0.00 0.00 0.00 0.00 0.00 0.00 0.00 0.00 0.00 0.00 0.00 0.00 0.00 0.02 0.00 0.00 0.00 0.00 0.00 0.00
0.14 0.10 0.07 0.05 0.05 0.01 0.00 0.00 0.00 0.00 0.01 0.00 0.00 0.00 0.00 0.00 0.00 0.00 0.00 0.01 0.03 0.02 0.03 0.03 0.02 0.00 0.00 0.00 0.00 0.00 0.00 0.00 0.00 0.00 0.00 0.00 0.00 0.00 0.00 0.02 0.07 0.01 0.00 0.00 0.00
0.21 0.19 0.15 0.08 0.02 0.00 0.00 0.00 0.00 0.00 0.01 0.00 0.00 0.00 0.00 0.00 0.00 0.00 0.00 0.00 0.01 0.01 0.06 0.09 0.00 0.01 0.01 0.00 0.00 0.00 0.00 0.00 0.00 0.00 0.00 0.00 0.01 0.02 0.01 0.02 0.06 0.01 0.01 0.00 0.00
0.17 0.17 0.14 0.10 0.02 0.01 0.00 0.00 0.00 0.03 0.02 0.00 0.00 0.00 0.00 0.00 0.00 0.00 0.00 0.00 0.01 0.02 0.08 0.10 0.01 0.01 0.00 0.00 0.00 0.01 0.00 0.00 0.00 0.00 0.05 0.02 0.01 0.03 0.02 0.00 0.02 0.01 0.00 0.00 0.00
0.15 0.13 0.17 0.09 0.04 0.01 0.00 0.01 0.05 0.11 0.04 0.00 0.00 0.00 0.00 0.00 0.00 0.00 0.00 0.00 0.02 0.14 0.06 0.01 0.01 0.05 0.02 0.00 0.00 0.00 0.02 0.04 0.03 0.04 0.07 0.01 0.02 0.04 0.03 0.02 0.06 0.07 0.04 0.02 0.02
0.15 0.16 0.18 0.06 0.03 0.00 0.01 0.10 0.17 0.08 0.00 0.00 0.00 0.00 0.00 0.00 0.00 0.00 0.00 0.00 0.02 0.12 0.09 0.03 0.04 0.03 0.00 0.01 0.01 0.01 0.12 0.26 0.27 0.11 0.05 0.03 0.04 0.06 0.06 0.17 0.31 0.30 0.24 0.13 0.10
0.20 0.23 0.13 0.07 0.03 0.04 0.16 0.33 0.14 0.01 0.00 0.00 0.00 0.00 0.00 0.01 0.01 0.01 0.02 0.00 0.00 0.03 0.12 0.17 0.12 0.03 0.06 0.04 0.05 0.05 0.18 0.28 0.35 0.16 0.07 0.04 0.04 0.05 0.12 0.20 0.37 0.60 0.45 0.36 0.23
0.39 0.28 0.21 0.05 0.04 0.16 0.55 0.44 0.04 0.01 0.00 0.00 0.00 0.01 0.03 0.07 0.08 0.03 0.04 0.04 0.02 0.09 0.24 0.16 0.09 0.03 0.04 0.04 0.12 0.22 0.18 0.09 0.37 0.27 0.27 0.10 0.04 0.12 0.23 0.33 0.29 0.42 0.40 0.33 0.28
0.48 0.41 0.14 0.04 0.16 0.53 0.95 0.30 0.01 0.02 0.00 0.00 0.01 0.05 0.09 0.05 0.09 0.13 0.10 0.20 0.13 0.21 0.17 0.25 0.42 0.09 0.05 0.13 0.15 0.22 0.22 0.44 0.58 0.54 0.33 0.21 0.30 0.98 0.98 0.66 0.94 0.82 0.47 0.32 0.24
0.86 0.81 0.15 0.09 0.64 1.13 0.87 0.13 0.00 0.00 0.00 0.00 0.01 0.07 0.09 0.10 0.11 0.16 0.30 0.31 0.44 0.18 0.12 0.11 0.29 0.20 0.22 0.25 0.16 0.22 0.41 0.50 0.46 0.18 0.27 0.53 1.33 1.39 1.72 1.11 0.82 0.45 0.33 0.34 0.21
1.37 1.00 0.28 0.38 0.92 0.64 0.30 0.06 0.01 0.00 0.00 0.00 0.00 0.03 0.12 0.12 0.14 0.19 0.31 0.33 0.34 0.18 0.08 0.11 0.43 0.24 0.16 0.08 0.04 0.18 0.27 0.46 0.69 0.34 0.19 0.41 1.33 1.32 1.20 1.09 0.55 0.09 0.01 0.05 0.13
1.81 0.96 0.82 0.86 0.93 0.41 0.19 0.05 0.02 0.00 0.01 0.01 0.02 0.03 0.07 0.10 0.21 0.13 0.31 0.35 0.52 0.32 0.13 0.36 0.41 0.45 0.38 0.30 0.18 0.35 0.45 0.39 0.67 0.70 0.59 0.80 1.38 1.38 0.84 0.29 0.04 0.02 0.01 0.01 0.07
2.45 1.70 1.77 1.25 0.63 0.36 0.32 0.14 0.04 0.00 0.00 0.03 0.02 0.05 0.10 0.13 0.17 0.17 0.26 0.48 0.76 0.54 0.24 0.65 0.41 0.55 0.32 0.32 0.57 0.58 0.53 0.62 0.70 0.82 0.47 0.66 0.88 0.94 0.51 0.10 0.02 0.01 0.02 0.03 0.02
3.20 1.27 0.81 0.81 0.46 0.38 0.49 0.46 0.19 0.10 0.07 0.03 0.07 0.13 0.17 0.17 0.11 0.09 0.29 0.74 0.96 0.70 0.38 0.61 0.41 0.71 0.52 0.16 0.24 0.47 0.58 0.56 0.82 0.61 0.52 0.59 0.44 0.56 0.79 0.34 0.10 0.06 0.03 0.07 0.04
3.40 0.56 0.39 0.43 0.43 0.71 0.50 0.40 0.31 0.28 0.34 0.20 0.19 0.08 0.09 0.11 0.10 0.17 0.31 0.41 0.69 0.51 0.52 0.63 0.55 0.84 1.01 0.35 0.44 0.58 0.72 0.40 0.55 0.49 0.43 0.27 0.27 0.35 0.58 0.58 0.31 0.17 0.05 0.10 0.11
2.99 0.40 0.52 0.36 0.21 0.54 0.55 0.40 0.50 0.73 0.37 0.15 0.31 0.18 0.12 0.18 0.12 0.06 0.13 0.13 0.19 0.41 0.61 0.70 1.03 0.94 1.00 0.30 0.32 0.63 0.64 0.47 0.28 0.20 0.12 0.16 0.17 0.32 0.58 0.68 0.57 0.38 0.17 0.16 0.17

GFSSW_prec_precacc_111.txt.gz
Total_Precipitation_Accumulation
0.02 0.03 0.02 0.02 0.02 0.01 0.01 0.01 0.01 0.01 0.02 0.02 0.02 0.02 0.03 0.04 0.01 0.00 0.00 0.00 0.00 0.00 0.00 0.00 0.00 0.00 0.00 0.00 0.00 0.00 0.00 0.00 0.00 0.02 0.13 0.21 0.32 0.22 0.08 0.04 0.30 0.54 0.94 1.18 0.82
0.03 0.04 0.04 0.03 0.02 0.02 0.02 0.01 0.01 0.01 0.02 0.02 0.01 0.01 0.02 0.04 0.00 0.00 0.00 0.00 0.00 0.00 0.00 0.00 0.00 0.00 0.00 0.00 0.00 0.00 0.00 0.00 0.00 0.01 0.12 0.16 0.03 0.15 0.24 0.16 0.39 0.91 1.20 0.77 0.45
0.04 0.04 0.04 0.03 0.03 0.03 0.02 0.02 0.02 0.02 0.02 0.02 0.02 0.02 0.02 0.02 0.00 0.00 0.00 0.00 0.00 0.00 0.00 0.00 0.00 0.00 0.00 0.00 0.00 0.00 0.00 0.00 0.00 0.01 0.11 0.03 0.01 0.03 0.08 0.25 0.76 1.55 1.68 0.86 0.56
0.03 0.03 0.03 0.03 0.03 0.02 0.02 0.01 0.02 0.02 0.01 0.02 0.02 0.02 0.02 0.00 0.00 0.00 0.00 0.00 0.00 0.00 0.00 0.00 0.00 0.00 0.00 0.00 0.00 0.00 0.00 0.00 0.00 0.00 0.02 0.05 0.07 0.06 0.31 0.75 0.42 0.36 0.51 0.68 0.79
0.03 0.02 0.03 0.03 0.03 0.02 0.02 0.02 0.02 0.02 0.02 0.02 0.02 0.03 0.01 0.00 0.00 0.00 0.00 0.00 0.00 0.00 0.00 0.00 0.00 0.00 0.00 0.00 0.00 0.00 0.00 0.00 0.01 0.01 0.01 0.01 0.06 0.11 0.25 0.10 0.07 0.18 0.29 0.52 0.58
0.04 0.03 0.03 0.03 0.02 0.02 0.02 0.02 0.02 0.02 0.02 0.02 0.02 0.03 0.00 0.00 0.00 0.00 0.00 0.00 0.00 0.00 0.00 0.00 0.00 0.00 0.00 0.00 0.00 0.00 0.00 0.00 0.02 0.00 0.00 0.00 0.23 0.18 0.54 0.16 0.08 0.05 0.18 0.41 0.34
0.04 0.04 0.03 0.03 0.03 0.02 0.02 0.02 0.02 0.02 0.02 0.02 0.02 0.02 0.00 0.00 0.00 0.00 0.00 0.00 0.00 0.00 0.00 0.00 0.00 0.00 0.00 0.00 0.00 0.00 0.00 0.00 0.00 0.01 0.01 0.04 0.22 0.14 0.13 0.10 0.06 0.02 0.06 0.16 0.09
0.04 0.04 0.03 0.02 0.02 0.02 0.02 0.02 0.02 0.02 0.03 0.03 0.03 0.01 0.00 0.00 0.00 0.00 0.00 0.00 0.00 0.00 0.00 0.00 0.00 0.00 0.00 0.00 0.00 0.00 0.00 0.00 0.00 0.01 0.02 0.11 0.51 0.05 0.05 0.03 0.03 0.02 0.03 0.03 0.09
0.07 0.06 0.04 0.03 0.02 0.02 0.02 0.02 0.02 0.03 0.03 0.02 0.01 0.00 0.00 0.00 0.00 0.00 0.00 0.02 0.00 0.00 0.00 0.00 0.00 0.00 0.00 0.00 0.00 0.00 0.00 0.00 0.00 0.00 0.01 0.05 0.35 0.22 0.07 0.08 0.05 0.01 0.00 0.00 0.00
0.08 0.08 0.03 0.02 0.02 0.03 0.02 0.02 0.02 0.02 0.01 0.00 0.01 0.00 0.00 0.00 0.00 0.00 0.00 0.02 0.01 0.00 0.00 0.00 0.00 0.00 0.00 0.00 0.00 0.00 0.00 0.00 0.02 0.07 0.00 0.00 0.03 0.16 0.19 0.07 0.04 0.01 0.00 0.00 0.00
0.11 0.09 0.06 0.04 0.04 0.04 0.01 0.01 0.00 0.00 0.00 0.00 0.00 0.00 0.00 0.00 0.00 0.00 0.00 0.00 0.00 0.00 0.02 0.00 0.00 0.00 0.00 0.00 0.00 0.00 0.00 0.00 0.00 0.00 0.00 0.00 0.00 0.02 0.14 0.04 0.02 0.03 0.01 0.01 0.00
0.14 0.12 0.09 0.06 0.06 0.04 0.00 0.00 0.00 0.00 0.01 0.00 0.00 0.00 0.00 0.00 0.00 0.00 0.00 0.03 0.02 0.03 0.02 0.02 0.01 0.00 0.00 0.00 0.00 0.00 0.00 0.00 0.00 0.00 0.00 0.00 0.00 0.00 0.02 0.00 0.00 0.00 0.00 0.00 0.00
0.19 0.15 0.11 0.09 0.07 0.02 0.00 0.00 0.00 0.00 0.01 0.00 0.00 0.00 0.00 0.00 0.00 0.00 0.00 0.01 0.03 0.02 0.03 0.03 0.02 0.00 0.00 0.00 0.00 0.00 0.00 0.00 0.00 0.00 0.00 0.00 0.00 0.00 0.00 0.02 0.07 0.01 0.00 0.00 0.00
0.27 0.25 0.23 0.17 0.05 0.00 0.00 0.00 0.00 0.00 0.02 0.00 0.00 0.00 0.00 0.00 0.00 0.00 0.00 0.00 0.01 0.01 0.06 0.09 0.00 0.01 0.01 0.00 0.00 0.00 0.00 0.00 0.00 0.00 0.00 0.00 0.01 0.02 0.01 0.02 0.06 0.01 0.01 0.00 0.00
0.22 0.20 0.19 0.14 0.05 0.03 0.02 0.00 0.00 0.03 0.03 0.00 0.00 0.00 0.00 0.00 0.00 0.00 0.00 0.00 0.01 0.02 0.08 0.10 0.01 0.01 0.00 0.00 0.00 0.01 0.00 0.00 0.00 0.00 0.05 0.02 0.01 0.03 0.02 0.00 0.02 0.01 0.00 0.00 0.00
0.21 0.18 0.20 0.10 0.05 0.01 0.00 0.01 0.05 0.12 0.05 0.00 0.00 0.00 0.00 0.00 0.00 0.00 0.00 0.00 0.02 0.14 0.06 0.01 0.01 0.05 0.02 0.00 0.00 0.00 0.02 0.04 0.03 0.04 0.07 0.01 0.02 0.04 0.03 0.02 0.06 0.08 0.05 0.02 0.02
0.21 0.21 0.21 0.08 0.04 0.01 0.01 0.11 0.19 0.09 0.00 0.00 0.00 0.00 0.00 0.00 0.00 0.00 0.00 0.00 0.02 0.12 0.09 0.03 0.04 0.03 0.00 0.01 0.01 0.01 0.12 0.26 0.27 0.11 0.05 0.03 0.04 0.06 0.07 0.18 0.31 0.31 0.26 0.14 0.11
0.28 0.27 0.14 0.07 0.03 0.04 0.16 0.35 0.18 0.04 0.02 0.01 0.00 0.00 0.00 0.01 0.01 0.01 0.02 0.00 0.00 0.03 0.12 0.17 0.12 0.03 0.06 0.04 0.05 0.05 0.18 0.28 0.35 0.16 0.07 0.04 0.04 0.05 0.13 0.20 0.37 0.61 0.47 0.38 0.24
0.44 0.31 0.24 0.06 0.04 0.16 0.55 0.45 0.05 0.01 0.00 0.00 0.00 0.01 0.03 0.07 0.08 0.03 0.04 0.04 0.02 0.09 0.24 0.16 0.09 0.03 0.04 0.04 0.12 0.22 0.18 0.09 0.37 0.27 0.27 0.10 0.04 0.12 0.23 0.33 0.30 0.43 0.43 0.38 0.32
0.53 0.46 0.17 0.05 0.17 0.53 0.95 0.30 0.01 0.02 0.00 0.00 0.01 0.05 0.09 0.05 0.09 0.13 0.10 0.20 0.13 0.21 0.17 0.25 0.42 0.09 0.05 0.13 0.15 0.22 0.22 0.44 0.59 0.54 0.34 0.21 0.30 0.98 0.98 0.66 0.94 0.83 0.49 0.35 0.31
0.90 0.88 0.20 0.10 0.64 1.13 0.87 0.13 0.00 0.00 0.00 0.00 0.01 0.07 0.09 0.10 0.11 0.16 0.30 0.31 0.44 0.18 0.12 0.11 0.29 0.20 0.22 0.25 0.16 0.22 0.41 0.51 0.48 0.18 0.28 0.53 1.33 1.40 1.72 1.11 0.84 0.47 0.37 0.40 0.30
1.41 1.04 0.29 0.39 0.92 0.64 0.30 0.06 0.01 0.00 0.00 0.00 0.00 0.03 0.12 0.12 0.14 0.19 0.31 0.33 0.34 0.18 0.08 0.11 0.43 0.24 0.16 0.08 0.04 0.18 0.27 0.49 0.73 0.38 0.24 0.45 1.35 1.32 1.21 1.12 0.56 0.10 0.03 0.08 0.23
1.83 1.00 0.82 0.86 0.93 0.41 0.19 0.05 0.02 0.00 0.01 0.01 0.02 0.04 0.07 0.10 0.21 0.13 0.31 0.35 0.52 0.32 0.13 0.36 0.41 0.45 0.39 0.31 0.18 0.35 0.45 0.43 0.74 0.77 0.63 0.87 1.41 1.38 0.86 0.31 0.05 0.02 0.02 0.01 0.08
2.46 1.73 1.79 1.25 0.63 0.36 0.33 0.14 0.04 0.00 0.01 0.03 0.02 0.05 0.10 0.13 0.17 0.17 0.26 0.48 0.76 0.54 0.24 0.65 0.41 0.55 0.32 0.32 0.57 0.58 0.53 0.64 0.74 0.86 0.48 0.69 0.90 0.96 0.54 0.11 0.02 0.03 0.03 0.05 0.04
3.21 1.28 0.82 0.82 0.46 0.38 0.49 0.46 0.19 0.10 0.07 0.03 0.07 0.13 0.17 0.17 0.11 0.09 0.29 0.74 0.96 0.70 0.38 0.61 0.41 0.71 0.52 0.16 0.25 0.51 0.62 0.60 0.90 0.63 0.55 0.64 0.46 0.59 0.84 0.37 0.11 0.08 0.04 0.08 0.06
3.40 0.56 0.39 0.43 0.43 0.71 0.50 0.40 0.31 0.28 0.34 0.20 0.19 0.08 0.09 0.11 0.10 0.17 0.31 0.41 0.69 0.51 0.53 0.64 0.56 0.85 1.01 0.36 0.47 0.62 0.79 0.48 0.68 0.55 0.47 0.33 0.29 0.36 0.59 0.59 0.33 0.18 0.06 0.11 0.14
3.00 0.40 0.52 0.36 0.21 0.54 0.55 0.40 0.50 0.73 0.37 0.15 0.31 0.18 0.12 0.18 0.12 0.06 0.13 0.13 0.19 0.41 0.62 0.72 1.07 0.98 1.04 0.31 0.34 0.66 0.69 0.54 0.40 0.23 0.14 0.17 0.18 0.32 0.59 0.70 0.59 0.40 0.19 0.18 0.20

GFSSW_prec_precacc_114.txt.gz
Total_Precipitation_Accumulation
0.02 0.03 0.02 0.02 0.02 0.01 0.01 0.01 0.01 0.01 0.02 0.02 0.02 0.02 0.03 0.04 0.01 0.00 0.00 0.00 0.00 0.00 0.00 0.00 0.00 0.00 0.00 0.00 0.00 0.00 0.00 0.00 0.00 0.02 0.13 0.21 0.32 0.22 0.08 0.04 0.30 0.54 0.94 1.18 0.82
0.03 0.04 0.04 0.03 0.02 0.02 0.02 0.01 0.01 0.01 0.02 0.02 0.01 0.01 0.02 0.04 0.00 0.00 0.00 0.00 0.00 0.00 0.00 0.00 0.00 0.00 0.00 0.00 0.00 0.00 0.00 0.00 0.00 0.01 0.12 0.16 0.03 0.15 0.24 0.16 0.39 0.91 1.20 0.77 0.45
0.04 0.04 0.04 0.03 0.03 0.03 0.02 0.02 0.02 0.02 0.02 0.02 0.02 0.02 0.02 0.02 0.00 0.00 0.00 0.00 0.00 0.00 0.00 0.00 0.00 0.00 0.00 0.00 0.00 0.00 0.00 0.00 0.00 0.01 0.11 0.03 0.01 0.03 0.08 0.25 0.76 1.55 1.68 0.86 0.56
0.03 0.03 0.03 0.03 0.03 0.02 0.02 0.01 0.02 0.02 0.01 0.02 0.02 0.02 0.02 0.00 0.00 0.00 0.00 0.00 0.00 0.00 0.00 0.00 0.00 0.00 0.00 0.00 0.00 0.00 0.00 0.00 0.00 0.00 0.02 0.05 0.07 0.06 0.31 0.75 0.42 0.36 0.51 0.68 0.79
0.03 0.02 0.03 0.03 0.03 0.02 0.02 0.02 0.02 0.02 0.02 0.02 0.02 0.03 0.01 0.00 0.00 0.00 0.00 0.00 0.00 0.00 0.00 0.00 0.00 0.00 0.00 0.00 0.00 0.00 0.00 0.00 0.01 0.01 0.01 0.01 0.06 0.11 0.25 0.10 0.07 0.18 0.29 0.52 0.58
0.04 0.03 0.03 0.03 0.02 0.02 0.02 0.02 0.02 0.02 0.02 0.02 0.02 0.03 0.00 0.00 0.00 0.00 0.00 0.00 0.00 0.00 0.00 0.00 0.00 0.00 0.00 0.00 0.00 0.00 0.00 0.00 0.02 0.00 0.00 0.00 0.23 0.18 0.54 0.16 0.08 0.05 0.18 0.41 0.34
0.05 0.04 0.03 0.03 0.03 0.02 0.02 0.02 0.02 0.02 0.02 0.02 0.02 0.02 0.00 0.00 0.00 0.00 0.00 0.00 0.00 0.00 0.00 0.00 0.00 0.00 0.00 0.00 0.00 0.00 0.00 0.00 0.00 0.01 0.01 0.04 0.22 0.14 0.13 0.10 0.06 0.02 0.06 0.16 0.09
0.06 0.05 0.03 0.02 0.03 0.02 0.02 0.02 0.02 0.02 0.03 0.03 0.03 0.01 0.00 0.00 0.00 0.00 0.00 0.00 0.00 0.00 0.00 0.00 0.00 0.00 0.00 0.00 0.00 0.00 0.00 0.00 0.00 0.01 0.02 0.11 0.51 0.05 0.05 0.03 0.03 0.02 0.03 0.03 0.09
0.12 0.13 0.09 0.06 0.04 0.03 0.02 0.02 0.02 0.03 0.03 0.02 0.01 0.00 0.00 0.00 0.00 0.00 0.00 0.02 0.00 0.00 0.00 0.00 0.00 0.00 0.00 0.00 0.00 0.00 0.00 0.00 0.00 0.00 0.01 0.05 0.35 0.22 0.07 0.08 0.05 0.01 0.00 0.00 0.00
0.18 0.16 0.12 0.08 0.04 0.03 0.02 0.02 0.02 0.02 0.01 0.00 0.01 0.00 0.00 0.00 0.00 0.00 0.00 0.02 0.01 0.00 0.00 0.00 0.00 0.00 0.00 0.00 0.00 0.00 0.00 0.00 0.02 0.07 0.00 0.00 0.03 0.16 0.19 0.07 0.04 0.01 0.00 0.00 0.00
0.16 0.17 0.15 0.12 0.07 0.05 0.02 0.01 0.00 0.00 0.00 0.00 0.00 0.00 0.00 0.00 0.00 0.00 0.00 0.00 0.00 0.00 0.02 0.00 0.00 0.00 0.00 0.00 0.00 0.00 0.00 0.00 0.00 0.00 0.00 0.00 0.00 0.02 0.14 0.04 0.02 0.03 0.01 0.01 0.00
0.16 0.16 0.12 0.09 0.08 0.04 0.01 0.00 0.00 0.00 0.01 0.00 0.00 0.00 0.00 0.00 0.00 0.00 0.00 0.03 0.02 0.03 0.02 0.02 0.01 0.00 0.00 0.00 0.00 0.00 0.00 0.00 0.00 0.00 0.00 0.00 0.00 0.00 0.02 0.00 0.00 0.00 0.00 0.00 0.00
0.20 0.19 0.13 0.10 0.07 0.02 0.00 0.00 0.00 0.00 0.01 0.00 0.00 0.00 0.00 0.00 0.00 0.00 0.00 0.01 0.03 0.02 0.03 0.03 0.02 0.00 0.00 0.00 0.00 0.00 0.00 0.00 0.00 0.00 0.00 0.00 0.00 0.00 0.00 0.02 0.07 0.01 0.00 0.00 0.00
0.31 0.29 0.24 0.18 0.05 0.00 0.00 0.00 0.00 0.00 0.04 0.00 0.00 0.00 0.00 0.00 0.00 0.00 0.00 0.00 0.01 0.01 0.06 0.09 0.00 0.01 0.01 0.00 0.00 0.00 0.00 0.00 0.00 0.00 0.00 0.00 0.01 0.02 0.01 0.02 0.06 0.01 0.01 0.00 0.00
0.27 0.23 0.20 0.15 0.05 0.03 0.02 0.01 0.00 0.04 0.09 0.00 0.00 0.00 0.00 0.00 0.00 0.00 0.00 0.00 0.01 0.02 0.08 0.10 0.01 0.01 0.00 0.00 0.00 0.01 0.00 0.00 0.00 0.00 0.05 0.02 0.01 0.03 0.02 0.00 0.02 0.01 0.00 0.00 0.00
0.25 0.21 0.23 0.11 0.05 0.02 0.01 0.01 0.05 0.13 0.06 0.00 0.00 0.00 0.00 0.00 0.00 0.00 0.00 0.00 0.02 0.14 0.06 0.01 0.01 0.05 0.02 0.00 0.00 0.00 0.02 0.04 0.03 0.04 0.07 0.01 0.02 0.04 0.03 0.02 0.06 0.08 0.05 0.02 0.02
0.25 0.25 0.23 0.09 0.06 0.01 0.01 0.11 0.20 0.09 0.00 0.00 0.00 0.00 0.00 0.00 0.00 0.00 0.00 0.00 0.02 0.12 0.09 0.03 0.04 0.03 0.00 0.01 0.01 0.01 0.12 0.26 0.27 0.11 0.05 0.03 0.04 0.06 0.07 0.18 0.31 0.31 0.26 0.14 0.11
0.33 0.32 0.18 0.09 0.05 0.06 0.18 0.38 0.21 0.04 0.02 0.01 0.00 0.00 0.00 0.01 0.01 0.01 0.02 0.00 0.00 0.03 0.12 0.17 0.12 0.03 0.06 0.04 0.05 0.05 0.18 0.28 0.35 0.16 0.07 0.04 0.04 0.05 0.13 0.20 0.37 0.61 0.47 0.38 0.24
0.51 0.36 0.27 0.07 0.05 0.16 0.57 0.48 0.05 0.01 0.00 0.00 0.00 0.01 0.03 0.07 0.08 0.03 0.04 0.04 0.02 0.09 0.24 0.16 0.09 0.03 0.04 0.04 0.12 0.22 0.18 0.09 0.37 0.27 0.27 0.10 0.04 0.12 0.23 0.33 0.30 0.43 0.43 0.38 0.32
0.55 0.49 0.22 0.08 0.18 0.54 0.98 0.31 0.01 0.02 0.00 0.00 0.01 0.05 0.09 0.05 0.09 0.13 0.10 0.20 0.13 0.21 0.17 0.25 0.42 0.09 0.05 0.13 0.15 0.22 0.22 0.45 0.59 0.54 0.34 0.21 0.30 0.98 0.98 0.66 0.94 0.83 0.49 0.36 0.31
0.94 0.96 0.25 0.12 0.67 1.19 0.91 0.14 0.00 0.00 0.00 0.00 0.02 0.07 0.09 0.10 0.11 0.16 0.30 0.31 0.44 0.18 0.12 0.11 0.29 0.20 0.22 0.25 0.16 0.22 0.41 0.51 0.49 0.19 0.29 0.54 1.35 1.41 1.72 1.12 0.85 0.47 0.37 0.40 0.31
1.46 1.14 0.37 0.43 1.00 0.69 0.30 0.06 0.01 0.00 0.00 0.00 0.00 0.03 0.12 0.12 0.14 0.19 0.31 0.33 0.34 0.18 0.08 0.11 0.43 0.24 0.16 0.08 0.04 0.18 0.27 0.50 0.75 0.40 0.26 0.47 1.38 1.33 1.21 1.12 0.57 0.10 0.03 0.08 0.24
1.91 1.14 0.95 0.92 0.98 0.42 0.19 0.05 0.02 0.00 0.01 0.01 0.02 0.04 0.07 0.10 0.21 0.13 0.31 0.35 0.52 0.32 0.13 0.36 0.41 0.45 0.40 0.34 0.19 0.37 0.46 0.44 0.77 0.80 0.65 0.90 1.43 1.40 0.87 0.33 0.07 0.03 0.02 0.01 0.08
2.51 1.85 1.95 1.34 0.64 0.36 0.33 0.14 0.04 0.00 0.01 0.03 0.02 0.05 0.10 0.13 0.17 0.17 0.26 0.48 0.76 0.54 0.24 0.65 0.41 0.55 0.32 0.33 0.57 0.58 0.53 0.65 0.77 0.89 0.49 0.72 0.92 0.98 0.56 0.13 0.03 0.03 0.03 0.05 0.06
3.24 1.30 0.85 0.86 0.46 0.38 0.49 0.46 0.19 0.10 0.07 0.03 0.08 0.13 0.17 0.17 0.11 0.09 0.29 0.74 0.96 0.70 0.38 0.62 0.41 0.71 0.52 0.16 0.25 0.52 0.62 0.61 0.90 0.64 0.58 0.66 0.49 0.64 0.88 0.42 0.12 0.09 0.05 0.09 0.07
3.43 0.56 0.39 0.43 0.43 0.72 0.50 0.40 0.31 0.29 0.34 0.21 0.19 0.08 0.09 0.11 0.10 0.17 0.31 0.41 0.69 0.51 0.53 0.64 0.56 0.85 1.01 0.36 0.47 0.64 0.79 0.51 0.71 0.60 0.52 0.36 0.33 0.40 0.59 0.60 0.33 0.19 0.08 0.12 0.15
3.01 0.40 0.52 0.36 0.21 0.54 0.55 0.40 0.51 0.73 0.37 0.15 0.31 0.18 0.12 0.18 0.12 0.06 0.13 0.13 0.19 0.41 0.63 0.75 1.09 0.99 1.05 0.32 0.35 0.68 0.71 0.59 0.46 0.27 0.18 0.20 0.20 0.33 0.60 0.70 0.61 0.42 0.21 0.20 0.22

GFSSW_prec_precacc_117.txt.gz
Total_Precipitation_Accumulation
0.02 0.03 0.02 0.02 0.02 0.01 0.01 0.01 0.01 0.01 0.02 0.02 0.02 0.02 0.03 0.04 0.01 0.00 0.00 0.00 0.00 0.00 0.00 0.00 0.00 0.00 0.00 0.00 0.00 0.00 0.00 0.00 0.00 0.02 0.13 0.21 0.32 0.22 0.08 0.04 0.30 0.54 0.94 1.18 0.82
0.03 0.04 0.04 0.03 0.02 0.02 0.02 0.01 0.01 0.01 0.02 0.02 0.01 0.01 0.02 0.04 0.00 0.00 0.00 0.00 0.00 0.00 0.00 0.00 0.00 0.00 0.00 0.00 0.00 0.00 0.00 0.00 0.00 0.01 0.12 0.16 0.03 0.15 0.24 0.16 0.39 0.91 1.20 0.77 0.45
0.04 0.04 0.04 0.03 0.03 0.03 0.02 0.02 0.02 0.02 0.02 0.02 0.02 0.02 0.02 0.02 0.00 0.00 0.00 0.00 0.00 0.00 0.00 0.00 0.00 0.00 0.00 0.00 0.00 0.00 0.00 0.00 0.00 0.01 0.11 0.03 0.01 0.03 0.08 0.25 0.76 1.55 1.68 0.86 0.56
0.03 0.03 0.03 0.03 0.03 0.02 0.02 0.01 0.02 0.02 0.01 0.02 0.02 0.02 0.02 0.00 0.00 0.00 0.00 0.00 0.00 0.00 0.00 0.00 0.00 0.00 0.00 0.00 0.00 0.00 0.00 0.00 0.00 0.00 0.02 0.05 0.07 0.06 0.31 0.75 0.42 0.36 0.51 0.68 0.79
0.03 0.02 0.03 0.03 0.03 0.02 0.02 0.02 0.02 0.02 0.02 0.02 0.02 0.03 0.01 0.00 0.00 0.00 0.00 0.00 0.00 0.00 0.00 0.00 0.00 0.00 0.00 0.00 0.00 0.00 0.00 0.00 0.01 0.01 0.01 0.01 0.06 0.11 0.25 0.10 0.07 0.18 0.29 0.52 0.58
0.04 0.03 0.03 0.03 0.02 0.02 0.02 0.02 0.02 0.02 0.02 0.02 0.02 0.03 0.00 0.00 0.00 0.00 0.00 0.00 0.00 0.00 0.00 0.00 0.00 0.00 0.00 0.00 0.00 0.00 0.00 0.00 0.02 0.00 0.00 0.00 0.23 0.18 0.54 0.16 0.08 0.05 0.18 0.41 0.34
0.06 0.05 0.03 0.03 0.03 0.02 0.02 0.02 0.02 0.02 0.02 0.02 0.02 0.02 0.00 0.00 0.00 0.00 0.00 0.00 0.00 0.00 0.00 0.00 0.00 0.00 0.00 0.00 0.00 0.00 0.00 0.00 0.00 0.01 0.01 0.04 0.22 0.14 0.13 0.10 0.06 0.02 0.06 0.16 0.09
0.11 0.10 0.07 0.04 0.04 0.02 0.02 0.02 0.02 0.02 0.03 0.03 0.03 0.01 0.00 0.00 0.00 0.00 0.00 0.00 0.00 0.00 0.00 0.00 0.00 0.00 0.00 0.00 0.00 0.00 0.00 0.00 0.00 0.01 0.02 0.11 0.51 0.05 0.05 0.03 0.03 0.02 0.03 0.03 0.09
0.17 0.18 0.17 0.14 0.08 0.04 0.03 0.02 0.02 0.03 0.03 0.02 0.01 0.00 0.00 0.00 0.00 0.00 0.00 0.02 0.00 0.00 0.00 0.00 0.00 0.00 0.00 0.00 0.00 0.00 0.00 0.00 0.00 0.00 0.01 0.05 0.35 0.22 0.07 0.08 0.05 0.01 0.00 0.00 0.00
0.20 0.21 0.19 0.17 0.11 0.06 0.03 0.02 0.02 0.02 0.01 0.00 0.01 0.00 0.00 0.00 0.00 0.00 0.00 0.02 0.01 0.00 0.00 0.00 0.00 0.00 0.00 0.00 0.00 0.00 0.00 0.00 0.02 0.07 0.00 0.00 0.03 0.16 0.19 0.07 0.04 0.01 0.00 0.00 0.00
0.17 0.19 0.18 0.18 0.13 0.08 0.03 0.01 0.00 0.00 0.00 0.00 0.00 0.00 0.00 0.00 0.00 0.00 0.00 0.00 0.00 0.00 0.02 0.00 0.00 0.00 0.00 0.00 0.00 0.00 0.00 0.00 0.00 0.00 0.00 0.00 0.00 0.02 0.14 0.04 0.02 0.03 0.01 0.01 0.00
0.17 0.19 0.15 0.10 0.09 0.06 0.02 0.00 0.00 0.00 0.01 0.00 0.00 0.00 0.00 0.00 0.00 0.00 0.00 0.03 0.02 0.03 0.02 0.02 0.01 0.00 0.00 0.00 0.00 0.00 0.00 0.00 0.00 0.00 0.00 0.00 0.00 0.00 0.02 0.00 0.00 0.00 0.00 0.00 0.00
0.21 0.22 0.15 0.12 0.08 0.02 0.00 0.00 0.00 0.00 0.01 0.00 0.00 0.00 0.00 0.00 0.00 0.00 0.00 0.01 0.03 0.02 0.03 0.03 0.02 0.00 0.00 0.00 0.00 0.00 0.00 0.00 0.00 0.00 0.00 0.00 0.00 0.00 0.00 0.02 0.07 0.01 0.00 0.00 0.00
0.33 0.34 0.26 0.21 0.07 0.00 0.00 0.00 0.00 0.00 0.04 0.00 0.00 0.00 0.00 0.00 0.00 0.00 0.00 0.00 0.01 0.01 0.06 0.09 0.00 0.01 0.01 0.00 0.00 0.00 0.00 0.00 0.00 0.00 0.00 0.00 0.01 0.02 0.01 0.02 0.06 0.01 0.01 0.00 0.00
0.30 0.26 0.22 0.15 0.05 0.03 0.02 0.01 0.00 0.04 0.10 0.00 0.00 0.00 0.00 0.00 0.00 0.00 0.00 0.00 0.01 0.02 0.08 0.10 0.01 0.01 0.00 0.00 0.00 0.01 0.00 0.00 0.00 0.00 0.05 0.02 0.01 0.03 0.02 0.00 0.02 0.01 0.00 0.00 0.00
0.27 0.22 0.25 0.13 0.05 0.02 0.01 0.01 0.05 0.14 0.07 0.00 0.00 0.00 0.00 0.00 0.00 0.00 0.00 0.00 0.02 0.14 0.06 0.01 0.01 0.05 0.02 0.00 0.00 0.00 0.02 0.04 0.03 0.04 0.07 0.01 0.02 0.04 0.03 0.02 0.06 0.08 0.05 0.02 0.02
0.27 0.25 0.23 0.10 0.07 0.02 0.01 0.11 0.21 0.11 0.00 0.00 0.00 0.00 0.00 0.00 0.00 0.00 0.00 0.00 0.02 0.12 0.09 0.03 0.04 0.03 0.00 0.01 0.01 0.01 0.12 0.26 0.27 0.11 0.05 0.03 0.04 0.06 0.07 0.18 0.31 0.31 0.26 0.14 0.11
0.37 0.34 0.20 0.11 0.06 0.07 0.19 0.40 0.25 0.04 0.02 0.01 0.00 0.00 0.00 0.01 0.01 0.01 0.02 0.00 0.00 0.03 0.12 0.17 0.12 0.03 0.06 0.04 0.05 0.05 0.18 0.28 0.35 0.16 0.07 0.04 0.04 0.05 0.13 0.20 0.37 0.61 0.47 0.38 0.24
0.69 0.46 0.28 0.11 0.08 0.17 0.60 0.56 0.07 0.01 0.00 0.00 0.00 0.01 0.03 0.07 0.08 0.03 0.04 0.04 0.02 0.09 0.24 0.16 0.09 0.03 0.04 0.04 0.12 0.22 0.18 0.09 0.37 0.27 0.27 0.10 0.04 0.12 0.23 0.33 0.30 0.43 0.43 0.38 0.32
0.64 0.62 0.30 0.10 0.20 0.59 1.06 0.34 0.01 0.02 0.00 0.00 0.01 0.05 0.09 0.05 0.09 0.13 0.11 0.20 0.13 0.21 0.17 0.25 0.42 0.09 0.05 0.13 0.15 0.22 0.22 0.45 0.60 0.54 0.34 0.21 0.31 0.99 0.98 0.66 0.94 0.83 0.49 0.36 0.31
1.04 1.14 0.38 0.16 0.76 1.31 0.95 0.14 0.00 0.00 0.00 0.00 0.02 0.07 0.09 0.10 0.11 0.16 0.30 0.31 0.44 0.18 0.12 0.11 0.29 0.20 0.22 0.25 0.16 0.22 0.41 0.51 0.50 0.20 0.30 0.55 1.39 1.41 1.73 1.12 0.85 0.47 0.37 0.40 0.31
1.56 1.36 0.51 0.48 1.09 0.78 0.31 0.06 0.01 0.00 0.00 0.00 0.00 0.03 0.12 0.12 0.14 0.19 0.31 0.33 0.34 0.18 0.08 0.11 0.43 0.24 0.16 0.08 0.04 0.18 0.27 0.50 0.76 0.43 0.31 0.50 1.41 1.34 1.21 1.12 0.57 0.10 0.03 0.08 0.24
2.02 1.34 1.14 1.00 1.04 0.43 0.19 0.05 0.02 0.00 0.01 0.01 0.02 0.04 0.07 0.10 0.21 0.13 0.31 0.35 0.52 0.32 0.13 0.36 0.41 0.45 0.40 0.36 0.21 0.39 0.46 0.44 0.78 0.82 0.67 0.93 1.46 1.40 0.87 0.33 0.07 0.03 0.02 0.01 0.08
2.59 2.04 2.20 1.49 0.68 0.36 0.33 0.14 0.04 0.00 0.01 0.03 0.02 0.05 0.10 0.13 0.17 0.17 0.26 0.48 0.76 0.54 0.24 0.66 0.41 0.55 0.33 0.37 0.60 0.59 0.54 0.66 0.78 0.91 0.50 0.75 0.99 0.99 0.57 0.14 0.05 0.04 0.04 0.06 0.06
3.30 1.36 0.92 0.92 0.47 0.38 0.49 0.46 0.19 0.10 0.07 0.03 0.08 0.13 0.17 0.17 0.11 0.09 0.29 0.74 0.96 0.70 0.38 0.62 0.42 0.71 0.52 0.16 0.25 0.52 0.63 0.61 0.91 0.65 0.61 0.67 0.50 0.66 0.91 0.44 0.15 0.12 0.07 0.11 0.10
3.46 0.57 0.39 0.43 0.43 0.72 0.50 0.40 0.31 0.29 0.34 0.21 0.20 0.08 0.09 0.11 0.10 0.17 0.31 0.41 0.69 0.51 0.53 0.65 0.57 0.86 1.01 0.36 0.47 0.65 0.80 0.52 0.72 0.61 0.55 0.38 0.35 0.42 0.60 0.61 0.35 0.22 0.12 0.15 0.18
3.03 0.40 0.52 0.36 0.21 0.54 0.55 0.40 0.51 0.73 0.37 0.15 0.31 0.18 0.12 0.18 0.12 0.06 0.13 0.13 0.19 0.41 0.63 0.77 1.10 1.01 1.08 0.33 0.36 0.71 0.71 0.61 0.49 0.29 0.21 0.26 0.22 0.35 0.61 0.71 0.62 0.44 0.23 0.23 0.25

GFSSW_prec_precacc_123.txt.gz
Total_Precipitation_Accumulation
0.02 0.03 0.02 0.02 0.02 0.01 0.01 0.01 0.01 0.01 0.02 0.02 0.02 0.02 0.03 0.04 0.01 0.00 0.00 0.00 0.00 0.00 0.00 0.00 0.00 0.00 0.00 0.00 0.00 0.00 0.00 0.00 0.00 0.02 0.13 0.21 0.32 0.22 0.08 0.04 0.30 0.54 0.94 1.18 0.82
0.03 0.04 0.04 0.03 0.02 0.02 0.02 0.01 0.01 0.01 0.02 0.02 0.01 0.01 0.02 0.04 0.00 0.00 0.00 0.00 0.00 0.00 0.00 0.00 0.00 0.00 0.00 0.00 0.00 0.00 0.00 0.00 0.00 0.01 0.12 0.16 0.03 0.15 0.24 0.16 0.39 0.91 1.20 0.77 0.45
0.04 0.04 0.04 0.03 0.03 0.03 0.02 0.02 0.02 0.02 0.02 0.02 0.02 0.02 0.02 0.02 0.00 0.00 0.00 0.00 0.00 0.00 0.00 0.00 0.00 0.00 0.00 0.00 0.00 0.00 0.00 0.00 0.00 0.01 0.11 0.03 0.01 0.03 0.08 0.25 0.76 1.55 1.68 0.86 0.56
0.03 0.03 0.03 0.03 0.03 0.02 0.02 0.01 0.02 0.02 0.01 0.02 0.02 0.02 0.02 0.00 0.00 0.00 0.00 0.00 0.00 0.00 0.00 0.00 0.00 0.00 0.00 0.00 0.00 0.00 0.00 0.00 0.00 0.00 0.02 0.05 0.07 0.06 0.31 0.75 0.42 0.36 0.51 0.68 0.79
0.03 0.02 0.03 0.03 0.03 0.02 0.02 0.02 0.02 0.02 0.02 0.02 0.02 0.03 0.01 0.00 0.00 0.00 0.00 0.00 0.00 0.00 0.00 0.00 0.00 0.00 0.00 0.00 0.00 0.00 0.00 0.00 0.01 0.01 0.01 0.01 0.06 0.11 0.25 0.10 0.07 0.18 0.29 0.52 0.58
0.23 0.15 0.10 0.07 0.05 0.04 0.03 0.02 0.02 0.02 0.02 0.02 0.02 0.03 0.00 0.00 0.00 0.00 0.00 0.00 0.00 0.00 0.00 0.00 0.00 0.00 0.00 0.00 0.00 0.00 0.00 0.00 0.02 0.00 0.00 0.00 0.23 0.18 0.54 0.16 0.08 0.05 0.18 0.41 0.34
0.48 0.48 0.42 0.33 0.22 0.12 0.05 0.02 0.02 0.02 0.02 0.02 0.02 0.02 0.00 0.00 0.00 0.00 0.00 0.00 0.00 0.00 0.00 0.00 0.00 0.00 0.00 0.00 0.00 0.00 0.00 0.00 0.00 0.01 0.01 0.04 0.22 0.14 0.13 0.10 0.06 0.02 0.06 0.16 0.09
0.42 0.44 0.43 0.37 0.33 0.24 0.11 0.04 0.03 0.02 0.03 0.03 0.03 0.01 0.00 0.00 0.00 0.00 0.00 0.00 0.00 0.00 0.00 0.00 0.00 0.00 0.00 0.00 0.00 0.00 0.00 0.00 0.00 0.01 0.02 0.11 0.51 0.05 0.05 0.03 0.03 0.02 0.03 0.03 0.09
0.24 0.30 0.31 0.25 0.19 0.11 0.08 0.05 0.04 0.03 0.03 0.02 0.01 0.00 0.00 0.00 0.00 0.00 0.00 0.02 0.00 0.00 0.00 0.00 0.00 0.00 0.00 0.00 0.00 0.00 0.00 0.00 0.00 0.00 0.01 0.05 0.35 0.22 0.07 0.08 0.05 0.01 0.00 0.00 0.00
0.21 0.23 0.24 0.26 0.24 0.16 0.10 0.05 0.03 0.02 0.01 0.00 0.01 0.00 0.00 0.00 0.00 0.00 0.00 0.02 0.01 0.00 0.00 0.00 0.00 0.00 0.00 0.00 0.00 0.00 0.00 0.00 0.02 0.07 0.00 0.00 0.03 0.16 0.19 0.07 0.04 0.01 0.00 0.00 0.00
0.18 0.21 0.22 0.23 0.19 0.14 0.06 0.02 0.00 0.00 0.00 0.00 0.00 0.00 0.00 0.00 0.00 0.00 0.00 0.00 0.00 0.00 0.02 0.00 0.00 0.00 0.00 0.00 0.00 0.00 0.00 0.00 0.00 0.00 0.00 0.00 0.00 0.02 0.14 0.04 0.02 0.03 0.01 0.01 0.00
0.17 0.20 0.18 0.16 0.17 0.13 0.05 0.01 0.00 0.00 0.01 0.00 0.00 0.00 0.00 0.00 0.00 0.00 0.00 0.03 0.02 0.03 0.02 0.02 0.01 0.00 0.00 0.00 0.00 0.00 0.00 0.00 0.00 0.00 0.00 0.00 0.00 0.00 0.02 0.00 0.00 0.00 0.00 0.00 0.00
0.21 0.24 0.20 0.16 0.13 0.05 0.00 0.00 0.00 0.00 0.01 0.00 0.00 0.00 0.00 0.00 0.00 0.00 0.00 0.01 0.03 0.02 0.03 0.03 0.02 0.00 0.00 0.00 0.00 0.00 0.00 0.00 0.00 0.00 0.00 0.00 0.00 0.00 0.00 0.02 0.07 0.01 0.00 0.00 0.00
0.33 0.37 0.31 0.27 0.13 0.00 0.00 0.00 0.00 0.00 0.04 0.00 0.00 0.00 0.00 0.00 0.00 0.00 0.00 0.00 0.01 0.01 0.06 0.09 0.00 0.01 0.01 0.00 0.00 0.00 0.00 0.00 0.00 0.00 0.00 0.00 0.01 0.02 0.01 0.02 0.06 0.01 0.01 0.00 0.00
0.31 0.30 0.23 0.17 0.05 0.03 0.02 0.01 0.00 0.04 0.10 0.00 0.00 0.00 0.00 0.00 0.00 0.00 0.00 0.00 0.01 0.02 0.08 0.10 0.01 0.01 0.00 0.00 0.00 0.01 0.00 0.00 0.00 0.00 0.05 0.02 0.01 0.03 0.02 0.00 0.02 0.01 0.00 0.00 0.00
0.31 0.23 0.27 0.16 0.06 0.02 0.01 0.01 0.05 0.15 0.08 0.00 0.00 0.00 0.00 0.00 0.00 0.00 0.00 0.00 0.02 0.14 0.06 0.01 0.01 0.05 0.02 0.00 0.00 0.00 0.02 0.04 0.03 0.04 0.07 0.01 0.02 0.04 0.03 0.02 0.06 0.08 0.05 0.02 0.02
0.30 0.27 0.25 0.10 0.07 0.02 0.01 0.11 0.25 0.14 0.00 0.00 0.00 0.00 0.00 0.00 0.00 0.00 0.00 0.00 0.02 0.12 0.09 0.03 0.04 0.03 0.00 0.01 0.01 0.01 0.12 0.26 0.27 0.11 0.05 0.03 0.04 0.06 0.07 0.18 0.31 0.31 0.26 0.14 0.11
0.42 0.40 0.26 0.12 0.07 0.08 0.20 0.43 0.31 0.04 0.02 0.01 0.00 0.00 0.00 0.01 0.01 0.01 0.02 0.00 0.00 0.03 0.12 0.17 0.12 0.03 0.06 0.04 0.05 0.05 0.18 0.28 0.36 0.16 0.07 0.04 0.04 0.05 0.13 0.20 0.37 0.61 0.47 0.38 0.24
0.82 0.67 0.42 0.17 0.10 0.19 0.65 0.69 0.10 0.01 0.00 0.00 0.00 0.01 0.03 0.07 0.08 0.03 0.04 0.04 0.02 0.09 0.24 0.16 0.09 0.03 0.04 0.04 0.12 0.22 0.18 0.09 0.38 0.27 0.27 0.10 0.04 0.12 0.23 0.33 0.30 0.43 0.43 0.38 0.32
0.70 0.68 0.39 0.19 0.28 0.69 1.20 0.46 0.01 0.02 0.00 0.00 0.01 0.05 0.09 0.05 0.09 0.13 0.11 0.20 0.13 0.21 0.17 0.25 0.42 0.09 0.05 0.13 0.15 0.22 0.22 0.45 0.60 0.55 0.34 0.21 0.31 0.99 0.98 0.66 0.95 0.83 0.49 0.36 0.31
1.07 1.22 0.45 0.31 0.99 1.74 1.36 0.22 0.00 0.00 0.00 0.00 0.02 0.07 0.09 0.10 0.11 0.16 0.30 0.31 0.44 0.18 0.12 0.11 0.29 0.20 0.22 0.25 0.16 0.22 0.41 0.51 0.50 0.20 0.31 0.56 1.40 1.44 1.74 1.12 0.85 0.47 0.37 0.40 0.31
1.58 1.42 0.58 0.64 1.50 1.20 0.52 0.11 0.01 0.00 0.00 0.00 0.00 0.03 0.12 0.12 0.14 0.19 0.31 0.33 0.34 0.18 0.08 0.11 0.43 0.24 0.16 0.08 0.04 0.18 0.27 0.50 0.77 0.43 0.32 0.53 1.43 1.34 1.22 1.12 0.57 0.10 0.03 0.08 0.24
2.07 1.43 1.30 1.22 1.32 0.60 0.25 0.06 0.03 0.00 0.02 0.03 0.03 0.04 0.07 0.10 0.21 0.13 0.31 0.35 0.52 0.32 0.13 0.36 0.41 0.45 0.40 0.37 0.22 0.40 0.47 0.44 0.79 0.85 0.70 1.00 1.52 1.41 0.88 0.33 0.07 0.03 0.02 0.02 0.09
2.63 2.17 2.46 1.75 0.82 0.40 0.35 0.17 0.06 0.00 0.01 0.04 0.02 0.05 0.10 0.13 0.17 0.17 0.26 0.48 0.76 0.54 0.24 0.66 0.41 0.55 0.33 0.40 0.63 0.64 0.57 0.68 0.80 0.94 0.52 0.79 1.05 1.01 0.58 0.15 0.05 0.05 0.05 0.07 0.09
3.35 1.38 0.97 1.00 0.49 0.40 0.50 0.47 0.20 0.11 0.07 0.04 0.08 0.13 0.17 0.17 0.11 0.09 0.29 0.74 0.96 0.70 0.38 0.62 0.42 0.71 0.52 0.16 0.25 0.52 0.63 0.62 0.92 0.66 0.65 0.69 0.54 0.67 0.92 0.46 0.17 0.14 0.09 0.13 0.15
3.56 0.59 0.39 0.43 0.43 0.72 0.52 0.42 0.31 0.29 0.35 0.21 0.20 0.08 0.09 0.11 0.10 0.17 0.31 0.41 0.69 0.51 0.53 0.65 0.57 0.86 1.01 0.36 0.47 0.65 0.80 0.52 0.73 0.61 0.56 0.39 0.37 0.43 0.62 0.63 0.38 0.24 0.15 0.20 0.24
3.18 0.42 0.54 0.36 0.21 0.55 0.56 0.40 0.51 0.75 0.38 0.16 0.31 0.18 0.12 0.18 0.12 0.06 0.13 0.13 0.19 0.41 0.63 0.77 1.10 1.02 1.09 0.34 0.37 0.71 0.72 0.61 0.50 0.29 0.22 0.29 0.24 0.37 0.64 0.74 0.66 0.47 0.28 0.29 0.27

GFSSW_prec_precacc_126.txt.gz
Total_Precipitation_Accumulation
0.02 0.03 0.02 0.02 0.02 0.01 0.01 0.01 0.01 0.01 0.02 0.02 0.02 0.02 0.03 0.04 0.01 0.00 0.00 0.00 0.00 0.00 0.00 0.00 0.00 0.00 0.00 0.00 0.00 0.00 0.00 0.00 0.00 0.02 0.13 0.21 0.32 0.22 0.08 0.04 0.30 0.54 0.94 1.18 0.82
0.03 0.04 0.04 0.03 0.02 0.02 0.02 0.01 0.01 0.01 0.02 0.02 0.01 0.01 0.02 0.04 0.00 0.00 0.00 0.00 0.00 0.00 0.00 0.00 0.00 0.00 0.00 0.00 0.00 0.00 0.00 0.00 0.00 0.01 0.12 0.16 0.03 0.15 0.24 0.16 0.39 0.91 1.20 0.77 0.45
0.04 0.04 0.04 0.03 0.03 0.03 0.02 0.02 0.02 0.02 0.02 0.02 0.02 0.02 0.02 0.02 0.00 0.00 0.00 0.00 0.00 0.00 0.00 0.00 0.00 0.00 0.00 0.00 0.00 0.00 0.00 0.00 0.00 0.01 0.11 0.03 0.01 0.03 0.08 0.25 0.76 1.55 1.68 0.86 0.56
0.03 0.03 0.03 0.03 0.03 0.02 0.02 0.01 0.02 0.02 0.01 0.02 0.02 0.02 0.02 0.00 0.00 0.00 0.00 0.00 0.00 0.00 0.00 0.00 0.00 0.00 0.00 0.00 0.00 0.00 0.00 0.00 0.00 0.00 0.02 0.05 0.07 0.06 0.31 0.75 0.42 0.36 0.51 0.68 0.79
0.03 0.02 0.03 0.03 0.03 0.02 0.02 0.02 0.02 0.02 0.02 0.02 0.02 0.03 0.01 0.00 0.00 0.00 0.00 0.00 0.00 0.00 0.00 0.00 0.00 0.00 0.00 0.00 0.00 0.00 0.00 0.00 0.01 0.01 0.01 0.01 0.06 0.11 0.25 0.10 0.07 0.18 0.29 0.52 0.58
0.26 0.17 0.12 0.09 0.06 0.05 0.04 0.02 0.02 0.02 0.02 0.02 0.02 0.03 0.00 0.00 0.00 0.00 0.00 0.00 0.00 0.00 0.00 0.00 0.00 0.00 0.00 0.00 0.00 0.00 0.00 0.00 0.02 0.00 0.00 0.00 0.23 0.18 0.54 0.16 0.08 0.05 0.18 0.41 0.34
0.66 0.61 0.49 0.36 0.24 0.14 0.09 0.04 0.02 0.02 0.02 0.02 0.02 0.02 0.00 0.00 0.00 0.00 0.00 0.00 0.00 0.00 0.00 0.00 0.00 0.00 0.00 0.00 0.00 0.00 0.00 0.00 0.00 0.01 0.01 0.04 0.22 0.14 0.13 0.10 0.06 0.02 0.06 0.16 0.09
0.64 0.60 0.50 0.41 0.35 0.26 0.15 0.06 0.03 0.02 0.03 0.03 0.03 0.01 0.00 0.00 0.00 0.00 0.00 0.00 0.00 0.00 0.00 0.00 0.00 0.00 0.00 0.00 0.00 0.00 0.00 0.00 0.00 0.01 0.02 0.11 0.51 0.05 0.05 0.03 0.03 0.02 0.03 0.03 0.09
0.29 0.38 0.36 0.31 0.24 0.14 0.09 0.06 0.04 0.03 0.03 0.02 0.01 0.00 0.00 0.00 0.00 0.00 0.00 0.02 0.00 0.00 0.00 0.00 0.00 0.00 0.00 0.00 0.00 0.00 0.00 0.00 0.00 0.00 0.01 0.05 0.35 0.22 0.07 0.08 0.05 0.01 0.00 0.00 0.00
0.22 0.24 0.24 0.26 0.26 0.27 0.17 0.07 0.03 0.02 0.01 0.00 0.01 0.00 0.00 0.00 0.00 0.00 0.00 0.02 0.01 0.00 0.00 0.00 0.00 0.00 0.00 0.00 0.00 0.00 0.00 0.00 0.02 0.07 0.00 0.00 0.03 0.16 0.19 0.07 0.04 0.01 0.00 0.00 0.00
0.18 0.21 0.23 0.23 0.20 0.18 0.12 0.04 0.00 0.00 0.00 0.00 0.00 0.00 0.00 0.00 0.00 0.00 0.00 0.00 0.00 0.00 0.02 0.00 0.00 0.00 0.00 0.00 0.00 0.00 0.00 0.00 0.00 0.00 0.00 0.00 0.00 0.02 0.14 0.04 0.02 0.03 0.01 0.01 0.00
0.17 0.20 0.18 0.16 0.18 0.16 0.07 0.02 0.00 0.00 0.01 0.00 0.00 0.00 0.00 0.00 0.00 0.00 0.00 0.03 0.02 0.03 0.02 0.02 0.01 0.00 0.00 0.00 0.00 0.00 0.00 0.00 0.00 0.00 0.00 0.00 0.00 0.00 0.02 0.00 0.00 0.00 0.00 0.00 0.00
0.21 0.24 0.20 0.17 0.16 0.09 0.00 0.00 0.00 0.00 0.01 0.00 0.00 0.00 0.00 0.00 0.00 0.00 0.00 0.01 0.03 0.02 0.03 0.03 0.02 0.00 0.00 0.00 0.00 0.00 0.00 0.00 0.00 0.00 0.00 0.00 0.00 0.00 0.00 0.02 0.07 0.01 0.00 0.00 0.00
0.34 0.38 0.31 0.28 0.15 0.01 0.00 0.00 0.00 0.00 0.04 0.00 0.00 0.00 0.00 0.00 0.00 0.00 0.00 0.00 0.01 0.01 0.06 0.09 0.00 0.01 0.01 0.00 0.00 0.00 0.00 0.00 0.00 0.00 0.00 0.00 0.01 0.02 0.01 0.02 0.06 0.01 0.01 0.00 0.00
0.32 0.32 0.24 0.17 0.06 0.04 0.02 0.01 0.00 0.04 0.10 0.00 0.00 0.00 0.00 0.00 0.00 0.00 0.00 0.00 0.01 0.02 0.08 0.10 0.01 0.01 0.00 0.00 0.00 0.01 0.00 0.00 0.00 0.00 0.05 0.02 0.01 0.03 0.02 0.00 0.02 0.01 0.00 0.00 0.00
0.31 0.24 0.30 0.17 0.06 0.02 0.01 0.02 0.06 0.15 0.08 0.00 0.00 0.00 0.00 0.00 0.00 0.00 0.00 0.00 0.02 0.14 0.06 0.01 0.01 0.05 0.02 0.00 0.00 0.00 0.02 0.04 0.03 0.04 0.07 0.01 0.02 0.04 0.03 0.02 0.06 0.08 0.05 0.02 0.02
0.30 0.27 0.27 0.11 0.08 0.02 0.02 0.13 0.27 0.14 0.00 0.00 0.00 0.00 0.00 0.00 0.00 0.00 0.00 0.00 0.02 0.12 0.09 0.03 0.04 0.03 0.00 0.01 0.01 0.01 0.12 0.26 0.27 0.11 0.05 0.03 0.04 0.06 0.07 0.18 0.31 0.31 0.26 0.14 0.11
0.42 0.42 0.28 0.14 0.09 0.09 0.23 0.47 0.32 0.04 0.02 0.01 0.00 0.00 0.00 0.01 0.01 0.01 0.02 0.00 0.00 0.03 0.12 0.17 0.12 0.03 0.06 0.04 0.05 0.05 0.18 0.28 0.36 0.16 0.07 0.04 0.04 0.05 0.13 0.20 0.37 0.61 0.47 0.38 0.24
0.83 0.69 0.47 0.19 0.13 0.23 0.70 0.86 0.12 0.01 0.00 0.00 0.00 0.01 0.03 0.07 0.08 0.03 0.04 0.04 0.02 0.09 0.24 0.16 0.09 0.03 0.04 0.04 0.12 0.22 0.18 0.09 0.38 0.27 0.27 0.10 0.04 0.12 0.23 0.33 0.30 0.43 0.43 0.38 0.32
0.71 0.69 0.40 0.20 0.31 0.76 1.30 0.52 0.02 0.02 0.00 0.00 0.01 0.05 0.09 0.05 0.09 0.13 0.11 0.20 0.13 0.21 0.17 0.25 0.42 0.09 0.05 0.13 0.15 0.22 0.22 0.45 0.60 0.55 0.34 0.21 0.31 0.99 0.98 0.67 0.95 0.83 0.49 0.36 0.31
1.08 1.23 0.46 0.32 1.07 1.92 1.55 0.28 0.00 0.00 0.00 0.00 0.02 0.07 0.09 0.10 0.11 0.16 0.30 0.31 0.44 0.18 0.12 0.11 0.29 0.20 0.22 0.25 0.16 0.22 0.41 0.51 0.50 0.20 0.31 0.56 1.40 1.44 1.74 1.12 0.85 0.47 0.37 0.40 0.31
1.59 1.43 0.58 0.66 1.58 1.40 0.60 0.15 0.01 0.00 0.00 0.00 0.00 0.04 0.13 0.12 0.14 0.19 0.31 0.33 0.34 0.18 0.08 0.11 0.43 0.24 0.16 0.08 0.04 0.18 0.27 0.50 0.77 0.43 0.32 0.53 1.43 1.34 1.22 1.12 0.57 0.10 0.03 0.08 0.24
2.10 1.44 1.31 1.25 1.40 0.62 0.26 0.06 0.03 0.00 0.02 0.03 0.03 0.04 0.08 0.10 0.21 0.13 0.31 0.35 0.52 0.32 0.13 0.36 0.41 0.45 0.40 0.37 0.22 0.40 0.47 0.44 0.79 0.85 0.70 1.00 1.52 1.41 0.88 0.33 0.07 0.03 0.02 0.02 0.09
2.66 2.21 2.50 1.85 0.84 0.41 0.35 0.17 0.06 0.00 0.01 0.05 0.03 0.06 0.10 0.13 0.17 0.17 0.26 0.48 0.76 0.54 0.24 0.66 0.41 0.55 0.33 0.40 0.63 0.64 0.57 0.68 0.80 0.94 0.52 0.79 1.05 1.01 0.58 0.15 0.05 0.05 0.05 0.07 0.10
3.45 1.42 0.99 1.04 0.51 0.40 0.50 0.47 0.20 0.11 0.07 0.05 0.09 0.13 0.17 0.17 0.11 0.10 0.29 0.74 0.96 0.70 0.38 0.62 0.42 0.71 0.52 0.16 0.25 0.52 0.63 0.62 0.92 0.67 0.66 0.69 0.54 0.67 0.92 0.46 0.17 0.14 0.10 0.15 0.17
3.74 0.62 0.39 0.43 0.43 0.72 0.52 0.42 0.31 0.29 0.35 0.21 0.20 0.09 0.09 0.11 0.10 0.17 0.31 0.41 0.69 0.51 0.53 0.65 0.57 0.86 1.01 0.36 0.47 0.65 0.80 0.52 0.73 0.61 0.56 0.39 0.37 0.43 0.62 0.63 0.38 0.26 0.17 0.22 0.25
3.32 0.47 0.54 0.36 0.21 0.55 0.56 0.40 0.51 0.75 0.38 0.16 0.32 0.20 0.12 0.18 0.12 0.06 0.13 0.13 0.19 0.41 0.63 0.77 1.10 1.02 1.09 0.34 0.37 0.71 0.72 0.61 0.50 0.29 0.22 0.29 0.24 0.37 0.64 0.74 0.67 0.48 0.29 0.29 0.27

GFSSW_prec_precacc_129.txt.gz
Total_Precipitation_Accumulation
0.02 0.03 0.02 0.02 0.02 0.01 0.01 0.01 0.01 0.01 0.02 0.02 0.02 0.02 0.03 0.04 0.01 0.00 0.00 0.00 0.00 0.00 0.00 0.00 0.00 0.00 0.00 0.00 0.00 0.00 0.00 0.00 0.00 0.02 0.13 0.21 0.32 0.22 0.08 0.04 0.30 0.54 0.94 1.18 0.82
0.03 0.04 0.04 0.03 0.02 0.02 0.02 0.01 0.01 0.01 0.02 0.02 0.01 0.01 0.02 0.04 0.00 0.00 0.00 0.00 0.00 0.00 0.00 0.00 0.00 0.00 0.00 0.00 0.00 0.00 0.00 0.00 0.00 0.01 0.12 0.16 0.03 0.15 0.24 0.16 0.39 0.91 1.20 0.77 0.45
0.04 0.04 0.04 0.03 0.03 0.03 0.02 0.02 0.02 0.02 0.02 0.02 0.02 0.02 0.02 0.02 0.00 0.00 0.00 0.00 0.00 0.00 0.00 0.00 0.00 0.00 0.00 0.00 0.00 0.00 0.00 0.00 0.00 0.01 0.11 0.03 0.01 0.03 0.08 0.25 0.76 1.55 1.68 0.86 0.56
0.03 0.03 0.03 0.03 0.03 0.02 0.02 0.01 0.02 0.02 0.01 0.02 0.02 0.02 0.02 0.00 0.00 0.00 0.00 0.00 0.00 0.00 0.00 0.00 0.00 0.00 0.00 0.00 0.00 0.00 0.00 0.00 0.00 0.00 0.02 0.05 0.07 0.06 0.31 0.75 0.42 0.36 0.51 0.68 0.79
0.03 0.02 0.03 0.03 0.03 0.02 0.02 0.02 0.02 0.02 0.02 0.02 0.02 0.03 0.01 0.00 0.00 0.00 0.00 0.00 0.00 0.00 0.00 0.00 0.00 0.00 0.00 0.00 0.00 0.00 0.00 0.00 0.01 0.01 0.01 0.01 0.06 0.11 0.25 0.10 0.07 0.18 0.29 0.52 0.58
0.26 0.18 0.12 0.09 0.06 0.05 0.04 0.02 0.02 0.02 0.02 0.02 0.02 0.03 0.00 0.00 0.00 0.00 0.00 0.00 0.00 0.00 0.00 0.00 0.00 0.00 0.00 0.00 0.00 0.00 0.00 0.00 0.02 0.00 0.00 0.00 0.23 0.18 0.54 0.16 0.08 0.05 0.18 0.41 0.34
0.68 0.64 0.53 0.40 0.26 0.15 0.09 0.04 0.02 0.02 0.02 0.02 0.02 0.02 0.00 0.00 0.00 0.00 0.00 0.00 0.00 0.00 0.00 0.00 0.00 0.00 0.00 0.00 0.00 0.00 0.00 0.00 0.00 0.01 0.01 0.04 0.22 0.14 0.13 0.10 0.06 0.02 0.06 0.16 0.09
0.69 0.72 0.60 0.47 0.39 0.27 0.15 0.06 0.04 0.02 0.03 0.03 0.03 0.01 0.00 0.00 0.00 0.00 0.00 0.00 0.00 0.00 0.00 0.00 0.00 0.00 0.00 0.00 0.00 0.00 0.00 0.00 0.00 0.01 0.02 0.11 0.51 0.05 0.05 0.03 0.03 0.02 0.03 0.03 0.09
0.31 0.46 0.54 0.45 0.31 0.16 0.10 0.07 0.05 0.03 0.03 0.02 0.01 0.00 0.00 0.00 0.00 0.00 0.00 0.02 0.00 0.00 0.00 0.00 0.00 0.00 0.00 0.00 0.00 0.00 0.00 0.00 0.00 0.00 0.01 0.05 0.35 0.22 0.07 0.08 0.05 0.01 0.00 0.00 0.00
0.22 0.25 0.27 0.35 0.32 0.29 0.21 0.10 0.04 0.02 0.01 0.00 0.01 0.00 0.00 0.00 0.00 0.00 0.00 0.02 0.01 0.00 0.00 0.00 0.00 0.00 0.00 0.00 0.00 0.00 0.00 0.00 0.02 0.07 0.00 0.00 0.03 0.16 0.19 0.07 0.04 0.01 0.00 0.00 0.00
0.18 0.21 0.23 0.24 0.23 0.22 0.15 0.07 0.01 0.00 0.00 0.00 0.00 0.00 0.00 0.00 0.00 0.00 0.00 0.00 0.00 0.00 0.02 0.00 0.00 0.00 0.00 0.00 0.00 0.00 0.00 0.00 0.00 0.00 0.00 0.00 0.00 0.02 0.14 0.04 0.02 0.03 0.01 0.01 0.00
0.17 0.21 0.19 0.17 0.19 0.18 0.09 0.02 0.00 0.00 0.01 0.00 0.00 0.00 0.00 0.00 0.00 0.00 0.00 0.03 0.02 0.03 0.02 0.02 0.01 0.00 0.00 0.00 0.00 0.00 0.00 0.00 0.00 0.00 0.00 0.00 0.00 0.00 0.02 0.00 0.00 0.00 0.00 0.00 0.00
0.21 0.26 0.22 0.19 0.17 0.11 0.01 0.00 0.00 0.00 0.01 0.00 0.00 0.00 0.00 0.00 0.00 0.00 0.00 0.01 0.03 0.02 0.03 0.03 0.02 0.00 0.00 0.00 0.00 0.00 0.00 0.00 0.00 0.00 0.00 0.00 0.00 0.00 0.00 0.02 0.07 0.01 0.00 0.00 0.00
0.34 0.40 0.33 0.31 0.16 0.01 0.00 0.00 0.00 0.00 0.04 0.00 0.00 0.00 0.00 0.00 0.00 0.00 0.00 0.00 0.01 0.01 0.06 0.09 0.00 0.01 0.01 0.00 0.00 0.00 0.00 0.00 0.00 0.00 0.00 0.00 0.01 0.02 0.01 0.02 0.06 0.01 0.01 0.00 0.00
0.32 0.33 0.25 0.19 0.06 0.04 0.02 0.01 0.00 0.04 0.10 0.00 0.00 0.00 0.00 0.00 0.00 0.00 0.00 0.00 0.01 0.02 0.08 0.10 0.01 0.01 0.00 0.00 0.00 0.01 0.00 0.00 0.00 0.00 0.05 0.02 0.01 0.03 0.02 0.00 0.02 0.01 0.00 0.00 0.00
0.31 0.24 0.31 0.18 0.06 0.02 0.01 0.03 0.06 0.15 0.08 0.00 0.00 0.00 0.00 0.00 0.00 0.00 0.00 0.00 0.02 0.14 0.06 0.01 0.01 0.05 0.02 0.00 0.00 0.00 0.02 0.04 0.03 0.04 0.07 0.01 0.02 0.04 0.03 0.02 0.06 0.08 0.05 0.02 0.02
0.30 0.27 0.28 0.12 0.08 0.02 0.03 0.15 0.29 0.14 0.00 0.00 0.00 0.00 0.00 0.00 0.00 0.00 0.00 0.00 0.02 0.12 0.09 0.03 0.04 0.03 0.00 0.01 0.01 0.01 0.12 0.26 0.27 0.11 0.05 0.03 0.04 0.06 0.07 0.18 0.31 0.31 0.26 0.14 0.11
0.42 0.43 0.29 0.15 0.09 0.10 0.26 0.51 0.34 0.04 0.02 0.01 0.00 0.00 0.00 0.01 0.01 0.01 0.02 0.00 0.00 0.03 0.12 0.17 0.12 0.03 0.06 0.04 0.05 0.05 0.18 0.28 0.36 0.16 0.07 0.04 0.04 0.05 0.13 0.20 0.37 0.61 0.47 0.38 0.24
0.83 0.70 0.52 0.20 0.16 0.25 0.73 0.94 0.14 0.01 0.00 0.00 0.00 0.01 0.03 0.07 0.08 0.03 0.04 0.04 0.02 0.09 0.24 0.16 0.09 0.03 0.04 0.04 0.12 0.22 0.18 0.09 0.38 0.27 0.27 0.10 0.04 0.12 0.23 0.33 0.30 0.43 0.43 0.38 0.32
0.71 0.69 0.41 0.21 0.35 0.83 1.41 0.56 0.03 0.02 0.00 0.00 0.01 0.05 0.09 0.05 0.09 0.13 0.11 0.20 0.13 0.21 0.17 0.25 0.42 0.09 0.05 0.13 0.15 0.22 0.22 0.45 0.60 0.55 0.34 0.21 0.31 0.99 0.98 0.67 0.95 0.83 0.49 0.36 0.31
1.09 1.24 0.46 0.33 1.13 2.10 1.70 0.33 0.00 0.00 0.00 0.00 0.02 0.07 0.09 0.10 0.11 0.16 0.30 0.31 0.44 0.18 0.12 0.11 0.29 0.20 0.22 0.25 0.16 0.22 0.41 0.51 0.50 0.20 0.31 0.56 1.40 1.44 1.74 1.12 0.85 0.47 0.37 0.40 0.31
1.61 1.44 0.58 0.68 1.64 1.48 0.66 0.15 0.01 0.00 0.00 0.00 0.00 0.04 0.13 0.12 0.14 0.19 0.31 0.33 0.34 0.18 0.08 0.11 0.43 0.24 0.16 0.08 0.04 0.18 0.27 0.50 0.77 0.43 0.32 0.53 1.43 1.34 1.22 1.12 0.57 0.10 0.03 0.08 0.24
2.12 1.44 1.35 1.29 1.45 0.63 0.26 0.06 0.03 0.00 0.02 0.03 0.03 0.04 0.08 0.10 0.21 0.13 0.31 0.35 0.52 0.32 0.13 0.36 0.41 0.45 0.40 0.37 0.22 0.40 0.47 0.44 0.79 0.85 0.70 1.00 1.52 1.41 0.88 0.33 0.07 0.03 0.02 0.02 0.09
2.70 2.25 2.53 1.94 0.85 0.41 0.35 0.17 0.06 0.00 0.01 0.05 0.03 0.06 0.11 0.13 0.17 0.17 0.26 0.48 0.76 0.54 0.24 0.66 0.41 0.55 0.33 0.40 0.63 0.64 0.57 0.68 0.80 0.94 0.52 0.79 1.05 1.01 0.58 0.15 0.05 0.05 0.05 0.07 0.10
3.53 1.46 1.00 1.11 0.53 0.40 0.50 0.47 0.20 0.11 0.07 0.05 0.09 0.13 0.17 0.17 0.12 0.10 0.29 0.74 0.96 0.70 0.38 0.62 0.42 0.71 0.52 0.16 0.25 0.52 0.63 0.62 0.92 0.67 0.66 0.69 0.54 0.67 0.92 0.46 0.17 0.14 0.10 0.15 0.17
3.81 0.63 0.39 0.43 0.43 0.72 0.52 0.42 0.31 0.29 0.35 0.21 0.20 0.09 0.12 0.11 0.10 0.18 0.31 0.42 0.69 0.52 0.53 0.65 0.57 0.86 1.01 0.36 0.47 0.65 0.80 0.52 0.73 0.61 0.56 0.39 0.37 0.43 0.62 0.63 0.38 0.26 0.17 0.22 0.25
3.36 0.48 0.54 0.36 0.21 0.56 0.57 0.40 0.51 0.75 0.38 0.16 0.33 0.21 0.13 0.19 0.15 0.06 0.13 0.13 0.20 0.41 0.63 0.77 1.10 1.02 1.09 0.34 0.37 0.71 0.72 0.61 0.50 0.29 0.22 0.29 0.24 0.37 0.64 0.74 0.67 0.48 0.29 0.29 0.27

GFSSW_prec_precacc_132.txt.gz
Total_Precipitation_Accumulation
0.02 0.03 0.02 0.02 0.02 0.01 0.01 0.01 0.01 0.01 0.02 0.02 0.02 0.02 0.03 0.04 0.01 0.00 0.00 0.00 0.00 0.00 0.00 0.00 0.00 0.00 0.00 0.00 0.00 0.00 0.00 0.00 0.00 0.02 0.13 0.21 0.32 0.22 0.08 0.04 0.30 0.54 0.94 1.18 0.82
0.03 0.04 0.04 0.03 0.02 0.02 0.02 0.01 0.01 0.01 0.02 0.02 0.01 0.01 0.02 0.04 0.00 0.00 0.00 0.00 0.00 0.00 0.00 0.00 0.00 0.00 0.00 0.00 0.00 0.00 0.00 0.00 0.00 0.01 0.12 0.16 0.03 0.15 0.24 0.16 0.39 0.91 1.20 0.77 0.45
0.04 0.04 0.04 0.03 0.03 0.03 0.02 0.02 0.02 0.02 0.02 0.02 0.02 0.02 0.02 0.02 0.00 0.00 0.00 0.00 0.00 0.00 0.00 0.00 0.00 0.00 0.00 0.00 0.00 0.00 0.00 0.00 0.00 0.01 0.11 0.03 0.01 0.03 0.08 0.25 0.76 1.55 1.68 0.86 0.56
0.03 0.03 0.03 0.03 0.03 0.02 0.02 0.01 0.02 0.02 0.01 0.02 0.02 0.02 0.02 0.00 0.00 0.00 0.00 0.00 0.00 0.00 0.00 0.00 0.00 0.00 0.00 0.00 0.00 0.00 0.00 0.00 0.00 0.00 0.02 0.05 0.07 0.06 0.31 0.75 0.42 0.36 0.51 0.68 0.79
0.03 0.02 0.03 0.03 0.03 0.02 0.02 0.02 0.02 0.02 0.02 0.02 0.02 0.03 0.01 0.00 0.00 0.00 0.00 0.00 0.00 0.00 0.00 0.00 0.00 0.00 0.00 0.00 0.00 0.00 0.00 0.00 0.01 0.01 0.01 0.01 0.06 0.11 0.25 0.10 0.07 0.18 0.29 0.52 0.58
0.26 0.18 0.13 0.09 0.06 0.05 0.04 0.02 0.02 0.02 0.02 0.02 0.02 0.03 0.00 0.00 0.00 0.00 0.00 0.00 0.00 0.00 0.00 0.00 0.00 0.00 0.00 0.00 0.00 0.00 0.00 0.00 0.02 0.00 0.00 0.00 0.23 0.18 0.54 0.16 0.08 0.05 0.18 0.41 0.34
0.68 0.64 0.53 0.40 0.26 0.15 0.09 0.04 0.02 0.02 0.02 0.02 0.02 0.02 0.00 0.00 0.00 0.00 0.00 0.00 0.00 0.00 0.00 0.00 0.00 0.00 0.00 0.00 0.00 0.00 0.00 0.00 0.00 0.01 0.01 0.04 0.22 0.14 0.13 0.10 0.06 0.02 0.06 0.16 0.09
0.72 0.73 0.61 0.48 0.40 0.28 0.16 0.07 0.05 0.03 0.03 0.03 0.03 0.01 0.00 0.00 0.00 0.00 0.00 0.00 0.00 0.00 0.00 0.00 0.00 0.00 0.00 0.00 0.00 0.00 0.00 0.00 0.00 0.01 0.02 0.11 0.51 0.05 0.05 0.03 0.03 0.02 0.03 0.03 0.09
0.32 0.48 0.56 0.48 0.35 0.21 0.13 0.09 0.06 0.04 0.03 0.02 0.01 0.00 0.00 0.00 0.00 0.00 0.00 0.02 0.00 0.00 0.00 0.00 0.00 0.00 0.00 0.00 0.00 0.00 0.00 0.00 0.00 0.00 0.01 0.05 0.35 0.22 0.07 0.08 0.05 0.01 0.00 0.00 0.00
0.22 0.25 0.28 0.37 0.39 0.37 0.28 0.12 0.04 0.02 0.01 0.00 0.01 0.00 0.00 0.00 0.00 0.00 0.00 0.02 0.01 0.00 0.00 0.00 0.00 0.00 0.00 0.00 0.00 0.00 0.00 0.00 0.02 0.07 0.00 0.00 0.03 0.16 0.19 0.07 0.04 0.01 0.00 0.00 0.00
0.18 0.21 0.23 0.24 0.24 0.30 0.23 0.11 0.03 0.00 0.00 0.00 0.00 0.00 0.00 0.00 0.00 0.00 0.00 0.00 0.00 0.00 0.02 0.00 0.00 0.00 0.00 0.00 0.00 0.00 0.00 0.00 0.00 0.00 0.00 0.00 0.00 0.02 0.14 0.04 0.02 0.03 0.01 0.01 0.00
0.17 0.21 0.20 0.17 0.20 0.19 0.10 0.03 0.01 0.00 0.01 0.00 0.00 0.00 0.00 0.00 0.00 0.00 0.00 0.03 0.02 0.03 0.02 0.02 0.01 0.00 0.00 0.00 0.00 0.00 0.00 0.00 0.00 0.00 0.00 0.00 0.00 0.00 0.02 0.00 0.00 0.00 0.00 0.00 0.00
0.22 0.26 0.23 0.21 0.19 0.13 0.01 0.01 0.00 0.00 0.01 0.00 0.00 0.00 0.00 0.00 0.00 0.00 0.00 0.01 0.03 0.02 0.03 0.03 0.02 0.00 0.00 0.00 0.00 0.00 0.00 0.00 0.00 0.00 0.00 0.00 0.00 0.00 0.00 0.02 0.07 0.01 0.00 0.00 0.00
0.34 0.40 0.35 0.33 0.18 0.01 0.01 0.00 0.00 0.00 0.04 0.00 0.00 0.00 0.00 0.00 0.00 0.00 0.00 0.00 0.01 0.01 0.06 0.09 0.00 0.01 0.01 0.00 0.00 0.00 0.00 0.00 0.00 0.00 0.00 0.00 0.01 0.02 0.01 0.02 0.06 0.01 0.01 0.00 0.00
0.32 0.34 0.26 0.21 0.06 0.04 0.02 0.01 0.00 0.04 0.10 0.00 0.00 0.00 0.00 0.00 0.00 0.00 0.00 0.00 0.01 0.02 0.08 0.10 0.01 0.01 0.00 0.00 0.00 0.01 0.00 0.00 0.00 0.00 0.05 0.02 0.01 0.03 0.02 0.00 0.02 0.01 0.00 0.00 0.00
0.31 0.26 0.32 0.19 0.06 0.02 0.01 0.03 0.06 0.15 0.08 0.00 0.00 0.00 0.00 0.00 0.00 0.00 0.00 0.00 0.02 0.14 0.06 0.01 0.01 0.05 0.02 0.00 0.00 0.00 0.02 0.04 0.03 0.04 0.07 0.01 0.02 0.04 0.03 0.02 0.06 0.08 0.05 0.02 0.02
0.30 0.29 0.30 0.12 0.08 0.02 0.03 0.16 0.29 0.14 0.00 0.00 0.00 0.00 0.00 0.00 0.00 0.00 0.00 0.00 0.02 0.12 0.09 0.03 0.04 0.03 0.00 0.01 0.01 0.01 0.12 0.26 0.27 0.11 0.05 0.03 0.04 0.06 0.07 0.18 0.31 0.31 0.26 0.14 0.11
0.42 0.45 0.31 0.16 0.10 0.11 0.27 0.52 0.34 0.04 0.02 0.01 0.00 0.00 0.00 0.01 0.01 0.01 0.02 0.00 0.00 0.03 0.12 0.17 0.12 0.03 0.06 0.04 0.05 0.05 0.18 0.28 0.36 0.16 0.07 0.04 0.04 0.05 0.13 0.20 0.37 0.61 0.47 0.38 0.24
0.84 0.71 0.57 0.22 0.18 0.29 0.78 0.96 0.14 0.01 0.00 0.00 0.00 0.01 0.03 0.07 0.08 0.03 0.04 0.04 0.02 0.09 0.24 0.16 0.09 0.03 0.04 0.04 0.12 0.22 0.18 0.09 0.38 0.27 0.27 0.10 0.04 0.12 0.23 0.33 0.30 0.43 0.43 0.38 0.32
0.72 0.70 0.44 0.22 0.41 0.91 1.51 0.59 0.03 0.02 0.00 0.00 0.01 0.05 0.09 0.05 0.09 0.13 0.11 0.20 0.13 0.21 0.17 0.25 0.42 0.09 0.05 0.13 0.15 0.22 0.22 0.45 0.60 0.55 0.34 0.21 0.31 0.99 0.98 0.67 0.95 0.83 0.49 0.36 0.31
1.10 1.25 0.46 0.34 1.20 2.28 1.83 0.38 0.00 0.00 0.00 0.00 0.02 0.07 0.09 0.10 0.11 0.16 0.30 0.31 0.44 0.18 0.12 0.11 0.29 0.20 0.22 0.25 0.16 0.22 0.41 0.51 0.50 0.20 0.31 0.56 1.40 1.44 1.74 1.12 0.85 0.47 0.37 0.40 0.31
1.62 1.44 0.59 0.70 1.76 1.57 0.76 0.17 0.01 0.00 0.00 0.00 0.00 0.04 0.13 0.12 0.14 0.19 0.31 0.33 0.34 0.18 0.08 0.11 0.43 0.24 0.16 0.08 0.04 0.18 0.27 0.50 0.77 0.43 0.32 0.53 1.43 1.34 1.22 1.12 0.57 0.10 0.03 0.08 0.24
2.16 1.44 1.37 1.31 1.55 0.67 0.27 0.07 0.03 0.00 0.02 0.03 0.03 0.04 0.08 0.10 0.21 0.13 0.31 0.35 0.52 0.32 0.13 0.36 0.41 0.45 0.40 0.37 0.22 0.40 0.47 0.44 0.79 0.85 0.70 1.00 1.52 1.41 0.88 0.33 0.07 0.03 0.02 0.02 0.09
2.77 2.29 2.56 2.01 0.85 0.41 0.35 0.17 0.06 0.00 0.01 0.05 0.03 0.06 0.11 0.13 0.17 0.17 0.26 0.48 0.76 0.54 0.24 0.66 0.41 0.55 0.33 0.40 0.63 0.64 0.57 0.68 0.80 0.94 0.52 0.79 1.05 1.01 0.58 0.15 0.05 0.05 0.05 0.07 0.10
3.62 1.51 1.00 1.19 0.55 0.40 0.50 0.47 0.20 0.11 0.07 0.05 0.09 0.13 0.17 0.18 0.12 0.10 0.29 0.74 0.96 0.70 0.38 0.62 0.42 0.71 0.52 0.16 0.25 0.52 0.63 0.62 0.92 0.67 0.66 0.69 0.54 0.67 0.92 0.46 0.17 0.14 0.10 0.15 0.17
3.87 0.64 0.39 0.43 0.43 0.72 0.53 0.42 0.31 0.29 0.35 0.21 0.20 0.09 0.12 0.12 0.10 0.18 0.31 0.42 0.69 0.52 0.53 0.65 0.57 0.86 1.01 0.36 0.47 0.65 0.80 0.52 0.73 0.61 0.56 0.39 0.37 0.43 0.62 0.63 0.38 0.26 0.17 0.22 0.25
3.38 0.48 0.54 0.36 0.21 0.56 0.57 0.40 0.51 0.75 0.38 0.16 0.33 0.21 0.14 0.19 0.17 0.08 0.13 0.13 0.20 0.42 0.64 0.78 1.12 1.03 1.09 0.34 0.37 0.71 0.72 0.61 0.50 0.29 0.22 0.29 0.24 0.37 0.64 0.74 0.67 0.48 0.29 0.29 0.27

GFSSW_prec_precacc_138.txt.gz
Total_Precipitation_Accumulation
0.02 0.03 0.02 0.02 0.02 0.01 0.01 0.01 0.01 0.01 0.02 0.02 0.02 0.02 0.03 0.04 0.01 0.00 0.00 0.00 0.00 0.00 0.00 0.00 0.00 0.00 0.00 0.00 0.00 0.00 0.00 0.00 0.00 0.02 0.13 0.21 0.32 0.22 0.08 0.04 0.30 0.54 0.94 1.18 0.82
0.03 0.04 0.04 0.03 0.02 0.02 0.02 0.01 0.01 0.01 0.02 0.02 0.01 0.01 0.02 0.04 0.00 0.00 0.00 0.00 0.00 0.00 0.00 0.00 0.00 0.00 0.00 0.00 0.00 0.00 0.00 0.00 0.00 0.01 0.12 0.16 0.03 0.15 0.24 0.16 0.39 0.91 1.20 0.77 0.45
0.04 0.04 0.04 0.03 0.03 0.03 0.02 0.02 0.02 0.02 0.02 0.02 0.02 0.02 0.02 0.02 0.00 0.00 0.00 0.00 0.00 0.00 0.00 0.00 0.00 0.00 0.00 0.00 0.00 0.00 0.00 0.00 0.00 0.01 0.11 0.03 0.01 0.03 0.08 0.25 0.76 1.55 1.68 0.86 0.56
0.03 0.03 0.03 0.03 0.03 0.02 0.02 0.01 0.02 0.02 0.01 0.02 0.02 0.02 0.02 0.00 0.00 0.00 0.00 0.00 0.00 0.00 0.00 0.00 0.00 0.00 0.00 0.00 0.00 0.00 0.00 0.00 0.00 0.00 0.02 0.05 0.07 0.06 0.31 0.75 0.42 0.36 0.51 0.68 0.79
0.03 0.02 0.03 0.03 0.03 0.02 0.02 0.02 0.02 0.02 0.02 0.02 0.02 0.03 0.01 0.00 0.00 0.00 0.00 0.00 0.00 0.00 0.00 0.00 0.00 0.00 0.00 0.00 0.00 0.00 0.00 0.00 0.01 0.01 0.01 0.01 0.06 0.11 0.25 0.10 0.07 0.18 0.29 0.52 0.58
0.27 0.18 0.13 0.09 0.06 0.05 0.04 0.02 0.02 0.02 0.02 0.02 0.02 0.03 0.00 0.00 0.00 0.00 0.00 0.00 0.00 0.00 0.00 0.00 0.00 0.00 0.00 0.00 0.00 0.00 0.00 0.00 0.02 0.00 0.00 0.00 0.23 0.18 0.54 0.16 0.08 0.05 0.18 0.41 0.34
0.69 0.65 0.54 0.41 0.26 0.15 0.09 0.05 0.03 0.03 0.02 0.02 0.02 0.02 0.00 0.00 0.00 0.00 0.00 0.00 0.00 0.00 0.00 0.00 0.00 0.00 0.00 0.00 0.00 0.00 0.00 0.00 0.00 0.01 0.01 0.04 0.22 0.14 0.13 0.10 0.06 0.02 0.06 0.16 0.09
0.73 0.74 0.61 0.48 0.40 0.28 0.17 0.11 0.08 0.04 0.03 0.03 0.03 0.01 0.00 0.00 0.00 0.00 0.00 0.00 0.00 0.00 0.00 0.00 0.00 0.00 0.00 0.00 0.00 0.00 0.00 0.00 0.00 0.01 0.02 0.11 0.51 0.05 0.05 0.03 0.03 0.02 0.03 0.03 0.09
0.39 0.52 0.59 0.50 0.36 0.23 0.18 0.15 0.09 0.05 0.03 0.02 0.01 0.00 0.00 0.00 0.00 0.00 0.00 0.02 0.00 0.00 0.00 0.00 0.00 0.00 0.00 0.00 0.00 0.00 0.00 0.00 0.00 0.00 0.01 0.05 0.35 0.22 0.07 0.08 0.05 0.01 0.00 0.00 0.00
0.37 0.40 0.43 0.50 0.49 0.47 0.37 0.19 0.09 0.03 0.01 0.00 0.01 0.00 0.00 0.00 0.00 0.00 0.00 0.02 0.01 0.00 0.00 0.00 0.00 0.00 0.00 0.00 0.00 0.00 0.00 0.00 0.02 0.07 0.00 0.00 0.03 0.16 0.19 0.07 0.04 0.01 0.00 0.00 0.00
0.26 0.30 0.30 0.32 0.34 0.40 0.31 0.17 0.05 0.01 0.00 0.00 0.00 0.00 0.00 0.00 0.00 0.00 0.00 0.00 0.00 0.00 0.02 0.00 0.00 0.00 0.00 0.00 0.00 0.00 0.00 0.00 0.00 0.00 0.00 0.00 0.00 0.02 0.14 0.04 0.02 0.03 0.01 0.01 0.00
0.18 0.22 0.21 0.18 0.21 0.21 0.13 0.09 0.03 0.00 0.01 0.00 0.00 0.00 0.00 0.00 0.00 0.00 0.00 0.03 0.02 0.03 0.02 0.02 0.01 0.00 0.00 0.00 0.00 0.00 0.00 0.00 0.00 0.00 0.00 0.00 0.00 0.00 0.02 0.00 0.00 0.00 0.00 0.00 0.00
0.23 0.27 0.23 0.21 0.21 0.15 0.02 0.01 0.00 0.00 0.01 0.00 0.00 0.00 0.00 0.00 0.00 0.00 0.00 0.01 0.03 0.02 0.03 0.03 0.02 0.00 0.00 0.00 0.00 0.00 0.00 0.00 0.00 0.00 0.00 0.00 0.00 0.00 0.00 0.02 0.07 0.01 0.00 0.00 0.00
0.35 0.43 0.35 0.34 0.22 0.02 0.02 0.00 0.00 0.00 0.04 0.00 0.00 0.00 0.00 0.00 0.00 0.00 0.00 0.00 0.01 0.01 0.06 0.09 0.00 0.01 0.01 0.00 0.00 0.00 0.00 0.00 0.00 0.00 0.00 0.00 0.01 0.02 0.01 0.02 0.06 0.01 0.01 0.00 0.00
0.32 0.36 0.27 0.23 0.07 0.04 0.02 0.01 0.00 0.04 0.10 0.00 0.00 0.00 0.00 0.00 0.00 0.00 0.00 0.00 0.01 0.02 0.08 0.10 0.01 0.01 0.00 0.00 0.00 0.01 0.00 0.00 0.00 0.00 0.05 0.02 0.01 0.03 0.02 0.00 0.02 0.01 0.00 0.00 0.00
0.31 0.28 0.37 0.21 0.07 0.02 0.01 0.03 0.06 0.15 0.08 0.00 0.00 0.00 0.00 0.00 0.00 0.00 0.00 0.00 0.02 0.14 0.06 0.01 0.01 0.05 0.02 0.00 0.00 0.00 0.02 0.04 0.03 0.04 0.07 0.01 0.02 0.04 0.03 0.02 0.06 0.08 0.05 0.02 0.02
0.30 0.30 0.35 0.14 0.10 0.02 0.03 0.17 0.29 0.14 0.00 0.00 0.00 0.00 0.00 0.00 0.00 0.00 0.00 0.00 0.02 0.12 0.09 0.03 0.04 0.03 0.00 0.01 0.01 0.01 0.12 0.26 0.27 0.11 0.05 0.03 0.04 0.06 0.07 0.18 0.31 0.31 0.26 0.14 0.11
0.43 0.46 0.36 0.20 0.10 0.11 0.32 0.55 0.34 0.04 0.02 0.01 0.00 0.00 0.00 0.01 0.01 0.01 0.02 0.00 0.00 0.03 0.12 0.17 0.12 0.03 0.06 0.04 0.05 0.05 0.18 0.28 0.36 0.16 0.07 0.04 0.04 0.05 0.13 0.20 0.37 0.61 0.47 0.38 0.24
0.87 0.75 0.65 0.24 0.19 0.33 0.86 1.00 0.14 0.01 0.00 0.00 0.00 0.01 0.03 0.07 0.08 0.03 0.04 0.04 0.02 0.09 0.24 0.16 0.09 0.03 0.04 0.04 0.12 0.22 0.18 0.09 0.38 0.27 0.27 0.10 0.04 0.12 0.23 0.33 0.30 0.43 0.43 0.38 0.32
0.76 0.75 0.47 0.24 0.45 1.03 1.67 0.62 0.03 0.02 0.00 0.00 0.01 0.05 0.09 0.05 0.09 0.13 0.11 0.20 0.13 0.21 0.17 0.25 0.42 0.09 0.05 0.13 0.15 0.22 0.22 0.45 0.60 0.55 0.34 0.21 0.31 0.99 0.98 0.67 0.95 0.83 0.49 0.36 0.31
1.15 1.29 0.47 0.38 1.38 2.60 2.02 0.40 0.00 0.00 0.00 0.00 0.02 0.07 0.09 0.10 0.11 0.16 0.30 0.31 0.44 0.18 0.12 0.11 0.29 0.20 0.22 0.25 0.16 0.22 0.41 0.51 0.50 0.20 0.31 0.56 1.40 1.44 1.74 1.12 0.85 0.47 0.37 0.40 0.31
1.70 1.48 0.60 0.80 2.00 1.85 0.98 0.19 0.01 0.00 0.00 0.00 0.00 0.04 0.13 0.12 0.14 0.19 0.31 0.33 0.34 0.18 0.08 0.11 0.43 0.24 0.16 0.08 0.04 0.18 0.27 0.50 0.77 0.43 0.32 0.53 1.43 1.34 1.22 1.12 0.57 0.10 0.03 0.08 0.24
2.26 1.49 1.42 1.44 1.79 0.80 0.34 0.09 0.03 0.00 0.02 0.03 0.03 0.04 0.08 0.10 0.21 0.13 0.31 0.35 0.52 0.32 0.13 0.36 0.41 0.45 0.40 0.37 0.22 0.40 0.47 0.44 0.79 0.85 0.70 1.01 1.52 1.41 0.88 0.33 0.07 0.03 0.02 0.02 0.09
2.93 2.44 2.66 2.15 1.02 0.45 0.36 0.17 0.07 0.01 0.01 0.05 0.03 0.06 0.11 0.13 0.17 0.17 0.26 0.48 0.76 0.54 0.24 0.66 0.41 0.55 0.33 0.40 0.63 0.64 0.57 0.68 0.80 0.94 0.52 0.79 1.05 1.01 0.58 0.15 0.05 0.05 0.05 0.07 0.10
3.77 1.71 1.05 1.28 0.58 0.45 0.51 0.48 0.20 0.12 0.08 0.05 0.09 0.13 0.18 0.18 0.12 0.10 0.29 0.74 0.96 0.70 0.38 0.62 0.42 0.71 0.52 0.16 0.25 0.52 0.63 0.62 0.92 0.67 0.66 0.69 0.54 0.67 0.92 0.46 0.17 0.14 0.10 0.15 0.17
3.99 0.74 0.43 0.43 0.43 0.73 0.56 0.44 0.31 0.29 0.36 0.21 0.20 0.10 0.15 0.15 0.13 0.20 0.32 0.42 0.69 0.52 0.53 0.65 0.57 0.86 1.01 0.36 0.47 0.65 0.80 0.52 0.73 0.61 0.56 0.39 0.37 0.43 0.62 0.63 0.38 0.26 0.17 0.22 0.25
3.69 0.49 0.55 0.37 0.22 0.57 0.60 0.41 0.51 0.76 0.39 0.16 0.33 0.23 0.17 0.23 0.22 0.11 0.14 0.14 0.20 0.42 0.64 0.78 1.12 1.05 1.11 0.34 0.37 0.71 0.72 0.61 0.50 0.29 0.22 0.29 0.24 0.37 0.64 0.74 0.67 0.48 0.29 0.29 0.27

GFSSW_prec_precacc_141.txt.gz
Total_Precipitation_Accumulation
0.02 0.03 0.02 0.02 0.02 0.01 0.01 0.01 0.01 0.01 0.02 0.02 0.02 0.02 0.03 0.04 0.01 0.00 0.00 0.00 0.00 0.00 0.00 0.00 0.00 0.00 0.00 0.00 0.00 0.00 0.00 0.00 0.00 0.02 0.13 0.21 0.32 0.22 0.08 0.04 0.30 0.54 0.94 1.18 0.82
0.03 0.04 0.04 0.03 0.02 0.02 0.02 0.01 0.01 0.01 0.02 0.02 0.01 0.01 0.02 0.04 0.00 0.00 0.00 0.00 0.00 0.00 0.00 0.00 0.00 0.00 0.00 0.00 0.00 0.00 0.00 0.00 0.00 0.01 0.12 0.16 0.03 0.15 0.24 0.16 0.39 0.91 1.20 0.77 0.45
0.04 0.04 0.04 0.03 0.03 0.03 0.02 0.02 0.02 0.02 0.02 0.02 0.02 0.02 0.02 0.02 0.00 0.00 0.00 0.00 0.00 0.00 0.00 0.00 0.00 0.00 0.00 0.00 0.00 0.00 0.00 0.00 0.00 0.01 0.11 0.03 0.01 0.03 0.08 0.25 0.76 1.55 1.68 0.86 0.56
0.03 0.03 0.03 0.03 0.03 0.02 0.02 0.01 0.02 0.02 0.01 0.02 0.02 0.02 0.02 0.00 0.00 0.00 0.00 0.00 0.00 0.00 0.00 0.00 0.00 0.00 0.00 0.00 0.00 0.00 0.00 0.00 0.00 0.00 0.02 0.05 0.07 0.06 0.31 0.75 0.42 0.36 0.51 0.68 0.79
0.03 0.02 0.03 0.03 0.03 0.02 0.02 0.02 0.02 0.02 0.02 0.02 0.02 0.03 0.01 0.00 0.00 0.00 0.00 0.00 0.00 0.00 0.00 0.00 0.00 0.00 0.00 0.00 0.00 0.00 0.00 0.00 0.01 0.01 0.01 0.01 0.06 0.11 0.25 0.10 0.07 0.18 0.29 0.52 0.58
0.27 0.18 0.13 0.09 0.06 0.05 0.04 0.02 0.02 0.02 0.02 0.02 0.02 0.03 0.00 0.00 0.00 0.00 0.00 0.00 0.00 0.00 0.00 0.00 0.00 0.00 0.00 0.00 0.00 0.00 0.00 0.00 0.02 0.00 0.00 0.00 0.23 0.18 0.54 0.16 0.08 0.05 0.18 0.41 0.34
0.69 0.65 0.54 0.41 0.26 0.15 0.09 0.05 0.03 0.03 0.02 0.02 0.02 0.02 0.00 0.00 0.00 0.00 0.00 0.00 0.00 0.00 0.00 0.00 0.00 0.00 0.00 0.00 0.00 0.00 0.00 0.00 0.00 0.01 0.01 0.04 0.22 0.14 0.13 0.10 0.06 0.02 0.06 0.16 0.09
0.73 0.74 0.61 0.48 0.40 0.28 0.17 0.11 0.08 0.04 0.03 0.03 0.03 0.01 0.00 0.00 0.00 0.00 0.00 0.00 0.00 0.00 0.00 0.00 0.00 0.00 0.00 0.00 0.00 0.00 0.00 0.00 0.00 0.01 0.02 0.11 0.51 0.05 0.05 0.03 0.03 0.02 0.03 0.03 0.09
0.42 0.53 0.59 0.50 0.36 0.23 0.18 0.15 0.09 0.05 0.03 0.02 0.01 0.00 0.00 0.00 0.00 0.00 0.00 0.02 0.00 0.00 0.00 0.00 0.00 0.00 0.00 0.00 0.00 0.00 0.00 0.00 0.00 0.00 0.01 0.05 0.35 0.22 0.07 0.08 0.05 0.01 0.00 0.00 0.00
0.43 0.45 0.45 0.51 0.51 0.49 0.40 0.22 0.11 0.04 0.01 0.00 0.01 0.00 0.00 0.00 0.00 0.00 0.00 0.02 0.01 0.00 0.00 0.00 0.00 0.00 0.00 0.00 0.00 0.00 0.00 0.00 0.02 0.07 0.00 0.00 0.03 0.16 0.19 0.07 0.04 0.01 0.00 0.00 0.00
0.31 0.36 0.40 0.42 0.42 0.50 0.42 0.26 0.10 0.01 0.00 0.00 0.00 0.00 0.00 0.00 0.00 0.00 0.00 0.00 0.00 0.00 0.02 0.00 0.00 0.00 0.00 0.00 0.00 0.00 0.00 0.00 0.00 0.00 0.00 0.00 0.00 0.02 0.14 0.04 0.02 0.03 0.01 0.01 0.00
0.21 0.25 0.24 0.23 0.26 0.23 0.16 0.13 0.05 0.01 0.01 0.00 0.00 0.00 0.00 0.00 0.00 0.00 0.00 0.03 0.02 0.03 0.02 0.02 0.01 0.00 0.00 0.00 0.00 0.00 0.00 0.00 0.00 0.00 0.00 0.00 0.00 0.00 0.02 0.00 0.00 0.00 0.00 0.00 0.00
0.24 0.28 0.24 0.23 0.23 0.17 0.04 0.02 0.00 0.00 0.01 0.00 0.00 0.00 0.00 0.00 0.00 0.00 0.00 0.01 0.03 0.02 0.03 0.03 0.02 0.00 0.00 0.00 0.00 0.00 0.00 0.00 0.00 0.00 0.00 0.00 0.00 0.00 0.00 0.02 0.07 0.01 0.00 0.00 0.00
0.35 0.43 0.37 0.37 0.26 0.04 0.03 0.01 0.00 0.00 0.04 0.00 0.00 0.00 0.00 0.00 0.00 0.00 0.00 0.00 0.01 0.01 0.06 0.09 0.00 0.01 0.01 0.00 0.00 0.00 0.00 0.00 0.00 0.00 0.00 0.00 0.01 0.02 0.01 0.02 0.06 0.01 0.01 0.00 0.00
0.32 0.36 0.30 0.25 0.07 0.05 0.02 0.01 0.01 0.05 0.10 0.00 0.00 0.00 0.00 0.00 0.00 0.00 0.00 0.00 0.01 0.02 0.08 0.10 0.01 0.01 0.00 0.00 0.00 0.01 0.00 0.00 0.00 0.00 0.05 0.02 0.01 0.03 0.02 0.00 0.02 0.01 0.00 0.00 0.00
0.31 0.29 0.40 0.25 0.09 0.02 0.01 0.03 0.07 0.19 0.10 0.00 0.00 0.00 0.00 0.00 0.00 0.00 0.00 0.00 0.02 0.14 0.06 0.01 0.01 0.05 0.02 0.00 0.00 0.00 0.02 0.04 0.03 0.04 0.07 0.01 0.02 0.04 0.03 0.02 0.06 0.08 0.05 0.02 0.02
0.31 0.31 0.37 0.18 0.11 0.03 0.07 0.20 0.29 0.15 0.01 0.00 0.00 0.00 0.00 0.00 0.00 0.00 0.00 0.00 0.02 0.12 0.09 0.03 0.04 0.03 0.00 0.01 0.01 0.01 0.12 0.26 0.27 0.11 0.05 0.03 0.04 0.06 0.07 0.18 0.31 0.31 0.26 0.14 0.11
0.43 0.47 0.36 0.23 0.13 0.15 0.39 0.61 0.35 0.04 0.02 0.01 0.00 0.00 0.00 0.01 0.01 0.01 0.02 0.00 0.00 0.03 0.12 0.17 0.12 0.03 0.06 0.04 0.05 0.05 0.18 0.28 0.36 0.16 0.07 0.04 0.04 0.05 0.13 0.20 0.37 0.61 0.47 0.38 0.24
0.88 0.76 0.67 0.25 0.21 0.40 0.94 1.05 0.15 0.01 0.00 0.00 0.00 0.01 0.03 0.07 0.08 0.03 0.04 0.04 0.02 0.09 0.24 0.16 0.09 0.03 0.04 0.04 0.12 0.22 0.18 0.09 0.38 0.27 0.27 0.10 0.04 0.12 0.23 0.33 0.30 0.43 0.43 0.38 0.32
0.77 0.77 0.48 0.25 0.49 1.12 1.79 0.65 0.03 0.02 0.00 0.00 0.01 0.05 0.09 0.05 0.09 0.13 0.11 0.20 0.13 0.21 0.17 0.25 0.42 0.09 0.05 0.13 0.15 0.22 0.22 0.45 0.60 0.55 0.34 0.21 0.31 0.99 0.98 0.67 0.95 0.83 0.49 0.36 0.31
1.19 1.33 0.47 0.40 1.45 2.74 2.11 0.42 0.00 0.00 0.00 0.00 0.02 0.07 0.09 0.10 0.11 0.16 0.30 0.31 0.44 0.18 0.12 0.11 0.29 0.20 0.22 0.25 0.16 0.22 0.41 0.51 0.50 0.20 0.31 0.56 1.40 1.44 1.74 1.12 0.85 0.47 0.37 0.40 0.31
1.76 1.51 0.62 0.81 2.13 2.01 1.09 0.19 0.01 0.00 0.00 0.00 0.00 0.04 0.13 0.12 0.14 0.19 0.31 0.33 0.34 0.18 0.08 0.11 0.43 0.24 0.16 0.08 0.04 0.18 0.27 0.50 0.77 0.43 0.32 0.53 1.44 1.34 1.22 1.12 0.57 0.10 0.03 0.08 0.24
2.33 1.53 1.48 1.51 1.93 0.92 0.40 0.09 0.03 0.00 0.02 0.03 0.03 0.04 0.08 0.10 0.21 0.13 0.31 0.35 0.52 0.32 0.13 0.36 0.41 0.45 0.40 0.37 0.22 0.40 0.47 0.44 0.79 0.85 0.70 1.02 1.53 1.41 0.88 0.33 0.07 0.03 0.02 0.02 0.09
3.01 2.48 2.72 2.23 1.10 0.50 0.37 0.17 0.07 0.01 0.01 0.05 0.03 0.06 0.11 0.13 0.17 0.17 0.26 0.48 0.76 0.54 0.24 0.66 0.41 0.55 0.33 0.40 0.63 0.64 0.57 0.68 0.80 0.94 0.53 0.79 1.06 1.01 0.58 0.15 0.05 0.05 0.05 0.07 0.10
4.04 1.74 1.07 1.29 0.60 0.48 0.53 0.49 0.21 0.13 0.08 0.05 0.09 0.13 0.18 0.19 0.13 0.10 0.29 0.74 0.96 0.70 0.38 0.62 0.42 0.71 0.52 0.16 0.25 0.52 0.63 0.62 0.92 0.67 0.66 0.69 0.54 0.67 0.92 0.46 0.17 0.14 0.10 0.15 0.17
4.51 0.80 0.43 0.43 0.43 0.75 0.59 0.50 0.33 0.30 0.37 0.23 0.22 0.10 0.15 0.15 0.14 0.22 0.33 0.45 0.71 0.52 0.53 0.65 0.57 0.86 1.01 0.36 0.47 0.65 0.80 0.52 0.73 0.61 0.56 0.39 0.37 0.43 0.62 0.63 0.38 0.26 0.17 0.22 0.25
4.16 0.59 0.56 0.38 0.22 0.59 0.62 0.42 0.52 0.77 0.41 0.18 0.35 0.26 0.21 0.27 0.25 0.16 0.16 0.15 0.22 0.44 0.65 0.78 1.12 1.05 1.11 0.34 0.37 0.71 0.72 0.61 0.50 0.29 0.22 0.29 0.24 0.37 0.64 0.74 0.67 0.48 0.29 0.29 0.27

GFSSW_prec_precacc_144.txt.gz
Total_Precipitation_Accumulation
0.02 0.03 0.02 0.02 0.02 0.01 0.01 0.01 0.01 0.01 0.02 0.02 0.02 0.02 0.03 0.04 0.01 0.00 0.00 0.00 0.00 0.00 0.00 0.00 0.00 0.00 0.00 0.00 0.00 0.00 0.00 0.00 0.00 0.02 0.13 0.21 0.32 0.22 0.08 0.04 0.30 0.54 0.94 1.18 0.82
0.03 0.04 0.04 0.03 0.02 0.02 0.02 0.01 0.01 0.01 0.02 0.02 0.01 0.01 0.02 0.04 0.00 0.00 0.00 0.00 0.00 0.00 0.00 0.00 0.00 0.00 0.00 0.00 0.00 0.00 0.00 0.00 0.00 0.01 0.12 0.16 0.03 0.15 0.24 0.16 0.39 0.91 1.20 0.77 0.45
0.04 0.04 0.04 0.03 0.03 0.03 0.02 0.02 0.02 0.02 0.02 0.02 0.02 0.02 0.02 0.02 0.00 0.00 0.00 0.00 0.00 0.00 0.00 0.00 0.00 0.00 0.00 0.00 0.00 0.00 0.00 0.00 0.00 0.01 0.11 0.03 0.01 0.03 0.08 0.25 0.76 1.55 1.68 0.86 0.56
0.03 0.03 0.03 0.03 0.03 0.02 0.02 0.01 0.02 0.02 0.01 0.02 0.02 0.02 0.02 0.00 0.00 0.00 0.00 0.00 0.00 0.00 0.00 0.00 0.00 0.00 0.00 0.00 0.00 0.00 0.00 0.00 0.00 0.00 0.02 0.05 0.07 0.06 0.31 0.75 0.42 0.36 0.51 0.68 0.79
0.03 0.02 0.03 0.03 0.03 0.02 0.02 0.02 0.02 0.02 0.02 0.02 0.02 0.03 0.01 0.00 0.00 0.00 0.00 0.00 0.00 0.00 0.00 0.00 0.00 0.00 0.00 0.00 0.00 0.00 0.00 0.00 0.01 0.01 0.01 0.01 0.06 0.11 0.25 0.10 0.07 0.18 0.29 0.52 0.58
0.27 0.18 0.13 0.09 0.06 0.05 0.04 0.02 0.02 0.02 0.02 0.02 0.02 0.03 0.00 0.00 0.00 0.00 0.00 0.00 0.00 0.00 0.00 0.00 0.00 0.00 0.00 0.00 0.00 0.00 0.00 0.00 0.02 0.00 0.00 0.00 0.23 0.18 0.54 0.16 0.08 0.05 0.18 0.41 0.34
0.70 0.65 0.54 0.41 0.26 0.15 0.09 0.05 0.03 0.03 0.02 0.02 0.02 0.02 0.00 0.00 0.00 0.00 0.00 0.00 0.00 0.00 0.00 0.00 0.00 0.00 0.00 0.00 0.00 0.00 0.00 0.00 0.00 0.01 0.01 0.04 0.22 0.14 0.13 0.10 0.06 0.02 0.06 0.16 0.09
0.75 0.76 0.62 0.48 0.40 0.28 0.17 0.11 0.08 0.04 0.03 0.03 0.03 0.01 0.00 0.00 0.00 0.00 0.00 0.00 0.00 0.00 0.00 0.00 0.00 0.00 0.00 0.00 0.00 0.00 0.00 0.00 0.00 0.01 0.02 0.11 0.51 0.05 0.05 0.03 0.03 0.02 0.03 0.03 0.09
0.47 0.56 0.62 0.51 0.36 0.23 0.18 0.15 0.09 0.05 0.03 0.02 0.01 0.00 0.00 0.00 0.00 0.00 0.00 0.02 0.00 0.00 0.00 0.00 0.00 0.00 0.00 0.00 0.00 0.00 0.00 0.00 0.00 0.00 0.01 0.05 0.35 0.22 0.07 0.08 0.05 0.01 0.00 0.00 0.00
0.48 0.49 0.48 0.54 0.53 0.50 0.40 0.23 0.12 0.04 0.01 0.00 0.01 0.00 0.00 0.00 0.00 0.00 0.00 0.02 0.01 0.00 0.00 0.00 0.00 0.00 0.00 0.00 0.00 0.00 0.00 0.00 0.02 0.07 0.00 0.00 0.03 0.16 0.19 0.07 0.04 0.01 0.00 0.00 0.00
0.39 0.42 0.45 0.46 0.48 0.59 0.51 0.32 0.12 0.02 0.00 0.00 0.00 0.00 0.00 0.00 0.00 0.00 0.00 0.00 0.00 0.00 0.02 0.00 0.00 0.00 0.00 0.00 0.00 0.00 0.00 0.00 0.00 0.00 0.00 0.00 0.00 0.02 0.14 0.04 0.02 0.03 0.01 0.01 0.00
0.26 0.28 0.27 0.29 0.37 0.35 0.24 0.16 0.07 0.02 0.01 0.00 0.00 0.00 0.00 0.00 0.00 0.00 0.00 0.03 0.02 0.03 0.02 0.02 0.01 0.00 0.00 0.00 0.00 0.00 0.00 0.00 0.00 0.00 0.00 0.00 0.00 0.00 0.02 0.00 0.00 0.00 0.00 0.00 0.00
0.29 0.33 0.28 0.26 0.29 0.21 0.06 0.03 0.02 0.03 0.04 0.00 0.00 0.00 0.00 0.00 0.00 0.00 0.00 0.01 0.03 0.02 0.03 0.03 0.02 0.00 0.00 0.00 0.00 0.00 0.00 0.00 0.00 0.00 0.00 0.00 0.00 0.00 0.00 0.02 0.07 0.01 0.00 0.00 0.00
0.36 0.44 0.40 0.42 0.33 0.06 0.06 0.03 0.04 0.09 0.10 0.00 0.00 0.00 0.00 0.00 0.00 0.00 0.00 0.00 0.01 0.01 0.06 0.09 0.00 0.01 0.01 0.00 0.00 0.00 0.00 0.00 0.00 0.00 0.00 0.00 0.01 0.02 0.01 0.02 0.06 0.01 0.01 0.00 0.00
0.33 0.36 0.32 0.28 0.09 0.07 0.04 0.05 0.13 0.10 0.20 0.01 0.00 0.00 0.00 0.00 0.00 0.00 0.00 0.00 0.01 0.02 0.08 0.10 0.01 0.01 0.00 0.00 0.00 0.01 0.00 0.00 0.00 0.00 0.05 0.02 0.01 0.03 0.02 0.00 0.02 0.01 0.00 0.00 0.00
0.31 0.29 0.43 0.30 0.11 0.04 0.02 0.09 0.12 0.30 0.19 0.00 0.00 0.00 0.00 0.00 0.00 0.00 0.00 0.00 0.02 0.14 0.06 0.01 0.01 0.05 0.02 0.00 0.00 0.00 0.02 0.04 0.03 0.04 0.07 0.01 0.02 0.04 0.03 0.02 0.06 0.08 0.05 0.02 0.02
0.31 0.31 0.39 0.25 0.13 0.04 0.13 0.29 0.36 0.18 0.01 0.00 0.00 0.00 0.00 0.00 0.00 0.00 0.00 0.00 0.02 0.12 0.09 0.03 0.04 0.03 0.00 0.01 0.01 0.01 0.12 0.26 0.27 0.11 0.05 0.03 0.04 0.06 0.07 0.18 0.31 0.31 0.26 0.14 0.11
0.43 0.47 0.37 0.24 0.19 0.26 0.52 0.72 0.49 0.05 0.02 0.01 0.00 0.00 0.00 0.01 0.01 0.01 0.02 0.00 0.00 0.03 0.12 0.17 0.12 0.03 0.06 0.04 0.05 0.05 0.18 0.28 0.36 0.16 0.07 0.04 0.04 0.05 0.13 0.20 0.37 0.61 0.47 0.38 0.24
0.89 0.78 0.67 0.25 0.22 0.52 1.08 1.18 0.19 0.01 0.00 0.00 0.00 0.01 0.03 0.07 0.08 0.03 0.04 0.04 0.02 0.09 0.24 0.16 0.09 0.03 0.04 0.04 0.12 0.22 0.18 0.09 0.38 0.27 0.27 0.10 0.04 0.12 0.23 0.33 0.30 0.43 0.43 0.38 0.32
0.79 0.79 0.48 0.25 0.51 1.27 1.95 0.77 0.04 0.02 0.00 0.00 0.01 0.05 0.09 0.05 0.09 0.13 0.11 0.20 0.13 0.21 0.17 0.25 0.42 0.09 0.05 0.13 0.15 0.22 0.22 0.45 0.60 0.55 0.34 0.21 0.31 0.99 0.99 0.67 0.95 0.83 0.49 0.36 0.31
1.24 1.38 0.47 0.40 1.49 2.92 2.33 0.54 0.01 0.00 0.00 0.00 0.02 0.07 0.09 0.10 0.11 0.16 0.30 0.31 0.44 0.18 0.12 0.11 0.29 0.20 0.22 0.25 0.16 0.22 0.41 0.51 0.50 0.20 0.31 0.56 1.40 1.44 1.74 1.12 0.85 0.47 0.37 0.40 0.31
1.87 1.59 0.63 0.82 2.18 2.13 1.20 0.20 0.01 0.00 0.00 0.00 0.00 0.04 0.13 0.12 0.14 0.19 0.31 0.33 0.34 0.18 0.08 0.11 0.43 0.24 0.16 0.08 0.04 0.18 0.27 0.50 0.77 0.43 0.32 0.53 1.44 1.34 1.22 1.12 0.57 0.10 0.03 0.08 0.24
2.61 1.62 1.60 1.57 1.96 1.00 0.43 0.09 0.03 0.00 0.02 0.04 0.03 0.04 0.08 0.10 0.21 0.13 0.31 0.35 0.52 0.32 0.13 0.36 0.41 0.45 0.40 0.37 0.22 0.40 0.47 0.44 0.79 0.85 0.70 1.03 1.53 1.41 0.88 0.33 0.07 0.03 0.02 0.02 0.09
3.46 2.64 2.82 2.34 1.12 0.53 0.39 0.18 0.07 0.01 0.01 0.05 0.03 0.06 0.11 0.13 0.17 0.17 0.26 0.48 0.76 0.54 0.24 0.66 0.41 0.55 0.33 0.40 0.63 0.64 0.57 0.68 0.80 0.94 0.53 0.79 1.06 1.01 0.58 0.15 0.05 0.05 0.05 0.07 0.10
4.73 2.09 1.15 1.33 0.62 0.49 0.55 0.50 0.22 0.14 0.08 0.05 0.10 0.13 0.18 0.19 0.13 0.11 0.29 0.74 0.96 0.70 0.38 0.62 0.42 0.71 0.52 0.17 0.25 0.52 0.63 0.62 0.92 0.67 0.66 0.69 0.54 0.67 0.92 0.46 0.17 0.14 0.10 0.15 0.17
5.15 1.13 0.51 0.44 0.43 0.75 0.61 0.53 0.35 0.30 0.37 0.23 0.22 0.10 0.15 0.15 0.15 0.26 0.42 0.46 0.71 0.52 0.53 0.65 0.57 0.86 1.01 0.36 0.47 0.65 0.80 0.52 0.73 0.61 0.56 0.39 0.37 0.43 0.62 0.63 0.38 0.26 0.17 0.22 0.25
4.79 0.79 0.76 0.43 0.23 0.61 0.63 0.43 0.53 0.78 0.42 0.18 0.35 0.27 0.22 0.28 0.27 0.18 0.19 0.18 0.23 0.45 0.68 0.80 1.13 1.05 1.12 0.34 0.38 0.73 0.72 0.61 0.50 0.29 0.22 0.29 0.24 0.37 0.64 0.74 0.67 0.48 0.29 0.29 0.27

GFSSW_prec_precacc_147.txt.gz
Total_Precipitation_Accumulation
0.02 0.03 0.02 0.02 0.02 0.01 0.01 0.01 0.01 0.01 0.02 0.02 0.02 0.02 0.03 0.04 0.01 0.00 0.00 0.00 0.00 0.00 0.00 0.00 0.00 0.00 0.00 0.00 0.00 0.00 0.00 0.00 0.00 0.02 0.13 0.21 0.32 0.22 0.08 0.04 0.30 0.54 0.94 1.18 0.82
0.03 0.04 0.04 0.03 0.02 0.02 0.02 0.01 0.01 0.01 0.02 0.02 0.01 0.01 0.02 0.04 0.00 0.00 0.00 0.00 0.00 0.00 0.00 0.00 0.00 0.00 0.00 0.00 0.00 0.00 0.00 0.00 0.00 0.01 0.12 0.16 0.03 0.15 0.24 0.16 0.39 0.91 1.20 0.77 0.45
0.04 0.04 0.04 0.03 0.03 0.03 0.02 0.02 0.02 0.02 0.02 0.02 0.02 0.02 0.02 0.02 0.00 0.00 0.00 0.00 0.00 0.00 0.00 0.00 0.00 0.00 0.00 0.00 0.00 0.00 0.00 0.00 0.00 0.01 0.11 0.03 0.01 0.03 0.08 0.25 0.76 1.55 1.68 0.86 0.56
0.03 0.03 0.03 0.03 0.03 0.02 0.02 0.01 0.02 0.02 0.01 0.02 0.02 0.02 0.02 0.00 0.00 0.00 0.00 0.00 0.00 0.00 0.00 0.00 0.00 0.00 0.00 0.00 0.00 0.00 0.00 0.00 0.00 0.00 0.02 0.05 0.07 0.06 0.31 0.75 0.42 0.36 0.51 0.68 0.79
0.03 0.02 0.03 0.03 0.03 0.02 0.02 0.02 0.02 0.02 0.02 0.02 0.02 0.03 0.01 0.00 0.00 0.00 0.00 0.00 0.00 0.00 0.00 0.00 0.00 0.00 0.00 0.00 0.00 0.00 0.00 0.00 0.01 0.01 0.01 0.01 0.06 0.11 0.25 0.10 0.07 0.18 0.29 0.52 0.58
0.27 0.18 0.13 0.09 0.06 0.05 0.04 0.02 0.02 0.02 0.02 0.02 0.02 0.03 0.00 0.00 0.00 0.00 0.00 0.00 0.00 0.00 0.00 0.00 0.00 0.00 0.00 0.00 0.00 0.00 0.00 0.00 0.02 0.00 0.00 0.00 0.23 0.18 0.54 0.16 0.08 0.05 0.18 0.41 0.34
0.71 0.65 0.54 0.41 0.26 0.15 0.09 0.05 0.03 0.03 0.02 0.02 0.02 0.02 0.00 0.00 0.00 0.00 0.00 0.00 0.00 0.00 0.00 0.00 0.00 0.00 0.00 0.00 0.00 0.00 0.00 0.00 0.00 0.01 0.01 0.04 0.22 0.14 0.13 0.10 0.06 0.02 0.06 0.16 0.09
0.82 0.79 0.64 0.50 0.41 0.29 0.17 0.11 0.08 0.04 0.03 0.03 0.03 0.01 0.00 0.00 0.00 0.00 0.00 0.00 0.00 0.00 0.00 0.00 0.00 0.00 0.00 0.00 0.00 0.00 0.00 0.00 0.00 0.01 0.02 0.11 0.51 0.05 0.05 0.03 0.03 0.02 0.03 0.03 0.09
0.65 0.72 0.74 0.61 0.43 0.26 0.18 0.15 0.09 0.05 0.03 0.02 0.01 0.00 0.00 0.00 0.00 0.00 0.00 0.02 0.00 0.00 0.00 0.00 0.00 0.00 0.00 0.00 0.00 0.00 0.00 0.00 0.00 0.00 0.01 0.05 0.35 0.22 0.07 0.08 0.05 0.01 0.00 0.00 0.00
0.63 0.63 0.63 0.68 0.64 0.57 0.42 0.23 0.12 0.04 0.01 0.00 0.01 0.00 0.00 0.00 0.00 0.00 0.00 0.02 0.01 0.00 0.00 0.00 0.00 0.00 0.00 0.00 0.00 0.00 0.00 0.00 0.02 0.07 0.00 0.00 0.03 0.16 0.19 0.07 0.04 0.01 0.00 0.00 0.00
0.47 0.52 0.55 0.57 0.59 0.67 0.54 0.32 0.12 0.02 0.00 0.00 0.00 0.00 0.00 0.00 0.00 0.00 0.00 0.00 0.00 0.00 0.02 0.00 0.00 0.00 0.00 0.00 0.00 0.00 0.00 0.00 0.00 0.00 0.00 0.00 0.00 0.02 0.14 0.04 0.02 0.03 0.01 0.01 0.00
0.34 0.37 0.37 0.38 0.44 0.45 0.31 0.19 0.10 0.03 0.02 0.00 0.00 0.00 0.00 0.00 0.00 0.00 0.00 0.03 0.02 0.03 0.02 0.02 0.01 0.00 0.00 0.00 0.00 0.00 0.00 0.00 0.00 0.00 0.00 0.00 0.00 0.00 0.02 0.00 0.00 0.00 0.00 0.00 0.00
0.39 0.49 0.47 0.41 0.41 0.33 0.15 0.08 0.04 0.05 0.07 0.01 0.00 0.00 0.00 0.00 0.00 0.00 0.00 0.01 0.03 0.02 0.03 0.03 0.02 0.00 0.00 0.00 0.00 0.00 0.00 0.00 0.00 0.00 0.00 0.00 0.00 0.00 0.00 0.02 0.07 0.01 0.00 0.00 0.00
0.40 0.56 0.51 0.51 0.41 0.14 0.15 0.07 0.10 0.16 0.13 0.01 0.00 0.00 0.00 0.00 0.00 0.00 0.00 0.00 0.01 0.01 0.06 0.09 0.00 0.01 0.01 0.00 0.00 0.00 0.00 0.00 0.00 0.00 0.00 0.00 0.01 0.02 0.01 0.02 0.06 0.01 0.01 0.00 0.00
0.34 0.38 0.35 0.31 0.12 0.08 0.05 0.08 0.28 0.21 0.30 0.01 0.00 0.00 0.00 0.00 0.00 0.00 0.00 0.00 0.01 0.02 0.08 0.10 0.01 0.01 0.00 0.00 0.00 0.01 0.00 0.00 0.00 0.00 0.05 0.02 0.01 0.03 0.02 0.00 0.02 0.01 0.00 0.00 0.00
0.32 0.29 0.45 0.32 0.12 0.07 0.08 0.18 0.21 0.44 0.27 0.00 0.00 0.00 0.00 0.00 0.00 0.00 0.00 0.00 0.02 0.14 0.06 0.01 0.01 0.05 0.02 0.00 0.00 0.00 0.02 0.04 0.03 0.04 0.07 0.01 0.02 0.04 0.03 0.02 0.06 0.08 0.05 0.02 0.02
0.32 0.31 0.39 0.26 0.13 0.06 0.26 0.36 0.47 0.29 0.03 0.00 0.00 0.00 0.00 0.00 0.00 0.00 0.00 0.00 0.02 0.12 0.09 0.03 0.04 0.03 0.00 0.01 0.01 0.01 0.12 0.26 0.27 0.11 0.05 0.03 0.04 0.06 0.07 0.18 0.31 0.31 0.26 0.14 0.11
0.45 0.48 0.37 0.24 0.20 0.29 0.72 0.89 0.60 0.06 0.02 0.01 0.00 0.00 0.00 0.01 0.01 0.01 0.02 0.00 0.00 0.03 0.12 0.18 0.12 0.03 0.06 0.04 0.05 0.05 0.18 0.28 0.36 0.16 0.07 0.04 0.04 0.05 0.13 0.20 0.37 0.61 0.47 0.38 0.24
0.92 0.80 0.68 0.25 0.22 0.54 1.29 1.42 0.25 0.01 0.00 0.00 0.01 0.01 0.03 0.07 0.08 0.03 0.04 0.05 0.02 0.09 0.25 0.16 0.09 0.03 0.04 0.04 0.12 0.22 0.18 0.09 0.38 0.27 0.27 0.10 0.04 0.12 0.23 0.33 0.30 0.43 0.43 0.38 0.32
0.82 0.83 0.48 0.25 0.51 1.32 2.19 0.98 0.05 0.02 0.00 0.00 0.03 0.05 0.09 0.05 0.09 0.13 0.11 0.20 0.13 0.21 0.17 0.25 0.43 0.09 0.05 0.13 0.15 0.22 0.22 0.45 0.60 0.55 0.34 0.21 0.31 0.99 0.99 0.67 0.95 0.83 0.49 0.36 0.31
1.40 1.53 0.49 0.40 1.52 3.01 2.57 0.71 0.01 0.00 0.00 0.00 0.02 0.07 0.09 0.10 0.11 0.16 0.30 0.31 0.44 0.18 0.12 0.11 0.29 0.20 0.22 0.25 0.16 0.22 0.41 0.51 0.50 0.20 0.31 0.56 1.40 1.44 1.74 1.12 0.85 0.47 0.37 0.40 0.31
2.31 1.89 0.65 0.84 2.21 2.16 1.26 0.23 0.01 0.00 0.00 0.00 0.00 0.04 0.13 0.12 0.14 0.19 0.31 0.33 0.34 0.18 0.08 0.11 0.43 0.24 0.16 0.08 0.04 0.18 0.27 0.50 0.77 0.43 0.32 0.53 1.44 1.34 1.22 1.12 0.57 0.10 0.03 0.08 0.24
3.15 1.97 1.68 1.62 1.97 1.01 0.44 0.10 0.03 0.00 0.02 0.04 0.03 0.04 0.08 0.10 0.21 0.13 0.31 0.35 0.52 0.32 0.13 0.36 0.42 0.45 0.41 0.37 0.22 0.40 0.47 0.44 0.79 0.85 0.70 1.03 1.53 1.41 0.88 0.33 0.07 0.03 0.02 0.02 0.09
4.02 3.06 3.00 2.52 1.15 0.53 0.39 0.18 0.07 0.01 0.01 0.05 0.03 0.06 0.11 0.13 0.17 0.17 0.26 0.48 0.76 0.54 0.24 0.66 0.41 0.55 0.33 0.40 0.63 0.64 0.57 0.68 0.80 0.94 0.53 0.79 1.06 1.01 0.58 0.15 0.05 0.05 0.05 0.07 0.10
5.28 2.54 1.38 1.66 0.78 0.50 0.55 0.50 0.22 0.14 0.08 0.05 0.10 0.13 0.18 0.19 0.13 0.11 0.29 0.74 0.96 0.70 0.38 0.62 0.42 0.71 0.52 0.17 0.25 0.52 0.63 0.62 0.92 0.67 0.66 0.69 0.54 0.67 0.92 0.46 0.17 0.14 0.10 0.15 0.17
5.63 1.46 0.73 0.59 0.48 0.77 0.62 0.53 0.35 0.30 0.37 0.23 0.22 0.10 0.15 0.15 0.15 0.26 0.42 0.46 0.72 0.52 0.53 0.65 0.57 0.86 1.01 0.36 0.47 0.65 0.80 0.52 0.73 0.61 0.56 0.39 0.37 0.43 0.62 0.63 0.38 0.26 0.17 0.22 0.25
5.20 1.03 0.94 0.61 0.34 0.68 0.65 0.43 0.53 0.79 0.43 0.18 0.35 0.28 0.24 0.28 0.30 0.19 0.20 0.21 0.26 0.45 0.68 0.80 1.13 1.05 1.12 0.34 0.39 0.76 0.72 0.61 0.50 0.29 0.22 0.29 0.24 0.37 0.64 0.74 0.67 0.48 0.29 0.29 0.27

GFSSW_prec_precacc_150.txt.gz
Total_Precipitation_Accumulation
0.02 0.03 0.02 0.02 0.02 0.01 0.01 0.01 0.01 0.01 0.02 0.02 0.02 0.02 0.03 0.04 0.01 0.00 0.00 0.00 0.00 0.00 0.00 0.00 0.00 0.00 0.00 0.00 0.00 0.00 0.00 0.00 0.00 0.02 0.13 0.21 0.32 0.22 0.08 0.04 0.30 0.54 0.94 1.18 0.82
0.03 0.04 0.04 0.03 0.02 0.02 0.02 0.01 0.01 0.01 0.02 0.02 0.01 0.01 0.02 0.04 0.00 0.00 0.00 0.00 0.00 0.00 0.00 0.00 0.00 0.00 0.00 0.00 0.00 0.00 0.00 0.00 0.00 0.01 0.12 0.16 0.03 0.15 0.24 0.16 0.39 0.91 1.20 0.77 0.45
0.04 0.04 0.04 0.03 0.03 0.03 0.02 0.02 0.02 0.02 0.02 0.02 0.02 0.02 0.02 0.02 0.00 0.00 0.00 0.00 0.00 0.00 0.00 0.00 0.00 0.00 0.00 0.00 0.00 0.00 0.00 0.00 0.00 0.01 0.11 0.03 0.01 0.03 0.08 0.25 0.76 1.55 1.68 0.86 0.56
0.03 0.03 0.03 0.03 0.03 0.02 0.02 0.01 0.02 0.02 0.01 0.02 0.02 0.02 0.02 0.00 0.00 0.00 0.00 0.00 0.00 0.00 0.00 0.00 0.00 0.00 0.00 0.00 0.00 0.00 0.00 0.00 0.00 0.00 0.02 0.05 0.07 0.06 0.31 0.75 0.42 0.36 0.51 0.68 0.79
0.03 0.02 0.03 0.03 0.03 0.02 0.02 0.02 0.02 0.02 0.02 0.02 0.02 0.03 0.01 0.00 0.00 0.00 0.00 0.00 0.00 0.00 0.00 0.00 0.00 0.00 0.00 0.00 0.00 0.00 0.00 0.00 0.01 0.01 0.01 0.01 0.06 0.11 0.25 0.10 0.07 0.18 0.29 0.52 0.58
0.27 0.18 0.13 0.09 0.06 0.05 0.04 0.02 0.02 0.02 0.02 0.02 0.02 0.03 0.00 0.00 0.00 0.00 0.00 0.00 0.00 0.00 0.00 0.00 0.00 0.00 0.00 0.00 0.00 0.00 0.00 0.00 0.02 0.00 0.00 0.00 0.23 0.18 0.54 0.16 0.08 0.05 0.18 0.41 0.34
0.72 0.67 0.55 0.41 0.27 0.15 0.09 0.05 0.03 0.03 0.02 0.02 0.02 0.02 0.00 0.00 0.00 0.00 0.00 0.00 0.00 0.00 0.00 0.00 0.00 0.00 0.00 0.00 0.00 0.00 0.00 0.00 0.00 0.01 0.01 0.04 0.22 0.14 0.13 0.10 0.06 0.02 0.06 0.16 0.09
0.89 0.82 0.66 0.52 0.43 0.30 0.18 0.12 0.08 0.04 0.03 0.03 0.03 0.01 0.00 0.00 0.00 0.00 0.00 0.00 0.00 0.00 0.00 0.00 0.00 0.00 0.00 0.00 0.00 0.00 0.00 0.00 0.00 0.01 0.02 0.11 0.51 0.05 0.05 0.03 0.03 0.02 0.03 0.03 0.09
0.83 0.88 0.85 0.69 0.48 0.30 0.21 0.16 0.10 0.06 0.03 0.02 0.01 0.00 0.00 0.00 0.00 0.00 0.00 0.02 0.00 0.00 0.00 0.00 0.00 0.00 0.00 0.00 0.00 0.00 0.00 0.00 0.00 0.00 0.01 0.05 0.35 0.22 0.07 0.08 0.05 0.01 0.00 0.00 0.00
0.78 0.79 0.77 0.80 0.75 0.65 0.47 0.26 0.14 0.04 0.01 0.00 0.01 0.00 0.00 0.00 0.00 0.00 0.00 0.02 0.01 0.00 0.00 0.00 0.00 0.00 0.00 0.00 0.00 0.00 0.00 0.00 0.02 0.07 0.00 0.00 0.03 0.16 0.19 0.07 0.04 0.01 0.00 0.00 0.00
0.51 0.59 0.62 0.64 0.65 0.72 0.58 0.34 0.13 0.03 0.00 0.00 0.00 0.00 0.00 0.00 0.00 0.00 0.00 0.00 0.00 0.00 0.02 0.00 0.00 0.00 0.00 0.00 0.00 0.00 0.00 0.00 0.00 0.00 0.00 0.00 0.00 0.02 0.14 0.04 0.02 0.03 0.01 0.01 0.00
0.38 0.43 0.43 0.43 0.47 0.48 0.35 0.23 0.15 0.06 0.03 0.00 0.00 0.00 0.00 0.00 0.00 0.00 0.00 0.03 0.02 0.03 0.02 0.02 0.01 0.00 0.00 0.00 0.00 0.00 0.00 0.00 0.00 0.00 0.00 0.00 0.00 0.00 0.02 0.00 0.00 0.00 0.00 0.00 0.00
0.40 0.52 0.54 0.49 0.48 0.41 0.27 0.21 0.12 0.10 0.10 0.01 0.00 0.00 0.00 0.00 0.00 0.00 0.00 0.01 0.03 0.02 0.03 0.03 0.02 0.00 0.00 0.00 0.00 0.00 0.00 0.00 0.00 0.00 0.00 0.00 0.00 0.00 0.00 0.02 0.07 0.01 0.00 0.00 0.00
0.40 0.60 0.67 0.66 0.49 0.23 0.26 0.17 0.19 0.21 0.19 0.01 0.00 0.00 0.00 0.00 0.00 0.00 0.00 0.00 0.01 0.01 0.06 0.09 0.00 0.01 0.01 0.00 0.00 0.00 0.00 0.00 0.00 0.00 0.00 0.00 0.01 0.02 0.01 0.02 0.06 0.01 0.01 0.00 0.00
0.36 0.38 0.42 0.39 0.15 0.11 0.08 0.10 0.32 0.26 0.41 0.01 0.00 0.00 0.00 0.00 0.00 0.00 0.00 0.00 0.01 0.02 0.08 0.10 0.01 0.01 0.00 0.00 0.00 0.01 0.00 0.00 0.00 0.00 0.05 0.02 0.01 0.03 0.02 0.00 0.02 0.01 0.00 0.00 0.00
0.33 0.31 0.46 0.34 0.13 0.08 0.15 0.24 0.28 0.52 0.37 0.00 0.00 0.00 0.00 0.00 0.00 0.00 0.00 0.00 0.02 0.14 0.06 0.01 0.01 0.05 0.02 0.00 0.00 0.00 0.02 0.04 0.03 0.04 0.07 0.01 0.02 0.04 0.03 0.02 0.06 0.08 0.05 0.02 0.02
0.32 0.32 0.40 0.27 0.13 0.07 0.36 0.45 0.58 0.39 0.04 0.00 0.00 0.00 0.00 0.00 0.00 0.00 0.00 0.00 0.03 0.13 0.10 0.03 0.04 0.03 0.00 0.01 0.01 0.01 0.12 0.26 0.27 0.11 0.05 0.03 0.04 0.06 0.07 0.18 0.31 0.31 0.26 0.14 0.11
0.46 0.50 0.38 0.24 0.20 0.30 1.00 1.25 0.73 0.08 0.02 0.01 0.00 0.00 0.00 0.01 0.01 0.01 0.03 0.01 0.01 0.04 0.13 0.19 0.13 0.03 0.06 0.04 0.05 0.05 0.18 0.28 0.36 0.16 0.07 0.04 0.04 0.05 0.13 0.20 0.37 0.61 0.47 0.38 0.24
0.95 0.81 0.68 0.25 0.22 0.55 1.47 1.87 0.38 0.01 0.00 0.00 0.01 0.01 0.03 0.07 0.08 0.04 0.05 0.05 0.02 0.10 0.27 0.21 0.11 0.03 0.04 0.04 0.12 0.22 0.18 0.09 0.38 0.27 0.27 0.10 0.04 0.12 0.23 0.33 0.30 0.43 0.43 0.38 0.32
0.87 0.86 0.49 0.25 0.52 1.34 2.31 1.18 0.09 0.02 0.00 0.00 0.03 0.05 0.09 0.05 0.09 0.13 0.11 0.21 0.13 0.21 0.17 0.26 0.46 0.10 0.05 0.13 0.15 0.22 0.22 0.45 0.61 0.55 0.34 0.21 0.31 0.99 0.99 0.67 0.95 0.83 0.49 0.36 0.31
1.48 1.72 0.52 0.40 1.57 3.06 2.69 0.75 0.02 0.00 0.00 0.00 0.02 0.07 0.09 0.10 0.11 0.16 0.30 0.31 0.44 0.18 0.12 0.11 0.32 0.21 0.22 0.25 0.16 0.22 0.41 0.51 0.51 0.21 0.31 0.56 1.40 1.44 1.74 1.12 0.85 0.47 0.37 0.40 0.31
2.41 2.15 0.71 0.85 2.28 2.17 1.32 0.23 0.01 0.00 0.00 0.00 0.00 0.04 0.13 0.12 0.14 0.19 0.31 0.33 0.34 0.18 0.08 0.11 0.43 0.24 0.16 0.08 0.04 0.18 0.27 0.50 0.78 0.44 0.32 0.53 1.44 1.34 1.22 1.12 0.57 0.10 0.03 0.08 0.24
3.26 2.13 1.74 1.72 2.13 1.06 0.44 0.10 0.03 0.00 0.02 0.04 0.03 0.04 0.08 0.10 0.21 0.13 0.31 0.35 0.52 0.32 0.13 0.36 0.47 0.49 0.41 0.37 0.22 0.40 0.47 0.44 0.79 0.85 0.70 1.03 1.53 1.41 0.88 0.33 0.07 0.03 0.02 0.02 0.09
4.13 3.23 3.07 2.82 1.43 0.57 0.39 0.18 0.07 0.01 0.02 0.05 0.03 0.06 0.11 0.13 0.17 0.17 0.26 0.48 0.76 0.54 0.24 0.66 0.42 0.61 0.36 0.41 0.63 0.64 0.57 0.68 0.80 0.95 0.53 0.79 1.06 1.01 0.58 0.15 0.05 0.05 0.05 0.07 0.10
5.38 2.71 1.46 1.83 1.11 0.69 0.56 0.50 0.22 0.14 0.08 0.06 0.11 0.13 0.18 0.19 0.13 0.11 0.29 0.74 0.96 0.70 0.38 0.62 0.42 0.72 0.53 0.18 0.25 0.52 0.63 0.62 0.92 0.67 0.66 0.69 0.54 0.67 0.92 0.46 0.17 0.14 0.10 0.15 0.17
5.70 1.58 0.82 0.66 0.56 0.90 0.69 0.55 0.35 0.30 0.37 0.23 0.23 0.10 0.15 0.15 0.15 0.26 0.42 0.46 0.72 0.52 0.53 0.65 0.57 0.86 1.02 0.36 0.47 0.65 0.80 0.52 0.73 0.61 0.56 0.39 0.37 0.43 0.62 0.63 0.38 0.26 0.17 0.22 0.25
5.21 1.09 1.19 0.78 0.42 0.76 0.81 0.48 0.53 0.79 0.43 0.18 0.35 0.29 0.25 0.29 0.31 0.20 0.21 0.21 0.26 0.45 0.68 0.80 1.13 1.06 1.13 0.34 0.40 0.78 0.72 0.61 0.50 0.29 0.22 0.29 0.24 0.37 0.64 0.74 0.67 0.48 0.29 0.29 0.27

GFSSW_prec_precacc_153.txt.gz
Total_Precipitation_Accumulation
0.02 0.03 0.02 0.02 0.02 0.01 0.01 0.01 0.01 0.01 0.02 0.02 0.02 0.02 0.03 0.04 0.01 0.00 0.00 0.00 0.00 0.00 0.00 0.00 0.00 0.00 0.00 0.00 0.00 0.00 0.00 0.00 0.00 0.02 0.13 0.21 0.32 0.22 0.08 0.04 0.30 0.54 0.94 1.18 0.82
0.03 0.04 0.04 0.03 0.02 0.02 0.02 0.01 0.01 0.01 0.02 0.02 0.01 0.01 0.02 0.04 0.00 0.00 0.00 0.00 0.00 0.00 0.00 0.00 0.00 0.00 0.00 0.00 0.00 0.00 0.00 0.00 0.00 0.01 0.12 0.16 0.03 0.15 0.24 0.16 0.39 0.91 1.20 0.77 0.45
0.04 0.04 0.04 0.03 0.03 0.03 0.02 0.02 0.02 0.02 0.02 0.02 0.02 0.02 0.02 0.02 0.00 0.00 0.00 0.00 0.00 0.00 0.00 0.00 0.00 0.00 0.00 0.00 0.00 0.00 0.00 0.00 0.00 0.01 0.11 0.03 0.01 0.03 0.08 0.25 0.76 1.55 1.68 0.86 0.56
0.03 0.03 0.03 0.03 0.03 0.02 0.02 0.01 0.02 0.02 0.01 0.02 0.02 0.02 0.02 0.00 0.00 0.00 0.00 0.00 0.00 0.00 0.00 0.00 0.00 0.00 0.00 0.00 0.00 0.00 0.00 0.00 0.00 0.00 0.02 0.05 0.07 0.06 0.31 0.75 0.42 0.36 0.51 0.68 0.79
0.03 0.02 0.03 0.03 0.03 0.02 0.02 0.02 0.02 0.02 0.02 0.02 0.02 0.03 0.01 0.00 0.00 0.00 0.00 0.00 0.00 0.00 0.00 0.00 0.00 0.00 0.00 0.00 0.00 0.00 0.00 0.00 0.01 0.01 0.01 0.01 0.06 0.11 0.25 0.10 0.07 0.18 0.29 0.52 0.58
0.28 0.18 0.13 0.09 0.06 0.05 0.04 0.02 0.02 0.02 0.02 0.02 0.02 0.03 0.00 0.00 0.00 0.00 0.00 0.00 0.00 0.00 0.00 0.00 0.00 0.00 0.00 0.00 0.00 0.00 0.00 0.00 0.02 0.00 0.00 0.00 0.23 0.18 0.54 0.16 0.08 0.05 0.18 0.41 0.34
0.74 0.68 0.55 0.42 0.27 0.15 0.09 0.05 0.03 0.03 0.02 0.02 0.02 0.02 0.00 0.00 0.00 0.00 0.00 0.00 0.00 0.00 0.00 0.00 0.00 0.00 0.00 0.00 0.00 0.00 0.00 0.00 0.00 0.01 0.01 0.04 0.22 0.14 0.13 0.10 0.06 0.02 0.06 0.16 0.09
0.94 0.85 0.68 0.53 0.43 0.31 0.19 0.12 0.09 0.04 0.03 0.03 0.03 0.01 0.00 0.00 0.00 0.00 0.00 0.00 0.00 0.00 0.00 0.00 0.00 0.00 0.00 0.00 0.00 0.00 0.00 0.00 0.00 0.01 0.02 0.11 0.51 0.05 0.05 0.03 0.03 0.02 0.03 0.03 0.09
0.88 0.94 0.90 0.72 0.50 0.31 0.22 0.17 0.10 0.06 0.04 0.02 0.01 0.00 0.00 0.00 0.00 0.00 0.00 0.02 0.00 0.00 0.00 0.00 0.00 0.00 0.00 0.00 0.00 0.00 0.00 0.00 0.00 0.00 0.01 0.05 0.35 0.22 0.07 0.08 0.05 0.01 0.00 0.00 0.00
0.84 0.89 0.86 0.87 0.79 0.67 0.47 0.26 0.14 0.04 0.01 0.00 0.01 0.01 0.00 0.00 0.00 0.00 0.00 0.02 0.01 0.00 0.00 0.00 0.00 0.00 0.00 0.00 0.00 0.00 0.00 0.00 0.02 0.07 0.00 0.00 0.03 0.16 0.19 0.07 0.04 0.01 0.00 0.00 0.00
0.55 0.63 0.68 0.71 0.71 0.75 0.59 0.34 0.14 0.03 0.01 0.00 0.01 0.00 0.00 0.00 0.00 0.00 0.00 0.00 0.00 0.00 0.02 0.00 0.00 0.00 0.00 0.00 0.00 0.00 0.00 0.00 0.00 0.00 0.00 0.00 0.00 0.02 0.14 0.04 0.02 0.03 0.01 0.01 0.00
0.39 0.45 0.48 0.48 0.52 0.51 0.37 0.25 0.16 0.07 0.03 0.00 0.00 0.00 0.00 0.00 0.00 0.00 0.00 0.03 0.02 0.03 0.02 0.02 0.01 0.00 0.00 0.00 0.00 0.00 0.00 0.00 0.00 0.00 0.00 0.00 0.00 0.00 0.02 0.00 0.00 0.00 0.00 0.00 0.00
0.40 0.52 0.55 0.53 0.54 0.44 0.31 0.27 0.19 0.16 0.14 0.01 0.00 0.00 0.00 0.00 0.00 0.00 0.00 0.01 0.03 0.02 0.03 0.03 0.02 0.00 0.00 0.00 0.00 0.00 0.00 0.00 0.00 0.00 0.00 0.00 0.00 0.00 0.00 0.02 0.07 0.01 0.00 0.00 0.00
0.40 0.60 0.69 0.73 0.64 0.25 0.29 0.22 0.27 0.28 0.27 0.01 0.00 0.00 0.00 0.00 0.00 0.00 0.00 0.00 0.01 0.01 0.06 0.09 0.00 0.01 0.01 0.00 0.00 0.00 0.00 0.00 0.00 0.00 0.00 0.00 0.01 0.02 0.01 0.02 0.06 0.01 0.01 0.00 0.00
0.36 0.39 0.45 0.50 0.20 0.12 0.08 0.12 0.37 0.32 0.62 0.02 0.00 0.00 0.00 0.00 0.00 0.00 0.00 0.00 0.01 0.02 0.08 0.10 0.01 0.01 0.00 0.00 0.00 0.01 0.00 0.00 0.00 0.00 0.05 0.02 0.01 0.03 0.02 0.00 0.02 0.01 0.00 0.00 0.00
0.33 0.32 0.47 0.44 0.16 0.09 0.16 0.30 0.38 0.63 0.53 0.00 0.00 0.00 0.00 0.00 0.00 0.00 0.00 0.00 0.02 0.14 0.06 0.01 0.01 0.05 0.02 0.00 0.00 0.00 0.02 0.04 0.03 0.04 0.07 0.01 0.02 0.04 0.03 0.02 0.06 0.08 0.05 0.02 0.02
0.32 0.35 0.43 0.27 0.14 0.07 0.39 0.64 0.79 0.46 0.05 0.00 0.00 0.00 0.00 0.00 0.00 0.00 0.00 0.00 0.03 0.13 0.10 0.03 0.04 0.03 0.00 0.01 0.01 0.01 0.12 0.26 0.27 0.11 0.05 0.03 0.04 0.06 0.07 0.18 0.31 0.31 0.26 0.14 0.11
0.46 0.51 0.40 0.25 0.20 0.31 1.12 1.48 0.96 0.09 0.02 0.01 0.00 0.00 0.00 0.01 0.01 0.01 0.03 0.01 0.01 0.04 0.14 0.19 0.13 0.03 0.06 0.04 0.05 0.05 0.18 0.28 0.37 0.16 0.07 0.04 0.04 0.05 0.13 0.20 0.37 0.61 0.47 0.38 0.24
0.95 0.82 0.68 0.25 0.23 0.55 1.63 2.17 0.49 0.01 0.00 0.00 0.01 0.02 0.03 0.07 0.08 0.04 0.05 0.05 0.02 0.10 0.31 0.27 0.12 0.03 0.04 0.04 0.12 0.23 0.18 0.09 0.40 0.32 0.29 0.10 0.04 0.12 0.23 0.33 0.30 0.43 0.43 0.38 0.32
0.88 0.90 0.49 0.25 0.52 1.37 2.53 1.34 0.10 0.02 0.00 0.00 0.03 0.05 0.09 0.05 0.09 0.13 0.12 0.21 0.13 0.22 0.21 0.28 0.47 0.10 0.05 0.13 0.15 0.24 0.23 0.48 0.72 0.63 0.37 0.21 0.31 0.99 0.99 0.67 0.95 0.83 0.49 0.36 0.31
1.49 1.77 0.53 0.40 1.62 3.13 2.82 0.81 0.02 0.00 0.00 0.00 0.02 0.07 0.09 0.10 0.11 0.16 0.30 0.31 0.44 0.19 0.14 0.15 0.34 0.22 0.22 0.25 0.16 0.22 0.42 0.60 0.65 0.27 0.34 0.57 1.40 1.44 1.74 1.12 0.85 0.47 0.37 0.40 0.31
2.44 2.24 0.72 0.88 2.42 2.33 1.34 0.24 0.01 0.00 0.00 0.00 0.00 0.04 0.13 0.12 0.14 0.19 0.31 0.33 0.34 0.18 0.09 0.13 0.47 0.25 0.16 0.08 0.04 0.18 0.27 0.51 0.81 0.47 0.33 0.53 1.44 1.34 1.22 1.12 0.57 0.10 0.03 0.08 0.24
3.27 2.16 1.77 1.84 2.33 1.25 0.48 0.10 0.03 0.00 0.02 0.04 0.04 0.04 0.08 0.10 0.21 0.13 0.31 0.35 0.52 0.32 0.13 0.36 0.49 0.50 0.41 0.37 0.22 0.40 0.47 0.45 0.79 0.88 0.77 1.05 1.54 1.41 0.88 0.33 0.07 0.03 0.02 0.02 0.09
4.14 3.24 3.09 2.89 1.63 0.74 0.46 0.19 0.07 0.01 0.02 0.06 0.03 0.06 0.11 0.13 0.17 0.17 0.26 0.48 0.76 0.54 0.24 0.66 0.42 0.61 0.36 0.41 0.63 0.64 0.57 0.68 0.82 1.00 0.56 0.81 1.06 1.01 0.58 0.15 0.05 0.05 0.05 0.07 0.10
5.38 2.71 1.48 1.88 1.14 0.77 0.69 0.57 0.22 0.14 0.08 0.07 0.12 0.14 0.18 0.19 0.13 0.11 0.29 0.74 0.96 0.70 0.39 0.63 0.43 0.72 0.53 0.18 0.26 0.53 0.63 0.62 0.93 0.67 0.67 0.70 0.54 0.67 0.92 0.46 0.17 0.14 0.10 0.15 0.17
5.70 1.58 0.82 0.70 0.59 1.02 0.82 0.66 0.36 0.30 0.37 0.23 0.25 0.10 0.16 0.16 0.16 0.26 0.42 0.46 0.72 0.52 0.53 0.65 0.58 0.87 1.02 0.36 0.48 0.68 0.81 0.52 0.73 0.61 0.56 0.39 0.37 0.43 0.62 0.63 0.38 0.26 0.17 0.22 0.25
5.21 1.09 1.20 0.79 0.44 0.82 0.90 0.56 0.55 0.79 0.43 0.18 0.35 0.29 0.27 0.29 0.31 0.20 0.22 0.21 0.26 0.45 0.68 0.80 1.13 1.06 1.14 0.34 0.44 0.86 0.72 0.61 0.50 0.29 0.22 0.29 0.24 0.37 0.64 0.74 0.67 0.48 0.29 0.29 0.27